TYPHOON CALOY (CHANCHU/02W/0601) :: POST-OBSERVATION RAW DATA >>
-------------------------------------------------------------------------------------
Station: Typhoon2000.com AUTOMATED WEATHER STATION (AWS) | DAVIS WIRELESS VANTAGE PRO 
Location: San Felipe, Naga City, Philippines
Lat/Lon: 1338'24"N / 12312'27"E 
Start Data Run: 12:00 AM local time (16:00 GMT) 05/11/06
End Data Run: 12:00 AM local time (16:00 GMT) 05/14/06
View: Graphical Strip Chart Version
=====================================================================================

                  Temp     Hi    Low   Out    Dew  Wind  Wind  Wind    Hi    Hi   Wind   Heat    THW                Rain    Heat    Cool    In     In    In     In   Wind  Wind    ISS   Arc.
  Date    Time     Out   Temp   Temp   Hum    Pt. Speed   Dir   Run Speed   Dir  Chill  Index  Index   Bar    Rain  Rate    D-D     D-D    Temp   Hum    Dew   Heat  Samp   Tx   Recept  Int.
-----------------------------------------------------------------------------------------------------------------------------------------------------------------------------------------------
 5/11/06 12:00a   26.6   26.6   26.6    82   23.2   3.2   NNW  0.27   4.8   NNW   26.6   29.2   29.2  1008.5  0.00   0.0   0.000   0.029   30.6    71   24.7   36.7   114    1    100.0    5 
 5/11/06 12:05a   26.5   26.6   26.5    83   23.4   3.2   NNW  0.27   8.0     N   26.5   29.2   29.2  1008.5  0.00   0.0   0.000   0.028   30.6    71   24.7   36.6   112    1     98.2    5 
 5/11/06 12:10a   26.5   26.5   26.5    83   23.4   3.2   NNW  0.27   4.8   NNW   26.5   29.2   29.2  1008.5  0.00   0.0   0.000   0.028   30.6    71   24.7   36.6   115    1    100.0    5 
 5/11/06 12:15a   26.5   26.5   26.5    83   23.4   4.8     N  0.40  11.3   NNE   26.5   29.2   29.2  1008.1  0.00   0.0   0.000   0.028   30.6    72   24.9   36.8   114    1    100.0    5 
 5/11/06 12:20a   26.5   26.5   26.5    83   23.4   6.4     N  0.54  17.7   NNE   26.5   29.2   29.2  1008.1  0.00   0.0   0.000   0.028   30.6    71   24.7   36.6   114    1    100.0    5 
 5/11/06 12:25a   26.6   26.6   26.5    82   23.2   8.0     N  0.67  12.9   NNE   26.6   29.2   29.2  1008.1  0.00   0.0   0.000   0.029   30.6    71   24.7   36.6   114    1    100.0    5 
 5/11/06 12:30a   26.6   26.6   26.6    82   23.2   6.4     N  0.54  12.9   NNE   26.6   29.2   29.2  1008.2  0.00   0.0   0.000   0.029   30.5    72   24.9   36.7   113    1     99.1    5 
 5/11/06 12:35a   26.6   26.6   26.6    82   23.2   6.4   NNE  0.54  12.9   NNE   26.6   29.2   29.2  1008.2  0.00   0.0   0.000   0.029   30.4    72   24.8   36.6   114    1    100.0    5 
 5/11/06 12:40a   26.6   26.7   26.6    82   23.3   6.4     N  0.54  12.9   NNE   26.6   29.3   29.3  1008.2  0.00   0.0   0.000   0.029   30.4    72   24.8   36.6   114    1    100.0    5 
 5/11/06 12:45a   26.7   26.7   26.7    82   23.3   8.0   NNE  0.67  12.9   NNW   26.7   29.4   29.4  1008.2  0.00   0.0   0.000   0.029   30.4    72   24.8   36.6   113    1     99.1    5 
 5/11/06 12:50a   26.7   26.7   26.7    82   23.3   6.4     N  0.54  16.1     N   26.7   29.4   29.4  1008.2  0.00   0.0   0.000   0.029   30.4    72   24.8   36.6   114    1    100.0    5 
 5/11/06 12:55a   26.7   26.7   26.7    82   23.3   6.4   NNE  0.54  11.3   NNE   26.7   29.4   29.4  1008.2  0.00   0.0   0.000   0.029   30.4    72   24.8   36.6   114    1    100.0    5 
 5/11/06  1:00a   26.7   26.7   26.7    82   23.3   4.8   NNE  0.40  12.9    NE   26.7   29.4   29.4  1008.1  0.00   0.0   0.000   0.029   30.4    72   24.8   36.6   114    1    100.0    5 
 5/11/06  1:05a   26.7   26.8   26.7    82   23.4   8.0   NNE  0.67  14.5   NNE   26.7   29.5   29.5  1008.1  0.00   0.0   0.000   0.029   30.4    72   24.8   36.4   114    1    100.0    5 
 5/11/06  1:10a   26.8   26.8   26.8    82   23.4   8.0    NE  0.67  16.1     N   26.8   29.7   29.7  1008.1  0.00   0.0   0.000   0.029   30.4    73   25.0   36.7   114    1    100.0    5 
 5/11/06  1:15a   26.8   26.8   26.8    82   23.4   6.4   NNE  0.54  11.3     N   26.8   29.7   29.7  1008.0  0.00   0.0   0.000   0.029   30.3    73   24.9   36.6   114    1    100.0    5 
 5/11/06  1:20a   26.8   26.8   26.8    83   23.6   6.4   NNE  0.54  11.3     N   26.8   29.8   29.8  1008.0  0.00   0.0   0.000   0.029   30.3    73   24.9   36.6   114    1    100.0    5 
 5/11/06  1:25a   26.7   26.8   26.7    83   23.6   4.8     N  0.40  12.9   NNE   26.7   29.7   29.7  1008.0  0.00   0.0   0.000   0.029   30.3    73   24.9   36.4   114    1    100.0    5 
 5/11/06  1:30a   26.7   26.7   26.7    83   23.5   4.8   NNE  0.40  11.3     N   26.7   29.6   29.6  1007.8  0.00   0.0   0.000   0.029   30.2    74   25.1   36.5   114    1    100.0    5 
 5/11/06  1:35a   26.7   26.7   26.7    84   23.7   4.8   NNE  0.40  11.3     N   26.7   29.7   29.7  1007.8  0.00   0.0   0.000   0.029   30.2    74   25.1   36.5   114    1    100.0    5 
 5/11/06  1:40a   26.7   26.7   26.7    84   23.7   4.8     N  0.40  11.3   NNE   26.7   29.7   29.7  1007.8  0.00   0.0   0.000   0.029   30.2    74   25.1   36.5   114    1    100.0    5 
 5/11/06  1:45a   26.7   26.7   26.7    84   23.7   4.8     N  0.40  11.3   NNE   26.7   29.7   29.7  1007.6  0.00   0.0   0.000   0.029   30.2    75   25.2   36.6   108    1     94.7    5 
 5/11/06  1:50a   26.7   26.8   26.7    84   23.7   4.8   NNE  0.40  11.3   NNE   26.7   29.7   29.7  1007.6  0.00   0.0   0.000   0.029   30.1    75   25.1   36.3    83    1     72.8    5 
 5/11/06  1:55a   26.8   26.8   26.7    84   23.8   6.4   NNE  0.54  12.9   NNE   26.8   29.9   29.9  1007.6  0.00   0.0   0.000   0.029   29.9    76   25.3   36.2   114    1    100.0    5 
 5/11/06  2:00a   26.8   26.8   26.8    84   23.8   4.8     N  0.40  11.3   NNE   26.8   29.9   29.9  1007.3  0.00   0.0   0.000   0.029   29.8    76   25.1   35.9   114    1    100.0    5 
 5/11/06  2:05a   26.8   26.9   26.8    84   23.9   8.0     N  0.67  16.1     N   26.8   30.0   30.0  1007.3  0.00   0.0   0.000   0.030   29.7    77   25.3   35.8   114    1    100.0    5 
 5/11/06  2:10a   26.9   27.0   26.9    84   24.0   8.0   NNE  0.67  16.1   NNE   26.9   30.3   30.3  1007.3  0.00   0.0   0.000   0.030   29.7    78   25.4   35.9   113    1     99.1    5 
 5/11/06  2:15a   27.1   27.1   27.0    83   24.0   6.4   NNE  0.54  12.9   NNE   27.1   30.5   30.5  1007.4  0.00   0.0   0.000   0.030   29.6    78   25.4   35.8   114    1    100.0    5 
 5/11/06  2:20a   27.2   27.2   27.1    83   24.1   8.0   NNE  0.67  14.5   NNE   27.2   30.7   30.7  1007.4  0.00   0.0   0.000   0.031   29.6    78   25.3   35.7   114    1    100.0    5 
 5/11/06  2:25a   27.2   27.3   27.2    83   24.1   9.7    NE  0.80  19.3   NNE   27.2   30.7   30.7  1007.4  0.00   0.0   0.000   0.031   29.6    79   25.5   35.8   114    1    100.0    5 
 5/11/06  2:30a   27.1   27.2   27.0    83   23.9   8.0   NNE  0.67  16.1   NNE   27.1   30.3   30.3  1007.1  0.00   0.0   0.000   0.030   29.4    79   25.4   35.6   114    1    100.0    5 
 5/11/06  2:35a   26.9   26.9   26.8    83   23.8   6.4   NNE  0.54  11.3   NNE   26.9   30.0   30.0  1007.1  0.00   0.0   0.000   0.030   29.4    79   25.4   35.6   114    1    100.0    5 
 5/11/06  2:40a   26.8   26.8   26.8    84   23.8   6.4   NNE  0.54  12.9   NNE   26.8   29.9   29.9  1007.1  0.00   0.0   0.000   0.029   29.4    79   25.4   35.5   114    1    100.0    5 
 5/11/06  2:45a   26.7   26.8   26.7    84   23.7   3.2    NE  0.27   9.7   NNE   26.7   29.7   29.7  1007.1  0.00   0.0   0.000   0.029   29.3    79   25.3   35.4   114    1    100.0    5 
 5/11/06  2:50a   26.6   26.7   26.6    85   23.8   3.2   NNE  0.27   9.7   NNE   26.6   29.6   29.6  1007.1  0.00   0.0   0.000   0.029   29.2    80   25.4   35.3   114    1    100.0    5 
 5/11/06  2:55a   26.5   26.6   26.5    86   24.0   4.8   NNE  0.40  12.9     N   26.5   29.6   29.6  1007.1  0.00   0.0   0.000   0.028   29.2    80   25.4   35.3   114    1    100.0    5 
 5/11/06  3:00a   26.4   26.5   26.4    86   23.9   8.0    NE  0.67  12.9   NNE   26.4   29.5   29.5  1007.1  0.00   0.0   0.000   0.028   29.2    80   25.4   35.3   114    1    100.0    5 
 5/11/06  3:05a   26.3   26.4   26.3    86   23.8   8.0    NE  0.67  16.1   NNE   26.3   29.3   29.3  1007.1  0.00   0.0   0.000   0.028   29.1    81   25.5   35.3   114    1    100.0    5 
 5/11/06  3:10a   26.2   26.3   26.2    87   23.9   6.4   NNE  0.54  12.9   NNE   26.2   29.2   29.2  1007.1  0.00   0.0   0.000   0.027   29.1    81   25.5   35.3   114    1    100.0    5 
 5/11/06  3:15a   26.2   26.2   26.2    88   24.0   8.0     N  0.67  17.7     N   26.2   29.2   29.2  1007.1  0.00   0.0   0.000   0.027   29.1    81   25.5   35.2   114    1    100.0    5 
 5/11/06  3:20a   26.1   26.2   26.1    88   23.9   4.8     N  0.40  17.7   NNE   26.1   28.9   28.9  1007.1  0.00   0.0   0.000   0.027   29.0    81   25.4   35.1   113    1     99.1    5 
 5/11/06  3:25a   26.1   26.1   26.1    89   24.1   4.8     N  0.40   9.7   NNW   26.1   29.1   29.1  1007.1  0.00   0.0   0.000   0.027   29.0    81   25.4   35.1   114    1    100.0    5 
 5/11/06  3:30a   26.1   26.1   26.1    89   24.1   4.8     N  0.40  11.3   NNW   26.1   29.1   29.1  1006.9  0.00   0.0   0.000   0.027   28.9    82   25.6   35.2   114    1    100.0    5 
 5/11/06  3:35a   25.9   26.1   25.9    89   24.0   6.4     N  0.54  12.9     N   25.9   28.8   28.8  1006.9  0.00   0.0   0.000   0.026   28.9    82   25.5   35.1   114    1    100.0    5 
 5/11/06  3:40a   25.9   25.9   25.9    89   24.0   6.4     N  0.54  12.9     N   25.9   28.8   28.8  1006.9  0.00   0.0   0.000   0.026   28.9    82   25.5   35.1   114    1    100.0    5 
 5/11/06  3:45a   25.9   25.9   25.8    89   23.9   6.4     N  0.54  12.9   NNE   25.9   28.8   28.8  1006.7  0.00   0.0   0.000   0.026   28.9    82   25.5   35.1   114    1    100.0    5 
 5/11/06  3:50a   25.8   25.8   25.8    89   23.9   8.0     N  0.67  12.9     N   25.8   28.7   28.7  1006.7  0.00   0.0   0.000   0.026   28.8    82   25.4   34.8   114    1    100.0    5 
 5/11/06  3:55a   25.8   25.8   25.8    89   23.9   8.0   NNE  0.67  14.5   NNE   25.8   28.7   28.7  1006.7  0.00   0.0   0.000   0.026   28.8    82   25.4   34.8   114    1    100.0    5 
 5/11/06  4:00a   25.8   25.8   25.8    89   23.9   4.8   NNE  0.40   8.0     N   25.8   28.7   28.7  1006.7  0.00   0.0   0.000   0.026   28.8    82   25.4   34.8   114    1    100.0    5 
 5/11/06  4:05a   25.8   25.8   25.8    88   23.7   3.2   NNE  0.27   9.7   NNE   25.8   28.6   28.6  1006.7  0.00   0.0   0.000   0.026   28.8    82   25.4   34.8   113    1     99.1    5 
 5/11/06  4:10a   25.8   25.8   25.8    88   23.7   3.2     N  0.27   8.0     N   25.8   28.6   28.6  1006.7  0.00   0.0   0.000   0.026   28.8    82   25.4   34.8   114    1    100.0    5 
 5/11/06  4:15a   25.8   25.8   25.8    88   23.7   4.8     N  0.40  11.3   NNE   25.8   28.6   28.6  1006.6  0.00   0.0   0.000   0.026   28.7    82   25.3   34.4   114    1    100.0    5 
 5/11/06  4:20a   25.8   25.8   25.8    88   23.7   4.8     N  0.40   9.7   NNE   25.8   28.6   28.6  1006.6  0.00   0.0   0.000   0.026   28.7    82   25.3   34.4   114    1    100.0    5 
 5/11/06  4:25a   25.8   25.8   25.8    88   23.7   6.4     N  0.54  11.3   NNE   25.8   28.6   28.6  1006.6  0.00   0.0   0.000   0.026   28.7    82   25.3   34.4   114    1    100.0    5 
 5/11/06  4:30a   25.8   25.8   25.8    88   23.7   6.4   NNE  0.54  12.9     N   25.8   28.6   28.6  1006.5  0.00   0.0   0.000   0.026   28.7    82   25.3   34.4   114    1    100.0    5 
 5/11/06  4:35a   25.9   25.9   25.8    88   23.7   8.0   NNE  0.67  19.3   NNE   25.9   28.7   28.7  1006.5  0.00   0.0   0.000   0.026   28.6    82   25.2   34.1   114    1    100.0    5 
 5/11/06  4:40a   26.1   26.2   25.9    88   23.9  12.9   NNE  1.07  27.4   NNE   25.8   28.9   28.7  1006.5  0.00   0.0   0.000   0.027   28.6    83   25.4   34.3   114    1    100.0    5 
 5/11/06  4:45a   26.0   26.1   25.8    87   23.7  14.5     N  1.21  27.4   NNE   25.4   28.8   28.2  1006.9  0.25   7.4   0.000   0.027   28.6    83   25.4   34.3   114    1    100.0    5 
 5/11/06  4:50a   25.8   25.8   25.8    88   23.7  12.9     N  1.07  22.5    NE   25.6   28.6   28.3  1006.9  0.51   8.9   0.000   0.026   28.6    82   25.2   34.1   114    1    100.0    5 
 5/11/06  4:55a   25.9   25.9   25.8    88   23.7  11.3   NNE  0.94  22.5   NNE   25.9   28.7   28.7  1006.9  0.00   1.8   0.000   0.026   28.6    82   25.2   34.1   114    1    100.0    5 
 5/11/06  5:00a   25.9   25.9   25.9    89   24.0   9.7     N  0.80  20.9     N   25.9   28.8   28.8  1007.1  0.00   1.3   0.000   0.026   28.6    82   25.2   34.3   114    1    100.0    5 
 5/11/06  5:05a   25.9   25.9   25.9    89   24.0   8.0   NNE  0.67  17.7     N   25.9   28.8   28.8  1007.1  0.00   0.0   0.000   0.026   28.7    83   25.5   34.6   114    1    100.0    5 
 5/11/06  5:10a   25.9   25.9   25.9    89   24.0   6.4    NE  0.54  12.9   NNE   25.9   28.8   28.8  1007.1  0.00   0.0   0.000   0.026   28.8    82   25.4   34.8   114    1    100.0    5 
 5/11/06  5:15a   25.9   25.9   25.9    90   24.2   8.0   NNE  0.67  12.9   NNE   25.9   28.9   28.9  1007.4  0.00   0.0   0.000   0.026   28.8    82   25.4   34.8   114    1    100.0    5 
 5/11/06  5:20a   25.9   25.9   25.9    90   24.2   8.0   NNE  0.67  11.3   NNE   25.9   28.9   28.9  1007.4  0.00   0.0   0.000   0.026   28.8    82   25.4   34.8   114    1    100.0    5 
 5/11/06  5:25a   25.9   25.9   25.8    90   24.1   6.4   NNE  0.54  11.3    NE   25.9   28.8   28.8  1007.4  0.00   0.0   0.000   0.026   28.9    82   25.5   35.1   114    1    100.0    5 
 5/11/06  5:30a   25.8   25.9   25.8    90   24.1   6.4   NNE  0.54  12.9     N   25.8   28.8   28.8  1007.7  0.00   0.0   0.000   0.026   28.9    82   25.5   35.1   114    1    100.0    5 
 5/11/06  5:35a   25.8   25.8   25.8    90   24.1   6.4   NNE  0.54  11.3   NNE   25.8   28.8   28.8  1007.7  0.00   0.0   0.000   0.026   29.0    82   25.6   35.3   114    1    100.0    5 
 5/11/06  5:40a   25.8   25.8   25.8    90   24.1   6.4   NNE  0.54  12.9     N   25.8   28.8   28.8  1007.7  0.00   0.0   0.000   0.026   29.0    82   25.6   35.3   114    1    100.0    5 
 5/11/06  5:45a   25.9   25.9   25.8    90   24.1   4.8   NNE  0.40  11.3     N   25.9   28.8   28.8  1007.8  0.00   0.0   0.000   0.026   29.1    82   25.7   35.6   114    1    100.0    5 
 5/11/06  5:50a   25.9   25.9   25.9    90   24.2   6.4   NNE  0.54  11.3   NNE   25.9   28.9   28.9  1007.8  0.00   0.0   0.000   0.026   29.1    82   25.7   35.6   113    1     99.1    5 
 5/11/06  5:55a   25.9   25.9   25.9    90   24.2   6.4   NNE  0.54  12.9   NNE   25.9   28.9   28.9  1007.8  0.00   0.0   0.000   0.026   29.2    81   25.6   35.6   113    1     99.1    5 
 5/11/06  6:00a   25.9   25.9   25.9    90   24.2   6.4     N  0.54  12.9   NNE   25.9   28.9   28.9  1008.0  0.00   0.0   0.000   0.026   29.2    81   25.6   35.6   113    1     99.1    5 
 5/11/06  6:05a   26.1   26.1   25.9    89   24.1   6.4   NNE  0.54  11.3     N   26.1   29.1   29.1  1008.0  0.00   0.0   0.000   0.027   29.2    81   25.6   35.6   114    1    100.0    5 
 5/11/06  6:10a   26.1   26.2   26.1    89   24.2   4.8   NNE  0.40  11.3   NNE   26.1   29.2   29.2  1008.0  0.00   0.0   0.000   0.027   29.3    81   25.7   35.8   113    1     99.1    5 
 5/11/06  6:15a   26.2   26.3   26.2    89   24.2   4.8     N  0.40  11.3   NNE   26.2   29.3   29.3  1008.1  0.00   0.0   0.000   0.027   29.3    81   25.7   35.8   114    1    100.0    5 
 5/11/06  6:20a   26.3   26.3   26.3    89   24.3   3.2     N  0.27   8.0   NNE   26.3   29.5   29.5  1008.1  0.00   0.0   0.000   0.028   29.3    81   25.7   35.8   111    1     97.4    5 
 5/11/06  6:25a   26.3   26.4   26.3    89   24.4   1.6   NNE  0.13   6.4   NNE   26.3   29.6   29.6  1008.1  0.00   0.0   0.000   0.028   29.4    81   25.8   36.0   113    1     99.1    5 
 5/11/06  6:30a   26.4   26.5   26.4    89   24.4   1.6     N  0.13   4.8   NNE   26.4   29.7   29.7  1007.9  0.00   0.0   0.000   0.028   29.4    81   25.8   36.0   113    1     99.1    5 
 5/11/06  6:35a   26.5   26.6   26.5    90   24.7   3.2     N  0.27   9.7     N   26.5   30.1   30.1  1007.9  0.00   0.0   0.000   0.028   29.4    81   25.8   36.0   114    1    100.0    5 
 5/11/06  6:40a   26.6   26.7   26.6    90   24.8   4.8     N  0.40   9.7   NNE   26.6   30.2   30.2  1007.9  0.00   0.0   0.000   0.029   29.6    81   25.9   36.3   114    1    100.0    5 
 5/11/06  6:45a   26.7   26.8   26.7    90   24.9   4.8     N  0.40   9.7   NNE   26.7   30.6   30.6  1008.0  0.00   0.0   0.000   0.029   29.6    81   25.9   36.3   113    1     99.1    5 
 5/11/06  6:50a   26.9   27.0   26.8    90   25.2   4.8     N  0.40   9.7     N   26.9   31.1   31.1  1008.0  0.00   0.0   0.000   0.030   29.6    81   25.9   36.3   113    1     99.1    5 
 5/11/06  6:55a   27.2   27.3   27.1    89   25.2   6.4     N  0.54  11.3     N   27.2   31.6   31.6  1008.0  0.00   0.0   0.000   0.031   29.7    81   26.1   36.6   114    1    100.0    5 
 5/11/06  7:00a   27.3   27.5   27.3    89   25.4   9.7   NNE  0.80  20.9   NNE   27.3   31.9   31.9  1007.8  0.00   0.0   0.000   0.031   29.7    82   26.3   36.8   113    1     99.1    5 
 5/11/06  7:05a   27.6   27.8   27.5    88   25.4  11.3     N  0.94  22.5     N   27.6   32.6   32.6  1007.8  0.00   0.0   0.000   0.032   29.7    82   26.3   36.8   114    1    100.0    5 
 5/11/06  7:10a   27.9   27.9   27.8    87   25.5   9.7   NNE  0.80  22.5   NNE   27.9   33.1   33.1  1007.8  0.00   0.0   0.000   0.033   29.8    82   26.4   37.1   114    1    100.0    5 
 5/11/06  7:15a   28.1   28.3   27.9    85   25.3  12.9     N  1.07  22.5     N   27.9   33.3   33.2  1007.9  0.00   0.0   0.000   0.034   29.8    83   26.6   37.3   113    1     99.1    5 
 5/11/06  7:20a   28.4   28.7   28.3    83   25.3  12.9     N  1.07  25.7   NNE   28.3   33.9   33.8  1007.9  0.00   0.0   0.000   0.035   29.8    83   26.6   37.3   114    1    100.0    5 
 5/11/06  7:25a   28.8   28.8   28.7    83   25.6  11.3   NNE  0.94  17.7     N   28.8   34.9   34.9  1007.9  0.00   0.0   0.000   0.036   29.9    83   26.7   37.6   114    1    100.0    5 
 5/11/06  7:30a   28.8   28.9   28.8    82   25.5  12.9     N  1.07  25.7   NNE   28.7   34.9   34.8  1008.1  0.00   0.0   0.000   0.036   29.9    83   26.7   37.6   114    1    100.0    5 
 5/11/06  7:35a   28.9   28.9   28.9    81   25.3  16.1   NNE  1.34  27.4   NNE   28.3   34.9   34.3  1008.1  0.00   0.0   0.000   0.037   29.9    83   26.7   37.8   114    1    100.0    5 
 5/11/06  7:40a   28.8   28.9   28.8    81   25.2  14.5     N  1.21  30.6    NW   28.4   34.7   34.3  1008.1  0.00   0.0   0.000   0.036   30.0    83   26.8   37.9   114    1    100.0    5 
 5/11/06  7:45a   28.9   28.9   28.8    81   25.3  12.9   NNE  1.07  25.7   NNE   28.7   34.9   34.7  1008.2  0.00   0.0   0.000   0.037   30.1    83   26.9   38.3   113    1     99.1    5 
 5/11/06  7:50a   29.0   29.0   29.0    80   25.2  16.1   NNE  1.34  29.0   NNE   28.4   34.9   34.3  1008.2  0.00   0.0   0.000   0.037   30.1    83   26.9   38.3   111    1     97.4    5 
 5/11/06  7:55a   29.1   29.2   29.0    79   25.1  16.1   NNE  1.34  33.8   NNE   28.6   34.9   34.4  1008.2  0.00   0.0   0.000   0.037   30.2    83   27.0   38.8   114    1    100.0    5 
 5/11/06  8:00a   29.3   29.3   29.2    79   25.3  16.1   NNE  1.34  27.4   NNE   28.7   35.3   34.7  1008.3  0.00   0.0   0.000   0.038   30.2    83   27.0   38.8   114    1    100.0    5 
 5/11/06  8:05a   29.5   29.6   29.3    77   25.0  16.1   NNE  1.34  30.6   NNE   29.0   35.3   34.8  1008.3  0.00   0.0   0.000   0.039   30.3    82   26.9   38.9   114    1    100.0    5 
 5/11/06  8:10a   29.6   29.7   29.6    76   24.9  16.1     N  1.34  30.6     N   29.1   35.4   34.9  1008.3  0.00   0.0   0.000   0.039   30.4    82   27.0   39.3   113    1     99.1    5 
 5/11/06  8:15a   29.6   29.6   29.4    77   25.1  14.5     N  1.21  30.6   NNE   29.2   35.4   35.1  1008.5  0.00   0.0   0.000   0.039   30.4    81   26.8   38.9   114    1    100.0    5 
 5/11/06  8:20a   29.4   29.4   29.3    76   24.7  17.7   NNE  1.48  29.0   NNE   28.7   34.9   34.2  1008.5  0.00   0.0   0.000   0.038   30.4    81   26.8   38.9   114    1    100.0    5 
 5/11/06  8:25a   29.3   29.3   29.3    76   24.7  17.7     N  1.48  29.0    NE   28.7   34.8   34.1  1008.5  0.00   0.0   0.000   0.038   30.6    80   26.7   38.9   114    1    100.0    5 
 5/11/06  8:30a   29.4   29.6   29.3    75   24.5  16.1     N  1.34  30.6     N   28.9   34.8   34.3  1008.6  0.00   0.0   0.000   0.039   30.5    80   26.7   38.8   114    1    100.0    5 
 5/11/06  8:35a   29.6   29.7   29.6    75   24.7  14.5     N  1.21  22.5    NE   29.3   35.2   34.8  1008.6  0.00   0.0   0.000   0.039   30.4    80   26.6   38.6   114    1    100.0    5 
 5/11/06  8:40a   29.7   29.8   29.7    75   24.8  12.9     N  1.07  22.5     N   29.6   35.3   35.2  1008.6  0.00   0.0   0.000   0.039   30.6    80   26.7   38.9   114    1    100.0    5 
 5/11/06  8:45a   29.9   30.0   29.8    75   25.0  14.5     N  1.21  29.0     N   29.7   36.0   35.7  1008.7  0.00   0.0   0.000   0.040   30.6    80   26.7   38.9   114    1    100.0    5 
 5/11/06  8:50a   29.9   30.0   29.9    74   24.8  16.1   NNE  1.34  32.2   NNE   29.5   35.8   35.3  1008.7  0.00   0.0   0.000   0.040   30.6    80   26.8   39.1   114    1    100.0    5 
 5/11/06  8:55a   29.8   29.9   29.8    75   24.9  16.1     N  1.34  32.2     N   29.3   35.6   35.1  1008.7  0.00   0.0   0.000   0.040   30.7    79   26.6   38.9   114    1    100.0    5 
 5/11/06  9:00a   30.0   30.1   29.8    74   24.9  12.9     N  1.07  27.4   NNE   29.9   35.9   35.8  1008.7  0.00   0.0   0.000   0.041   30.8    79   26.7   39.2   114    1    100.0    5 
 5/11/06  9:05a   29.9   30.0   29.8    76   25.3  14.5     N  1.21  32.2     N   29.7   36.2   35.9  1008.7  0.00   0.0   0.000   0.040   30.8    80   26.9   39.4   114    1    100.0    5 
 5/11/06  9:10a   29.7   29.9   29.6    75   24.8  16.1     N  1.34  30.6     N   29.2   35.3   34.8  1008.7  0.00   0.0   0.000   0.039   30.9    79   26.8   39.4   113    1     99.1    5 
 5/11/06  9:15a   29.2   29.6   28.6    78   24.9  16.1     N  1.34  35.4   NNW   28.6   34.8   34.3  1008.7  1.02 114.3   0.000   0.038   30.9    79   26.8   39.4   114    1    100.0    5 
 5/11/06  9:20a   28.1   28.5   27.8    83   24.9   9.7     N  0.80  22.5   NNE   28.1   32.9   32.9  1008.7  0.25  10.2   0.000   0.034   30.9    79   26.8   39.4   114    1    100.0    5 
 5/11/06  9:25a   27.8   27.9   27.7    86   25.2   8.0   NNE  0.67  16.1   NNE   27.8   32.6   32.6  1008.7  0.00   1.5   0.000   0.033   30.9    79   26.8   39.4   114    1    100.0    5 
 5/11/06  9:30a   28.1   28.2   27.9    86   25.5  11.3   NNE  0.94  24.1    NE   28.1   33.4   33.4  1008.8  0.00   1.0   0.000   0.034   30.9    80   27.0   39.7   114    1    100.0    5 
 5/11/06  9:35a   28.2   28.3   28.1    86   25.6  12.9   NNE  1.07  22.5     N   28.0   33.7   33.5  1008.8  0.25   1.0   0.000   0.034   30.9    81   27.2   40.1   114    1    100.0    5 
 5/11/06  9:40a   27.6   28.1   27.1    86   25.1  17.7   NNE  1.48  38.6     N   26.7   32.2   31.2  1008.8  4.06 124.0   0.000   0.032   30.9    80   27.0   39.7   114    1    100.0    5 
 5/11/06  9:45a   26.9   27.1   26.9    88   24.8  11.3     N  0.94  27.4   NNE   26.9   30.8   30.8  1008.8  0.00   3.0   0.000   0.030   30.8    80   26.9   39.4   114    1    100.0    5 
 5/11/06  9:50a   26.9   27.0   26.8    89   24.9  12.9     N  1.07  27.4   ENE   26.7   30.8   30.6  1008.8  0.00   1.5   0.000   0.030   30.8    80   26.9   39.4   114    1    100.0    5 
 5/11/06  9:55a   27.1   27.2   27.0    87   24.8  12.9   NNE  1.07  27.4   NNE   26.9   31.1   30.8  1008.8  0.00   1.0   0.000   0.030   30.8    80   26.9   39.4   114    1    100.0    5 
 5/11/06 10:00a   27.4   27.6   27.2    87   25.1   9.7     N  0.80  20.9     N   27.4   31.9   31.9  1008.5  0.00   0.0   0.000   0.032   30.8    80   26.9   39.4   114    1    100.0    5 
 5/11/06 10:05a   27.8   27.9   27.7    86   25.3  12.9     N  1.07  20.9     N   27.7   32.8   32.6  1008.5  0.00   0.0   0.000   0.033   30.8    80   26.9   39.4   113    1     99.1    5 
 5/11/06 10:10a   28.1   28.2   27.9    86   25.5  11.3     N  0.94  27.4   NNE   28.1   33.4   33.4  1008.5  0.00   0.0   0.000   0.034   30.9    80   27.0   39.7   112    1     98.2    5 
 5/11/06 10:15a   28.2   28.3   28.2    84   25.2  11.3     N  0.94  22.5   NNE   28.2   33.3   33.3  1008.5  0.25   0.0   0.000   0.034   30.9    81   27.2   40.1   114    1    100.0    5 
 5/11/06 10:20a   28.1   28.2   28.1    84   25.2  11.3    NE  0.94  22.5   NNE   28.1   33.2   33.2  1008.5  0.25  11.9   0.000   0.034   30.9    80   27.0   39.7   114    1    100.0    5 
 5/11/06 10:25a   27.9   28.1   27.8    84   24.9  12.9   NNE  1.07  20.9   NNE   27.7   32.6   32.4  1008.5  0.00   1.8   0.000   0.033   30.9    80   27.1   39.8   113    1     99.1    5 
 5/11/06 10:30a   27.8   27.8   27.7    85   25.0   9.7   NNE  0.80  19.3    NE   27.8   32.4   32.4  1008.2  0.00   1.0   0.000   0.033   30.9    80   27.0   39.7   114    1    100.0    5 
 5/11/06 10:35a   27.8   27.8   27.7    85   25.1   9.7   NNE  0.80  20.9   NNE   27.8   32.6   32.6  1008.2  0.00   0.0   0.000   0.033   30.9    80   27.0   39.7   114    1    100.0    5 
 5/11/06 10:40a   27.9   27.9   27.9    85   25.2  11.3   NNE  0.94  19.3   NNE   27.9   32.9   32.9  1008.2  0.00   0.0   0.000   0.033   30.9    80   27.0   39.7   114    1    100.0    5 
 5/11/06 10:45a   27.9   28.1   27.9    85   25.2   8.0     N  0.67  17.7   NNE   27.9   32.9   32.9  1007.7  0.00   0.0   0.000   0.033   30.9    80   27.0   39.7   114    1    100.0    5 
 5/11/06 10:50a   28.1   28.2   28.1    86   25.5   8.0     N  0.67  17.7   NNE   28.1   33.6   33.6  1007.7  0.00   0.0   0.000   0.034   30.9    80   27.0   39.7   114    1    100.0    5 
 5/11/06 10:55a   28.3   28.5   28.2    85   25.6   8.0     N  0.67  19.3     N   28.3   33.9   33.9  1007.7  0.00   0.0   0.000   0.035   30.9    80   27.0   39.7   112    1     98.2    5 
 5/11/06 11:00a   28.6   28.7   28.5    84   25.6  11.3     N  0.94  20.9     N   28.6   34.6   34.6  1007.9  0.00   0.0   0.000   0.036   30.9    80   27.0   39.7   114    1    100.0    5 
 5/11/06 11:05a   29.0   29.2   28.8    82   25.6  11.3   NNE  0.94  22.5   NNE   29.0   35.3   35.3  1007.9  0.00   0.0   0.000   0.037   30.9    80   27.0   39.7   114    1    100.0    5 
 5/11/06 11:10a   29.3   29.3   29.2    80   25.5  14.5   NNE  1.21  27.4    NE   28.9   35.4   35.1  1007.9  0.00   0.0   0.000   0.038   31.1    80   27.2   40.1   113    1     99.1    5 
 5/11/06 11:15a   29.3   29.3   29.3    78   25.1  14.5     N  1.21  22.5   NNE   29.0   35.2   34.8  1007.6  0.00   0.0   0.000   0.038   31.1    80   27.2   40.1   114    1    100.0    5 
 5/11/06 11:20a   29.3   29.3   29.2    77   24.8  16.1     N  1.34  35.4   NNE   28.7   34.8   34.3  1007.6  0.00   0.0   0.000   0.038   31.1    80   27.2   40.1   114    1    100.0    5 
 5/11/06 11:25a   29.3   29.3   29.3    77   24.9  14.5     N  1.21  30.6     N   29.0   34.9   34.6  1007.6  0.00   0.0   0.000   0.038   31.1    79   27.0   39.8   114    1    100.0    5 
 5/11/06 11:30a   29.4   29.7   29.3    77   25.0  12.9     N  1.07  25.7   NNW   29.3   35.2   35.1  1007.4  0.00   0.0   0.000   0.039   31.1    79   27.0   39.8   114    1    100.0    5 
 5/11/06 11:35a   29.9   30.2   29.7    75   25.0  16.1     N  1.34  30.6     N   29.4   35.8   35.4  1007.4  0.00   0.0   0.000   0.040   31.1    79   27.0   39.8   114    1    100.0    5 
 5/11/06 11:40a   30.3   30.3   30.2    74   25.1  22.5     N  1.88  43.5    NE   29.5   36.6   35.8  1007.4  0.00   0.0   0.000   0.041   31.2    79   27.1   40.2   114    1    100.0    5 
 5/11/06 11:45a   28.7   30.1   27.3    80   24.9  20.9     N  1.74  43.5   NNE   27.6   34.1   33.1  1007.7  2.29  58.4   0.000   0.036   31.2    78   26.9   39.8   114    1    100.0    5 
 5/11/06 11:50a   26.8   27.2   26.6    86   24.2   9.7     N  0.80  20.9     N   26.8   30.2   30.2  1007.7  0.76  29.0   0.000   0.029   31.0    76   26.3   38.7   114    1    100.0    5 
 5/11/06 11:55a   26.7   26.9   26.6    87   24.4   8.0   NNE  0.67  17.7     N   26.7   30.2   30.2  1007.7  0.00   1.8   0.000   0.029   30.8    76   26.1   38.4   114    1    100.0    5 
 5/11/06 12:00p   27.1   27.2   26.9    87   24.8  11.3     N  0.94  22.5   NNE   27.1   31.1   31.1  1007.2  0.00   1.0   0.000   0.030   30.7    78   26.4   38.7   114    1    100.0    5 
 5/11/06 12:05p   27.4   27.5   27.2    87   25.0  11.3     N  0.94  20.9     N   27.4   31.8   31.8  1007.2  0.00   0.0   0.000   0.031   30.7    79   26.6   38.9   113    1     99.1    5 
 5/11/06 12:10p   27.7   27.7   27.5    86   25.1   9.7     N  0.80  19.3   NNE   27.7   32.3   32.3  1007.2  0.00   0.0   0.000   0.032   30.7    80   26.8   39.2   113    1     99.1    5 
 5/11/06 12:15p   27.8   27.9   27.7    85   25.1  12.9   NNE  1.07  25.7     N   27.7   32.6   32.4  1006.9  0.00   0.0   0.000   0.033   30.7    80   26.8   39.2   114    1    100.0    5 
 5/11/06 12:20p   27.9   27.9   27.9    84   25.0  11.3     N  0.94  20.9     N   27.9   32.7   32.7  1006.9  0.00   0.0   0.000   0.033   30.6    80   26.8   39.1   113    1     99.1    5 
 5/11/06 12:25p   27.9   27.9   27.9    81   24.4  14.5     N  1.21  30.6    NE   27.4   32.2   31.7  1006.9  0.00   0.0   0.000   0.033   30.7    79   26.6   38.9   114    1    100.0    5 
 5/11/06 12:30p   28.1   28.2   27.9    81   24.5  14.5     N  1.21  30.6    NE   27.6   32.6   32.1  1006.7  0.00   0.0   0.000   0.034   30.6    79   26.6   38.8   113    1     99.1    5 
 5/11/06 12:35p   28.2   28.3   28.2    81   24.6  11.3     N  0.94  20.9     N   28.2   33.0   33.0  1006.7  0.00   0.0   0.000   0.034   30.6    79   26.5   38.7   114    1    100.0    5 
 5/11/06 12:40p   28.3   28.4   28.3    81   24.8  11.3   NNE  0.94  25.7   NNE   28.3   33.3   33.3  1006.7  0.00   0.0   0.000   0.035   30.6    79   26.5   38.7   114    1    100.0    5 
 5/11/06 12:45p   28.4   28.5   28.4    80   24.7  12.9   NNE  1.07  22.5   NNE   28.3   33.5   33.3  1006.5  0.00   0.0   0.000   0.035   30.4    79   26.4   38.3   114    1    100.0    5 
 5/11/06 12:50p   28.6   28.6   28.5    80   24.8  14.5   NNE  1.21  29.0   NNE   28.1   33.8   33.3  1006.5  0.00   0.0   0.000   0.035   30.4    80   26.6   38.6   113    1     99.1    5 
 5/11/06 12:55p   28.4   28.6   27.7    80   24.6  22.5   NNE  1.88  40.2   NNE   27.2   33.3   32.1  1006.5  0.51   6.9   0.000   0.035   30.4    80   26.6   38.6   114    1    100.0    5 
 5/11/06  1:00p   27.0   27.6   26.6    86   24.5  17.7     N  1.48  33.8   NNE   26.0   30.7   29.7  1006.6  2.29  56.4   0.000   0.030   30.3    79   26.2   37.8   112    1     98.2    5 
 5/11/06  1:05p   26.2   26.6   25.9    87   23.9  12.9     N  1.07  22.5   NNE   26.0   29.2   28.9  1006.6  0.25  18.5   0.000   0.027   30.2    79   26.2   37.6   114    1    100.0    5 
 5/11/06  1:10p   25.8   25.9   25.8    88   23.7  11.3     N  0.94  20.9   NNW   25.8   28.6   28.6  1006.6  0.00   1.5   0.000   0.026   30.2    79   26.1   37.4   114    1    100.0    5 
 5/11/06  1:15p   25.9   26.1   25.8    88   23.8  12.9     N  1.07  22.5   NNE   25.7   28.8   28.6  1006.1  0.00   1.0   0.000   0.026   30.1    78   25.8   36.9   114    1    100.0    5 
 5/11/06  1:20p   26.2   26.4   26.1    87   23.9  12.9     N  1.07  25.7   NNE   26.0   29.2   28.9  1006.1  0.00   0.0   0.000   0.027   30.0    79   26.0   36.9   113    1     99.1    5 
 5/11/06  1:25p   26.7   26.9   26.4    87   24.3  12.9     N  1.07  30.6   NNE   26.4   30.1   29.8  1006.1  0.00   0.0   0.000   0.029   30.0    80   26.2   37.1   114    1    100.0    5 
 5/11/06  1:30p   27.1   27.2   26.9    86   24.5  11.3     N  0.94  22.5   NNW   27.1   30.8   30.8  1005.8  0.00   0.0   0.000   0.030   29.9    80   26.1   36.8   114    1    100.0    5 
 5/11/06  1:35p   27.2   27.3   27.0    85   24.5  17.7     N  1.48  40.2     N   26.2   31.0   30.0  1005.8  0.25   0.0   0.000   0.031   29.9    81   26.3   37.1   113    1     99.1    5 
 5/11/06  1:40p   26.4   27.0   26.1    88   24.3  24.1     N  2.01  43.5     N   24.7   29.7   28.0  1005.8  1.02  53.3   0.000   0.028   29.9    81   26.3   37.1   114    1    100.0    5 
 5/11/06  1:45p   26.0   26.1   25.9    89   24.0  16.1     N  1.34  33.8   NNW   25.1   28.9   28.0  1006.1  0.00   1.8   0.000   0.027   29.7    81   26.1   36.7   114    1    100.0    5 
 5/11/06  1:50p   25.9   25.9   25.8    89   23.9  19.3     N  1.61  33.8     N   24.6   28.8   27.4  1006.1  0.00   1.3   0.000   0.026   29.7    81   26.1   36.6   114    1    100.0    5 
 5/11/06  1:55p   25.8   25.9   25.8    89   23.9  16.1     N  1.34  29.0     N   24.9   28.7   27.7  1006.1  0.25   1.3   0.000   0.026   29.6    81   26.0   36.4   114    1    100.0    5 
 5/11/06  2:00p   26.0   26.1   25.9    89   24.0  12.9     N  1.07  30.6    NE   25.8   28.9   28.7  1005.6  0.00   1.0   0.000   0.027   29.6    81   25.9   36.3   114    1    100.0    5 
 5/11/06  2:05p   26.2   26.4   26.1    89   24.3  14.5     N  1.21  29.0     N   25.6   29.4   28.8  1005.6  0.00   1.0   0.000   0.027   29.4    82   26.0   36.2   114    1    100.0    5 
 5/11/06  2:10p   26.4   26.6   26.4    89   24.5  14.5     N  1.21  29.0     N   25.8   29.8   29.2  1005.6  0.00   0.0   0.000   0.028   29.6    82   26.2   36.5   113    1     99.1    5 
 5/11/06  2:15p   26.7   26.8   26.6    88   24.5  12.9     N  1.07  30.6     N   26.4   30.2   29.9  1005.5  0.00   0.0   0.000   0.029   29.6    82   26.2   36.5   113    1     99.1    5 
 5/11/06  2:20p   26.9   27.0   26.8    88   24.7  12.9     N  1.07  30.6   NNE   26.7   30.7   30.4  1005.5  0.00   0.0   0.000   0.030   29.6    83   26.4   36.7   114    1    100.0    5 
 5/11/06  2:25p   27.2   27.3   27.0    88   25.0  11.3     N  0.94  20.9     N   27.2   31.3   31.3  1005.5  0.00   0.0   0.000   0.031   29.7    83   26.5   37.1   114    1    100.0    5 
 5/11/06  2:30p   27.4   27.6   27.3    87   25.1   9.7     N  0.80  27.4   NNE   27.4   31.9   31.9  1005.5  0.00   0.0   0.000   0.032   29.7    84   26.7   37.3   113    1     99.1    5 
 5/11/06  2:35p   27.7   27.7   27.6    86   25.1  11.3     N  0.94  25.7    NE   27.7   32.3   32.3  1005.5  0.00   0.0   0.000   0.032   29.7    84   26.7   37.4   112    1     98.2    5 
 5/11/06  2:40p   27.9   27.9   27.7    85   25.1  12.9     N  1.07  22.5     N   27.7   32.7   32.6  1005.5  0.00   0.0   0.000   0.033   29.8    84   26.8   37.6   114    1    100.0    5 
 5/11/06  2:45p   28.0   28.1   27.9    84   25.0  12.9     N  1.07  25.7     N   27.8   32.9   32.7  1005.2  0.00   0.0   0.000   0.034   29.8    84   26.8   37.6   114    1    100.0    5 
 5/11/06  2:50p   28.2   28.3   28.1    84   25.3  12.9     N  1.07  27.4    NE   28.1   33.5   33.3  1005.2  0.00   0.0   0.000   0.034   29.9    84   26.9   37.9   113    1     99.1    5 
 5/11/06  2:55p   28.3   28.4   28.3    83   25.1  12.9     N  1.07  22.5   NNE   28.1   33.5   33.3  1005.2  0.00   0.0   0.000   0.035   30.0    84   27.0   38.2   114    1    100.0    5 
 5/11/06  3:00p   28.4   28.4   28.4    81   24.8  16.1     N  1.34  30.6     N   27.7   33.5   32.8  1004.9  0.00   0.0   0.000   0.035   30.0    83   26.8   37.9   113    1     99.1    5 
 5/11/06  3:05p   28.4   28.5   28.4    81   24.9  16.1     N  1.34  29.0   NNE   27.8   33.6   32.9  1004.9  0.00   0.0   0.000   0.035   30.0    84   27.0   38.2   113    1     99.1    5 
 5/11/06  3:10p   28.5   28.5   28.5    81   24.9  16.1     N  1.34  29.0   NNE   27.8   33.8   33.1  1004.9  0.00   0.0   0.000   0.035   30.1    83   26.9   38.3   113    1     99.1    5 
 5/11/06  3:15p   28.5   28.5   28.5    81   24.9  12.9     N  1.07  27.4   NNE   28.3   33.8   33.6  1005.2  0.00   0.0   0.000   0.035   30.1    84   27.1   38.6   114    1    100.0    5 
 5/11/06  3:20p   28.5   28.5   28.5    81   24.9  14.5     N  1.21  29.0   NNE   28.1   33.8   33.3  1005.2  0.00   0.0   0.000   0.035   30.1    83   26.8   38.1   113    1     99.1    5 
 5/11/06  3:25p   28.4   28.5   28.4    81   24.8  17.7     N  1.48  32.2    NE   27.6   33.5   32.7  1005.2  0.00   0.0   0.000   0.035   30.0    83   26.8   37.9   114    1    100.0    5 
 5/11/06  3:30p   28.4   28.4   28.4    81   24.8  14.5     N  1.21  27.4     N   27.9   33.5   33.1  1004.9  0.00   0.0   0.000   0.035   30.0    83   26.8   37.9   113    1     99.1    5 
 5/11/06  3:35p   28.4   28.5   28.4    81   24.9  14.5     N  1.21  22.5     N   28.0   33.6   33.2  1004.9  0.00   0.0   0.000   0.035   30.0    83   26.8   37.9   110    1     96.5    5 
 5/11/06  3:40p   28.5   28.5   28.5    80   24.7  16.1     N  1.34  29.0     N   27.8   33.6   32.9  1004.9  0.00   0.0   0.000   0.035   30.0    83   26.8   37.9   113    1     99.1    5 
 5/11/06  3:45p   28.5   28.5   28.5    80   24.7  16.1     N  1.34  33.8     N   27.8   33.6   32.9  1004.6  0.00   0.0   0.000   0.035   29.9    83   26.7   37.6   113    1     99.1    5 
 5/11/06  3:50p   28.6   28.6   28.5    80   24.8  14.5     N  1.21  30.6   NNW   28.1   33.8   33.3  1004.6  0.00   0.0   0.000   0.035   29.9    83   26.7   37.6   114    1    100.0    5 
 5/11/06  3:55p   28.2   28.5   27.9    82   24.9  19.3     N  1.61  30.6   NNE   27.2   33.2   32.2  1004.6  0.00   0.0   0.000   0.034   29.9    83   26.7   37.8   110    1     96.5    5 
 5/11/06  4:00p   27.9   27.9   27.9    84   25.0  14.5     N  1.21  32.2     N   27.4   32.7   32.2  1004.9  0.00   0.0   0.000   0.033   29.9    83   26.7   37.6   114    1    100.0    5 
 5/11/06  4:05p   27.8   27.9   27.8    84   24.9  14.5     N  1.21  30.6   NNE   27.3   32.4   31.9  1004.9  0.00   0.0   0.000   0.033   29.8    84   26.8   37.7   114    1    100.0    5 
 5/11/06  4:10p   28.0   28.1   27.8    84   25.0  16.1     N  1.34  33.8   NNE   27.3   32.9   32.2  1004.9  0.00   0.0   0.000   0.034   29.8    84   26.8   37.7   114    1    100.0    5 
 5/11/06  4:15p   28.2   28.3   28.1    83   25.0  17.7     N  1.48  32.2     N   27.3   33.2   32.3  1004.5  0.00   0.0   0.000   0.034   29.8    84   26.8   37.6   114    1    100.0    5 
 5/11/06  4:20p   28.3   28.4   28.3    82   25.0  20.9     N  1.74  35.4     N   27.2   33.5   32.4  1004.5  0.00   0.0   0.000   0.035   29.8    84   26.8   37.6   114    1    100.0    5 
 5/11/06  4:25p   28.4   28.5   28.4    81   24.9  16.1     N  1.34  29.0   NNE   27.8   33.6   32.9  1004.5  0.00   0.0   0.000   0.035   29.8    84   26.8   37.6   113    1     99.1    5 
 5/11/06  4:30p   28.5   28.5   28.5    81   24.9  16.1     N  1.34  32.2   NNE   27.8   33.8   33.1  1004.4  0.00   0.0   0.000   0.035   29.8    84   26.8   37.6   111    1     97.4    5 
 5/11/06  4:35p   28.5   28.5   28.5    81   24.9  16.1     N  1.34  30.6     N   27.8   33.8   33.1  1004.4  0.00   0.0   0.000   0.035   29.8    84   26.8   37.6   114    1    100.0    5 
 5/11/06  4:40p   28.5   28.5   28.5    80   24.7  20.9     N  1.74  38.6   NNE   27.4   33.6   32.6  1004.4  0.00   0.0   0.000   0.035   29.8    84   26.8   37.6   115    1    100.0    5 
 5/11/06  4:45p   28.6   28.6   28.5    80   24.8  16.1     N  1.34  33.8   NNE   28.0   33.9   33.3  1004.9  0.00   0.0   0.000   0.036   29.8    84   26.8   37.6   114    1    100.0    5 
 5/11/06  4:50p   28.6   28.6   28.5    80   24.8  14.5     N  1.21  27.4    NE   28.2   33.9   33.6  1004.9  0.00   0.0   0.000   0.036   29.8    84   26.8   37.6   114    1    100.0    5 
 5/11/06  4:55p   28.4   28.5   28.4    81   24.9  16.1   NNE  1.34  33.8   NNE   27.8   33.6   32.9  1004.9  0.00   0.0   0.000   0.035   29.8    84   26.8   37.6   114    1    100.0    5 
 5/11/06  5:00p   28.4   28.4   28.3    81   24.8  17.7     N  1.48  33.8    NE   27.6   33.5   32.7  1004.9  0.00   0.0   0.000   0.035   29.8    84   26.8   37.6   114    1    100.0    5 
 5/11/06  5:05p   28.2   28.3   28.2    81   24.6  14.5     N  1.21  32.2   NNE   27.7   32.8   32.4  1004.9  0.00   0.0   0.000   0.034   29.8    83   26.6   37.3   113    1     99.1    5 
 5/11/06  5:10p   28.2   28.2   28.2    82   24.8  14.5     N  1.21  29.0     N   27.7   33.0   32.6  1004.9  0.00   0.0   0.000   0.034   29.8    83   26.6   37.3   114    1    100.0    5 
 5/11/06  5:15p   28.2   28.2   28.2    81   24.6  14.5   NNE  1.21  29.0     N   27.7   32.8   32.4  1004.9  0.00   0.0   0.000   0.034   29.8    83   26.6   37.3   113    1     99.1    5 
 5/11/06  5:20p   28.2   28.2   28.2    82   24.8  11.3   NNE  0.94  20.9   NNE   28.2   33.0   33.0  1004.9  0.25   0.0   0.000   0.034   29.8    83   26.6   37.3   114    1    100.0    5 
 5/11/06  5:25p   28.1   28.2   27.8    83   24.9  11.3     N  0.94  27.4   NNE   28.1   32.9   32.9  1004.9  1.02  16.5   0.000   0.034   29.8    84   26.8   37.6   114    1    100.0    5 
 5/11/06  5:30p   27.7   27.8   27.5    85   24.9   9.7   NNE  0.80  17.7   NNE   27.7   32.2   32.2  1005.0  0.25   9.7   0.000   0.032   29.8    84   26.8   37.6   113    1     99.1    5 
 5/11/06  5:35p   27.3   27.5   27.3    87   25.0   6.4   NNE  0.54  12.9    NE   27.3   31.6   31.6  1005.0  0.00   2.5   0.000   0.031   29.8    84   26.8   37.6   114    1    100.0    5 
 5/11/06  5:40p   27.2   27.3   27.0    87   24.8   9.7     N  0.80  17.7   NNW   27.2   31.2   31.2  1005.0  0.00   1.3   0.000   0.031   29.8    84   26.8   37.7   113    1     99.1    5 
 5/11/06  5:45p   26.6   26.9   26.2    87   24.2   9.7     N  0.80  19.3   NNE   26.6   29.8   29.8  1004.9  0.00   1.0   0.000   0.029   29.8    84   26.8   37.6   110    1     96.5    5 
 5/11/06  5:50p   26.0   26.2   25.8    88   23.9   8.0     N  0.67  20.9     N   26.0   28.8   28.8  1004.9  0.00   0.0   0.000   0.027   29.7    83   26.5   37.1   113    1     99.1    5 
 5/11/06  5:55p   25.8   25.8   25.7    89   23.8   8.0     N  0.67  17.7    NE   25.8   28.6   28.6  1004.9  0.00   0.0   0.000   0.026   29.7    82   26.3   36.8   114    1    100.0    5 
 5/11/06  6:00p   25.6   25.7   25.6    89   23.7   9.7     N  0.80  16.1     N   25.6   28.2   28.2  1005.2  0.00   0.0   0.000   0.025   29.6    82   26.2   36.5   114    1    100.0    5 
 5/11/06  6:05p   25.6   25.6   25.6    89   23.6   9.7     N  0.80  19.3   NNE   25.6   28.2   28.2  1005.2  0.00   0.0   0.000   0.025   29.5    81   25.9   36.1   114    1    100.0    5 
 5/11/06  6:10p   25.6   25.6   25.6    89   23.6  12.9     N  1.07  20.9     N   25.3   28.2   27.9  1005.2  0.00   0.0   0.000   0.025   29.4    81   25.8   36.0   114    1    100.0    5 
 5/11/06  6:15p   25.5   25.6   25.4    89   23.6  12.9     N  1.07  22.5     N   25.2   28.1   27.8  1005.6  0.00   0.0   0.000   0.025   29.4    81   25.8   35.9   113    1     99.1    5 
 5/11/06  6:20p   25.4   25.4   25.3    89   23.4  17.7   NNE  1.48  32.2   NNE   24.2   27.8   26.6  1005.6  2.54  85.1   0.000   0.024   29.3    81   25.7   35.8   114    1    100.0    5 
 5/11/06  6:25p   25.3   25.3   25.2    90   23.5  14.5     N  1.21  27.4    NE   24.6   27.7   27.1  1005.6  1.27  64.3   0.000   0.024   29.2    82   25.8   35.7   114    1    100.0    5 
 5/11/06  6:30p   25.2   25.2   25.2    91   23.6  12.9   NNE  1.07  20.9   NNE   24.9   27.6   27.3  1006.0  0.00   2.8   0.000   0.024   29.1    82   25.7   35.6   114    1    100.0    5 
 5/11/06  6:35p   25.1   25.2   25.1    91   23.5   8.0     N  0.67  20.9    NE   25.1   27.5   27.5  1006.0  0.00   1.5   0.000   0.024   29.0    82   25.6   35.3   114    1    100.0    5 
 5/11/06  6:40p   25.1   25.1   25.1    91   23.5   8.0     N  0.67  14.5     N   25.1   27.4   27.4  1006.0  0.00   1.0   0.000   0.023   29.0    82   25.6   35.3   114    1    100.0    5 
 5/11/06  6:45p   25.1   25.1   25.1    92   23.7   9.7     N  0.80  17.7     N   25.1   27.4   27.4  1006.0  0.00   0.0   0.000   0.023   29.0    82   25.6   35.3   114    1    100.0    5 
 5/11/06  6:50p   25.1   25.1   25.1    92   23.7   9.7   NNE  0.80  19.3   NNE   25.1   27.4   27.4  1006.0  0.00   0.0   0.000   0.023   29.0    82   25.6   35.3   114    1    100.0    5 
 5/11/06  6:55p   25.1   25.1   25.1    92   23.7   9.7    NE  0.80  17.7    NE   25.1   27.4   27.4  1006.0  0.25   0.0   0.000   0.023   28.9    82   25.6   35.2   114    1    100.0    5 
 5/11/06  7:00p   25.1   25.1   25.1    91   23.5   9.7   NNE  0.80  19.3   NNE   25.1   27.4   27.4  1006.0  0.00   0.0   0.000   0.023   28.9    82   25.5   35.1   114    1    100.0    5 
 5/11/06  7:05p   25.1   25.1   25.1    91   23.5   6.4     N  0.54  14.5     N   25.1   27.4   27.4  1006.0  0.00   0.0   0.000   0.023   28.9    82   25.5   35.1   114    1    100.0    5 
 5/11/06  7:10p   25.1   25.1   25.1    91   23.5   3.2     N  0.27   9.7     N   25.1   27.4   27.4  1006.0  0.00   0.0   0.000   0.023   28.9    82   25.5   35.1   114    1    100.0    5 
 5/11/06  7:15p   25.1   25.2   25.1    91   23.5   4.8   NNW  0.40   9.7   NNW   25.1   27.5   27.5  1006.0  0.25   0.0   0.000   0.024   28.9    82   25.5   35.1   114    1    100.0    5 
 5/11/06  7:20p   25.2   25.2   25.2    91   23.6   6.4     N  0.54  12.9   NNW   25.2   27.6   27.6  1006.0  0.00   0.0   0.000   0.024   28.9    82   25.5   35.1   113    1     99.1    5 
 5/11/06  7:25p   25.2   25.2   25.2    91   23.6   4.8     N  0.40   9.7   NNW   25.2   27.6   27.6  1006.0  0.00   0.0   0.000   0.024   28.9    82   25.5   35.1   114    1    100.0    5 
 5/11/06  7:30p   25.2   25.2   25.2    91   23.6   4.8   NNW  0.40  11.3     N   25.2   27.6   27.6  1006.2  0.00   0.0   0.000   0.024   28.9    82   25.5   35.1   114    1    100.0    5 
 5/11/06  7:35p   25.3   25.3   25.2    91   23.7   6.4     N  0.54  12.9   NNW   25.3   27.8   27.8  1006.2  0.00   0.0   0.000   0.024   28.9    82   25.5   35.1   114    1    100.0    5 
 5/11/06  7:40p   25.3   25.3   25.3    91   23.7   8.0     N  0.67  16.1   NNE   25.3   27.8   27.8  1006.2  0.00   0.0   0.000   0.024   28.9    82   25.5   35.1   113    1     99.1    5 
 5/11/06  7:45p   25.3   25.3   25.3    91   23.7   6.4     N  0.54  12.9   NNW   25.3   27.8   27.8  1006.4  0.00   0.0   0.000   0.024   28.8    83   25.6   34.9   114    1    100.0    5 
 5/11/06  7:50p   25.3   25.3   25.3    91   23.8   6.4     N  0.54  12.9   NNW   25.3   27.9   27.9  1006.4  0.00   0.0   0.000   0.024   28.8    83   25.6   34.9   113    1     99.1    5 
 5/11/06  7:55p   25.4   25.4   25.3    91   23.8   9.7     N  0.80  17.7   NNW   25.4   28.0   28.0  1006.4  0.00   0.0   0.000   0.024   28.8    83   25.6   34.9   113    1     99.1    5 
 5/11/06  8:00p   25.4   25.4   25.4    91   23.9   8.0     N  0.67  14.5    NW   25.4   28.1   28.1  1006.9  0.00   0.0   0.000   0.025   28.8    83   25.6   34.9   114    1    100.0    5 
 5/11/06  8:05p   25.4   25.4   25.4    90   23.7   6.4     N  0.54  17.7   NNW   25.4   28.0   28.0  1006.9  0.00   0.0   0.000   0.025   28.8    83   25.6   34.9   114    1    100.0    5 
 5/11/06  8:10p   25.5   25.6   25.4    90   23.7   6.4   NNW  0.54  16.1   NNW   25.5   28.1   28.1  1006.9  0.00   0.0   0.000   0.025   28.9    82   25.5   35.1   114    1    100.0    5 
 5/11/06  8:15p   25.6   25.6   25.6    90   23.8   4.8   NNW  0.40  12.9   NNW   25.6   28.2   28.2  1006.6  0.00   0.0   0.000   0.025   28.9    82   25.5   35.1   114    1    100.0    5 
 5/11/06  8:20p   25.6   25.6   25.6    90   23.8   8.0     N  0.67  16.1   NNW   25.6   28.2   28.2  1006.6  0.00   0.0   0.000   0.025   28.9    82   25.5   35.1   114    1    100.0    5 
 5/11/06  8:25p   25.7   25.7   25.6    90   23.9   6.4     N  0.54  12.9     N   25.7   28.4   28.4  1006.6  0.00   0.0   0.000   0.025   28.9    82   25.5   35.1   114    1    100.0    5 
 5/11/06  8:30p   25.7   25.8   25.7    90   24.0   6.4   NNE  0.54  11.3     N   25.7   28.6   28.6  1006.5  0.00   0.0   0.000   0.026   28.9    82   25.5   35.1   114    1    100.0    5 
 5/11/06  8:35p   25.8   25.8   25.8    90   24.0   3.2     N  0.27   9.7     N   25.8   28.7   28.7  1006.5  0.00   0.0   0.000   0.026   28.9    82   25.5   35.1   114    1    100.0    5 
 5/11/06  8:40p   25.8   25.8   25.8    90   24.1   3.2   NNE  0.27  11.3   NNE   25.8   28.8   28.8  1006.5  0.00   0.0   0.000   0.026   29.0    82   25.6   35.3   113    1     99.1    5 
 5/11/06  8:45p   25.8   25.8   25.8    90   24.1   1.6   NNE  0.13   6.4   NNE   25.8   28.8   28.8  1006.5  0.00   0.0   0.000   0.026   29.0    82   25.6   35.3   113    1     99.1    5 
 5/11/06  8:50p   25.8   25.8   25.8    91   24.3   3.2   NNE  0.27   8.0     N   25.8   28.8   28.8  1006.5  0.00   0.0   0.000   0.026   29.0    82   25.6   35.3   114    1    100.0    5 
 5/11/06  8:55p   25.9   25.9   25.8    91   24.3   4.8   NNE  0.40   9.7   NNW   25.9   28.9   28.9  1006.5  0.00   0.0   0.000   0.026   29.1    82   25.7   35.6   114    1    100.0    5 
 5/11/06  9:00p   26.0   26.1   25.9    91   24.4   8.0     N  0.67  16.1     N   26.0   29.2   29.2  1006.6  0.00   0.0   0.000   0.027   29.0    82   25.6   35.3   114    1    100.0    5 
 5/11/06  9:05p   26.2   26.3   26.1    89   24.2   6.4     N  0.54  17.7   NNE   26.2   29.3   29.3  1006.6  0.00   0.0   0.000   0.027   29.0    82   25.6   35.3   113    1     99.1    5 
 5/11/06  9:10p   26.3   26.5   26.3    88   24.2   8.0     N  0.67  19.3   NNW   26.3   29.5   29.5  1006.6  0.00   0.0   0.000   0.028   29.1    83   25.9   35.7   111    1     97.4    5 
 5/11/06  9:15p   26.5   26.6   26.5    88   24.3   6.4     N  0.54  12.9     N   26.5   29.8   29.8  1006.8  0.00   0.0   0.000   0.028   29.1    83   25.9   35.7   114    1    100.0    5 
 5/11/06  9:20p   26.6   26.6   26.6    88   24.4  11.3     N  0.94  20.9     N   26.6   29.9   29.9  1006.8  0.00   0.0   0.000   0.029   29.1    83   25.9   35.7   112    1     98.2    5 
 5/11/06  9:25p   26.6   26.7   26.6    88   24.5   8.0     N  0.67  19.3   NNE   26.6   30.1   30.1  1006.8  0.00   0.0   0.000   0.029   29.1    83   25.9   35.7   114    1    100.0    5 
 5/11/06  9:30p   26.7   26.7   26.7    89   24.7   9.7     N  0.80  27.4     N   26.7   30.3   30.3  1006.7  0.00   0.0   0.000   0.029   29.1    83   25.9   35.7   113    1     99.1    5 
 5/11/06  9:35p   26.8   26.8   26.7    88   24.6  12.9     N  1.07  20.9     N   26.6   30.4   30.2  1006.7  0.00   0.0   0.000   0.029   29.1    84   26.1   35.9    85    1     74.6    5 
 5/11/06  9:40p   26.8   26.8   26.8    88   24.6  11.3     N  0.94  19.3    NW   26.8   30.4   30.4  1006.7  0.51   4.8   0.000   0.029   29.1    84   26.1   35.9   106    1     93.0    5 
 5/11/06  9:45p   26.6   26.8   26.5    87   24.2  14.5    NE  1.21  35.4   NNE   25.9   29.8   29.2  1006.5  0.51   6.3   0.000   0.029   29.1    84   26.1   35.9   114    1    100.0    5 
 5/11/06  9:50p   26.5   26.5   26.5    86   24.0  14.5   NNE  1.21  22.5    NE   25.9   29.6   29.0  1006.5  0.00   3.0   0.000   0.028   29.0    84   26.0   35.7   114    1    100.0    5 
 5/11/06  9:55p   26.6   26.6   26.6    87   24.2  11.3     N  0.94  25.7    NE   26.6   29.8   29.8  1006.5  0.00   1.5   0.000   0.029   29.0    84   26.0   35.7   114    1    100.0    5 
 5/11/06 10:00p   26.6   26.6   26.6    87   24.2   9.7     N  0.80  27.4     N   26.6   29.8   29.8  1006.4  0.00   1.0   0.000   0.029   29.0    84   26.0   35.7   114    1    100.0    5 
 5/11/06 10:05p   26.5   26.6   26.5    87   24.2   8.0     N  0.67  14.5     N   26.5   29.7   29.7  1006.4  0.00   0.0   0.000   0.028   29.0    84   26.0   35.7   114    1    100.0    5 
 5/11/06 10:10p   26.4   26.5   26.4    87   24.1  12.9     N  1.07  20.9   NNE   26.2   29.6   29.4  1006.4  0.00   0.0   0.000   0.028   29.1    84   26.1   35.9   114    1    100.0    5 
 5/11/06 10:15p   26.4   26.4   26.4    86   23.9  11.3     N  0.94  22.5   NNE   26.4   29.4   29.4  1006.3  0.00   0.0   0.000   0.028   29.0    83   25.8   35.5   114    1    100.0    5 
 5/11/06 10:20p   26.4   26.5   26.4    87   24.1  11.3     N  0.94  22.5    NW   26.4   29.6   29.6  1006.3  0.00   0.0   0.000   0.028   29.0    83   25.8   35.5   114    1    100.0    5 
 5/11/06 10:25p   26.6   26.6   26.5    86   24.0  12.9     N  1.07  25.7     N   26.3   29.7   29.5  1006.3  0.00   0.0   0.000   0.029   29.0    83   25.8   35.5   114    1    100.0    5 
 5/11/06 10:30p   26.7   26.8   26.6    86   24.1  14.5     N  1.21  27.4   NNE   26.1   29.9   29.3  1006.5  0.00   0.0   0.000   0.029   29.0    83   25.8   35.5   114    1    100.0    5 
 5/11/06 10:35p   26.8   26.8   26.8    85   24.0  12.9     N  1.07  22.5     N   26.6   30.0   29.8  1006.5  0.00   0.0   0.000   0.029   29.0    83   25.8   35.5   114    1    100.0    5 
 5/11/06 10:40p   26.8   26.9   26.8    85   24.1  11.3     N  0.94  22.5   NNW   26.8   30.2   30.2  1006.5  0.00   0.0   0.000   0.030   29.0    83   25.8   35.5   113    1     99.1    5 
 5/11/06 10:45p   26.8   26.8   26.8    83   23.6  14.5     N  1.21  22.5     N   26.2   29.8   29.2  1006.1  0.00   0.0   0.000   0.029   29.0    83   25.8   35.5   114    1    100.0    5 
 5/11/06 10:50p   26.9   27.0   26.8    81   23.4  16.1     N  1.34  27.4     N   26.1   29.8   29.0  1006.1  0.00   0.0   0.000   0.030   29.0    83   25.8   35.5   111    1     97.4    5 
 5/11/06 10:55p   27.1   27.1   27.0    81   23.5  12.9     N  1.07  22.5   NNE   26.8   30.1   29.8  1006.1  0.00   0.0   0.000   0.030   29.0    82   25.6   35.3   113    1     99.1    5 
 5/11/06 11:00p   27.1   27.1   27.1    81   23.6  12.9     N  1.07  27.4   NNE   26.9   30.2   30.0  1005.8  0.00   0.0   0.000   0.030   28.9    82   25.5   35.1   112    1     98.2    5 
 5/11/06 11:05p   27.2   27.2   27.1    81   23.6  12.9     N  1.07  29.0     N   26.9   30.3   30.1  1005.8  0.00   0.0   0.000   0.031   28.9    82   25.5   35.1   112    1     98.2    5 
 5/11/06 11:10p   27.2   27.2   27.2    81   23.7  14.5     N  1.21  29.0     N   26.7   30.4   29.9  1005.8  0.00   0.0   0.000   0.031   28.9    82   25.6   35.2   114    1    100.0    5 
 5/11/06 11:15p   27.2   27.3   27.2    81   23.7  16.1     N  1.34  30.6     N   26.4   30.4   29.6  1005.5  0.25   0.0   0.000   0.031   28.9    82   25.5   35.1   113    1     99.1    5 
 5/11/06 11:20p   27.2   27.3   26.9    82   23.8  19.3     N  1.61  38.6    NW   26.0   30.4   29.3  1005.5  0.00   0.0   0.000   0.031   28.9    82   25.5   35.1   112    1     98.2    5 
 5/11/06 11:25p   26.7   26.9   26.6    84   23.7  14.5     N  1.21  29.0     N   26.1   29.7   29.1  1005.5  0.00   0.0   0.000   0.029   28.9    82   25.5   35.1   113    1     99.1    5 
 5/11/06 11:30p   26.5   26.6   26.5    86   24.0  12.9     N  1.07  32.2   NNE   26.3   29.6   29.4  1004.8  0.00   0.0   0.000   0.028   28.9    82   25.5   35.1   114    1    100.0    5 
 5/11/06 11:35p   26.5   26.7   26.5    85   23.8  16.1     N  1.34  30.6   NNE   25.6   29.4   28.6  1004.8  0.00   0.0   0.000   0.028   28.9    83   25.7   35.3   113    1     99.1    5 
 5/11/06 11:40p   26.7   26.9   26.7    84   23.8  17.7     N  1.48  30.6   NNE   25.7   29.8   28.7  1004.8  0.00   0.0   0.000   0.029   28.9    83   25.7   35.3   114    1    100.0    5 
 5/11/06 11:45p   26.9   27.0   26.9    83   23.8  16.1     N  1.34  29.0     N   26.1   30.1   29.3  1004.3  0.00   0.0   0.000   0.030   28.8    83   25.7   35.1   114    1    100.0    5 
 5/11/06 11:50p   27.1   27.2   27.0    82   23.7  19.3     N  1.61  35.4   NNE   25.9   30.2   29.1  1004.3  0.00   0.0   0.000   0.030   28.8    83   25.6   34.9   113    1     99.1    5 
 5/11/06 11:55p   27.2   27.2   27.2    82   23.9  20.9     N  1.74  40.2   NNE   25.9   30.6   29.2  1004.3  0.00   0.0   0.000   0.031   28.8    83   25.7   35.1   114    1    100.0    5 
 5/12/06 12:00a   27.1   27.2   27.0    83   23.9  22.5     N  1.88  35.4   NNE   25.6   30.3   28.8  1003.9  0.00   0.0   0.000   0.030   28.8    83   25.6   34.9   114    1    100.0    5 
 5/12/06 12:05a   27.0   27.0   27.0    83   23.9  24.1     N  2.01  43.5     N   25.4   30.2   28.6  1003.9  0.00   0.0   0.000   0.030   28.8    83   25.6   34.9   113    1     99.1    5 
 5/12/06 12:10a   26.9   27.0   26.8    84   24.0  20.9     N  1.74  46.7     N   25.5   30.1   28.7  1003.9  0.00   0.0   0.000   0.030   28.8    83   25.6   34.9   113    1     99.1    5 
 5/12/06 12:15a   26.8   26.8   26.8    85   24.0  25.7     N  2.15  41.8     N   25.0   30.0   28.2  1003.8  0.25   0.0   0.000   0.029   28.8    84   25.8   35.1   114    1    100.0    5 
 5/12/06 12:20a   26.8   26.8   26.7    86   24.2  24.1     N  2.01  48.3     N   25.1   30.2   28.5  1003.8  0.00   0.0   0.000   0.029   28.7    84   25.7   34.9   113    1     99.1    5 
 5/12/06 12:25a   26.7   26.8   26.7    85   23.9  24.1     N  2.01  35.4   NNE   25.0   29.8   28.1  1003.8  0.00   0.0   0.000   0.029   28.7    84   25.7   34.9   114    1    100.0    5 
 5/12/06 12:30a   26.7   26.7   26.7    83   23.5  20.9     N  1.74  38.6   NNE   25.3   29.6   28.2  1003.4  0.00   0.0   0.000   0.029   28.7    84   25.7   34.8   114    1    100.0    5 
 5/12/06 12:35a   26.7   26.7   26.7    83   23.5  22.5     N  1.88  41.8     N   25.1   29.6   28.0  1003.4  0.00   0.0   0.000   0.029   28.7    83   25.5   34.6    87    1     76.3    5 
 5/12/06 12:40a   26.7   26.8   26.7    82   23.4  24.1     N  2.01  35.4     N   25.1   29.5   27.8  1003.4  0.00   0.0   0.000   0.029   28.7    83   25.5   34.6    97    1     85.1    5 
 5/12/06 12:45a   26.8   26.8   26.8    82   23.4  19.3     N  1.61  38.6   NNE   25.6   29.7   28.4  1003.3  0.00   0.0   0.000   0.029   28.7    83   25.5   34.6   114    1    100.0    5 
 5/12/06 12:50a   26.8   26.9   26.8    82   23.5  17.7     N  1.48  32.2   NNE   25.8   29.8   28.7  1003.3  0.00   0.0   0.000   0.030   28.7    83   25.5   34.6   114    1    100.0    5 
 5/12/06 12:55a   27.0   27.0   26.9    82   23.7  27.4     N  2.28  53.1     N   25.2   30.1   28.3  1003.3  0.00   0.0   0.000   0.030   28.7    83   25.5   34.8   114    1    100.0    5 
 5/12/06  1:00a   26.9   27.0   26.8    83   23.8  22.5     N  1.88  43.5     N   25.4   30.0   28.5  1002.9  0.00   0.0   0.000   0.030   28.8    83   25.6   34.9   114    1    100.0    5 
 5/12/06  1:05a   26.8   26.8   26.8    83   23.6  17.7     N  1.48  32.2    NE   25.7   29.8   28.7  1002.9  0.00   0.0   0.000   0.029   28.8    83   25.6   34.9   114    1    100.0    5 
 5/12/06  1:10a   26.8   26.8   26.8    84   23.8  17.7     N  1.48  35.4     N   25.7   29.9   28.8  1002.9  0.00   0.0   0.000   0.029   28.8    83   25.6   34.9   114    1    100.0    5 
 5/12/06  1:15a   26.7   26.8   26.7    84   23.7  20.9     N  1.74  40.2    NE   25.3   29.7   28.3  1002.9  0.00   0.0   0.000   0.029   28.8    83   25.6   34.9   114    1    100.0    5 
 5/12/06  1:20a   26.6   26.7   26.6    83   23.5  20.9     N  1.74  40.2   NNE   25.2   29.4   28.1  1002.9  0.00   0.0   0.000   0.029   28.8    83   25.6   34.9   114    1    100.0    5 
 5/12/06  1:25a   26.6   26.6   26.6    83   23.4  22.5     N  1.88  41.8   NNE   25.0   29.3   27.8  1002.9  0.00   0.0   0.000   0.029   28.9    82   25.5   35.1   113    1     99.1    5 
 5/12/06  1:30a   26.6   26.6   26.6    83   23.4  20.9     N  1.74  40.2   NNE   25.2   29.3   27.9  1002.4  0.00   0.0   0.000   0.029   28.9    82   25.5   35.1   114    1    100.0    5 
 5/12/06  1:35a   26.6   26.6   26.6    83   23.4  17.7     N  1.48  32.2   NNE   25.5   29.3   28.3  1002.4  0.00   0.0   0.000   0.029   28.8    82   25.4   34.8   113    1     99.1    5 
 5/12/06  1:40a   26.6   26.6   26.6    83   23.4  20.9     N  1.74  35.4   NNE   25.2   29.3   27.9  1002.4  0.00   0.0   0.000   0.029   28.8    82   25.5   34.9   114    1    100.0    5 
 5/12/06  1:45a   26.6   26.7   26.6    82   23.3  19.3     N  1.61  35.4     N   25.4   29.3   28.1  1002.2  0.00   0.0   0.000   0.029   28.8    82   25.4   34.8   114    1    100.0    5 
 5/12/06  2:01a   26.9   26.9   26.9    80   23.1  25.7     N  0.43  30.6     N   25.2   29.6   27.9  1001.9  0.00   0.0   0.000   0.006    ---    81    ---    ---     8    1     34.8    1 
 5/12/06  2:02a   26.9   26.9   26.9    80   23.1  20.9     N  0.35  35.4   NNE   25.5   29.6   28.2  1001.9  0.00   0.0   0.000   0.006   28.8    81   25.2   34.6    23    1    100.0    1 
 5/12/06  2:03a   27.0   27.0   26.9    80   23.3  20.9     N  0.35  32.2     N   25.7   29.8   28.5  1001.9  0.00   0.0   0.000   0.006   28.8    81   25.2   34.6    23    1    100.0    1 
 5/12/06  2:04a   27.0   27.0   27.0    80   23.3  16.1     N  0.27  22.5     N   26.2   29.8   29.0  1001.9  0.00   0.0   0.000   0.006   28.8    81   25.2   34.6    22    1     95.7    1 
 5/12/06  2:05a   27.0   27.0   27.0    81   23.5  16.1     N  0.27  29.0   NNE   26.2   29.9   29.1  1001.9  0.00   0.0   0.000   0.006   28.8    81   25.2   34.6    22    1     95.7    1 
 5/12/06  2:06a   26.9   26.9   26.9    81   23.4  12.9     N  0.21  20.9   NNE   26.7   29.7   29.5  1001.9  0.00   0.0   0.000   0.006   28.8    81   25.2   34.6    23    1    100.0    1 
 5/12/06  2:07a   26.9   26.9   26.8    82   23.6  22.5     N  0.38  32.2     N   25.4   29.9   28.4  1001.9  0.00   0.0   0.000   0.006   28.8    81   25.2   34.6    23    1    100.0    1 
 5/12/06  2:08a   26.8   26.8   26.8    82   23.4  20.9     N  0.35  32.2     N   25.4   29.7   28.3  1001.9  0.00   0.0   0.000   0.006   28.8    81   25.2   34.6    22    1     95.7    1 
 5/12/06  2:09a   26.7   26.8   26.7    82   23.4  27.4     N  0.46  40.2   NNE   24.8   29.5   27.6  1001.9  0.00   0.0   0.000   0.006   28.8    81   25.2   34.6    23    1    100.0    1 
 5/12/06  2:10a   26.7   26.7   26.7    82   23.3  19.3   NNE  0.32  25.7   NNE   25.4   29.4   28.2  1001.9  0.00   0.0   0.000   0.006   28.8    81   25.2   34.6    21    1     91.3    1 
 5/12/06  2:11a   26.6   26.7   26.6    82   23.3  24.1     N  0.40  35.4   NNE   24.9   29.3   27.7  1001.9  0.00   0.0   0.000   0.006   28.8    81   25.2   34.6    23    1    100.0    1 
 5/12/06  2:12a   26.6   26.6   26.6    83   23.4  19.3     N  0.32  30.6     N   25.3   29.3   28.1  1001.9  0.00   0.0   0.000   0.006   28.8    81   25.2   34.6    22    1     95.7    1 
 5/12/06  2:13a   26.6   26.6   26.6    83   23.4  12.9     N  0.21  20.9     N   26.3   29.3   29.1  1001.9  0.00   0.0   0.000   0.006   28.8    81   25.2   34.6    23    1    100.0    1 
 5/12/06  2:14a   26.6   26.6   26.6    83   23.4   6.4     N  0.11  12.9     N   26.6   29.3   29.3  1001.9  0.00   0.0   0.000   0.006   28.8    81   25.2   34.6    23    1    100.0    1 
 5/12/06  2:15a   26.6   26.6   26.6    83   23.4  11.3     N  0.19  16.1     N   26.6   29.3   29.3  1001.5  0.00   0.0   0.000   0.006   28.8    81   25.2   34.6    22    1     95.7    1 
 5/12/06  2:16a   26.6   26.6   26.5    83   23.4  12.9     N  0.21  17.7   NNE   26.3   29.3   29.1  1001.5  0.00   0.0   0.000   0.006   28.8    81   25.2   34.6    23    1    100.0    1 
 5/12/06  2:17a   26.6   26.6   26.5    83   23.4   9.7     N  0.16  17.7   NNW   26.6   29.3   29.3  1001.5  0.00   0.0   0.000   0.006   28.8    81   25.2   34.6    22    1     95.7    1 
 5/12/06  2:18a   26.6   26.6   26.5    83   23.4   9.7     N  0.16  16.1     N   26.6   29.3   29.3  1001.5  0.00   0.0   0.000   0.006   28.8    81   25.2   34.6    22    1     95.7    1 
 5/12/06  2:19a   26.6   26.6   26.5    83   23.4  11.3     N  0.19  17.7   NNW   26.6   29.3   29.3  1001.5  0.00   0.0   0.000   0.006   28.8    81   25.2   34.6    21    1     91.3    1 
 5/12/06  2:20a   26.5   26.5   26.5    83   23.4  17.7   NNE  0.30  25.7   NNE   25.4   29.2   28.2  1001.5  0.00   0.0   0.000   0.006   28.8    81   25.2   34.6    22    1     95.7    1 
 5/12/06  2:21a   26.6   26.6   26.5    83   23.4  12.9     N  0.21  20.9   NNE   26.3   29.3   29.1  1001.5  0.00   0.0   0.000   0.006   28.8    81   25.2   34.6    23    1    100.0    1 
 5/12/06  2:22a   26.6   26.6   26.6    83   23.4  12.9     N  0.21  29.0    NE   26.3   29.3   29.1  1001.5  0.00   0.0   0.000   0.006   28.8    81   25.2   34.6    23    1    100.0    1 
 5/12/06  2:23a   26.6   26.6   26.6    83   23.4  20.9     N  0.35  29.0     N   25.2   29.3   27.9  1001.5  0.00   0.0   0.000   0.006   28.8    81   25.2   34.6    23    1    100.0    1 
 5/12/06  2:24a   26.6   26.6   26.6    83   23.4  16.1     N  0.27  22.5     N   25.7   29.3   28.4  1001.5  0.00   0.0   0.000   0.006   28.8    81   25.2   34.6    23    1    100.0    1 
 5/12/06  2:25a   26.6   26.6   26.6    83   23.4  11.3     N  0.19  22.5   NNE   26.6   29.3   29.3  1001.5  0.00   0.0   0.000   0.006   28.8    81   25.2   34.6    21    1     91.3    1 
 5/12/06  2:26a   26.6   26.6   26.6    83   23.4  12.9     N  0.21  19.3   NNE   26.3   29.3   29.1  1001.5  0.00   0.0   0.000   0.006   28.8    81   25.2   34.6    23    1    100.0    1 
 5/12/06  2:27a   26.6   26.6   26.6    83   23.4  14.5   NNE  0.24  25.7     N   25.9   29.3   28.7  1001.5  0.00   0.0   0.000   0.006   28.8    81   25.2   34.6    23    1    100.0    1 
 5/12/06  2:28a   26.6   26.6   26.6    83   23.4  20.9   NNE  0.35  35.4   NNE   25.2   29.3   27.9  1001.5  0.00   0.0   0.000   0.006   28.8    81   25.2   34.6    22    1     95.7    1 
 5/12/06  2:29a   26.6   26.6   26.5    83   23.4  19.3   NNE  0.32  29.0    NE   25.3   29.3   28.1  1001.5  0.25   0.0   0.000   0.006   28.8    81   25.2   34.6    23    1    100.0    1 
 5/12/06  2:30a   26.5   26.5   26.5    83   23.4  19.3     N  0.32  29.0     N   25.2   29.2   27.9  1001.4  0.00   0.0   0.000   0.006   28.8    81   25.2   34.6    22    1     95.7    1 
 5/12/06  2:31a   26.4   26.5   26.4    84   23.5  22.5     N  0.38  35.4    NE   24.8   29.1   27.6  1001.4  0.00   0.0   0.000   0.006   28.8    81   25.2   34.6    23    1    100.0    1 
 5/12/06  2:32a   26.4   26.4   26.4    84   23.5  17.7     N  0.30  29.0     N   25.3   29.1   28.1  1001.4  0.00   0.0   0.000   0.006   28.8    81   25.2   34.6    22    1     95.7    1 
 5/12/06  2:33a   26.4   26.4   26.4    84   23.5  20.9     N  0.35  30.6     N   24.9   29.1   27.7  1001.4  0.00   0.0   0.000   0.006   28.8    81   25.2   34.6    23    1    100.0    1 
 5/12/06  2:34a   26.3   26.3   26.3    84   23.4  24.1     N  0.40  40.2   NNE   24.6   28.9   27.2  1001.4  0.00   0.0   0.000   0.006   28.8    81   25.2   34.6    22    1     95.7    1 
 5/12/06  2:35a   26.3   26.3   26.3    84   23.4  30.6     N  0.51  45.1   NNE   24.1   28.9   26.8  1001.4  0.00   0.0   0.000   0.006   28.8    81   25.2   34.6    22    1     95.7    1 
 5/12/06  2:36a   26.4   26.4   26.3    83   23.3  24.1     N  0.40  33.8   NNE   24.7   29.0   27.3  1001.4  0.00   0.0   0.000   0.006   28.8    81   25.2   34.6    23    1    100.0    1 
 5/12/06  2:37a   26.4   26.4   26.4    83   23.3  27.4   NNE  0.46  40.2   NNE   24.4   29.0   27.1  1001.4  0.00   0.0   0.000   0.006   28.8    81   25.2   34.6    23    1    100.0    1 
 5/12/06  2:38a   26.4   26.4   26.4    83   23.3  27.4     N  0.46  43.5     N   24.4   29.0   27.1  1001.4  0.00   0.0   0.000   0.006   28.7    81   25.1   34.3    23    1    100.0    1 
 5/12/06  2:39a   26.4   26.4   26.4    83   23.3  25.7     N  0.43  38.6   NNE   24.6   29.0   27.2  1001.4  0.00   1.3   0.000   0.006   28.7    81   25.1   34.3    23    1    100.0    1 
 5/12/06  2:40a   26.4   26.4   26.4    83   23.3  22.5     N  0.38  29.0   NNE   24.8   29.0   27.4  1001.4  0.25   1.3   0.000   0.006   28.7    81   25.1   34.3    22    1     95.7    1 
 5/12/06  2:41a   26.3   26.4   26.3    84   23.4  20.9     N  0.35  35.4     N   24.9   29.1   27.6  1001.4  0.00   1.3   0.000   0.006   28.7    82   25.3   34.4    23    1    100.0    1 
 5/12/06  2:42a   26.3   26.3   26.3    84   23.4  25.7     N  0.43  41.8   NNE   24.4   28.9   27.1  1001.4  0.00   1.3   0.000   0.006   28.6    82   25.2   34.1    23    1    100.0    1 
 5/12/06  2:43a   26.3   26.3   26.3    84   23.4  24.1   NNE  0.40  32.2   NNE   24.6   28.9   27.2  1001.4  0.00   1.3   0.000   0.006   28.6    82   25.2   34.1    23    1    100.0    1 
 5/12/06  2:44a   26.3   26.3   26.3    84   23.4  27.4     N  0.46  45.1     N   24.3   28.9   27.0  1001.4  0.00   1.3   0.000   0.006   28.6    82   25.2   34.1    23    1    100.0    1 
 5/12/06  2:45a   26.3   26.3   26.3    84   23.4  29.0   NNE  0.48  40.2   NNE   24.2   28.9   26.9  1000.9  0.00   1.3   0.000   0.006   28.6    82   25.2   34.1    22    1     95.7    1 
 5/12/06  2:46a   26.3   26.3   26.3    84   23.4  33.8   NNE  0.56  45.1   NNE   23.9   28.9   26.6  1000.9  0.00   1.3   0.000   0.006   28.6    82   25.2   34.1    23    1    100.0    1 
 5/12/06  2:47a   26.3   26.3   26.3    84   23.4  22.5     N  0.38  32.2   NNE   24.7   28.9   27.3  1000.9  0.00   1.3   0.000   0.006   28.6    82   25.2   34.1    23    1    100.0    1 
 5/12/06  2:48a   26.3   26.3   26.3    84   23.4  16.1   NNE  0.27  27.4   NNE   25.3   28.9   28.0  1000.9  0.00   1.3   0.000   0.006   28.4    82   25.1   33.8    23    1    100.0    1 
 5/12/06  2:49a   26.3   26.3   26.3    84   23.4  19.3     N  0.32  46.7     N   25.0   28.9   27.7  1000.9  0.00   1.3   0.000   0.006   28.4    82   25.1   33.8    23    1    100.0    1 
 5/12/06  2:50a   26.3   26.3   26.3    84   23.4  24.1   NNE  0.40  46.7     N   24.6   28.9   27.2  1000.9  0.00   1.3   0.000   0.006   28.4    82   25.1   33.8    22    1     95.7    1 
 5/12/06  2:51a   26.3   26.3   26.3    84   23.4  16.1     N  0.27  25.7   NNE   25.3   28.9   28.0  1000.9  0.00   1.3   0.000   0.006   28.4    82   25.1   33.8    23    1    100.0    1 
 5/12/06  2:52a   26.3   26.3   26.3    84   23.4  24.1     N  0.40  40.2   ENE   24.6   28.9   27.2  1000.9  0.00   1.3   0.000   0.006   28.4    82   25.1   33.8    23    1    100.0    1 
 5/12/06  2:53a   26.3   26.3   26.3    83   23.2  27.4     N  0.46  43.5     N   24.3   28.8   26.9  1000.9  0.00   1.0   0.000   0.006   28.4    82   25.1   33.8    23    1    100.0    1 
 5/12/06  2:54a   26.3   26.3   26.3    83   23.2  25.7     N  0.43  35.4   NNE   24.4   28.8   27.0  1000.9  0.00   1.0   0.000   0.006   28.4    82   25.1   33.8    22    1     95.7    1 
 5/12/06  2:55a   26.3   26.3   26.3    83   23.2  22.5   NNE  0.38  33.8     N   24.7   28.8   27.2  1000.9  0.00   1.0   0.000   0.006   28.4    82   25.1   33.8    22    1     95.7    1 
 5/12/06  2:56a   26.3   26.3   26.3    83   23.2  29.0     N  0.48  43.5     N   24.2   28.8   26.8  1000.9  0.00   0.0   0.000   0.006   28.4    82   25.1   33.8    23    1    100.0    1 
 5/12/06  2:57a   26.3   26.3   26.3    83   23.2  20.9     N  0.35  29.0   NNE   24.8   28.8   27.4  1000.9  0.00   0.0   0.000   0.006   28.4    82   25.1   33.8    23    1    100.0    1 
 5/12/06  2:58a   26.3   26.3   26.3    83   23.2  25.7   NNE  0.43  35.4   NNE   24.4   28.8   27.0  1000.9  0.00   0.0   0.000   0.006   28.4    82   25.1   33.8    23    1    100.0    1 
 5/12/06  2:59a   26.3   26.3   26.3    83   23.2  22.5   NNE  0.38  30.6   NNE   24.7   28.8   27.2  1000.9  0.00   0.0   0.000   0.006   28.3    82   25.0   33.5    22    1     95.7    1 
 5/12/06  3:00a   26.3   26.3   26.3    83   23.2  22.5     N  0.38  27.4     N   24.7   28.8   27.2  1000.8  0.00   0.0   0.000   0.006   28.3    82   25.0   33.5    22    1     95.7    1 
 5/12/06  3:01a   26.3   26.3   26.3    84   23.4  20.9     N  0.35  32.2     N   24.8   28.9   27.5  1000.8  0.00   0.0   0.000   0.006   28.3    82   25.0   33.5    23    1    100.0    1 
 5/12/06  3:02a   26.3   26.3   26.3    84   23.4  16.1     N  0.27  25.7     N   25.3   28.9   28.0  1000.8  0.00   0.0   0.000   0.006   28.3    82   25.0   33.5    23    1    100.0    1 
 5/12/06  3:03a   26.2   26.3   26.2    84   23.3  25.7     N  0.43  40.2     N   24.3   28.8   26.9  1000.8  0.00   0.0   0.000   0.005   28.3    82   25.0   33.5    23    1    100.0    1 
 5/12/06  3:04a   26.2   26.2   26.2    84   23.2  24.1   NNE  0.40  40.2   NNW   24.4   28.7   26.9  1000.8  0.00   0.0   0.000   0.005   28.3    82   25.0   33.5    23    1    100.0    1 
 5/12/06  3:05a   26.2   26.3   26.2    84   23.3  22.5     N  0.38  40.2   NNE   24.6   28.8   27.2  1000.8  0.00   0.0   0.000   0.005   28.3    82   25.0   33.5    22    1     95.7    1 
 5/12/06  3:06a   26.3   26.3   26.3    84   23.4  24.1     N  0.40  33.8   NNE   24.6   28.9   27.2  1000.8  0.00   0.0   0.000   0.006   28.3    82   25.0   33.5    23    1    100.0    1 
 5/12/06  3:07a   26.3   26.3   26.3    84   23.4  17.7     N  0.30  30.6     N   25.2   28.9   27.8  1000.8  0.00   0.0   0.000   0.006   28.3    82   25.0   33.5    23    1    100.0    1 
 5/12/06  3:08a   26.3   26.3   26.3    84   23.4  17.7   NNE  0.30  32.2   NNE   25.2   28.9   27.8  1000.8  0.00   0.0   0.000   0.006   28.3    82   25.0   33.5    23    1    100.0    1 
 5/12/06  3:09a   26.3   26.3   26.3    84   23.4  20.9     N  0.35  33.8   NNE   24.8   28.9   27.5  1000.8  0.00   0.0   0.000   0.006   28.3    82   25.0   33.5    23    1    100.0    1 
 5/12/06  3:10a   26.3   26.3   26.3    84   23.4  19.3   NNE  0.32  27.4    NE   25.0   28.9   27.7  1000.8  0.00   0.0   0.000   0.006   28.3    82   25.0   33.5    22    1     95.7    1 
 5/12/06  3:11a   26.3   26.4   26.3    84   23.4  16.1     N  0.27  22.5    NE   25.4   29.1   28.1  1000.8  0.00   0.0   0.000   0.006   28.3    82   25.0   33.5    23    1    100.0    1 
 5/12/06  3:12a   26.4   26.4   26.4    83   23.3  16.1     N  0.27  24.1     N   25.5   29.0   28.1  1000.8  0.00   0.0   0.000   0.006   28.3    82   25.0   33.5    23    1    100.0    1 
 5/12/06  3:13a   26.4   26.4   26.4    84   23.5  25.7     N  0.43  40.2    NE   24.6   29.1   27.3  1000.8  0.00   0.0   0.000   0.006   28.3    82   25.0   33.5    23    1    100.0    1 
 5/12/06  3:14a   26.4   26.4   26.4    84   23.5  19.3     N  0.32  29.0     N   25.1   29.1   27.8  1000.8  0.00   0.0   0.000   0.006   28.3    82   25.0   33.5    23    1    100.0    1 
 5/12/06  3:15a   26.4   26.5   26.4    84   23.5  22.5     N  0.38  32.2   NNE   24.8   29.1   27.6  1000.7  0.00   0.0   0.000   0.006   28.3    82   25.0   33.5    21    1     91.3    1 
 5/12/06  3:16a   26.5   26.5   26.5    84   23.6  19.3     N  0.32  30.6     N   25.2   29.3   28.1  1000.7  0.00   0.0   0.000   0.006   28.4    82   25.1   33.8    23    1    100.0    1 
 5/12/06  3:17a   26.5   26.5   26.5    84   23.6  22.5   NNE  0.38  33.8   NNE   24.9   29.3   27.8  1000.7  0.00   0.0   0.000   0.006   28.4    82   25.1   33.8    23    1    100.0    1 
 5/12/06  3:18a   26.5   26.5   26.5    84   23.6  25.7     N  0.43  30.6    NE   24.7   29.3   27.5  1000.7  0.00   0.0   0.000   0.006   28.4    83   25.3   33.9    23    1    100.0    1 
 5/12/06  3:19a   26.5   26.5   26.5    83   23.4  24.1   NNE  0.40  41.8   NNE   24.8   29.2   27.5  1000.7  0.00   0.0   0.000   0.006   28.4    83   25.3   33.9    22    1     95.7    1 
 5/12/06  3:20a   26.5   26.5   26.5    84   23.6  20.9   NNE  0.35  30.6   NNE   25.1   29.3   27.9  1000.7  0.00   0.0   0.000   0.006   28.3    83   25.2   33.6    22    1     95.7    1 
 5/12/06  3:21a   26.5   26.5   26.5    83   23.4  20.9     N  0.35  32.2   NNE   25.1   29.2   27.8  1000.7  0.00   0.0   0.000   0.006   28.3    83   25.2   33.6    23    1    100.0    1 
 5/12/06  3:22a   26.6   26.6   26.5    83   23.4  24.1   NNE  0.40  40.2   NNE   24.9   29.3   27.7  1000.7  0.00   0.0   0.000   0.006   28.3    83   25.2   33.6    23    1    100.0    1 
 5/12/06  3:23a   26.6   26.6   26.6    83   23.4  22.5   NNE  0.38  32.2   NNE   25.0   29.3   27.8  1000.7  0.00   0.0   0.000   0.006   28.3    83   25.2   33.6    23    1    100.0    1 
 5/12/06  3:24a   26.6   26.6   26.6    83   23.4  22.5     N  0.38  32.2    NE   25.0   29.3   27.8  1000.7  0.00   0.0   0.000   0.006   28.3    83   25.2   33.6    23    1    100.0    1 
 5/12/06  3:25a   26.6   26.6   26.6    83   23.4  20.9     N  0.35  29.0   NNE   25.2   29.3   27.9  1000.7  0.00   0.0   0.000   0.006   28.3    83   25.2   33.6    22    1     95.7    1 
 5/12/06  3:26a   26.6   26.7   26.6    83   23.5  16.1   NNE  0.27  22.5     N   25.7   29.4   28.6  1000.7  0.00   0.0   0.000   0.006   28.3    83   25.2   33.6    23    1    100.0    1 
 5/12/06  3:27a   26.7   26.7   26.7    83   23.5  17.7   NNE  0.30  29.0   NNE   25.6   29.6   28.5  1000.7  0.00   0.0   0.000   0.006   28.3    83   25.2   33.6    23    1    100.0    1 
 5/12/06  3:28a   26.7   26.7   26.7    83   23.5  12.9   NNE  0.21  17.7     N   26.4   29.6   29.3  1000.7  0.00   0.0   0.000   0.006   28.3    83   25.2   33.6    23    1    100.0    1 
 5/12/06  3:29a   26.7   26.7   26.7    83   23.5  11.3     N  0.19  17.7   NNE   26.7   29.6   29.6  1000.7  0.00   0.0   0.000   0.006   28.3    83   25.2   33.6    22    1     95.7    1 
 5/12/06  3:30a   26.7   26.7   26.7    83   23.5  20.9     N  0.35  32.2     N   25.3   29.6   28.2  1000.4  0.00   0.0   0.000   0.006   28.3    83   25.2   33.6    22    1     95.7    1 
 5/12/06  3:31a   26.7   26.7   26.7    83   23.5  24.1     N  0.40  40.2    NE   25.0   29.6   27.9  1000.4  0.00   0.0   0.000   0.006   28.3    83   25.2   33.6    23    1    100.0    1 
 5/12/06  3:32a   26.7   26.7   26.7    83   23.5  22.5     N  0.38  30.6    NE   25.1   29.6   28.0  1000.4  0.00   0.0   0.000   0.006   28.3    83   25.2   33.6    22    1     95.7    1 
 5/12/06  3:33a   26.7   26.7   26.7    84   23.7  20.9   NNE  0.35  29.0   NNE   25.3   29.7   28.3  1000.4  0.00   0.0   0.000   0.006   28.4    83   25.3   33.9    23    1    100.0    1 
 5/12/06  3:34a   26.7   26.7   26.7    84   23.7  19.3     N  0.32  25.7     N   25.4   29.7   28.4  1000.4  0.00   0.0   0.000   0.006   28.4    83   25.3   33.9    23    1    100.0    1 
 5/12/06  3:35a   26.7   26.7   26.6    84   23.7  24.1   NNE  0.40  38.6   NNE   25.0   29.7   28.0  1000.4  0.00   0.0   0.000   0.006   28.4    83   25.3   33.9    22    1     95.7    1 
 5/12/06  3:36a   26.6   26.6   26.6    84   23.6  27.4   NNE  0.46  43.5    NE   24.7   29.4   27.6  1000.4  0.00   0.0   0.000   0.006   28.4    83   25.3   33.9    23    1    100.0    1 
 5/12/06  3:37a   26.6   26.6   26.6    84   23.6  20.9     N  0.35  38.6     N   25.2   29.4   28.1  1000.4  0.00   0.0   0.000   0.006   28.4    83   25.3   33.9    23    1    100.0    1 
 5/12/06  3:38a   26.6   26.6   26.6    84   23.6  17.7   NNE  0.30  25.7   NNW   25.5   29.4   28.4  1000.4  0.00   0.0   0.000   0.006   28.4    84   25.5   34.1    23    1    100.0    1 
 5/12/06  3:39a   26.5   26.6   26.5    84   23.6  17.7   NNE  0.30  29.0     N   25.4   29.3   28.3  1000.4  0.00   0.0   0.000   0.006   28.4    84   25.5   34.1    23    1    100.0    1 
 5/12/06  3:40a   26.5   26.5   26.5    84   23.6  22.5   NNE  0.38  32.2   NNE   24.9   29.3   27.8  1000.4  0.00   0.0   0.000   0.006   28.3    84   25.4   33.8    22    1     95.7    1 
 5/12/06  3:41a   26.4   26.5   26.4    84   23.5  27.4     N  0.46  38.6    NE   24.5   29.2   27.3  1000.4  0.00   0.0   0.000   0.006   28.4    84   25.5   34.1    22    1     95.7    1 
 5/12/06  3:42a   26.4   26.4   26.4    84   23.5  17.7     N  0.30  22.5   NNE   25.3   29.1   28.1  1000.4  0.00   0.0   0.000   0.006   28.4    83   25.3   33.9    23    1    100.0    1 
 5/12/06  3:43a   26.4   26.4   26.4    84   23.5  14.5     N  0.24  20.9     N   25.8   29.1   28.5  1000.4  0.00   0.0   0.000   0.006   28.3    83   25.2   33.6    22    1     95.7    1 
 5/12/06  3:44a   26.4   26.4   26.4    85   23.7  20.9     N  0.35  29.0   NNE   24.9   29.2   27.8  1000.4  0.00   0.0   0.000   0.006   28.3    83   25.2   33.6    23    1    100.0    1 
 5/12/06  3:45a   26.4   26.4   26.4    85   23.7  11.3     N  0.19  17.7    NE   26.4   29.2   29.2  1000.5  0.00   0.0   0.000   0.006   28.3    83   25.2   33.6    22    1     95.7    1 
 5/12/06  3:46a   26.3   26.4   26.3    85   23.6  12.9     N  0.21  19.3    NE   26.1   29.2   28.9  1000.5  0.00   0.0   0.000   0.006   28.4    83   25.3   33.9    23    1    100.0    1 
 5/12/06  3:47a   26.3   26.3   26.3    85   23.6  24.1   NNE  0.40  38.6     N   24.6   29.1   27.3  1000.5  0.00   0.0   0.000   0.006   28.4    83   25.3   33.9    23    1    100.0    1 
 5/12/06  3:48a   26.3   26.4   26.3    85   23.6  16.1     N  0.27  22.5   NNE   25.4   29.2   28.2  1000.5  0.00   0.0   0.000   0.006   28.4    83   25.3   33.9    22    1     95.7    1 
 5/12/06  3:49a   26.4   26.4   26.4    85   23.7  24.1     N  0.40  30.6     N   24.7   29.2   27.5  1000.5  0.00   0.0   0.000   0.006   28.4    83   25.3   33.9    22    1     95.7    1 
 5/12/06  3:50a   26.4   26.4   26.4    85   23.7  22.5   NNE  0.38  38.6     N   24.8   29.2   27.7  1000.5  0.00   0.0   0.000   0.006   28.4    83   25.3   33.9    22    1     95.7    1 
 5/12/06  3:51a   26.4   26.5   26.4    85   23.7  19.3   NNE  0.32  27.4     N   25.2   29.3   28.1  1000.5  0.00   0.0   0.000   0.006   28.4    83   25.3   33.9    23    1    100.0    1 
 5/12/06  3:52a   26.5   26.5   26.5    84   23.6  17.7   NNE  0.30  27.4   NNE   25.4   29.3   28.3  1000.5  0.00   0.0   0.000   0.006   28.4    84   25.5   34.1    23    1    100.0    1 
 5/12/06  3:53a   26.5   26.5   26.5    84   23.6  16.1   NNE  0.27  27.4    NE   25.6   29.3   28.4  1000.5  0.00   0.0   0.000   0.006   28.4    84   25.5   34.1    22    1     95.7    1 
 5/12/06  3:54a   26.5   26.5   26.5    84   23.6  17.7   NNE  0.30  25.7   NNE   25.4   29.3   28.3  1000.5  0.00   0.0   0.000   0.006   28.4    84   25.5   34.1    23    1    100.0    1 
 5/12/06  3:55a   26.5   26.5   26.5    84   23.6  27.4     N  0.46  45.1   NNE   24.6   29.3   27.4  1000.5  0.00   0.0   0.000   0.006   28.4    84   25.5   34.1    22    1     95.7    1 
 5/12/06  3:56a   26.5   26.5   26.5    83   23.4  20.9     N  0.35  35.4     N   25.1   29.2   27.8  1000.5  0.00   0.0   0.000   0.006   28.4    84   25.5   34.1    23    1    100.0    1 
 5/12/06  3:57a   26.5   26.5   26.5    83   23.4  24.1     N  0.40  33.8   NNE   24.8   29.2   27.5  1000.5  0.00   0.0   0.000   0.006   28.4    83   25.3   33.9    17    1     73.9    1 
 5/12/06  3:58a   26.5   26.5   26.5    83   23.4  22.5     N  0.38  30.6   NNE   24.9   29.2   27.7  1000.5  0.00   0.0   0.000   0.006   28.3    83   25.2   33.6    22    1     95.7    1 
 5/12/06  3:59a   26.5   26.5   26.5    83   23.4  25.7     N  0.43  41.8     N   24.7   29.2   27.4  1000.5  0.00   0.0   0.000   0.006   28.3    83   25.2   33.6    23    1    100.0    1 
 5/12/06  4:00a   26.5   26.5   26.5    82   23.2  30.6     N  0.51  51.5     N   24.3   29.1   26.9  1000.3  0.00   0.0   0.000   0.006   28.3    83   25.2   33.6    22    1     95.7    1 
 5/12/06  4:01a   26.4   26.5   26.4    82   23.1  32.2   NNE  0.54  45.1   NNE   24.2   29.0   26.8  1000.3  0.00   0.0   0.000   0.006   28.3    83   25.2   33.6    23    1    100.0    1 
 5/12/06  4:02a   26.4   26.4   26.4    82   23.1  30.6     N  0.51  45.1     N   24.2   28.9   26.8  1000.3  0.00   0.0   0.000   0.006   28.3    83   25.2   33.6    23    1    100.0    1 
 5/12/06  4:03a   26.3   26.4   26.3    83   23.2  29.0   NNE  0.48  40.2   NNE   24.3   28.9   26.9  1000.3  0.00   0.0   0.000   0.006   28.3    82   25.0   33.5    22    1     95.7    1 
 5/12/06  4:04a   26.3   26.3   26.3    83   23.2  24.1   NNE  0.40  32.2    NE   24.6   28.8   27.1  1000.3  0.00   0.0   0.000   0.006   28.3    82   25.0   33.5    23    1    100.0    1 
 5/12/06  4:05a   26.2   26.3   26.2    83   23.0  22.5     N  0.38  32.2    NE   24.6   28.6   27.0  1000.3  0.00   0.0   0.000   0.005   28.3    83   25.2   33.6    22    1     95.7    1 
 5/12/06  4:06a   26.2   26.2   26.2    83   23.0  19.3     N  0.32  27.4   NNE   24.8   28.6   27.3  1000.3  0.00   0.0   0.000   0.005   28.2    83   25.1   33.3    23    1    100.0    1 
 5/12/06  4:07a   26.1   26.1   26.1    84   23.1  20.9     N  0.35  33.8   NNE   24.6   28.6   27.1  1000.3  0.00   0.0   0.000   0.005   28.2    83   25.1   33.3    23    1    100.0    1 
 5/12/06  4:08a   26.1   26.1   26.1    84   23.1  20.9     N  0.35  33.8   NNE   24.6   28.6   27.1  1000.3  0.00   0.0   0.000   0.005   28.2    83   25.1   33.3    23    1    100.0    1 
 5/12/06  4:09a   26.1   26.1   25.9    84   23.1  25.7   NNE  0.43  46.7   NNE   24.2   28.6   26.7  1000.3  0.00   0.0   0.000   0.005   28.2    83   25.1   33.3    23    1    100.0    1 
 5/12/06  4:10a   25.9   25.9   25.9    84   23.0  17.7     N  0.30  40.2    NE   24.8   28.4   27.2  1000.3  0.00   0.0   0.000   0.005   28.2    83   25.1   33.3    22    1     95.7    1 
 5/12/06  4:11a   25.9   25.9   25.9    85   23.2  22.5     N  0.38  38.6     N   24.3   28.4   26.8  1000.3  0.00   0.0   0.000   0.005   28.2    83   25.1   33.3    23    1    100.0    1 
 5/12/06  4:12a   25.9   25.9   25.9    85   23.2  19.3     N  0.32  33.8   NNE   24.6   28.4   27.1  1000.3  0.00   0.0   0.000   0.005   28.2    83   25.1   33.3    23    1    100.0    1 
 5/12/06  4:13a   25.9   25.9   25.9    85   23.2  19.3     N  0.32  32.2   NNW   24.6   28.4   27.1  1000.3  0.00   0.0   0.000   0.005   28.2    83   25.1   33.3    22    1     95.7    1 
 5/12/06  4:14a   25.9   25.9   25.9    85   23.2  25.7   NNE  0.43  41.8   NNE   24.0   28.4   26.5  1000.3  0.00   0.0   0.000   0.005   28.2    83   25.1   33.3    22    1     95.7    1 
 5/12/06  4:15a   25.9   25.9   25.9    85   23.2  27.4     N  0.46  33.8   NNE   23.9   28.4   26.4  1000.2  0.00   0.0   0.000   0.005   28.2    83   25.1   33.3    22    1     95.7    1 
 5/12/06  4:16a   25.9   25.9   25.9    84   23.0  20.9     N  0.35  30.6    NE   24.4   28.4   26.9  1000.2  0.00   0.0   0.000   0.005   28.2    83   25.1   33.3    23    1    100.0    1 
 5/12/06  4:17a   25.9   25.9   25.9    84   23.0  25.7   NNE  0.43  41.8   NNE   24.0   28.4   26.4  1000.2  0.00   0.0   0.000   0.005   28.2    83   25.1   33.3    23    1    100.0    1 
 5/12/06  4:18a   25.9   25.9   25.9    84   23.0  24.1     N  0.40  38.6     N   24.1   28.4   26.6  1000.2  0.00   0.0   0.000   0.005   28.2    83   25.1   33.3    22    1     95.7    1 
 5/12/06  4:19a   25.9   25.9   25.9    84   23.0  24.1   NNE  0.40  40.2     N   24.1   28.4   26.6  1000.2  0.00   0.0   0.000   0.005   28.2    83   25.1   33.3    23    1    100.0    1 
 5/12/06  4:20a   25.9   25.9   25.9    84   23.0  25.7   NNE  0.43  32.2     N   24.0   28.4   26.4  1000.2  0.00   0.0   0.000   0.005   28.2    83   25.1   33.3    22    1     95.7    1 
 5/12/06  4:21a   25.9   26.1   25.9    83   22.8  25.7   NNE  0.43  40.2   NNE   24.0   28.3   26.3  1000.2  0.00   0.0   0.000   0.005   28.1    82   24.7   32.9    23    1    100.0    1 
 5/12/06  4:22a   26.1   26.1   26.1    83   22.9  29.0     N  0.48  41.8    NE   23.9   28.4   26.3  1000.2  0.00   0.0   0.000   0.005   28.1    82   24.7   32.9    23    1    100.0    1 
 5/12/06  4:23a   26.1   26.1   26.1    83   22.9  29.0   NNE  0.48  35.4     N   23.9   28.4   26.3  1000.2  0.00   0.0   0.000   0.005   28.1    82   24.7   32.9    22    1     95.7    1 
 5/12/06  4:24a   26.1   26.1   26.1    83   22.9  24.1     N  0.40  40.2   NNE   24.3   28.4   26.7  1000.2  0.00   0.0   0.000   0.005   28.1    82   24.7   32.9    23    1    100.0    1 
 5/12/06  4:25a   26.1   26.1   26.1    83   22.9  27.4   NNE  0.46  38.6   NNE   24.1   28.4   26.4  1000.2  0.00   0.0   0.000   0.005   28.1    82   24.7   32.9    22    1     95.7    1 
 5/12/06  4:26a   26.1   26.1   26.1    84   23.1  25.7   NNE  0.43  33.8     N   24.2   28.6   26.7  1000.2  0.00   0.0   0.000   0.005   28.1    82   24.7   32.9    22    1     95.7    1 
 5/12/06  4:27a   26.1   26.1   26.1    84   23.1  24.1     N  0.40  38.6   NNE   24.3   28.6   26.8  1000.2  0.00   0.0   0.000   0.005   28.1    82   24.7   32.9    23    1    100.0    1 
 5/12/06  4:28a   26.0   26.1   25.9    84   23.1  25.7     N  0.43  43.5   NNE   24.1   28.4   26.6  1000.2  0.00   0.0   0.000   0.005   28.1    83   24.9   33.0    23    1    100.0    1 
 5/12/06  4:29a   25.9   25.9   25.9    85   23.2  24.1     N  0.40  32.2   NNE   24.1   28.4   26.6  1000.2  0.00   0.0   0.000   0.005   28.1    83   24.9   33.0    23    1    100.0    1 
 5/12/06  4:30a   25.9   25.9   25.8    85   23.2  25.7   NNE  0.43  33.8   NNE   24.0   28.4   26.5  1000.2  0.00   0.0   0.000   0.005   28.0    83   24.8   32.7    22    1     95.7    1 
 5/12/06  4:31a   25.8   25.8   25.8    85   23.1  24.1   NNE  0.40  30.6    NE   24.0   28.3   26.4  1000.2  0.00   0.0   0.000   0.005   28.0    83   24.8   32.7    23    1    100.0    1 
 5/12/06  4:32a   25.8   25.8   25.8    86   23.3  22.5     N  0.38  33.8    NE   24.2   28.4   26.7  1000.2  0.00   0.0   0.000   0.005   28.0    83   24.8   32.7    23    1    100.0    1 
 5/12/06  4:33a   25.8   25.8   25.8    86   23.3  19.3     N  0.32  29.0    NE   24.5   28.4   27.1  1000.2  0.00   0.0   0.000   0.005   28.0    83   24.8   32.7    23    1    100.0    1 
 5/12/06  4:34a   25.8   25.8   25.8    86   23.3  19.3     N  0.32  27.4   NNE   24.4   28.3   26.9  1000.2  0.00   0.0   0.000   0.005   28.0    83   24.8   32.7    23    1    100.0    1 
 5/12/06  4:35a   25.8   25.8   25.8    86   23.3  22.5   NNE  0.38  43.5   NNE   24.1   28.3   26.6  1000.2  0.00   0.0   0.000   0.005   28.0    83   24.8   32.7    22    1     95.7    1 
 5/12/06  4:36a   25.8   25.8   25.8    86   23.3  22.5   NNE  0.38  35.4    NE   24.1   28.3   26.6  1000.2  0.00   0.0   0.000   0.005   28.0    83   24.8   32.7    23    1    100.0    1 
 5/12/06  4:37a   25.8   25.8   25.8    87   23.4  27.4     N  0.46  38.6   NNE   23.7   28.4   26.3  1000.2  0.00   0.0   0.000   0.005   28.0    84   25.0   32.9    23    1    100.0    1 
 5/12/06  4:38a   25.8   25.8   25.8    87   23.4  20.9     N  0.35  30.6   NNE   24.2   28.4   26.8  1000.2  0.00   0.0   0.000   0.005   28.0    83   24.8   32.7    23    1    100.0    1 
 5/12/06  4:39a   25.8   25.8   25.8    87   23.4  22.5     N  0.38  32.2     N   24.1   28.4   26.7  1000.2  0.00   0.0   0.000   0.005   28.0    83   24.8   32.7    23    1    100.0    1 
 5/12/06  4:40a   25.8   25.8   25.8    87   23.4   9.7     N  0.16  12.9    NW   25.8   28.4   28.4  1000.2  0.00   0.0   0.000   0.005   28.0    84   25.0   32.9    22    1     95.7    1 
 5/12/06  4:41a   25.8   25.8   25.8    87   23.5  22.5   NNE  0.38  32.2   NNE   24.2   28.4   26.8  1000.2  0.00   0.0   0.000   0.005   28.0    84   25.0   32.9    23    1    100.0    1 
 5/12/06  4:42a   25.8   25.8   25.8    87   23.5  24.1   NNE  0.40  33.8   NNE   24.0   28.4   26.6  1000.2  0.00   0.0   0.000   0.005   28.0    84   25.0   32.9    23    1    100.0    1 
 5/12/06  4:43a   25.8   25.8   25.8    87   23.5  22.5     N  0.38  33.8    NE   24.2   28.4   26.8  1000.2  0.00   0.0   0.000   0.005   28.0    84   25.0   32.9    22    1     95.7    1 
 5/12/06  4:44a   25.8   25.8   25.8    87   23.5  19.3     N  0.32  30.6   NNE   24.5   28.4   27.1  1000.2  0.00   0.0   0.000   0.005   28.0    84   25.0   32.9    23    1    100.0    1 
 5/12/06  4:45a   25.8   25.8   25.8    87   23.5  22.5     N  0.38  32.2   NNE   24.2   28.4   26.8  1000.2  0.00   0.0   0.000   0.005   28.0    84   25.0   32.9    21    1     91.3    1 
 5/12/06  4:46a   25.9   25.9   25.9    87   23.6  22.5   NNE  0.38  43.5   NNE   24.3   28.7   27.0  1000.2  0.00   0.0   0.000   0.005   28.0    85   25.2   33.1    23    1    100.0    1 
 5/12/06  4:47a   25.9   25.9   25.9    87   23.6  20.9   NNE  0.35  32.2   NNE   24.4   28.7   27.2  1000.2  0.00   0.0   0.000   0.005   28.0    85   25.2   33.1    23    1    100.0    1 
 5/12/06  4:48a   25.9   25.9   25.9    87   23.6  25.7     N  0.43  45.1   NNE   24.0   28.7   26.7  1000.2  0.00   0.0   0.000   0.005   28.0    85   25.2   33.1    22    1     95.7    1 
 5/12/06  4:49a   25.9   26.1   25.9    87   23.6  22.5     N  0.38  33.8   NNE   24.3   28.7   27.0  1000.2  0.00   0.0   0.000   0.005   28.0    85   25.2   33.1    23    1    100.0    1 
 5/12/06  4:50a   26.1   26.1   26.1    86   23.5  25.7   NNE  0.43  41.8   NNE   24.2   28.7   26.8  1000.2  0.00   0.0   0.000   0.005   28.0    85   25.2   33.1    22    1     95.7    1 
 5/12/06  4:51a   26.1   26.1   26.1    86   23.5  22.5   NNE  0.38  38.6   NNE   24.4   28.7   27.1  1000.2  0.00   0.0   0.000   0.005   28.0    85   25.2   33.1    23    1    100.0    1 
 5/12/06  4:52a   26.1   26.1   26.1    86   23.5  24.1     N  0.40  33.8     N   24.3   28.7   26.9  1000.2  0.00   0.0   0.000   0.005   28.0    85   25.2   33.1    23    1    100.0    1 
 5/12/06  4:53a   26.1   26.1   26.1    86   23.5  25.7     N  0.43  35.4   NNE   24.2   28.7   26.8  1000.2  0.00   0.0   0.000   0.005   28.0    85   25.2   33.1    23    1    100.0    1 
 5/12/06  4:54a   26.2   26.2   26.2    86   23.6  16.1   NNE  0.27  25.7    NE   25.2   28.9   28.0  1000.2  0.00   0.0   0.000   0.005   28.0    85   25.2   33.1    22    1     95.7    1 
 5/12/06  4:55a   26.2   26.2   26.2    86   23.6  17.7   NNE  0.30  22.5   NNE   25.1   28.9   27.8  1000.2  0.00   0.0   0.000   0.005   28.0    85   25.2   33.1    22    1     95.7    1 
 5/12/06  4:56a   26.2   26.2   26.2    86   23.6  17.7     N  0.30  27.4     N   25.1   28.9   27.8  1000.2  0.00   0.0   0.000   0.005   28.0    85   25.2   33.1    22    1     95.7    1 
 5/12/06  4:57a   26.2   26.2   26.2    86   23.6  17.7     N  0.30  32.2     N   25.1   28.9   27.8  1000.2  0.00   0.0   0.000   0.005   28.0    85   25.2   33.1    23    1    100.0    1 
 5/12/06  4:58a   26.2   26.2   26.2    86   23.6  25.7     N  0.43  30.6   NNW   24.3   28.9   27.1  1000.2  0.00   0.0   0.000   0.005   28.0    85   25.2   33.1    22    1     95.7    1 
 5/12/06  4:59a   26.2   26.2   26.2    86   23.6  16.1   NNE  0.27  25.7   NNE   25.2   28.9   28.0  1000.2  0.00   0.0   0.000   0.005   28.0    85   25.2   33.1    23    1    100.0    1 
 5/12/06  5:00a   26.2   26.2   26.2    86   23.6  22.5   NNE  0.38  35.4    NE   24.6   28.9   27.3  1000.0  0.00   0.0   0.000   0.005   28.0    85   25.2   33.1    22    1     95.7    1 
 5/12/06  5:01a   26.2   26.2   26.2    85   23.4  17.7     N  0.30  29.0   NNE   25.1   28.8   27.7  1000.0  0.00   0.0   0.000   0.005   28.0    85   25.2   33.1    23    1    100.0    1 
 5/12/06  5:02a   26.2   26.2   26.2    85   23.4  20.9   NNE  0.35  32.2     N   24.7   28.8   27.3  1000.0  0.00   0.0   0.000   0.005   28.0    85   25.2   33.1    23    1    100.0    1 
 5/12/06  5:03a   26.2   26.2   26.2    85   23.4  19.3     N  0.32  35.4   NNE   24.8   28.8   27.5  1000.0  0.00   0.0   0.000   0.005   28.0    85   25.2   33.1    22    1     95.7    1 
 5/12/06  5:04a   26.3   26.3   26.3    85   23.6  16.1     N  0.27  25.7     N   25.3   29.1   28.1  1000.0  0.00   0.0   0.000   0.006   28.1    85   25.3   33.3    23    1    100.0    1 
 5/12/06  5:05a   26.3   26.3   26.3    85   23.6  25.7     N  0.43  32.2     N   24.4   29.1   27.2  1000.0  0.00   0.0   0.000   0.006   28.1    85   25.3   33.3    22    1     95.7    1 
 5/12/06  5:06a   26.3   26.3   26.3    85   23.6  17.7     N  0.30  27.4    NE   25.2   29.1   27.9  1000.0  0.00   0.0   0.000   0.006   28.1    85   25.3   33.3    23    1    100.0    1 
 5/12/06  5:07a   26.3   26.3   26.3    85   23.6  14.5     N  0.24  22.5    NE   25.7   29.1   28.4  1000.0  0.00   0.0   0.000   0.006   28.1    85   25.3   33.3    23    1    100.0    1 
 5/12/06  5:08a   26.3   26.3   26.3    85   23.6  22.5     N  0.38  33.8   NNE   24.7   29.1   27.4  1000.0  0.00   0.0   0.000   0.006   28.1    85   25.3   33.3    23    1    100.0    1 
 5/12/06  5:09a   26.3   26.3   26.3    85   23.6  19.3     N  0.32  29.0   NNE   25.0   29.1   27.8  1000.0  0.00   0.0   0.000   0.006   28.1    85   25.3   33.3    23    1    100.0    1 
 5/12/06  5:10a   26.3   26.3   26.3    85   23.6  16.1     N  0.27  27.4   NNE   25.3   29.1   28.1  1000.0  0.00   0.0   0.000   0.006   28.1    85   25.3   33.3    22    1     95.7    1 
 5/12/06  5:11a   26.3   26.3   26.3    85   23.6  17.7     N  0.30  29.0    NE   25.2   29.1   27.9  1000.0  0.00   0.0   0.000   0.006   28.1    85   25.3   33.3    23    1    100.0    1 
 5/12/06  5:12a   26.3   26.3   26.3    85   23.6  11.3     N  0.19  14.5   NNE   26.3   29.1   29.1  1000.0  0.00   0.0   0.000   0.006   28.1    85   25.3   33.3    23    1    100.0    1 
 5/12/06  5:13a   26.3   26.3   26.3    85   23.6  20.9     N  0.35  35.4   NNE   24.8   29.1   27.6  1000.0  0.00   0.0   0.000   0.006   28.1    85   25.3   33.3    23    1    100.0    1 
 5/12/06  5:14a   26.3   26.3   26.3    84   23.4  22.5   NNE  0.38  30.6   NNE   24.7   28.9   27.3  1000.0  0.00   0.0   0.000   0.006   28.1    85   25.3   33.3    23    1    100.0    1 
 5/12/06  5:15a   26.3   26.3   26.3    84   23.4  17.7   NNE  0.30  29.0   NNE   25.2   28.9   27.8  1000.2  0.00   0.0   0.000   0.006   28.1    85   25.3   33.3    21    1     91.3    1 
 5/12/06  5:16a   26.4   26.4   26.4    84   23.5  14.5   NNE  0.24  27.4   NNE   25.8   29.1   28.5  1000.2  0.00   0.0   0.000   0.006   28.1    85   25.3   33.3    23    1    100.0    1 
 5/12/06  5:17a   26.4   26.4   26.4    84   23.5  17.7   NNE  0.30  22.5    NE   25.3   29.1   28.1  1000.2  0.00   0.0   0.000   0.006   28.1    84   25.2   33.2    23    1    100.0    1 
 5/12/06  5:18a   26.4   26.4   26.4    84   23.5  17.7   NNE  0.30  27.4   NNE   25.3   29.1   28.1  1000.2  0.00   0.0   0.000   0.006   28.1    84   25.2   33.2    23    1    100.0    1 
 5/12/06  5:19a   26.4   26.4   26.4    84   23.5  24.1   NNE  0.40  30.6   NNE   24.7   29.1   27.4  1000.2  0.00   0.0   0.000   0.006   28.1    84   25.2   33.2    23    1    100.0    1 
 5/12/06  5:20a   26.4   26.4   26.4    84   23.5  16.1     N  0.27  29.0    NE   25.5   29.1   28.2  1000.2  0.00   0.0   0.000   0.006   28.1    84   25.2   33.2    22    1     95.7    1 
 5/12/06  5:21a   26.4   26.5   26.4    84   23.5  17.7   NNE  0.30  27.4   NNE   25.3   29.1   28.1  1000.2  0.00   0.0   0.000   0.006   28.1    84   25.2   33.2    23    1    100.0    1 
 5/12/06  5:22a   26.5   26.5   26.5    84   23.6  14.5     N  0.24  27.4   NNW   25.9   29.3   28.7  1000.2  0.00   0.0   0.000   0.006   28.1    84   25.2   33.2    23    1    100.0    1 
 5/12/06  5:23a   26.4   26.5   26.4    84   23.5  14.5   NNE  0.24  25.7    NE   25.8   29.2   28.6  1000.2  0.00   0.0   0.000   0.006   28.1    84   25.2   33.2    23    1    100.0    1 
 5/12/06  5:24a   26.4   26.4   26.4    84   23.5  17.7     N  0.30  25.7     N   25.3   29.1   28.1  1000.2  0.00   0.0   0.000   0.006   28.1    84   25.2   33.2    22    1     95.7    1 
 5/12/06  5:25a   26.4   26.4   26.4    84   23.5  19.3     N  0.32  29.0   NNE   25.1   29.1   27.8  1000.2  0.00   0.0   0.000   0.006   28.1    84   25.2   33.2     7    1     30.4    1 
 5/12/06  5:26a   26.4   26.4   26.4    84   23.5  27.4     N  0.46  38.6     N   24.4   29.1   27.2  1000.2  0.00   0.0   0.000   0.006   28.1    84   25.2   33.2    22    1     95.7    1 
 5/12/06  5:27a   26.4   26.4   26.4    83   23.3  24.1   NNE  0.40  38.6     N   24.7   29.0   27.3  1000.2  0.00   0.0   0.000   0.006   28.1    84   25.2   33.2    23    1    100.0    1 
 5/12/06  5:28a   26.4   26.4   26.4    83   23.3  25.7     N  0.43  41.8     N   24.6   29.0   27.2  1000.2  0.00   0.0   0.000   0.006   28.1    84   25.2   33.2    23    1    100.0    1 
 5/12/06  5:29a   26.4   26.4   26.4    83   23.3  20.9     N  0.35  29.0     N   24.9   29.0   27.6  1000.2  0.00   0.0   0.000   0.006   28.1    84   25.2   33.2    23    1    100.0    1 
 5/12/06  5:30a   26.4   26.4   26.4    83   23.3  20.9     N  0.35  32.2   NNE   24.9   29.0   27.6   999.9  0.25   0.0   0.000   0.006   28.1    84   25.2   33.2    22    1     95.7    1 
 5/12/06  5:31a   26.4   26.4   26.4    83   23.3  19.3   NNE  0.32  32.2     N   25.1   29.0   27.7   999.9  0.00   0.0   0.000   0.006   28.1    84   25.2   33.2    23    1    100.0    1 
 5/12/06  5:32a   26.3   26.4   26.3    84   23.4  22.5     N  0.38  32.2     N   24.7   28.9   27.3   999.9  0.00   0.0   0.000   0.006   28.1    84   25.2   33.2    22    1     95.7    1 
 5/12/06  5:33a   26.3   26.3   26.3    84   23.4  22.5     N  0.38  32.2     N   24.7   28.9   27.3   999.9  0.00   0.0   0.000   0.006   28.1    84   25.2   33.2    23    1    100.0    1 
 5/12/06  5:34a   26.2   26.2   26.2    85   23.4  22.5     N  0.38  30.6     N   24.6   28.8   27.2   999.9  0.00   0.0   0.000   0.005   28.1    84   25.2   33.2    23    1    100.0    1 
 5/12/06  5:35a   26.2   26.2   26.2    85   23.4  14.5     N  0.24  19.3   NNE   25.6   28.8   28.2   999.9  0.00   0.0   0.000   0.005   28.1    84   25.2   33.2    21    1     91.3    1 
 5/12/06  5:36a   26.1   26.2   26.1    85   23.3  19.3     N  0.32  32.2   NNE   24.7   28.6   27.3   999.9  0.25   2.8   0.000   0.005   28.1    84   25.2   33.2    23    1    100.0    1 
 5/12/06  5:37a   26.0   26.1   25.9    86   23.5  16.1     N  0.27  25.7   NNE   25.1   28.7   27.7   999.9  0.00   2.8   0.000   0.005   28.2    84   25.3   33.5    23    1    100.0    1 
 5/12/06  5:38a   25.9   25.9   25.9    86   23.4  16.1     N  0.27  32.2   NNE   25.0   28.6   27.6   999.9  0.00   2.8   0.000   0.005   28.2    84   25.3   33.5    23    1    100.0    1 
 5/12/06  5:39a   25.8   25.9   25.8    86   23.3  19.3     N  0.32  27.4     N   24.5   28.4   27.1   999.9  0.00   2.8   0.000   0.005   28.2    84   25.3   33.5    19    1     82.6    1 
 5/12/06  5:40a   25.8   25.8   25.8    86   23.3  16.1     N  0.27  29.0     N   24.9   28.4   27.4   999.9  0.00   2.8   0.000   0.005   28.2    84   25.3   33.5    21    1     91.3    1 
 5/12/06  5:41a   25.8   25.8   25.8    86   23.3  19.3   NNE  0.32  29.0   NNE   24.4   28.3   26.9   999.9  0.00   2.8   0.000   0.005   28.2    84   25.3   33.5    22    1     95.7    1 
 5/12/06  5:42a   25.8   25.8   25.7    86   23.3  22.5     N  0.38  32.2     N   24.1   28.3   26.6   999.9  0.00   2.3   0.000   0.005   28.2    84   25.3   33.5    23    1    100.0    1 
 5/12/06  5:43a   25.7   25.7   25.7    87   23.3  14.5     N  0.24  25.7   NNE   25.0   28.2   27.5   999.9  0.00   2.0   0.000   0.005   28.2    84   25.3   33.5    23    1    100.0    1 
 5/12/06  5:44a   25.7   25.7   25.7    87   23.3  30.6     N  0.51  41.8     N   23.3   28.2   25.8   999.9  0.00   1.8   0.000   0.005   28.1    84   25.2   33.2    23    1    100.0    1 
 5/12/06  5:45a   25.6   25.7   25.6    87   23.2  19.3     N  0.32  29.0     N   24.2   28.0   26.6   999.8  0.00   1.5   0.000   0.005   28.1    84   25.2   33.2    22    1     95.7    1 
 5/12/06  5:46a   25.6   25.6   25.6    87   23.2  14.5     N  0.24  30.6   NNE   24.9   28.0   27.3   999.8  0.00   1.5   0.000   0.005   28.1    84   25.2   33.2    23    1    100.0    1 
 5/12/06  5:47a   25.6   25.6   25.6    87   23.2  24.1     N  0.40  33.8     N   23.7   28.0   26.1   999.8  0.00   1.3   0.000   0.005   28.1    84   25.2   33.2    23    1    100.0    1 
 5/12/06  5:48a   25.6   25.6   25.6    87   23.2  20.9   NNE  0.35  29.0   NNE   24.0   28.0   26.4   999.8  0.00   1.3   0.000   0.005   28.1    84   25.2   33.2    23    1    100.0    1 
 5/12/06  5:49a   25.5   25.6   25.4    87   23.2  20.9   NNE  0.35  33.8     N   23.9   27.9   26.3   999.8  0.00   1.0   0.000   0.005   28.1    84   25.2   33.2    23    1    100.0    1 
 5/12/06  5:50a   25.4   25.4   25.4    87   23.1  20.9   NNE  0.35  33.8   NNE   23.9   27.8   26.3   999.8  0.00   1.0   0.000   0.005   28.1    84   25.2   33.2    22    1     95.7    1 
 5/12/06  5:51a   25.4   25.4   25.4    87   23.1  20.9     N  0.35  29.0     N   23.9   27.8   26.3   999.8  0.00   1.0   0.000   0.005   28.1    84   25.2   33.2    23    1    100.0    1 
 5/12/06  5:52a   25.4   25.4   25.4    87   23.1  24.1     N  0.40  30.6     N   23.6   27.8   25.9   999.8  0.00   1.0   0.000   0.005   28.1    84   25.2   33.2    23    1    100.0    1 
 5/12/06  5:53a   25.4   25.4   25.4    87   23.1  22.5     N  0.38  40.2     N   23.7   27.8   26.1   999.8  0.00   0.0   0.000   0.005   28.1    84   25.2   33.2    23    1    100.0    1 
 5/12/06  5:54a   25.4   25.4   25.4    87   23.1  17.7   NNE  0.30  27.4   NNE   24.2   27.8   26.6   999.8  0.00   0.0   0.000   0.005   28.1    84   25.2   33.2    22    1     95.7    1 
 5/12/06  5:55a   25.4   25.4   25.3    87   23.1  16.1     N  0.27  22.5     N   24.4   27.7   26.7   999.8  0.00   0.0   0.000   0.005   28.1    83   24.9   33.0    21    1     91.3    1 
 5/12/06  5:56a   25.3   25.3   25.3    87   23.0  19.3   NNE  0.32  32.2   NNE   23.9   27.6   26.2   999.8  0.00   0.0   0.000   0.005   28.1    83   24.9   33.0    23    1    100.0    1 
 5/12/06  5:57a   25.3   25.3   25.3    87   23.0  24.1   NNE  0.40  38.6   NNE   23.4   27.6   25.7   999.8  0.00   0.0   0.000   0.005   28.1    83   24.9   33.0    23    1    100.0    1 
 5/12/06  5:58a   25.3   25.3   25.3    87   23.0  20.9   NNE  0.35  30.6   NNE   23.8   27.6   26.1   999.8  0.00   0.0   0.000   0.005   28.1    83   24.9   33.0    23    1    100.0    1 
 5/12/06  5:59a   25.4   25.4   25.3    87   23.1  20.9   NNE  0.35  29.0    NE   23.8   27.7   26.2   999.8  0.00   0.0   0.000   0.005   28.1    83   24.9   33.0    23    1    100.0    1 
 5/12/06  6:00a   25.4   25.4   25.4    87   23.1  17.7     N  0.30  22.5     N   24.2   27.8   26.6  1000.0  0.00   0.0   0.000   0.005   28.0    83   24.8   32.7    22    1     95.7    1 
 5/12/06  6:01a   25.4   25.4   25.4    87   23.1  19.3   NNE  0.32  25.7   NNE   24.1   27.8   26.4  1000.0  0.00   0.0   0.000   0.005   28.0    83   24.8   32.7    23    1    100.0    1 
 5/12/06  6:02a   25.4   25.4   25.4    86   22.9  20.9   NNE  0.35  27.4     N   23.9   27.7   26.2  1000.0  0.00   0.0   0.000   0.005   28.0    83   24.8   32.7    23    1    100.0    1 
 5/12/06  6:03a   25.4   25.4   25.4    86   22.9  17.7   NNE  0.30  29.0    NE   24.2   27.7   26.5  1000.0  0.00   0.0   0.000   0.005   28.0    83   24.8   32.7    23    1    100.0    1 
 5/12/06  6:04a   25.4   25.4   25.4    86   22.9  17.7     N  0.30  27.4    NE   24.2   27.7   26.5  1000.0  0.00   0.0   0.000   0.005   28.0    83   24.8   32.7    23    1    100.0    1 
 5/12/06  6:05a   25.4   25.4   25.4    86   22.9  14.5   NNE  0.24  22.5   NNE   24.8   27.7   27.1  1000.0  0.00   0.0   0.000   0.005   28.0    83   24.8   32.7    22    1     95.7    1 
 5/12/06  6:06a   25.4   25.4   25.4    86   22.9  14.5     N  0.24  25.7   NNE   24.8   27.7   27.1  1000.0  0.00   0.0   0.000   0.005   28.0    83   24.8   32.7    23    1    100.0    1 
 5/12/06  6:07a   25.4   25.4   25.4    86   22.9  22.5   NNE  0.38  33.8   NNE   23.7   27.7   26.0  1000.0  0.00   0.0   0.000   0.005   28.0    83   24.8   32.7    22    1     95.7    1 
 5/12/06  6:08a   25.5   25.6   25.4    86   23.0  12.9     N  0.21  22.5   NNE   25.2   27.8   27.6  1000.0  0.00   0.0   0.000   0.005   28.0    83   24.8   32.7    23    1    100.0    1 
 5/12/06  6:09a   25.6   25.6   25.6    86   23.0  24.1   NNE  0.40  32.2    NE   23.7   27.9   26.0  1000.0  0.00   0.0   0.000   0.005   28.0    83   24.8   32.7    23    1    100.0    1 
 5/12/06  6:10a   25.6   25.6   25.6    86   23.0  17.7   NNE  0.30  25.7     N   24.3   27.9   26.7  1000.0  0.00   0.0   0.000   0.005   28.0    83   24.8   32.7    22    1     95.7    1 
 5/12/06  6:11a   25.6   25.6   25.6    86   23.0  12.9     N  0.21  20.9    NE   25.3   27.9   27.6  1000.0  0.00   0.0   0.000   0.005   28.0    83   24.8   32.7    22    1     95.7    1 
 5/12/06  6:12a   25.6   25.6   25.6    86   23.0  17.7   NNE  0.30  29.0   ENE   24.3   27.9   26.7  1000.0  0.00   0.0   0.000   0.005   28.0    83   24.8   32.7    23    1    100.0    1 
 5/12/06  6:13a   25.6   25.6   25.6    86   23.0  17.7     N  0.30  27.4     N   24.3   27.9   26.7  1000.0  0.00   0.0   0.000   0.005   28.0    83   24.8   32.7    23    1    100.0    1 
 5/12/06  6:14a   25.6   25.7   25.6    86   23.1  16.1     N  0.27  20.9   NNW   24.6   28.0   27.0  1000.0  0.00   0.0   0.000   0.005   28.0    83   24.8   32.7    23    1    100.0    1 
 5/12/06  6:15a   25.7   25.7   25.7    86   23.1  20.9     N  0.35  35.4   NNE   24.1   28.1   26.6  1000.4  0.00   0.0   0.000   0.005   28.0    83   24.8   32.7    22    1     95.7    1 
 5/12/06  6:16a   25.7   25.7   25.7    86   23.1  20.9     N  0.35  29.0     N   24.1   28.1   26.6  1000.4  0.00   0.0   0.000   0.005   28.0    83   24.8   32.7    23    1    100.0    1 
 5/12/06  6:17a   25.7   25.7   25.7    86   23.1  14.5     N  0.24  20.9     N   25.0   28.1   27.4  1000.4  0.00   0.0   0.000   0.005   28.0    83   24.8   32.7    23    1    100.0    1 
 5/12/06  6:18a   25.7   25.7   25.7    86   23.1  17.7     N  0.30  30.6   NNE   24.4   28.1   26.9  1000.4  0.00   0.0   0.000   0.005   28.0    83   24.8   32.7    23    1    100.0    1 
 5/12/06  6:19a   25.7   25.7   25.7    86   23.1  12.9   NNE  0.21  22.5   NNE   25.4   28.1   27.8  1000.4  0.00   0.0   0.000   0.005   28.0    83   24.8   32.7    22    1     95.7    1 
 5/12/06  6:20a   25.7   25.7   25.7    86   23.1  16.1     N  0.27  25.7     N   24.7   28.1   27.1  1000.4  0.00   0.0   0.000   0.005   28.0    83   24.8   32.7    22    1     95.7    1 
 5/12/06  6:21a   25.7   25.7   25.7    86   23.1  12.9     N  0.21  20.9   NNE   25.4   28.1   27.8  1000.4  0.00   0.0   0.000   0.005   28.0    83   24.8   32.7    23    1    100.0    1 
 5/12/06  6:22a   25.7   25.7   25.7    86   23.1  17.7     N  0.30  27.4     N   24.4   28.1   26.9  1000.4  0.00   0.0   0.000   0.005   28.0    83   24.8   32.7    22    1     95.7    1 
 5/12/06  6:23a   25.8   25.8   25.7    86   23.3  20.9     N  0.35  30.6   NNE   24.2   28.3   26.7  1000.4  0.00   0.0   0.000   0.005   28.0    83   24.8   32.7    23    1    100.0    1 
 5/12/06  6:24a   25.8   25.8   25.8    86   23.3  16.1     N  0.27  20.9     N   24.8   28.3   27.3  1000.4  0.00   0.0   0.000   0.005   28.0    83   24.8   32.7    23    1    100.0    1 
 5/12/06  6:25a   25.8   25.8   25.8    86   23.3  14.5     N  0.24  19.3     N   25.1   28.3   27.6  1000.4  0.00   0.0   0.000   0.005   28.0    83   24.8   32.7    22    1     95.7    1 
 5/12/06  6:26a   25.8   25.8   25.8    86   23.3  17.7     N  0.30  30.6   NNE   24.6   28.3   27.1  1000.4  0.00   0.0   0.000   0.005   28.0    83   24.8   32.7    23    1    100.0    1 
 5/12/06  6:27a   25.8   25.8   25.8    86   23.3  19.3   NNE  0.32  30.6   NNE   24.4   28.3   26.9  1000.4  0.00   0.0   0.000   0.005   28.0    83   24.8   32.7    23    1    100.0    1 
 5/12/06  6:28a   25.8   25.8   25.8    86   23.3  16.1     N  0.27  27.4   NNE   24.8   28.3   27.3  1000.4  0.00   0.0   0.000   0.005   28.0    83   24.8   32.7    23    1    100.0    1 
 5/12/06  6:29a   25.8   25.8   25.8    86   23.3  22.5   NNE  0.38  33.8   NNE   24.1   28.3   26.6  1000.4  0.00   0.0   0.000   0.005   28.0    83   24.8   32.7    22    1     95.7    1 
 5/12/06  6:30a   25.8   25.8   25.8    85   23.1  16.1     N  0.27  30.6     N   24.8   28.2   27.2  1000.4  0.00   0.0   0.000   0.005   28.0    83   24.8   32.7    22    1     95.7    1 
 5/12/06  6:31a   25.8   25.8   25.8    85   23.1  19.3   NNE  0.32  27.4     N   24.5   28.3   26.9  1000.4  0.00   0.0   0.000   0.005   28.0    83   24.8   32.7    22    1     95.7    1 
 5/12/06  6:32a   25.8   25.8   25.8    85   23.1  20.9   NNE  0.35  30.6   NNE   24.3   28.3   26.8  1000.4  0.00   0.0   0.000   0.005   28.0    83   24.8   32.7    23    1    100.0    1 
 5/12/06  6:33a   25.8   25.8   25.8    85   23.1  22.5   NNE  0.38  32.2     N   24.2   28.3   26.6  1000.4  0.00   0.0   0.000   0.005   28.0    83   24.8   32.7    23    1    100.0    1 
 5/12/06  6:34a   25.8   25.8   25.8    85   23.1  24.1    NE  0.40  41.8    NE   24.0   28.3   26.4  1000.4  0.00   0.0   0.000   0.005   28.0    83   24.8   32.7    23    1    100.0    1 
 5/12/06  6:35a   25.9   25.9   25.9    85   23.2  27.4     N  0.46  38.6     N   23.9   28.4   26.4  1000.4  0.00   0.0   0.000   0.005   28.0    83   24.8   32.7    22    1     95.7    1 
 5/12/06  6:36a   25.9   25.9   25.9    85   23.2  17.7   NNE  0.30  25.7   NNE   24.8   28.4   27.3  1000.4  0.00   0.0   0.000   0.005   28.0    83   24.8   32.7    23    1    100.0    1 
 5/12/06  6:37a   25.9   25.9   25.9    85   23.2  17.7     N  0.30  29.0    NE   24.8   28.4   27.3  1000.4  0.00   0.0   0.000   0.005   28.0    83   24.8   32.7    23    1    100.0    1 
 5/12/06  6:38a   25.9   25.9   25.9    85   23.2  24.1     N  0.40  40.2     N   24.1   28.4   26.6  1000.4  0.00   0.0   0.000   0.005   28.0    83   24.8   32.7    23    1    100.0    1 
 5/12/06  6:39a   25.9   25.9   25.9    85   23.2  24.1     N  0.40  38.6     N   24.1   28.4   26.6  1000.4  0.00   0.0   0.000   0.005   28.0    83   24.8   32.7    23    1    100.0    1 
 5/12/06  6:40a   25.9   25.9   25.9    85   23.2  29.0   NNE  0.48  38.6   NNE   23.8   28.4   26.3  1000.4  0.00   0.0   0.000   0.005   28.0    83   24.8   32.7    22    1     95.7    1 
 5/12/06  6:41a   25.9   25.9   25.9    85   23.2  19.3   NNE  0.32  32.2     N   24.6   28.4   27.1  1000.4  0.00   0.0   0.000   0.005   28.0    83   24.8   32.7    22    1     95.7    1 
 5/12/06  6:42a   25.9   25.9   25.9    86   23.4  20.9   NNE  0.35  33.8    NE   24.4   28.6   27.1  1000.4  0.00   0.0   0.000   0.005   28.0    84   25.0   32.9    22    1     95.7    1 
 5/12/06  6:43a   25.8   25.9   25.8    86   23.3  22.5   NNE  0.38  32.2   NNE   24.2   28.4   26.7  1000.4  0.00   0.0   0.000   0.005   28.0    84   25.0   32.9    23    1    100.0    1 
 5/12/06  6:44a   25.8   25.8   25.8    86   23.3  19.3     N  0.32  33.8     N   24.5   28.4   27.1  1000.4  0.00   0.0   0.000   0.005   28.0    84   25.0   32.9    22    1     95.7    1 
 5/12/06  6:45a   25.8   25.8   25.8    86   23.3  17.7     N  0.30  29.0    NE   24.7   28.4   27.2  1001.0  0.25   0.0   0.000   0.005   28.0    84   25.0   32.9    21    1     91.3    1 
 5/12/06  6:46a   25.8   25.8   25.8    87   23.5  17.7     N  0.30  30.6    NE   24.7   28.4   27.3  1001.0  0.00   0.0   0.000   0.005   28.0    84   25.0   32.9    23    1    100.0    1 
 5/12/06  6:47a   25.8   25.8   25.8    87   23.5  19.3     N  0.32  27.4   NNE   24.5   28.4   27.1  1001.0  0.00   0.0   0.000   0.005   28.0    84   25.0   32.9    23    1    100.0    1 
 5/12/06  6:48a   25.8   25.8   25.8    87   23.5  24.1     N  0.40  32.2     N   24.0   28.4   26.6  1001.0  0.00   0.0   0.000   0.005   28.0    84   25.0   32.9    23    1    100.0    1 
 5/12/06  6:49a   25.8   25.8   25.8    88   23.7  17.7     N  0.30  22.5   NNE   24.7   28.6   27.4  1001.0  0.00   0.0   0.000   0.005   28.0    84   25.0   32.9    23    1    100.0    1 
 5/12/06  6:50a   25.8   25.8   25.8    88   23.6  24.1   NNE  0.40  45.1     N   23.9   28.4   26.6  1001.0  0.25   2.8   0.000   0.005   28.0    84   25.0   32.9    21    1     91.3    1 
 5/12/06  6:51a   25.8   25.8   25.8    88   23.6  16.1     N  0.27  30.6   NNE   24.8   28.4   27.4  1001.0  0.00   2.8   0.000   0.005   28.0    85   25.2   33.1    23    1    100.0    1 
 5/12/06  6:52a   25.8   25.8   25.8    88   23.6  19.3     N  0.32  32.2   NNE   24.4   28.4   27.1  1001.0  0.00   2.8   0.000   0.005   28.0    85   25.2   33.1    23    1    100.0    1 
 5/12/06  6:53a   25.8   25.8   25.8    88   23.6  16.1     N  0.27  22.5    NE   24.8   28.4   27.4  1001.0  0.00   2.8   0.000   0.005   28.0    85   25.2   33.1    22    1     95.7    1 
 5/12/06  6:54a   25.8   25.8   25.8    88   23.6  12.9   NNE  0.21  17.7     N   25.5   28.4   28.2  1001.0  0.00   2.8   0.000   0.005   28.0    85   25.2   33.1    23    1    100.0    1 
 5/12/06  6:55a   25.8   25.8   25.8    88   23.6  11.3   NNE  0.19  17.7     N   25.8   28.4   28.4  1001.0  0.00   2.5   0.000   0.005   28.0    85   25.2   33.1    22    1     95.7    1 
 5/12/06  6:56a   25.8   25.8   25.8    89   23.8  11.3     N  0.19  20.9     N   25.8   28.6   28.6  1001.0  0.00   2.3   0.000   0.005   28.0    85   25.2   33.1    23    1    100.0    1 
 5/12/06  6:57a   25.8   25.8   25.8    88   23.6  29.0     N  0.48  46.7   NNE   23.6   28.4   26.3  1001.0  0.00   2.0   0.000   0.005   28.0    85   25.2   33.1    23    1    100.0    1 
 5/12/06  6:58a   25.7   25.8   25.7    89   23.7  20.9     N  0.35  33.8     N   24.1   28.3   26.8  1001.0  0.00   1.8   0.000   0.005   28.0    85   25.2   33.1    22    1     95.7    1 
 5/12/06  6:59a   25.7   25.7   25.7    89   23.7  17.7   NNE  0.30  25.7     N   24.4   28.3   27.1  1001.0  0.00   1.5   0.000   0.005   28.0    85   25.2   33.1    22    1     95.7    1 
 5/12/06  7:00a   25.7   25.7   25.7    89   23.7  22.5   NNE  0.38  27.4   NNE   23.9   28.3   26.6  1000.8  0.00   1.5   0.000   0.005   28.0    85   25.2   33.1    21    1     91.3    1 
 5/12/06  7:01a   25.7   25.7   25.7    89   23.7  20.9     N  0.35  35.4   NNE   24.1   28.3   26.8  1000.8  0.00   1.3   0.000   0.005   28.0    85   25.2   33.1    22    1     95.7    1 
 5/12/06  7:02a   25.7   25.7   25.7    89   23.7  19.3   NNE  0.32  32.2   NNE   24.3   28.3   26.9  1000.8  0.00   1.3   0.000   0.005   28.0    85   25.2   33.1    23    1    100.0    1 
 5/12/06  7:03a   25.6   25.7   25.6    89   23.6  22.5    NE  0.38  32.2    NE   23.8   28.2   26.4  1000.8  0.00   1.0   0.000   0.005   28.0    85   25.2   33.1    23    1    100.0    1 
 5/12/06  7:04a   25.6   25.6   25.6    89   23.6  20.9   NNE  0.35  30.6   NNE   24.0   28.2   26.6  1000.8  0.00   1.0   0.000   0.005   28.0    85   25.2   33.1    23    1    100.0    1 
 5/12/06  7:05a   25.6   25.6   25.6    89   23.6  16.1   NNE  0.27  24.1     N   24.6   28.2   27.2  1000.8  0.00   1.0   0.000   0.005   28.0    85   25.2   33.1    22    1     95.7    1 
 5/12/06  7:06a   25.5   25.6   25.4    89   23.6  20.9     N  0.35  33.8     N   23.9   28.1   26.5  1000.8  0.00   1.0   0.000   0.005   28.0    85   25.2   33.1    23    1    100.0    1 
 5/12/06  7:07a   25.4   25.4   25.4    89   23.5  27.4   NNE  0.46  40.2   NNE   23.3   27.9   25.8  1000.8  0.00   0.0   0.000   0.005   28.0    85   25.2   33.1    19    1     82.6    1 
 5/12/06  7:08a   25.4   25.4   25.4    89   23.5  20.9     N  0.35  30.6     N   23.9   27.9   26.4  1000.8  0.00   0.0   0.000   0.005   28.0    85   25.2   33.1    16    1     69.6    1 
 5/12/06  7:09a   25.4   25.4   25.4    89   23.5  22.5   NNE  0.38  32.2     N   23.7   27.9   26.2  1000.8  0.00   0.0   0.000   0.005   28.0    85   25.2   33.1    23    1    100.0    1 
 5/12/06  7:10a   25.3   25.4   25.3    89   23.4  19.3   NNE  0.32  29.0   NNE   23.9   27.8   26.4  1000.8  0.00   0.0   0.000   0.005   28.0    85   25.2   33.1    22    1     95.7    1 
 5/12/06  7:11a   25.3   25.3   25.3    89   23.4  20.9     N  0.35  30.6   NNE   23.8   27.8   26.2  1000.8  0.00   0.0   0.000   0.005   28.0    85   25.2   33.1    23    1    100.0    1 
 5/12/06  7:12a   25.3   25.3   25.3    89   23.4  17.7     N  0.30  32.2     N   24.1   27.8   26.6  1000.8  0.00   0.0   0.000   0.005   28.0    85   25.2   33.1    23    1    100.0    1 
 5/12/06  7:13a   25.3   25.3   25.3    89   23.4  22.5     N  0.38  32.2   NNE   23.6   27.8   26.1  1000.8  0.00   0.0   0.000   0.005   28.0    85   25.2   33.1    23    1    100.0    1 
 5/12/06  7:14a   25.3   25.3   25.3    89   23.4  17.7     N  0.30  22.5     N   24.1   27.8   26.6  1000.8  0.00   0.0   0.000   0.005   28.0    85   25.2   33.1    23    1    100.0    1 
 5/12/06  7:15a   25.3   25.3   25.3    89   23.4  20.9     N  0.35  33.8   NNE   23.8   27.8   26.2  1000.6  0.00   0.0   0.000   0.005   28.0    85   25.2   33.1    22    1     95.7    1 
 5/12/06  7:16a   25.3   25.3   25.3    89   23.4  16.1   NNE  0.27  20.9    NE   24.3   27.8   26.8  1000.6  0.00   0.0   0.000   0.005   28.0    85   25.2   33.1    23    1    100.0    1 
 5/12/06  7:17a   25.3   25.3   25.3    89   23.4  14.5   NNE  0.24  19.3   NNE   24.7   27.8   27.1  1000.6  0.00   0.0   0.000   0.005   28.0    85   25.2   33.1    23    1    100.0    1 
 5/12/06  7:18a   25.3   25.3   25.3    89   23.4  17.7     N  0.30  30.6   NNE   24.1   27.8   26.6  1000.6  0.00   0.0   0.000   0.005   28.0    85   25.2   33.1    22    1     95.7    1 
 5/12/06  7:19a   25.3   25.3   25.3    89   23.4  20.9     N  0.35  30.6   NNE   23.8   27.8   26.2  1000.6  0.00   0.0   0.000   0.005   28.0    85   25.2   33.1    22    1     95.7    1 
 5/12/06  7:20a   25.3   25.3   25.3    89   23.4  16.1   NNE  0.27  32.2    NE   24.3   27.8   26.8  1000.6  0.00   0.0   0.000   0.005   28.0    85   25.2   33.1    22    1     95.7    1 
 5/12/06  7:21a   25.3   25.3   25.3    89   23.4  20.9     N  0.35  29.0   NNE   23.8   27.8   26.2  1000.6  0.00   0.0   0.000   0.005   28.0    85   25.2   33.1    23    1    100.0    1 
 5/12/06  7:22a   25.4   25.4   25.4    89   23.5  16.1     N  0.27  22.5   NNE   24.4   27.9   26.9  1000.6  0.00   0.0   0.000   0.005   28.0    85   25.2   33.1    23    1    100.0    1 
 5/12/06  7:23a   25.4   25.4   25.4    88   23.3  14.5   NNE  0.24  24.1   NNE   24.8   27.9   27.2  1000.6  0.00   0.0   0.000   0.005   28.0    85   25.2   33.1    23    1    100.0    1 
 5/12/06  7:24a   25.4   25.4   25.4    88   23.3  14.5     N  0.24  24.1    NE   24.8   27.9   27.2  1000.6  0.00   0.0   0.000   0.005   28.0    85   25.2   33.1    23    1    100.0    1 
 5/12/06  7:25a   25.4   25.4   25.4    88   23.3  22.5     N  0.38  33.8     N   23.7   27.9   26.2  1000.6  0.00   0.0   0.000   0.005   28.0    85   25.2   33.1    21    1     91.3    1 
 5/12/06  7:26a   25.5   25.6   25.4    88   23.4  16.1     N  0.27  32.2     N   24.5   28.0   27.0  1000.6  0.00   0.0   0.000   0.005   28.0    85   25.2   33.1    23    1    100.0    1 
 5/12/06  7:27a   25.6   25.6   25.6    88   23.4  17.7     N  0.30  29.0     N   24.3   28.1   26.8  1000.6  0.00   0.0   0.000   0.005   28.0    85   25.2   33.1    23    1    100.0    1 
 5/12/06  7:28a   25.6   25.6   25.6    87   23.2  19.3     N  0.32  33.8     N   24.2   28.0   26.6  1000.6  0.00   0.0   0.000   0.005   28.0    85   25.2   33.1    22    1     95.7    1 
 5/12/06  7:29a   25.6   25.6   25.6    87   23.2  25.7   NNE  0.43  43.5   NNE   23.6   28.0   26.0  1000.6  0.00   0.0   0.000   0.005   28.0    85   25.2   33.1    23    1    100.0    1 
 5/12/06  7:30a   25.6   25.6   25.6    87   23.2  25.7     N  0.43  40.2     N   23.6   28.0   26.0  1000.4  0.00   0.0   0.000   0.005   28.0    85   25.2   33.1    22    1     95.7    1 
 5/12/06  7:31a   25.7   25.7   25.6    87   23.3  29.0   NNE  0.48  41.8   ENE   23.4   28.2   25.9  1000.4  0.25   0.0   0.000   0.005   28.0    85   25.2   33.1    23    1    100.0    1 
 5/12/06  7:32a   25.7   25.7   25.7    86   23.1  22.5     N  0.38  32.2     N   23.9   28.1   26.4  1000.4  0.00   0.0   0.000   0.005   28.0    85   25.2   33.1    23    1    100.0    1 
 5/12/06  7:33a   25.7   25.7   25.7    86   23.1  22.5     N  0.38  32.2   NNE   23.9   28.1   26.4  1000.4  0.00   0.0   0.000   0.005   28.0    85   25.2   33.1    23    1    100.0    1 
 5/12/06  7:34a   25.7   25.7   25.7    86   23.1  24.1   NNE  0.40  38.6    NE   23.8   28.1   26.2  1000.4  0.00   0.0   0.000   0.005   28.0    85   25.2   33.1    23    1    100.0    1 
 5/12/06  7:35a   25.7   25.7   25.7    86   23.1  22.5     N  0.38  32.2    NE   23.9   28.1   26.4  1000.4  0.00   0.0   0.000   0.005   28.0    85   25.2   33.1    22    1     95.7    1 
 5/12/06  7:36a   25.7   25.7   25.7    86   23.1  20.9   NNE  0.35  30.6   NNE   24.1   28.1   26.6  1000.4  0.00   0.0   0.000   0.005   28.0    85   25.2   33.1    23    1    100.0    1 
 5/12/06  7:37a   25.7   25.7   25.7    86   23.1  16.1   NNE  0.27  29.0   NNE   24.7   28.1   27.1  1000.4  0.00   0.0   0.000   0.005   28.0    85   25.2   33.1    23    1    100.0    1 
 5/12/06  7:38a   25.6   25.7   25.6    86   23.1  17.7   NNE  0.30  20.9   NNE   24.4   28.0   26.8  1000.4  0.00   0.0   0.000   0.005   28.0    85   25.2   33.1    23    1    100.0    1 
 5/12/06  7:39a   25.6   25.6   25.6    86   23.0  17.7   NNE  0.30  27.4   NNE   24.3   27.9   26.7  1000.4  0.00   0.0   0.000   0.005   28.0    85   25.2   33.1    23    1    100.0    1 
 5/12/06  7:40a   25.6   25.6   25.6    87   23.2  17.7   NNE  0.30  22.5   NNE   24.3   28.0   26.8  1000.4  0.00   0.0   0.000   0.005   28.0    85   25.2   33.1    21    1     91.3    1 
 5/12/06  7:41a   25.6   25.6   25.6    87   23.2  20.9   NNE  0.35  33.8   NNE   24.0   28.0   26.4  1000.4  0.00   0.0   0.000   0.005   28.0    85   25.2   33.1    23    1    100.0    1 
 5/12/06  7:42a   25.6   25.6   25.6    87   23.2  14.5    NE  0.24  20.9    NE   24.9   28.0   27.3  1000.4  0.00   0.0   0.000   0.005   28.0    85   25.2   33.1    23    1    100.0    1 
 5/12/06  7:43a   25.6   25.6   25.4    87   23.2  14.5     N  0.24  27.4   NNE   24.9   28.0   27.3  1000.4  0.00   0.0   0.000   0.005   28.0    85   25.2   33.1    23    1    100.0    1 
 5/12/06  7:44a   25.4   25.4   25.4    87   23.1  19.3     N  0.32  33.8   NNE   24.1   27.8   26.4  1000.4  0.00   0.0   0.000   0.005   27.9    85   25.1   32.7    21    1     91.3    1 
 5/12/06  7:45a   25.4   25.4   25.4    87   23.1  25.7   NNE  0.43  35.4   NNE   23.4   27.8   25.8  1000.5  0.00   0.0   0.000   0.005   27.9    85   25.1   32.7    22    1     95.7    1 
 5/12/06  7:46a   25.4   25.4   25.4    86   22.9  16.1   NNE  0.27  22.5    NE   24.4   27.7   26.7  1000.5  0.00   0.0   0.000   0.005   27.9    85   25.1   32.7    23    1    100.0    1 
 5/12/06  7:47a   25.4   25.4   25.4    86   22.9  25.7     N  0.43  43.5   NNE   23.4   27.7   25.7  1000.5  0.00   0.0   0.000   0.005   27.9    85   25.1   32.7    23    1    100.0    1 
 5/12/06  7:48a   25.5   25.6   25.4    86   23.0  25.7   NNE  0.43  33.8     N   23.5   27.8   25.8  1000.5  0.00   0.0   0.000   0.005   27.9    85   25.1   32.7    23    1    100.0    1 
 5/12/06  7:49a   25.6   25.6   25.6    86   23.0  22.5   NNE  0.38  29.0   NNE   23.8   27.9   26.2  1000.5  0.00   0.0   0.000   0.005   27.9    85   25.1   32.7    21    1     91.3    1 
 5/12/06  7:50a   25.6   25.6   25.6    86   23.0  22.5   NNE  0.38  32.2     N   23.8   27.9   26.2  1000.5  0.00   0.0   0.000   0.005   27.9    84   24.9   32.6    22    1     95.7    1 
 5/12/06  7:51a   25.6   25.6   25.6    86   23.0  17.7    NE  0.30  25.7    NE   24.3   27.9   26.7  1000.5  0.00   0.0   0.000   0.005   27.9    84   24.9   32.6    23    1    100.0    1 
 5/12/06  7:52a   25.6   25.7   25.6    86   23.0  14.5   NNE  0.24  20.9   ENE   24.9   27.9   27.2  1000.5  0.25   0.0   0.000   0.005   27.9    84   24.9   32.6    23    1    100.0    1 
 5/12/06  7:53a   25.6   25.7   25.6    85   22.9  17.7   NNE  0.30  27.4     N   24.4   27.9   26.7  1000.5  0.00   0.0   0.000   0.005   27.9    84   24.9   32.6    23    1    100.0    1 
 5/12/06  7:54a   25.7   25.7   25.7    86   23.1  12.9   NNE  0.21  17.7    NE   25.4   28.1   27.8  1000.5  0.00   0.0   0.000   0.005   27.9    84   24.9   32.6    22    1     95.7    1 
 5/12/06  7:55a   25.7   25.7   25.7    86   23.1  17.7   NNE  0.30  27.4   NNE   24.4   28.1   26.9  1000.5  0.00   0.0   0.000   0.005   27.9    84   24.9   32.6    22    1     95.7    1 
 5/12/06  7:56a   25.7   25.7   25.7    86   23.1  12.9     N  0.21  20.9     N   25.4   28.1   27.8  1000.5  0.00   0.0   0.000   0.005   27.9    84   24.9   32.6    22    1     95.7    1 
 5/12/06  7:57a   25.7   25.7   25.7    86   23.1   9.7   NNE  0.16  17.7   NNE   25.7   28.1   28.1  1000.5  0.00   0.0   0.000   0.005   27.9    84   24.9   32.6    23    1    100.0    1 
 5/12/06  7:58a   25.7   25.7   25.7    86   23.1  16.1   NNE  0.27  25.7     N   24.7   28.1   27.1  1000.5  0.00   0.0   0.000   0.005   27.9    84   24.9   32.6    23    1    100.0    1 
 5/12/06  7:59a   25.6   25.7   25.6    86   23.0  11.3   NNE  0.19  16.1   NNE   25.6   27.9   27.9  1000.5  0.00   0.0   0.000   0.005   27.9    84   24.9   32.6    23    1    100.0    1 
 5/12/06  8:00a   25.6   25.6   25.6    86   23.0  14.5     N  0.24  22.5     N   24.9   27.9   27.2  1001.1  0.00   0.0   0.000   0.005   27.9    84   24.9   32.6    21    1     91.3    1 
 5/12/06  8:01a   25.6   25.6   25.6    86   23.0  14.5   NNE  0.24  22.5     N   24.9   27.9   27.2  1001.1  0.00   0.0   0.000   0.005   28.0    84   25.0   32.9    23    1    100.0    1 
 5/12/06  8:02a   25.6   25.6   25.6    86   23.0  14.5    NE  0.24  25.7    NE   24.9   27.9   27.2  1001.1  0.00   0.0   0.000   0.005   28.0    84   25.0   32.9    23    1    100.0    1 
 5/12/06  8:03a   25.6   25.6   25.6    86   23.0  12.9     N  0.21  17.7    NE   25.3   27.9   27.6  1001.1  0.00   0.0   0.000   0.005   28.0    84   25.0   32.9    23    1    100.0    1 
 5/12/06  8:04a   25.6   25.6   25.6    86   23.0  12.9     N  0.21  19.3    NE   25.3   27.9   27.6  1001.1  0.00   0.0   0.000   0.005   28.0    84   25.0   32.9    22    1     95.7    1 
 5/12/06  8:05a   25.6   25.6   25.6    87   23.2  12.9   NNE  0.21  20.9   NNE   25.3   28.0   27.7  1001.1  0.00   0.0   0.000   0.005   28.0    84   25.0   32.9    22    1     95.7    1 
 5/12/06  8:06a   25.6   25.6   25.6    87   23.2  12.9   NNE  0.21  17.7     N   25.3   28.0   27.7  1001.1  0.00   0.0   0.000   0.005   28.0    84   25.0   32.9    23    1    100.0    1 
 5/12/06  8:07a   25.6   25.6   25.6    87   23.2  12.9   NNE  0.21  16.1    NE   25.3   28.0   27.7  1001.1  0.00   0.0   0.000   0.005   28.0    84   25.0   32.9    23    1    100.0    1 
 5/12/06  8:08a   25.6   25.6   25.6    87   23.2  14.5     N  0.24  20.9     N   24.9   28.0   27.3  1001.1  0.00   0.0   0.000   0.005   28.0    84   25.0   32.9    23    1    100.0    1 
 5/12/06  8:09a   25.6   25.6   25.6    87   23.2  11.3   NNE  0.19  16.1   NNE   25.6   28.0   28.0  1001.1  0.00   0.0   0.000   0.005   28.0    84   25.0   32.9    23    1    100.0    1 
 5/12/06  8:10a   25.6   25.6   25.6    87   23.2  11.3     N  0.19  17.7    NE   25.6   28.0   28.0  1001.1  0.00   0.0   0.000   0.005   28.0    84   25.0   32.9    22    1     95.7    1 
 5/12/06  8:11a   25.6   25.6   25.6    87   23.2  14.5     N  0.24  20.9   NNE   24.9   28.0   27.3  1001.1  0.00   0.0   0.000   0.005   28.0    84   25.0   32.9    23    1    100.0    1 
 5/12/06  8:12a   25.6   25.6   25.6    87   23.2  12.9     N  0.21  25.7   NNW   25.3   28.0   27.7  1001.1  0.00   0.0   0.000   0.005   28.0    84   25.0   32.9    23    1    100.0    1 
 5/12/06  8:13a   25.6   25.6   25.6    87   23.2  19.3   NNE  0.32  29.0   NNE   24.2   28.0   26.6  1001.1  0.00   0.0   0.000   0.005   28.0    85   25.2   33.1    23    1    100.0    1 
 5/12/06  8:14a   25.6   25.6   25.6    87   23.2  22.5   NNE  0.38  33.8   NNE   23.8   28.0   26.3  1001.1  0.00   0.0   0.000   0.005   28.0    85   25.2   33.1    23    1    100.0    1 
 5/12/06  8:15a   25.6   25.6   25.6    87   23.2  20.9     N  0.35  30.6     N   24.0   28.0   26.4  1000.9  0.00   0.0   0.000   0.005   28.0    85   25.2   33.1    22    1     95.7    1 
 5/12/06  8:16a   25.6   25.6   25.6    87   23.2  22.5   NNE  0.38  35.4     N   23.8   28.0   26.3  1000.9  0.00   0.0   0.000   0.005   28.0    85   25.2   33.1    23    1    100.0    1 
 5/12/06  8:17a   25.6   25.6   25.6    87   23.2  19.3   NNE  0.32  25.7    NE   24.2   28.0   26.6  1000.9  0.00   0.0   0.000   0.005   28.0    85   25.2   33.1    23    1    100.0    1 
 5/12/06  8:18a   25.6   25.6   25.6    87   23.2  16.1     N  0.27  24.1     N   24.6   28.0   27.0  1000.9  0.00   0.0   0.000   0.005   28.0    85   25.2   33.1    23    1    100.0    1 
 5/12/06  8:19a   25.6   25.6   25.6    87   23.2  19.3   NNE  0.32  38.6   NNE   24.2   28.0   26.6  1000.9  0.00   0.0   0.000   0.005   28.0    85   25.2   33.1    23    1    100.0    1 
 5/12/06  8:20a   25.6   25.6   25.6    87   23.2  14.5     N  0.24  19.3   NNE   24.9   28.0   27.3  1000.9  0.00   0.0   0.000   0.005   28.0    85   25.2   33.1    22    1     95.7    1 
 5/12/06  8:21a   25.6   25.6   25.6    87   23.2  16.1   NNE  0.27  22.5     N   24.6   28.0   27.0  1000.9  0.00   0.0   0.000   0.005   28.0    85   25.2   33.1    23    1    100.0    1 
 5/12/06  8:22a   25.6   25.6   25.6    87   23.2  14.5   NNE  0.24  27.4   NNE   24.9   28.0   27.3  1000.9  0.00   0.0   0.000   0.005   27.9    85   25.1   32.7    23    1    100.0    1 
 5/12/06  8:23a   25.5   25.6   25.4    88   23.4  20.9     N  0.35  32.2   NNE   23.9   28.0   26.4  1000.9  0.25   0.0   0.000   0.005   27.9    85   25.1   32.7    23    1    100.0    1 
 5/12/06  8:24a   25.4   25.4   25.4    88   23.3  16.1   NNE  0.27  27.4   NNE   24.4   27.9   26.9  1000.9  0.00   0.0   0.000   0.005   27.9    85   25.1   32.7    23    1    100.0    1 
 5/12/06  8:25a   25.4   25.4   25.4    88   23.3  24.1   NNE  0.40  33.8   NNE   23.6   27.9   26.0  1000.9  0.00   0.0   0.000   0.005   27.9    85   25.1   32.7    22    1     95.7    1 
 5/12/06  8:26a   25.4   25.4   25.4    88   23.3  20.9   NNE  0.35  29.0   NNE   23.9   27.9   26.3  1000.9  0.00   0.0   0.000   0.005   27.9    85   25.1   32.7    23    1    100.0    1 
 5/12/06  8:27a   25.4   25.4   25.4    88   23.3  17.7     N  0.30  32.2     N   24.2   27.9   26.7  1000.9  0.00   0.0   0.000   0.005   27.9    85   25.1   32.7    23    1    100.0    1 
 5/12/06  8:28a   25.4   25.4   25.4    88   23.3  19.3     N  0.32  27.4   NNE   24.1   27.9   26.5  1000.9  0.00   0.0   0.000   0.005   27.9    85   25.1   32.7    23    1    100.0    1 
 5/12/06  8:29a   25.4   25.4   25.4    88   23.3  12.9   NNE  0.21  20.9     N   25.2   27.9   27.6  1000.9  0.00   0.0   0.000   0.005   27.9    85   25.1   32.7    23    1    100.0    1 
 5/12/06  8:30a   25.4   25.4   25.4    88   23.3  16.1     N  0.27  27.4     N   24.4   27.9   26.9  1000.9  0.25   2.0   0.000   0.005   27.9    85   25.1   32.7    22    1     95.7    1 
 5/12/06  8:31a   25.4   25.4   25.4    88   23.3  20.9     N  0.35  30.6     N   23.9   27.9   26.3  1000.9  0.00   2.0   0.000   0.005   27.9    85   25.1   32.7    23    1    100.0    1 
 5/12/06  8:32a   25.4   25.4   25.4    88   23.3  16.1   NNE  0.27  20.9     N   24.4   27.9   26.9  1000.9  0.00   2.0   0.000   0.005   27.9    85   25.1   32.7    23    1    100.0    1 
 5/12/06  8:33a   25.4   25.4   25.4    88   23.3  14.5     N  0.24  22.5    NE   24.8   27.9   27.2  1000.9  0.00   2.0   0.000   0.005   27.9    85   25.1   32.7    22    1     95.7    1 
 5/12/06  8:34a   25.4   25.4   25.4    88   23.3  20.9   NNE  0.35  30.6   NNE   23.9   27.9   26.3  1000.9  0.25   3.6   0.000   0.005   27.9    85   25.1   32.7    23    1    100.0    1 
 5/12/06  8:35a   25.3   25.4   25.3    88   23.2  19.3   NNE  0.32  32.2   NNE   23.9   27.7   26.3  1000.9  0.00   3.6   0.000   0.005   27.9    85   25.1   32.7    18    1     78.3    1 
 5/12/06  8:36a   25.3   25.3   25.3    88   23.2  16.1   NNE  0.27  20.9   NNE   24.3   27.7   26.7  1000.9  0.00   3.6   0.000   0.005   27.9    85   25.1   32.7    23    1    100.0    1 
 5/12/06  8:37a   25.3   25.3   25.3    88   23.2  16.1     N  0.27  29.0     N   24.3   27.7   26.7  1000.9  0.00   3.6   0.000   0.005   27.9    85   25.1   32.7    23    1    100.0    1 
 5/12/06  8:38a   25.3   25.3   25.3    88   23.2  25.7   NNE  0.43  40.2    NE   23.3   27.7   25.6  1000.9  0.00   3.6   0.000   0.005   27.9    85   25.1   32.7    23    1    100.0    1 
 5/12/06  8:39a   25.3   25.3   25.3    88   23.2  19.3   NNE  0.32  29.0   NNE   23.9   27.7   26.3  1000.9  0.25   3.6   0.000   0.005   27.9    85   25.1   32.7    23    1    100.0    1 
 5/12/06  8:40a   25.3   25.3   25.3    88   23.2  19.3     N  0.32  22.5     N   23.9   27.7   26.3  1000.9  0.00   3.3   0.000   0.005   27.9    85   25.1   32.7    21    1     91.3    1 
 5/12/06  8:41a   25.3   25.3   25.3    88   23.2  17.7   NNE  0.30  22.5   NNE   24.1   27.7   26.4  1000.9  0.00   3.3   0.000   0.005   27.9    85   25.1   32.7    23    1    100.0    1 
 5/12/06  8:42a   25.3   25.3   25.3    88   23.2  20.9     N  0.35  27.4   NNE   23.8   27.7   26.1  1000.9  0.25   4.3   0.000   0.005   27.9    85   25.1   32.7    22    1     95.7    1 
 5/12/06  8:43a   25.3   25.3   25.3    88   23.2  17.7     N  0.30  25.7     N   24.1   27.7   26.4  1000.9  0.00   4.3   0.000   0.005   27.9    85   25.1   32.7    23    1    100.0    1 
 5/12/06  8:44a   25.3   25.3   25.3    89   23.4  22.5   NNE  0.38  33.8   NNE   23.6   27.8   26.1  1000.9  0.25   6.9   0.000   0.005   27.9    85   25.1   32.7    22    1     95.7    1 
 5/12/06  8:45a   25.3   25.3   25.3    88   23.1  17.7     N  0.30  29.0    NW   24.1   27.6   26.4  1001.0  0.00   6.9   0.000   0.005   27.8    85   25.0   32.4    22    1     95.7    1 
 5/12/06  8:46a   25.3   25.3   25.3    88   23.1  19.3   NNE  0.32  32.2   NNE   23.9   27.6   26.2  1001.0  0.25   7.6   0.000   0.005   27.8    85   25.0   32.4    23    1    100.0    1 
 5/12/06  8:47a   25.3   25.3   25.3    88   23.1  17.7     N  0.30  24.1     N   24.1   27.6   26.4  1001.0  0.00   7.6   0.000   0.005   27.8    85   25.0   32.4    16    1     69.6    1 
 5/12/06  8:48a   25.3   25.3   25.2    88   23.1  14.5     N  0.24  25.7   NNE   24.6   27.6   26.9  1001.0  0.25  12.4   0.000   0.005   27.8    85   25.0   32.4    23    1    100.0    1 
 5/12/06  8:49a   25.2   25.2   25.2    88   23.0  19.3   NNE  0.32  27.4     N   23.7   27.4   25.9  1001.0  0.25  12.4   0.000   0.005   27.8    85   25.0   32.4    23    1    100.0    1 
 5/12/06  8:50a   25.2   25.2   25.2    88   23.0  24.1    NE  0.40  32.2    NE   23.2   27.4   25.4  1001.0  0.25  11.7   0.000   0.005   27.8    85   25.0   32.4    22    1     95.7    1 
 5/12/06  8:51a   25.2   25.2   25.2    88   23.0  20.9   NNE  0.35  35.4   NNE   23.6   27.4   25.8  1001.0  0.00  11.4   0.000   0.005   27.8    85   25.0   32.4    23    1    100.0    1 
 5/12/06  8:52a   25.2   25.2   25.2    88   23.0  14.5   NNE  0.24  22.5    NE   24.5   27.4   26.7  1001.0  0.00   7.4   0.000   0.005   27.8    85   25.0   32.4    23    1    100.0    1 
 5/12/06  8:53a   25.1   25.1   25.1    89   23.1  12.9     N  0.21  29.0    NE   24.8   27.3   27.0  1001.0  0.25   7.4   0.000   0.005   27.8    85   25.0   32.4    23    1    100.0    1 
 5/12/06  8:54a   25.1   25.1   25.1    88   22.9  17.7   NNE  0.30  33.8     N   23.8   27.2   25.9  1001.0  0.00   7.1   0.000   0.005   27.8    85   25.0   32.4    23    1    100.0    1 
 5/12/06  8:55a   25.1   25.1   25.1    88   22.9  25.7   NNE  0.43  33.8   NNE   22.9   27.2   25.1  1001.0  0.25   7.1   0.000   0.005   27.8    85   25.0   32.4    22    1     95.7    1 
 5/12/06  8:56a   24.9   25.1   24.9    88   22.8  14.5     N  0.24  22.5   NNE   24.3   27.1   26.4  1001.0  0.00   6.9   0.000   0.005   27.7    85   25.0   32.3    23    1    100.0    1 
 5/12/06  8:57a   24.9   24.9   24.9    88   22.8  14.5    NE  0.24  20.9    NE   24.3   27.1   26.4  1001.0  0.00   5.6   0.000   0.005   27.7    85   25.0   32.3    23    1    100.0    1 
 5/12/06  8:58a   24.9   24.9   24.9    88   22.8  24.1   NNE  0.40  38.6   NNE   23.0   27.1   25.1  1001.0  0.25   5.6   0.000   0.005   27.7    85   25.0   32.3    23    1    100.0    1 
 5/12/06  8:59a   24.8   24.8   24.8    88   22.7  24.1   NNE  0.40  33.8   ENE   22.9   26.9   24.9  1001.0  0.00   5.6   0.000   0.005   27.7    85   25.0   32.3    23    1    100.0    1 
 5/12/06  9:00a   24.8   24.8   24.8    88   22.7  22.5   NNE  0.38  35.4   NNE   23.0   26.9   25.1  1000.9  0.25   6.9   0.000   0.005   27.7    85   25.0   32.3    22    1     95.7    1 
 5/12/06  9:01a   24.8   24.8   24.8    88   22.7  17.7    NE  0.30  32.2   NNE   23.6   26.9   25.6  1000.9  0.00   6.9   0.000   0.005   27.6    85   24.9   32.0    23    1    100.0    1 
 5/12/06  9:02a   24.8   24.8   24.8    88   22.7  20.9     N  0.35  38.6   NNE   23.2   26.9   25.2  1000.9  0.00   5.1   0.000   0.005   27.6    85   24.9   32.0    23    1    100.0    1 
 5/12/06  9:03a   24.8   24.8   24.8    88   22.7  22.5     N  0.38  30.6   NNE   23.0   26.9   25.1  1000.9  0.25   5.1   0.000   0.005   27.6    85   24.9   32.0    22    1     95.7    1 
 5/12/06  9:04a   24.8   24.8   24.8    88   22.7  25.7     N  0.43  45.1   NNE   22.7   26.9   24.8  1000.9  0.00   4.3   0.000   0.005   27.5    85   24.8   31.7    22    1     95.7    1 
 5/12/06  9:05a   24.8   24.8   24.8    88   22.7  33.8   NNE  0.56  45.1   NNE   22.2   26.9   24.2  1000.9  0.00   4.3   0.000   0.005   27.5    85   24.8   31.7    22    1     95.7    1 
 5/12/06  9:06a   24.8   24.8   24.8    88   22.7  22.5   NNE  0.38  38.6   ENE   23.0   26.9   25.1  1000.9  0.25   5.3   0.000   0.005   27.4    85   24.6   31.4    23    1    100.0    1 
 5/12/06  9:07a   24.8   24.8   24.8    87   22.5  25.7   NNE  0.43  38.6   NNE   22.7   26.8   24.7  1000.9  0.00   5.3   0.000   0.005   27.4    85   24.6   31.4    23    1    100.0    1 
 5/12/06  9:08a   24.8   24.8   24.8    87   22.5  20.9   NNE  0.35  32.2   NNE   23.2   26.8   25.2  1000.9  0.00   5.3   0.000   0.005   27.4    85   24.6   31.4    23    1    100.0    1 
 5/12/06  9:09a   24.8   24.8   24.8    87   22.5  27.4     N  0.46  49.9     N   22.6   26.8   24.6  1000.9  0.00   4.3   0.000   0.005   27.3    85   24.5   31.2    23    1    100.0    1 
 5/12/06  9:10a   24.8   24.8   24.8    88   22.7  24.1   NNE  0.40  35.4   NNE   22.9   26.9   24.9  1000.9  0.25   4.3   0.000   0.005   27.3    85   24.5   31.2    22    1     95.7    1 
 5/12/06  9:11a   24.8   24.8   24.8    88   22.7  20.9     N  0.35  40.2     N   23.2   26.9   25.2  1000.9  0.00   3.8   0.000   0.005   27.3    85   24.5   31.2    23    1    100.0    1 
 5/12/06  9:12a   24.8   24.8   24.8    88   22.7  17.7     N  0.30  32.2     N   23.6   26.9   25.6  1000.9  0.25   7.4   0.000   0.005   27.2    85   24.4   30.9    23    1    100.0    1 
 5/12/06  9:13a   24.8   24.8   24.8    88   22.7  27.4     N  0.46  48.3   NNE   22.6   26.9   24.7  1000.9  0.00   7.4   0.000   0.005   27.2    85   24.4   30.9    23    1    100.0    1 
 5/12/06  9:14a   24.8   24.8   24.8    88   22.7  27.4   NNE  0.46  43.5    NE   22.6   26.9   24.7  1000.9  0.00   6.1   0.000   0.005   27.2    85   24.4   30.9    23    1    100.0    1 
 5/12/06  9:15a   24.8   24.8   24.8    88   22.7  12.9    NE  0.21  22.5   NNE   24.6   26.9   26.6  1000.9  0.25   6.1   0.000   0.005   27.2    86   24.6   31.1    22    1     95.7    1 
 5/12/06  9:16a   24.8   24.8   24.8    88   22.7  19.3    NE  0.32  32.2     N   23.4   26.9   25.4  1000.9  0.00   5.6   0.000   0.005   27.1    86   24.5   30.8    23    1    100.0    1 
 5/12/06  9:17a   24.8   24.8   24.8    88   22.7  24.1   NNE  0.40  32.2   NNE   22.8   26.8   24.9  1000.9  0.25   7.1   0.000   0.004   27.1    86   24.5   30.8    23    1    100.0    1 
 5/12/06  9:18a   24.8   24.8   24.8    88   22.7  14.5     N  0.24  22.5     N   24.1   26.8   26.2  1000.9  0.00   7.1   0.000   0.004   27.1    86   24.5   30.8    23    1    100.0    1 
 5/12/06  9:19a   24.8   24.8   24.8    88   22.7  16.1     N  0.27  27.4   NNE   23.7   26.8   25.8  1000.9  0.00   5.8   0.000   0.004   27.1    86   24.5   30.8    23    1    100.0    1 
 5/12/06  9:20a   24.8   24.8   24.8    88   22.7  19.3     N  0.32  27.4   NNE   23.3   26.8   25.4  1000.9  0.25   5.8   0.000   0.004   27.1    86   24.5   30.8    22    1     95.7    1 
 5/12/06  9:21a   24.8   24.8   24.8    88   22.7  22.5     N  0.38  40.2     N   22.9   26.8   25.0  1000.9  0.00   5.1   0.000   0.004   26.9    86   24.4   30.6    23    1    100.0    1 
 5/12/06  9:22a   24.8   24.8   24.8    88   22.7  25.7   NNE  0.43  35.4     N   22.7   26.8   24.7  1000.9  0.00   5.1   0.000   0.004   27.1    86   24.5   30.8    23    1    100.0    1 
 5/12/06  9:23a   24.8   24.8   24.8    88   22.7  24.1   NNE  0.40  32.2   NNE   22.8   26.8   24.9  1000.9  0.25   5.1   0.000   0.004   27.1    86   24.5   30.8    23    1    100.0    1 
 5/12/06  9:24a   24.7   24.8   24.7    88   22.6  12.9     N  0.21  20.9    NE   24.4   26.7   26.4  1000.9  0.00   5.1   0.000   0.004   27.1    86   24.5   30.8    23    1    100.0    1 
 5/12/06  9:25a   24.8   24.8   24.8    88   22.7  16.1     N  0.27  27.4   NNE   23.7   26.8   25.8  1000.9  0.00   5.1   0.000   0.004   27.1    86   24.5   30.8    22    1     95.7    1 
 5/12/06  9:26a   24.8   24.8   24.8    88   22.7  25.7    NE  0.43  41.8   NNE   22.7   26.8   24.7  1000.9  0.00   4.3   0.000   0.004   27.1    86   24.5   30.8    23    1    100.0    1 
 5/12/06  9:27a   24.8   24.8   24.8    87   22.5  14.5     N  0.24  22.5   NNE   24.1   26.8   26.1  1000.9  0.00   3.3   0.000   0.004   27.1    86   24.5   30.8    23    1    100.0    1 
 5/12/06  9:28a   24.8   24.8   24.8    87   22.5  25.7   NNE  0.43  40.2    NE   22.7   26.8   24.7  1000.9  0.00   2.8   0.000   0.004   27.1    86   24.5   30.8    23    1    100.0    1 
 5/12/06  9:29a   24.8   24.8   24.8    87   22.5  33.8    NE  0.56  45.1   NNE   22.1   26.8   24.1  1000.9  0.25   2.8   0.000   0.004   27.1    86   24.5   30.8    23    1    100.0    1 
 5/12/06  9:30a   24.8   24.8   24.8    87   22.5  22.5   NNE  0.38  32.2   NNE   22.9   26.8   24.9  1000.5  0.00   2.8   0.000   0.004   27.1    86   24.5   30.8    22    1     95.7    1 
 5/12/06  9:31a   24.8   24.8   24.8    87   22.5  37.0   NNE  0.62  53.1     N   22.0   26.8   24.0  1000.5  0.00   2.8   0.000   0.005   27.1    86   24.5   30.8    22    1     95.7    1 
 5/12/06  9:32a   24.8   24.8   24.8    86   22.3  29.0     N  0.48  43.5   NNE   22.5   26.8   24.5  1000.5  0.00   2.8   0.000   0.005   27.1    86   24.5   30.8    23    1    100.0    1 
 5/12/06  9:33a   24.8   24.8   24.8    86   22.3  20.9     N  0.35  30.6     N   23.2   26.8   25.2  1000.5  0.00   2.8   0.000   0.005   27.1    86   24.5   30.8    23    1    100.0    1 
 5/12/06  9:34a   24.8   24.8   24.8    86   22.3  24.1     N  0.40  40.2    NE   22.9   26.8   24.9  1000.5  0.00   2.5   0.000   0.005   27.1    86   24.5   30.8    22    1     95.7    1 
 5/12/06  9:35a   24.8   24.8   24.8    86   22.3  17.7     N  0.30  30.6     N   23.6   26.8   25.6  1000.5  0.00   2.3   0.000   0.005   27.1    86   24.5   30.8    22    1     95.7    1 
 5/12/06  9:36a   24.8   24.8   24.8    87   22.5  14.5     N  0.24  19.3     N   24.2   26.8   26.2  1000.5  0.00   2.0   0.000   0.005   27.1    86   24.5   30.8    23    1    100.0    1 
 5/12/06  9:37a   24.8   24.8   24.8    87   22.5   9.7     N  0.16  12.9    NE   24.8   26.8   26.8  1000.5  0.00   1.8   0.000   0.005   26.9    86   24.4   30.6    23    1    100.0    1 
 5/12/06  9:38a   24.8   24.8   24.8    87   22.5  19.3     N  0.32  33.8   NNE   23.4   26.8   25.4  1000.5  0.00   1.5   0.000   0.005   26.9    86   24.4   30.6    23    1    100.0    1 
 5/12/06  9:39a   24.8   24.8   24.8    87   22.5  33.8   NNE  0.56  51.5     N   22.2   26.8   24.2  1000.5  0.25   1.5   0.000   0.005   26.9    86   24.4   30.6    23    1    100.0    1 
 5/12/06  9:40a   24.8   24.8   24.8    87   22.5  25.7   NNE  0.43  35.4    NE   22.7   26.8   24.7  1000.5  0.25  10.2   0.000   0.005   26.9    87   24.6   30.7    22    1     95.7    1 
 5/12/06  9:41a   24.8   24.8   24.8    87   22.5  24.1     N  0.40  38.6   NNE   22.9   26.8   24.9  1000.5  0.00  10.2   0.000   0.005   26.9    86   24.4   30.6    22    1     95.7    1 
 5/12/06  9:42a   24.8   24.8   24.8    88   22.7  24.1     N  0.40  38.6     N   22.9   26.9   24.9  1000.5  0.00   6.9   0.000   0.005   26.9    86   24.4   30.6    23    1    100.0    1 
 5/12/06  9:43a   24.8   24.8   24.8    88   22.7  24.1     N  0.40  33.8   NNE   22.9   26.9   24.9  1000.5  0.25   6.9   0.000   0.005   26.9    86   24.4   30.6    23    1    100.0    1 
 5/12/06  9:44a   24.8   24.8   24.8    88   22.7  25.7     N  0.43  41.8     N   22.7   26.9   24.8  1000.5  0.00  10.7   0.000   0.005   26.9    86   24.4   30.6    23    1    100.0    1 
 5/12/06  9:45a   24.8   24.8   24.8    89   22.9  25.7     N  0.43  38.6   NNW   22.7   26.9   24.8  1000.7  0.25  10.7   0.000   0.005   26.9    87   24.6   30.7    17    1     73.9    1 
 5/12/06  9:46a   24.8   24.8   24.8    89   22.9  20.9     N  0.35  32.2     N   23.2   26.9   25.3  1000.7  0.25  15.2   0.000   0.005   27.1    88   24.9   31.1    23    1    100.0    1 
 5/12/06  9:47a   24.8   24.8   24.8    89   22.9  19.3     N  0.32  25.7     N   23.4   26.9   25.5  1000.7  0.00   7.6   0.000   0.005   27.2    87   24.8   31.2    22    1     95.7    1 
 5/12/06  9:48a   24.8   24.8   24.8    89   22.9  22.5     N  0.38  40.2     N   23.0   26.9   25.1  1000.7  0.25   7.6   0.000   0.005   27.2    87   24.8   31.2    22    1     95.7    1 
 5/12/06  9:49a   24.8   24.8   24.8    89   22.9  19.3     N  0.32  27.4     N   23.4   26.9   25.5  1000.7  0.00   7.4   0.000   0.005   27.2    86   24.6   31.1    22    1     95.7    1 
 5/12/06  9:50a   24.8   24.8   24.8    89   22.9  19.3     N  0.32  30.6     N   23.4   26.9   25.5  1000.7  0.25   7.4   0.000   0.005   27.1    87   24.7   30.9    22    1     95.7    1 
 5/12/06  9:51a   24.8   24.8   24.8    89   22.9  19.3     N  0.32  29.0   NNE   23.4   26.9   25.5  1000.7  0.00   6.1   0.000   0.005   27.1    87   24.7   30.9    23    1    100.0    1 
 5/12/06  9:52a   24.8   24.8   24.8    89   22.9  16.1     N  0.27  27.4     N   23.8   26.9   25.9  1000.7  0.25   8.4   0.000   0.005   27.1    87   24.7   30.9    23    1    100.0    1 
 5/12/06  9:53a   24.8   24.8   24.8    89   22.9  14.5     N  0.24  27.4     N   24.2   26.9   26.3  1000.7  0.00   8.4   0.000   0.005   27.1    87   24.7   30.9    23    1    100.0    1 
 5/12/06  9:54a   24.8   24.8   24.8    89   22.9  19.3     N  0.32  30.6   NNE   23.4   26.9   25.5  1000.7  0.25   8.4   0.000   0.005   26.9    87   24.6   30.7    23    1    100.0    1 
 5/12/06  9:55a   24.8   24.8   24.8    89   22.9  17.7     N  0.30  33.8   NNE   23.6   26.9   25.7  1000.7  0.00   6.3   0.000   0.005   26.9    87   24.6   30.7    22    1     95.7    1 
 5/12/06  9:56a   24.8   24.8   24.8    89   22.9  27.4     N  0.46  38.6     N   22.6   26.9   24.7  1000.7  0.00   6.3   0.000   0.005   26.9    88   24.8   30.8    22    1     95.7    1 
 5/12/06  9:57a   24.8   24.8   24.8    89   22.9  16.1     N  0.27  25.7   NNW   23.8   26.9   25.9  1000.7  0.00   4.6   0.000   0.005   26.9    88   24.7   30.7    22    1     95.7    1 
 5/12/06  9:58a   24.8   24.8   24.8    89   22.9  16.1   NNE  0.27  22.5   NNE   23.8   26.9   25.9  1000.7  0.25   4.6   0.000   0.005   26.9    88   24.7   30.7    22    1     95.7    1 
 5/12/06  9:59a   24.8   24.8   24.8    89   22.9  17.7     N  0.30  25.7   NNE   23.6   26.9   25.7  1000.7  0.00   3.8   0.000   0.005   26.9    88   24.7   30.7    23    1    100.0    1 
 5/12/06 10:00a   24.9   24.9   24.8    89   22.9  16.1     N  0.27  27.4    NW   23.8   27.0   25.9  1000.6  0.25  11.2   0.000   0.005   26.9    88   24.7   30.7    22    1     95.7    1 
 5/12/06 10:01a   24.9   24.9   24.9    89   23.0  17.7     N  0.30  22.5     N   23.7   27.1   25.8  1000.6  0.00   8.4   0.000   0.005   26.9    88   24.7   30.7    23    1    100.0    1 
 5/12/06 10:02a   24.9   24.9   24.9    89   23.0  22.5     N  0.38  29.0     N   23.2   27.1   25.3  1000.6  0.00   5.3   0.000   0.005   26.9    88   24.7   30.7    23    1    100.0    1 
 5/12/06 10:03a   24.9   24.9   24.9    89   23.0  12.9     N  0.21  19.3     N   24.7   27.1   26.8  1000.6  0.00   4.1   0.000   0.005   26.9    88   24.7   30.7    23    1    100.0    1 
 5/12/06 10:04a   24.9   24.9   24.9    89   23.0  17.7     N  0.30  32.2    NW   23.7   27.1   25.8  1000.6  0.00   3.0   0.000   0.005   26.9    88   24.7   30.7    23    1    100.0    1 
 5/12/06 10:05a   24.9   24.9   24.9    89   23.0  20.9     N  0.35  32.2   NNW   23.3   27.1   25.5  1000.6  0.25   3.0   0.000   0.005   26.9    88   24.7   30.7    21    1     91.3    1 
 5/12/06 10:06a   24.9   24.9   24.9    89   23.0  19.3     N  0.32  29.0     N   23.5   27.1   25.7  1000.6  0.00   3.0   0.000   0.005   26.9    89   24.9   30.8    23    1    100.0    1 
 5/12/06 10:07a   24.9   24.9   24.9    89   23.0  24.1     N  0.40  41.8   NNE   23.0   27.1   25.2  1000.6  0.25   6.9   0.000   0.005   26.9    89   24.9   30.8    22    1     95.7    1 
 5/12/06 10:08a   24.9   24.9   24.9    89   23.0  17.7     N  0.30  27.4   NNE   23.7   27.1   25.8  1000.6  0.00   6.9   0.000   0.005   26.9    89   25.0   30.9    22    1     95.7    1 
 5/12/06 10:09a   24.9   24.9   24.9    89   23.0  22.5     N  0.38  30.6     N   23.2   27.1   25.3  1000.6  0.00   5.6   0.000   0.005   26.9    89   25.0   30.9    23    1    100.0    1 
 5/12/06 10:10a   24.9   24.9   24.9    89   23.0  19.3   NNE  0.32  27.4   NNE   23.5   27.1   25.7  1000.6  0.00   4.1   0.000   0.005   26.9    89   25.0   30.9    22    1     95.7    1 
 5/12/06 10:11a   24.9   24.9   24.9    89   23.0  19.3     N  0.32  30.6   NNE   23.5   27.1   25.7  1000.6  0.00   3.3   0.000   0.005   26.9    89   25.0   30.9    21    1     91.3    1 
 5/12/06 10:12a   24.9   24.9   24.8    89   22.9  24.1   NNE  0.40  32.2   NNE   22.9   27.0   25.1  1000.6  0.25   3.3   0.000   0.005   26.9    89   25.0   30.9    23    1    100.0    1 
 5/12/06 10:13a   24.8   24.8   24.8    89   22.9  27.4   NNE  0.46  35.4   NNE   22.6   26.9   24.7  1000.6  0.00   3.3   0.000   0.005   26.9    88   24.8   30.8    23    1    100.0    1 
 5/12/06 10:14a   24.8   24.8   24.8    89   22.9  19.3     N  0.32  27.4    NE   23.4   26.9   25.5  1000.6  0.00   3.3   0.000   0.005   26.9    88   24.8   30.8    23    1    100.0    1 
 5/12/06 10:15a   24.9   24.9   24.8    89   22.9  16.1     N  0.27  27.4   NNE   23.8   27.0   25.9  1000.5  0.00   3.3   0.000   0.005   26.9    88   24.8   30.8    22    1     95.7    1 
 5/12/06 10:16a   24.9   24.9   24.9    89   23.0  17.7   NNE  0.30  29.0   NNE   23.7   27.1   25.8  1000.5  0.00   3.0   0.000   0.005   26.9    88   24.8   30.8    23    1    100.0    1 
 5/12/06 10:17a   24.9   24.9   24.9    90   23.2  17.7     N  0.30  22.5     N   23.7   27.2   25.9  1000.5  0.25   3.0   0.000   0.005   27.1    88   24.9   31.1    23    1    100.0    1 
 5/12/06 10:18a   24.8   24.9   24.8    90   23.1  14.5   NNE  0.24  20.9    NE   24.2   26.9   26.3  1000.5  0.00   2.8   0.000   0.005   27.1    88   24.9   31.1    22    1     95.7    1 
 5/12/06 10:19a   24.8   24.8   24.8    90   23.1  11.3     N  0.19  19.3     N   24.8   26.9   26.9  1000.5  0.00   2.8   0.000   0.005   27.1    88   24.9   31.1    22    1     95.7    1 
 5/12/06 10:20a   24.8   24.8   24.8    90   23.1  17.7     N  0.30  25.7     N   23.6   26.9   25.7  1000.5  0.25   5.6   0.000   0.005   27.1    88   24.9   31.1    22    1     95.7    1 
 5/12/06 10:21a   24.8   24.8   24.8    90   23.1  14.5     N  0.24  19.3     N   24.2   26.9   26.3  1000.5  0.00   5.6   0.000   0.005   27.1    88   24.9   31.1    22    1     95.7    1 
 5/12/06 10:22a   24.8   24.8   24.8    90   23.1   8.0     N  0.13  12.9   NNE   24.8   26.9   26.9  1000.5  0.00   5.6   0.000   0.005   27.1    88   24.9   31.1    23    1    100.0    1 
 5/12/06 10:23a   24.8   24.8   24.8    90   23.1  14.5   NNE  0.24  20.9   NNE   24.2   26.9   26.3  1000.5  0.25   5.6   0.000   0.005   27.1    88   24.9   31.1    23    1    100.0    1 
 5/12/06 10:24a   24.8   24.8   24.8    90   23.1  14.5   NNE  0.24  30.6   NNE   24.2   26.9   26.3  1000.5  0.00   4.6   0.000   0.005   27.1    88   24.9   31.1    23    1    100.0    1 
 5/12/06 10:25a   24.8   24.8   24.8    90   23.1  14.5    NE  0.24  29.0    NE   24.2   26.9   26.3  1000.5  0.00   4.6   0.000   0.005   27.1    88   24.9   31.1    22    1     95.7    1 
 5/12/06 10:26a   24.8   24.8   24.8    90   23.0  12.9   NNE  0.21  19.3   NNE   24.5   26.9   26.6  1000.5  0.00   4.6   0.000   0.004   27.1    88   24.9   31.1    23    1    100.0    1 
 5/12/06 10:27a   24.8   24.8   24.8    90   23.0  16.1     N  0.27  22.5   NNE   23.7   26.9   25.8  1000.5  0.00   3.6   0.000   0.004   27.1    88   24.9   31.1    20    1     87.0    1 
 5/12/06 10:28a   24.8   24.8   24.8    90   23.0   9.7   NNE  0.16  17.7   NNE   24.8   26.9   26.9  1000.5  0.00   2.8   0.000   0.004   27.2    88   25.0   31.3    15    1     65.2    1 
 5/12/06 10:29a   24.8   24.8   24.8    90   23.0  11.3   NNE  0.19  17.7    NE   24.8   26.9   26.9  1000.5  0.00   2.3   0.000   0.004   27.2    88   25.0   31.3     8    1     34.8    1 
 5/12/06 10:30a   24.8   24.8   24.8    90   23.0  17.7   NNE  0.30  30.6   NNE   23.5   26.9   25.6  1000.5  0.00   2.0   0.000   0.004   27.2    88   25.0   31.3    22    1     95.7    1 
 5/12/06 10:31a   24.8   24.8   24.8    90   23.0  17.7     N  0.30  29.0     N   23.5   26.9   25.6  1000.5  0.00   1.8   0.000   0.004   27.2    88   25.0   31.3    23    1    100.0    1 
 5/12/06 10:32a   24.8   24.8   24.8    90   23.0  11.3     N  0.19  20.9   NNE   24.8   26.9   26.9  1000.5  0.25   1.8   0.000   0.004   27.2    88   25.0   31.3    23    1    100.0    1 
 5/12/06 10:33a   24.8   24.8   24.8    90   23.0  16.1     N  0.27  19.3     N   23.7   26.9   25.8  1000.5  0.00   1.8   0.000   0.004   27.2    88   25.0   31.3    23    1    100.0    1 
 5/12/06 10:34a   24.8   24.8   24.8    90   23.0  19.3     N  0.32  29.0   NNE   23.3   26.9   25.4  1000.5  0.00   1.8   0.000   0.004   27.2    88   25.0   31.3    22    1     95.7    1 
 5/12/06 10:35a   24.8   24.8   24.8    90   23.0  19.3     N  0.32  33.8     N   23.3   26.9   25.4  1000.5  0.00   1.8   0.000   0.004   27.2    88   25.0   31.3    22    1     95.7    1 
 5/12/06 10:36a   24.8   24.8   24.8    90   23.0   9.7     N  0.16  11.3   NNW   24.8   26.9   26.9  1000.5  0.00   1.8   0.000   0.004   27.2    88   25.0   31.3    23    1    100.0    1 
 5/12/06 10:37a   24.8   24.8   24.8    89   22.9  14.5   NNE  0.24  30.6   NNE   24.2   26.9   26.3  1000.5  0.25   3.0   0.000   0.005   27.2    88   25.0   31.3    23    1    100.0    1 
 5/12/06 10:38a   24.8   24.8   24.8    90   23.1  14.5    NE  0.24  22.5    NE   24.2   26.9   26.3  1000.5  0.00   3.0   0.000   0.005   27.2    87   24.8   31.2    22    1     95.7    1 
 5/12/06 10:39a   24.8   24.8   24.8    89   22.9  14.5   NNE  0.24  20.9   NNE   24.2   26.9   26.3  1000.5  0.00   3.0   0.000   0.005   27.2    87   24.8   31.2    23    1    100.0    1 
 5/12/06 10:40a   24.8   24.8   24.8    89   22.9  17.7   NNE  0.30  25.7   NNE   23.6   26.9   25.7  1000.5  0.00   3.0   0.000   0.005   27.2    87   24.8   31.2    22    1     95.7    1 
 5/12/06 10:41a   24.8   24.8   24.8    89   22.9  12.9    NE  0.21  19.3     N   24.6   26.9   26.7  1000.5  0.25   3.8   0.000   0.005   27.2    87   24.8   31.2    23    1    100.0    1 
 5/12/06 10:42a   24.8   24.8   24.8    89   22.9  14.5    NE  0.24  22.5   NNE   24.2   26.9   26.3  1000.5  0.00   3.8   0.000   0.005   27.2    87   24.8   31.2    23    1    100.0    1 
 5/12/06 10:43a   24.9   24.9   24.8    89   22.9  11.3   NNE  0.19  17.7    NE   24.9   27.0   27.0  1000.5  0.25   6.6   0.000   0.005   27.2    87   24.8   31.2    23    1    100.0    1 
 5/12/06 10:44a   24.9   24.9   24.9    89   23.0  11.3     N  0.19  20.9    NE   24.9   27.1   27.1  1000.5  0.00   6.6   0.000   0.005   27.2    87   24.8   31.2    22    1     95.7    1 
 5/12/06 10:45a   24.9   24.9   24.9    89   23.0  11.3     N  0.19  12.9     N   24.9   27.1   27.1   999.8  0.00   5.8   0.000   0.005   27.2    87   24.8   31.2    21    1     91.3    1 
 5/12/06 10:46a   24.9   24.9   24.9    89   23.0   9.7   ESE  0.16  19.3    NE   24.9   27.1   27.1   999.8  0.00   4.1   0.000   0.005   27.2    87   24.8   31.2    22    1     95.7    1 
 5/12/06 10:47a   25.0   25.1   24.9    89   23.1   9.7    NE  0.16  16.1   NNE   25.0   27.2   27.2   999.8  0.25   4.1   0.000   0.005   27.3    87   24.9   31.4    23    1    100.0    1 
 5/12/06 10:48a   25.1   25.1   25.1    89   23.1  11.3   NNE  0.19  19.3   NNE   25.1   27.3   27.3   999.8  0.00   3.8   0.000   0.005   27.3    87   24.9   31.4    23    1    100.0    1 
 5/12/06 10:49a   25.1   25.2   25.1    88   23.0  19.3     E  0.32  25.7     E   23.7   27.3   25.9   999.8  0.00   3.8   0.000   0.005   27.3    87   24.9   31.4    23    1    100.0    1 
 5/12/06 10:50a   25.2   25.3   25.2    88   23.1  19.3     N  0.32  27.4    NE   23.8   27.5   26.1   999.8  0.00   3.8   0.000   0.005   27.3    87   24.9   31.4    22    1     95.7    1 
 5/12/06 10:51a   25.3   25.3   25.3    88   23.2  11.3     E  0.19  19.3   ENE   25.3   27.7   27.7   999.8  0.25   4.1   0.000   0.005   27.3    87   24.9   31.4    23    1    100.0    1 
 5/12/06 10:52a   25.3   25.4   25.3    87   23.0   1.6   ENE  0.03   4.8   ENE   25.3   27.6   27.6   999.8  0.00   4.1   0.000   0.005   27.3    87   24.9   31.4    23    1    100.0    1 
 5/12/06 10:53a   25.4   25.4   25.4    87   23.1   4.8    NW  0.08  11.3    NW   25.4   27.8   27.8   999.8  0.00   4.1   0.000   0.005   27.3    87   24.9   31.4    23    1    100.0    1 
 5/12/06 10:54a   25.4   25.4   25.4    87   23.1   9.7    NE  0.16  19.3    NE   25.4   27.8   27.8   999.8  0.00   3.8   0.000   0.005   27.3    87   24.9   31.4    22    1     95.7    1 
 5/12/06 10:55a   25.4   25.4   25.4    87   23.1  12.9    NE  0.21  22.5    NE   25.2   27.8   27.6   999.8  0.00   3.0   0.000   0.005   27.3    87   24.9   31.4    22    1     95.7    1 
 5/12/06 10:56a   25.4   25.4   25.4    87   23.1  12.9    NE  0.21  19.3   NNE   25.2   27.8   27.6   999.8  0.00   2.5   0.000   0.005   27.3    87   24.9   31.4    22    1     95.7    1 
 5/12/06 10:57a   25.4   25.4   25.4    87   23.1  11.3   NNE  0.19  20.9   NNW   25.4   27.8   27.8   999.8  0.00   2.3   0.000   0.005   27.3    87   24.9   31.4    23    1    100.0    1 
 5/12/06 10:58a   25.4   25.4   25.4    87   23.1   4.8     N  0.08   9.7   NNE   25.4   27.8   27.8   999.8  0.00   2.0   0.000   0.005   27.3    87   24.9   31.4    23    1    100.0    1 
 5/12/06 10:59a   25.4   25.4   25.4    87   23.1   3.2    NE  0.05   8.0    NW   25.4   27.8   27.8   999.8  0.00   1.8   0.000   0.005   27.3    87   24.9   31.4    23    1    100.0    1 
 5/12/06 11:00a   25.4   25.4   25.4    87   23.1   4.8   WNW  0.08   9.7    NW   25.4   27.8   27.8   999.7  0.00   1.5   0.000   0.005   27.3    87   24.9   31.4    22    1     95.7    1 
 5/12/06 11:01a   25.4   25.4   25.4    87   23.1   1.6   WNW  0.03   4.8   WNW   25.4   27.8   27.8   999.7  0.00   1.5   0.000   0.005   27.3    87   24.9   31.4    24    1    100.0    1 
 5/12/06 11:02a   25.4   25.4   25.4    88   23.3   4.8   WNW  0.08   9.7   NNE   25.4   27.9   27.9   999.7  0.00   1.3   0.000   0.005   27.3    87   24.9   31.4    22    1     95.7    1 
 5/12/06 11:03a   25.4   25.4   25.4    87   23.1  16.1   NNE  0.27  27.4    NE   24.4   27.8   26.8   999.7  0.00   1.3   0.000   0.005   27.3    88   25.1   31.6    23    1    100.0    1 
 5/12/06 11:04a   25.4   25.4   25.4    87   23.1  14.5   NNE  0.24  22.5     N   24.8   27.8   27.2   999.7  0.00   1.0   0.000   0.005   27.3    88   25.1   31.6    23    1    100.0    1 
 5/12/06 11:05a   25.4   25.6   25.4    87   23.1   9.7    NE  0.16  19.3     E   25.4   27.8   27.8   999.7  0.00   1.0   0.000   0.005   27.3    88   25.1   31.6    22    1     95.7    1 
 5/12/06 11:06a   25.6   25.6   25.6    86   23.0  11.3   ENE  0.19  19.3     E   25.6   27.9   27.9   999.7  0.00   1.0   0.000   0.005   27.3    88   25.1   31.6    23    1    100.0    1 
 5/12/06 11:07a   25.7   25.8   25.6    84   22.8   9.7   ENE  0.16  19.3     E   25.7   27.9   27.9   999.7  0.25   1.0   0.000   0.005   27.4    87   25.0   31.8    23    1    100.0    1 
 5/12/06 11:08a   25.8   25.8   25.8    83   22.7   9.7     N  0.16  16.1   NNE   25.8   28.1   28.1   999.7  0.00   1.0   0.000   0.005   27.4    87   25.0   31.8    23    1    100.0    1 
 5/12/06 11:09a   25.9   25.9   25.8    83   22.8   6.4    NE  0.11  17.7     N   25.9   28.2   28.2   999.7  0.00   1.0   0.000   0.005   27.4    87   25.0   31.8    22    1     95.7    1 
 5/12/06 11:10a   26.0   26.1   25.9    83   22.9   6.4    NE  0.11  11.3   NNE   26.0   28.3   28.3   999.7  0.00   1.0   0.000   0.005   27.4    87   25.0   31.8    22    1     95.7    1 
 5/12/06 11:11a   26.1   26.1   26.1    83   22.9   9.7    NE  0.16  17.7    NE   26.1   28.4   28.4   999.7  0.00   1.0   0.000   0.005   27.4    87   25.0   31.8    23    1    100.0    1 
 5/12/06 11:12a   26.1   26.1   26.1    83   22.9  11.3     E  0.19  25.7    NE   26.1   28.4   28.4   999.7  0.25   2.5   0.000   0.005   27.4    87   25.0   31.8    23    1    100.0    1 
 5/12/06 11:13a   26.1   26.1   26.1    83   22.9   8.0    NE  0.13  11.3   NNE   26.1   28.4   28.4   999.7  0.00   2.5   0.000   0.005   27.4    87   25.0   31.8    23    1    100.0    1 
 5/12/06 11:14a   26.1   26.1   26.1    83   22.9   4.8    NE  0.08   9.7    NE   26.1   28.4   28.4   999.7  0.00   2.5   0.000   0.005   27.4    87   25.0   31.8    23    1    100.0    1 
 5/12/06 11:15a   26.1   26.1   26.1    83   22.9   8.0   ESE  0.13  12.9   NNE   26.1   28.4   28.4   999.9  0.00   2.5   0.000   0.005   27.4    87   25.0   31.8    21    1     91.3    1 
 5/12/06 11:16a   26.1   26.1   26.1    84   23.1   3.2    NE  0.05  11.3     E   26.1   28.6   28.6   999.9  0.00   2.5   0.000   0.005   27.4    87   25.0   31.8    23    1    100.0    1 
 5/12/06 11:17a   26.1   26.1   26.1    84   23.1   8.0   ENE  0.13  11.3   ENE   26.1   28.6   28.6   999.9  0.00   2.5   0.000   0.005   27.4    87   25.0   31.8    23    1    100.0    1 
 5/12/06 11:18a   26.1   26.1   26.1    84   23.1   3.2     N  0.05   8.0     N   26.1   28.6   28.6   999.9  0.00   2.5   0.000   0.005   27.4    87   25.0   31.8    23    1    100.0    1 
 5/12/06 11:19a   26.0   26.1   25.9    84   23.1   6.4    NE  0.11  11.3    NE   26.0   28.4   28.4   999.9  0.00   2.0   0.000   0.005   27.4    87   25.0   31.8    23    1    100.0    1 
 5/12/06 11:20a   25.9   25.9   25.9    85   23.2   9.7     E  0.16  11.3     N   25.9   28.4   28.4   999.9  0.00   1.8   0.000   0.005   27.5    87   25.1   32.1    22    1     95.7    1 
 5/12/06 11:21a   25.9   25.9   25.9    85   23.2   4.8   ENE  0.08   8.0     E   25.9   28.4   28.4   999.9  0.00   1.8   0.000   0.005   27.5    87   25.1   32.1    22    1     95.7    1 
 5/12/06 11:22a   25.9   25.9   25.9    85   23.2   9.7   ENE  0.16  29.0     E   25.9   28.4   28.4   999.9  0.00   1.5   0.000   0.005   27.5    87   25.1   32.1    23    1    100.0    1 
 5/12/06 11:23a   25.9   25.9   25.9    84   23.0  11.3    NE  0.19  20.9     E   25.9   28.4   28.4   999.9  0.00   1.3   0.000   0.005   27.5    87   25.1   32.1    22    1     95.7    1 
 5/12/06 11:24a   26.0   26.1   25.9    83   22.9  25.7   ESE  0.43  53.1   ESE   24.1   28.3   26.4   999.9  0.00   1.3   0.000   0.005   27.5    87   25.1   32.1    22    1     95.7    1 
 5/12/06 11:25a   26.3   26.4   26.2    82   23.0  17.7    NE  0.30  30.6   ESE   25.2   28.7   27.6   999.9  0.00   1.3   0.000   0.006   27.5    87   25.1   32.1    21    1     91.3    1 
 5/12/06 11:26a   26.4   26.5   26.4    81   22.9  12.9     E  0.21  19.3   ENE   26.2   28.8   28.6   999.9  0.00   1.0   0.000   0.006   27.5    87   25.1   32.1    22    1     95.7    1 
 5/12/06 11:27a   26.5   26.5   26.5    80   22.8  16.1     E  0.27  30.6     E   25.6   28.9   28.0   999.9  0.00   1.0   0.000   0.006   27.5    87   25.1   32.1    23    1    100.0    1 
 5/12/06 11:28a   26.6   26.7   26.6    80   22.9  19.3   ENE  0.32  32.2   ENE   25.4   29.1   27.8   999.9  0.00   1.0   0.000   0.006   27.5    87   25.1   32.1    22    1     95.7    1 
 5/12/06 11:29a   26.7   26.8   26.7    78   22.6  16.1   ENE  0.27  20.9     E   25.8   29.1   28.2   999.9  0.00   0.0   0.000   0.006   27.5    87   25.1   32.1    22    1     95.7    1 
 5/12/06 11:30a   26.8   26.8   26.8    77   22.4  29.0     E  0.48  46.7     E   24.8   29.1   27.1   999.7  0.00   0.0   0.000   0.006   27.5    86   24.9   31.9    20    1     87.0    1 
 5/12/06 11:31a   26.8   26.9   26.8    77   22.5  25.7   ENE  0.43  41.8    NE   25.1   29.2   27.4   999.7  0.00   0.0   0.000   0.006   27.5    86   24.9   31.9    22    1     95.7    1 
 5/12/06 11:32a   26.9   26.9   26.9    75   22.1  24.1   ENE  0.40  40.2    NE   25.3   29.1   27.4   999.7  0.00   0.0   0.000   0.006   27.5    86   24.9   31.9    23    1    100.0    1 
 5/12/06 11:33a   27.0   27.0   27.0    76   22.4  25.7     E  0.43  43.5   NNE   25.3   29.4   27.7   999.7  0.00   0.0   0.000   0.006   27.5    85   24.8   31.7    22    1     95.7    1 
 5/12/06 11:34a   27.0   27.0   27.0    75   22.2  27.4   ENE  0.46  46.7   ENE   25.2   29.3   27.4   999.7  0.00   0.0   0.000   0.006   27.5    85   24.8   31.7    22    1     95.7    1 
 5/12/06 11:35a   27.1   27.1   27.0    75   22.2  29.0   ENE  0.48  45.1   ESE   25.1   29.4   27.4   999.7  0.00   0.0   0.000   0.006   27.5    85   24.8   31.7    22    1     95.7    1 
 5/12/06 11:36a   27.1   27.1   27.1    75   22.3  17.7     E  0.30  29.0   ENE   26.1   29.4   28.4   999.7  0.00   0.0   0.000   0.006   27.5    85   24.8   31.7    23    1    100.0    1 
 5/12/06 11:37a   27.1   27.1   27.0    76   22.5  20.9     E  0.35  45.1     E   25.8   29.6   28.3   999.7  0.00   0.0   0.000   0.006   27.5    85   24.8   31.7    23    1    100.0    1 
 5/12/06 11:38a   27.1   27.1   27.0    75   22.2  30.6     E  0.51  40.2     E   25.0   29.4   27.3   999.7  0.00   0.0   0.000   0.006   27.5    84   24.6   31.6    22    1     95.7    1 
 5/12/06 11:39a   27.2   27.2   27.1    74   22.1  30.6   ENE  0.51  41.8    NE   25.2   29.4   27.4   999.7  0.00   0.0   0.000   0.006   27.4    84   24.4   31.3    23    1    100.0    1 
 5/12/06 11:40a   27.3   27.3   27.2    74   22.2  32.2   NNE  0.54  45.1   NNE   25.2   29.7   27.6   999.7  0.00   0.0   0.000   0.006   27.4    84   24.4   31.3    22    1     95.7    1 
 5/12/06 11:41a   27.3   27.3   27.3    74   22.2  17.7   ENE  0.30  35.4   ENE   26.3   29.7   28.7   999.7  0.00   0.0   0.000   0.006   27.4    84   24.4   31.3    23    1    100.0    1 
 5/12/06 11:42a   27.3   27.3   27.3    74   22.2  12.9   ENE  0.21  20.9   ENE   27.1   29.7   29.4   999.7  0.00   0.0   0.000   0.006   27.4    84   24.4   31.3    23    1    100.0    1 
 5/12/06 11:43a   27.3   27.3   27.3    74   22.2  14.5   ENE  0.24  27.4   ESE   26.7   29.7   29.1   999.7  0.00   0.0   0.000   0.006   27.5    84   24.6   31.6    22    1     95.7    1 
 5/12/06 11:44a   27.3   27.3   27.3    73   22.0  22.5     E  0.38  41.8     E   25.8   29.6   28.1   999.7  0.00   0.0   0.000   0.006   27.5    84   24.6   31.6    22    1     95.7    1 
 5/12/06 11:45a   27.3   27.4   27.3    73   22.1  17.7    NE  0.30  29.0     E   26.3   29.7   28.7   999.2  0.00   0.0   0.000   0.006   27.5    84   24.6   31.6    22    1     95.7    1 
 5/12/06 11:46a   27.4   27.4   27.4    72   21.9  22.5   ENE  0.38  33.8   ENE   26.0   29.7   28.3   999.2  0.00   0.0   0.000   0.006   27.5    84   24.6   31.6    23    1    100.0    1 
 5/12/06 11:47a   27.4   27.4   27.4    73   22.1  25.7     E  0.43  48.3   ENE   25.8   29.8   28.2   999.2  0.00   0.0   0.000   0.006   27.5    84   24.6   31.6    23    1    100.0    1 
 5/12/06 11:48a   27.5   27.5   27.4    72   22.0  27.4   ENE  0.46  43.5     E   25.8   29.9   28.2   999.2  0.00   0.0   0.000   0.006   27.5    84   24.6   31.6    23    1    100.0    1 
 5/12/06 11:49a   27.5   27.5   27.5    72   22.0  27.4   ENE  0.46  40.2    NE   25.8   29.9   28.2   999.2  0.00   0.0   0.000   0.006   27.5    84   24.6   31.6    23    1    100.0    1 
 5/12/06 11:50a   27.6   27.6   27.5    72   22.1  22.5     E  0.38  32.2     E   26.2   30.0   28.6   999.2  0.00   0.0   0.000   0.006   27.5    83   24.4   31.4    22    1     95.7    1 
 5/12/06 11:51a   27.6   27.6   27.6    72   22.1  20.9   ENE  0.35  38.6     E   26.3   30.1   28.8   999.2  0.00   0.0   0.000   0.006   27.5    83   24.4   31.4    23    1    100.0    1 
 5/12/06 11:52a   27.5   27.5   27.5    72   22.0  22.5    NE  0.38  33.8   ENE   26.1   29.9   28.5   999.2  0.00   0.0   0.000   0.006   27.5    83   24.4   31.4    23    1    100.0    1 
 5/12/06 11:53a   27.6   27.6   27.5    72   22.1  27.4   ENE  0.46  45.1     N   25.9   30.1   28.4   999.2  0.00   0.0   0.000   0.006   27.5    83   24.4   31.4    23    1    100.0    1 
 5/12/06 11:54a   27.7   27.7   27.6    71   21.9  32.2    NE  0.54  48.3     E   25.7   30.1   28.2   999.2  0.00   0.0   0.000   0.006   27.5    83   24.4   31.4    23    1    100.0    1 
 5/12/06 11:55a   27.8   27.8   27.7    71   22.0  19.3   ENE  0.32  29.0     E   26.7   30.3   29.2   999.2  0.00   0.0   0.000   0.007   27.5    83   24.4   31.4    21    1     91.3    1 
 5/12/06 11:56a   27.8   27.8   27.8    71   22.1  24.1   ENE  0.40  46.7   ESE   26.4   30.4   29.0   999.2  0.00   0.0   0.000   0.007   27.5    82   24.2   31.3    20    1     87.0    1 
 5/12/06 11:57a   27.8   27.8   27.7    72   22.3  16.1     E  0.27  27.4     E   27.0   30.4   29.7   999.2  0.00   0.0   0.000   0.007   27.5    82   24.2   31.3    23    1    100.0    1 
 5/12/06 11:58a   27.7   27.7   27.7    71   22.0  38.6     E  0.64  51.5    NE   25.5   30.2   27.9   999.2  0.00   0.0   0.000   0.007   27.5    82   24.2   31.3    23    1    100.0    1 
 5/12/06 11:59a   27.8   27.8   27.7    71   22.0  29.0     E  0.48  41.8     E   26.0   30.3   28.5   999.2  0.00   0.0   0.000   0.007   27.6    82   24.3   31.6    23    1    100.0    1 
 5/12/06 12:00p   27.8   27.8   27.8    71   22.1  16.1   ENE  0.27  29.0   ENE   27.1   30.4   29.7   999.1  0.00   0.0   0.000   0.007   27.6    82   24.3   31.6    22    1     95.7    1 
 5/12/06 12:01p   27.8   27.8   27.8    71   22.1  19.3     E  0.32  32.2   ESE   26.8   30.4   29.4   999.1  0.00   0.0   0.000   0.007   27.6    82   24.3   31.6    20    1     87.0    1 
 5/12/06 12:02p   27.8   27.8   27.8    71   22.1  30.6     E  0.51  40.2   ESE   26.0   30.4   28.6   999.1  0.00   0.0   0.000   0.007   27.6    82   24.3   31.6    20    1     87.0    1 
 5/12/06 12:03p   27.8   27.8   27.8    71   22.1  20.9   ENE  0.35  38.6   ENE   26.6   30.4   29.2   999.1  0.00   0.0   0.000   0.007   27.6    82   24.3   31.6    23    1    100.0    1 
 5/12/06 12:04p   27.8   27.8   27.8    71   22.1  12.9   ENE  0.21  22.5     E   27.7   30.4   30.3   999.1  0.00   0.0   0.000   0.007   27.6    82   24.3   31.6    22    1     95.7    1 
 5/12/06 12:05p   27.8   27.8   27.8    71   22.1  14.5   ENE  0.24  17.7     E   27.3   30.4   29.9   999.1  0.00   0.0   0.000   0.007   27.6    82   24.3   31.6    22    1     95.7    1 
 5/12/06 12:06p   27.7   27.7   27.7    72   22.2  24.1   ENE  0.40  33.8   ENE   26.3   30.3   28.9   999.1  0.00   0.0   0.000   0.007   27.6    82   24.3   31.6    23    1    100.0    1 
 5/12/06 12:07p   27.7   27.7   27.7    72   22.2  29.0     E  0.48  43.5     E   25.9   30.3   28.6   999.1  0.00   0.0   0.000   0.007   27.6    82   24.3   31.6    23    1    100.0    1 
 5/12/06 12:08p   27.7   27.7   27.7    72   22.2  24.1     E  0.40  38.6     E   26.3   30.3   28.9   999.1  0.00   0.0   0.000   0.007   27.6    82   24.3   31.6    22    1     95.7    1 
 5/12/06 12:09p   27.7   27.7   27.7    72   22.2  27.4     E  0.46  41.8     E   26.1   30.3   28.7   999.1  0.00   0.0   0.000   0.007   27.6    82   24.3   31.6    22    1     95.7    1 
 5/12/06 12:10p   27.7   27.7   27.7    72   22.2  32.2   ENE  0.54  43.5     E   25.8   30.3   28.4   999.1  0.00   0.0   0.000   0.007   27.6    82   24.3   31.6    22    1     95.7    1 
 5/12/06 12:11p   27.7   27.7   27.7    72   22.2  19.3   ENE  0.32  32.2   ENE   26.7   30.3   29.3   999.1  0.00   0.0   0.000   0.007   27.6    82   24.3   31.6    23    1    100.0    1 
 5/12/06 12:12p   27.7   27.7   27.7    72   22.2  20.9   ENE  0.35  38.6   ENE   26.5   30.3   29.1   999.1  0.00   0.0   0.000   0.007   27.6    82   24.3   31.6    22    1     95.7    1 
 5/12/06 12:13p   27.8   27.8   27.7    72   22.3  29.0   ENE  0.48  45.1   ENE   26.1   30.6   28.8   999.1  0.00   0.0   0.000   0.007   27.6    82   24.3   31.6    23    1    100.0    1 
 5/12/06 12:14p   27.9   27.9   27.8    71   22.1  27.4     E  0.46  54.7     E   26.2   30.6   28.9   999.1  0.00   0.0   0.000   0.007   27.6    82   24.3   31.6    22    1     95.7    1 
 5/12/06 12:15p   27.9   27.9   27.9    71   22.2  27.4   ENE  0.46  41.8   NNE   26.3   30.7   29.1   999.0  0.00   0.0   0.000   0.007   27.6    82   24.3   31.6    22    1     95.7    1 
 5/12/06 12:16p   27.9   27.9   27.9    71   22.2  24.1     E  0.40  33.8     E   26.6   30.7   29.3   999.0  0.00   0.0   0.000   0.007   27.7    82   24.4   31.8    23    1    100.0    1 
 5/12/06 12:17p   27.9   27.9   27.9    71   22.2  24.1     E  0.40  38.6   ESE   26.6   30.7   29.3   999.0  0.00   0.0   0.000   0.007   27.7    82   24.4   31.8    23    1    100.0    1 
 5/12/06 12:18p   28.0   28.1   27.9    70   22.0  33.8     E  0.56  45.1     E   26.1   30.6   28.7   999.0  0.00   0.0   0.000   0.007   27.7    81   24.2   31.7    22    1     95.7    1 
 5/12/06 12:19p   28.1   28.1   28.1    70   22.1  27.4     E  0.46  43.5     E   26.4   30.8   29.2   999.0  0.00   0.0   0.000   0.007   27.7    81   24.2   31.7    23    1    100.0    1 
 5/12/06 12:20p   28.1   28.1   28.1    70   22.1  25.7     E  0.43  41.8     E   26.6   30.8   29.3   999.0  0.00   0.0   0.000   0.007   27.7    81   24.2   31.7    22    1     95.7    1 
 5/12/06 12:21p   28.0   28.1   27.9    71   22.2  22.5     E  0.38  41.8    SE   26.7   30.8   29.5   999.0  0.00   0.0   0.000   0.007   27.7    81   24.2   31.7    23    1    100.0    1 
 5/12/06 12:22p   27.9   27.9   27.9    70   22.0  32.2     E  0.54  51.5    NE   26.1   30.5   28.6   999.0  0.00   0.0   0.000   0.007   27.7    81   24.2   31.7    23    1    100.0    1 
 5/12/06 12:23p   28.0   28.1   27.9    69   21.8  38.6     E  0.64  56.3     E   25.8   30.5   28.3   999.0  0.00   0.0   0.000   0.007   27.7    81   24.2   31.7    23    1    100.0    1 
 5/12/06 12:24p   28.1   28.2   28.1    69   21.9  27.4     E  0.46  41.8     E   26.5   30.7   29.1   999.0  0.00   0.0   0.000   0.007   27.7    81   24.2   31.7    20    1     87.0    1 
 5/12/06 12:25p   28.2   28.2   28.2    69   21.9  27.4    NE  0.46  51.5     N   26.6   30.8   29.2   999.0  0.00   0.0   0.000   0.007   27.7    81   24.2   31.7    22    1     95.7    1 
 5/12/06 12:26p   28.2   28.2   28.2    69   21.9  25.7   ENE  0.43  38.6     N   26.7   30.8   29.3   999.0  0.00   0.0   0.000   0.007   27.7    80   24.0   31.5    23    1    100.0    1 
 5/12/06 12:27p   28.1   28.2   28.1    70   22.1  19.3    NE  0.32  32.2   ESE   27.1   30.9   29.9   999.0  0.00   0.0   0.000   0.007   27.7    81   24.2   31.7    23    1    100.0    1 
 5/12/06 12:28p   28.1   28.1   27.9    70   22.1  41.8     E  0.70  72.4   ENE   25.8   30.8   28.6   999.0  0.00   0.0   0.000   0.007   27.7    81   24.2   31.7    23    1    100.0    1 
 5/12/06 12:29p   27.9   27.9   27.9    70   22.0  33.8     E  0.56  54.7   ENE   26.0   30.5   28.6   999.0  0.00   0.0   0.000   0.007   27.6    81   24.1   31.4    23    1    100.0    1 
 5/12/06 12:30p   27.9   27.9   27.8    71   22.1  37.0     E  0.62  56.3    NE   25.8   30.6   28.4   998.8  0.00   0.0   0.000   0.007   27.6    81   24.1   31.4    22    1     95.7    1 
 5/12/06 12:31p   27.8   27.8   27.8    71   22.1  25.7     E  0.43  38.6     E   26.3   30.4   28.9   998.8  0.00   0.0   0.000   0.007   27.6    81   24.1   31.4    23    1    100.0    1 
 5/12/06 12:32p   27.7   27.7   27.6    72   22.2  29.0     E  0.48  62.8   ENE   25.9   30.3   28.6   998.8  0.00   0.0   0.000   0.007   27.6    81   24.1   31.4    23    1    100.0    1 
 5/12/06 12:33p   27.6   27.6   27.5    72   22.1  29.0   ENE  0.48  48.3   ENE   25.8   30.1   28.3   998.8  0.00   0.0   0.000   0.006   27.6    81   24.1   31.4    23    1    100.0    1 
 5/12/06 12:34p   27.5   27.5   27.5    73   22.2  22.5     E  0.38  35.4   ENE   26.1   30.0   28.6   998.8  0.00   0.0   0.000   0.006   27.5    81   23.9   31.1    23    1    100.0    1 
 5/12/06 12:35p   27.3   27.4   27.3    73   22.1  22.5     E  0.38  35.4     E   25.9   29.7   28.2   998.8  0.00   0.0   0.000   0.006   27.5    81   23.9   31.1    22    1     95.7    1 
 5/12/06 12:36p   27.3   27.3   27.2    74   22.2  17.7     E  0.30  32.2     E   26.3   29.7   28.7   998.8  0.00   0.0   0.000   0.006   27.5    81   23.9   31.1    23    1    100.0    1 
 5/12/06 12:37p   27.2   27.2   27.1    75   22.3  32.2   ENE  0.54  48.3   ESE   25.1   29.6   27.5   998.8  0.00   0.0   0.000   0.006   27.5    81   23.9   31.1    23    1    100.0    1 
 5/12/06 12:38p   26.9   27.0   26.9    76   22.4  20.9     E  0.35  51.5   ESE   25.6   29.3   27.9   998.8  0.00   0.0   0.000   0.006   27.5    82   24.2   31.3    23    1    100.0    1 
 5/12/06 12:39p   26.8   26.9   26.8    77   22.5  27.4     E  0.46  40.2     E   25.0   29.2   27.3   998.8  0.00   0.0   0.000   0.006   27.4    82   24.0   31.0    23    1    100.0    1 
 5/12/06 12:40p   26.6   26.7   26.6    77   22.2  30.6   ENE  0.51  56.3   ENE   24.5   28.8   26.7   998.8  0.25   0.0   0.000   0.006   27.4    82   24.0   31.0    22    1     95.7    1 
 5/12/06 12:41p   26.6   26.6   26.5    78   22.4  25.7     E  0.43  46.7   ESE   24.8   28.8   27.0   998.8  0.00   0.0   0.000   0.006   27.4    82   24.0   31.0    23    1    100.0    1 
 5/12/06 12:42p   26.5   26.5   26.5    78   22.3  35.4     E  0.59  56.3     E   24.1   28.7   26.3   998.8  0.00   0.0   0.000   0.006   27.4    82   24.0   31.0    23    1    100.0    1 
 5/12/06 12:43p   26.5   26.5   26.5    78   22.3  25.7   ENE  0.43  45.1     E   24.7   28.7   26.8   998.8  0.00   0.0   0.000   0.006   27.4    82   24.0   31.0    23    1    100.0    1 
 5/12/06 12:44p   26.5   26.5   26.5    78   22.3  37.0     E  0.62  62.8     E   24.1   28.7   26.2   998.8  0.00   0.0   0.000   0.006   27.4    82   24.0   31.0    23    1    100.0    1 
 5/12/06 12:45p   26.6   26.6   26.5    77   22.2  29.0     E  0.48  43.5   ESE   24.6   28.7   26.7   998.5  0.00   0.0   0.000   0.006   27.3    82   23.9   30.7    22    1     95.7    1 
 5/12/06 12:46p   26.6   26.6   26.6    78   22.4  35.4   ENE  0.59  57.9   ESE   24.2   28.8   26.4   998.5  0.00   0.0   0.000   0.006   27.3    83   24.1   30.8    23    1    100.0    1 
 5/12/06 12:47p   26.6   26.7   26.6    77   22.2  38.6     E  0.64  62.8   ENE   24.2   28.8   26.3   998.5  0.00   0.0   0.000   0.006   27.3    83   24.1   30.8    23    1    100.0    1 
 5/12/06 12:48p   26.7   26.7   26.7    77   22.3  27.4     E  0.46  49.9     E   24.8   28.9   27.0   998.5  0.00   0.0   0.000   0.006   27.3    83   24.1   30.8    23    1    100.0    1 
 5/12/06 12:49p   26.7   26.7   26.7    77   22.3  27.4     E  0.46  70.8     E   24.8   28.9   27.0   998.5  0.00   0.0   0.000   0.006   27.3    83   24.1   30.8    22    1     95.7    1 
 5/12/06 12:50p   26.7   26.8   26.7    77   22.4  20.9     E  0.35  33.8     E   25.3   28.9   27.6   998.5  0.00   0.0   0.000   0.006   27.3    83   24.1   30.8    22    1     95.7    1 
 5/12/06 12:51p   26.7   26.8   26.7    77   22.3  24.1     E  0.40  54.7   ENE   25.0   28.9   27.2   998.5  0.00   0.0   0.000   0.006   27.3    83   24.1   30.8    23    1    100.0    1 
 5/12/06 12:52p   26.7   26.7   26.7    77   22.3  29.0   ENE  0.48  46.7   ESE   24.7   28.9   26.9   998.5  0.00   0.0   0.000   0.006   27.3    83   24.1   30.8    23    1    100.0    1 
 5/12/06 12:53p   26.7   26.7   26.6    78   22.5  12.9     E  0.21  29.0   ENE   26.4   28.9   28.7   998.5  0.00   0.0   0.000   0.006   27.3    83   24.1   30.8    23    1    100.0    1 
 5/12/06 12:54p   26.6   26.6   26.6    78   22.4  16.1     E  0.27  46.7     E   25.7   28.8   27.9   998.5  0.00   0.0   0.000   0.006   27.3    83   24.1   30.8    23    1    100.0    1 
 5/12/06 12:55p   26.5   26.6   26.5    78   22.3  22.5     E  0.38  32.2     E   24.9   28.7   27.1   998.5  0.00   0.0   0.000   0.006   27.3    83   24.1   30.8    22    1     95.7    1 
 5/12/06 12:56p   26.5   26.5   26.4    79   22.6  25.7     E  0.43  45.1     E   24.7   28.8   26.9   998.5  0.00   0.0   0.000   0.006   27.3    83   24.1   30.8    23    1    100.0    1 
 5/12/06 12:57p   26.5   26.5   26.4    78   22.3  35.4     E  0.59  45.1   SSE   24.1   28.7   26.3   998.5  0.00   0.0   0.000   0.006   27.3    83   24.1   30.8    23    1    100.0    1 
 5/12/06 12:58p   26.5   26.5   26.5    77   22.1  30.6   ESE  0.51  45.1     E   24.3   28.6   26.4   998.5  0.00   0.0   0.000   0.006   27.2    84   24.2   30.7    23    1    100.0    1 
 5/12/06 12:59p   26.5   26.5   26.5    77   22.1  37.0     E  0.62  54.7     E   24.1   28.6   26.2   998.5  0.00   0.0   0.000   0.006   27.2    84   24.2   30.7    23    1    100.0    1 
 5/12/06  1:00p   26.5   26.5   26.5    78   22.3  37.0     E  0.62  57.9     E   24.1   28.7   26.2   998.4  0.00   0.0   0.000   0.006   27.3    84   24.3   31.0    22    1     95.7    1 
 5/12/06  1:01p   26.4   26.5   26.4    78   22.2  32.2   ENE  0.54  51.5   ENE   24.2   28.5   26.3   998.4  0.00   0.0   0.000   0.006   27.3    84   24.3   31.0    23    1    100.0    1 
 5/12/06  1:02p   26.2   26.3   26.2    80   22.5  32.2   ENE  0.54  54.7   ENE   23.9   28.4   26.1   998.4  0.25   0.0   0.000   0.005   27.3    84   24.3   31.0    23    1    100.0    1 
 5/12/06  1:03p   26.0   26.1   25.9    81   22.5  37.0     E  0.62  61.2    NE   23.4   28.2   25.6   998.4  0.25  13.5   0.000   0.005   27.3    84   24.3   31.0    23    1    100.0    1 
 5/12/06  1:04p   25.8   25.9   25.8    81   22.3  24.1     E  0.40  38.6     E   24.0   27.9   26.1   998.4  0.25  16.0   0.000   0.005   27.3    84   24.3   31.0    23    1    100.0    1 
 5/12/06  1:05p   25.7   25.8   25.7    82   22.4  33.8     E  0.56  51.5    NE   23.3   27.8   25.4   998.4  0.25  16.8   0.000   0.005   27.2    84   24.2   30.7    22    1     95.7    1 
 5/12/06  1:06p   25.6   25.7   25.6    83   22.5  22.5     E  0.38  35.4     E   23.8   27.7   25.9   998.4  0.25  15.7   0.000   0.005   27.2    84   24.2   30.7    23    1    100.0    1 
 5/12/06  1:07p   25.5   25.6   25.4    83   22.4  29.0     E  0.48  46.7   ENE   23.3   27.6   25.4   998.4  0.00   9.1   0.000   0.005   27.2    84   24.2   30.7    23    1    100.0    1 
 5/12/06  1:08p   25.4   25.4   25.4    84   22.5  24.1     E  0.40  43.5    NE   23.6   27.6   25.7   998.4  0.25   9.1   0.000   0.005   27.2    84   24.2   30.7    23    1    100.0    1 
 5/12/06  1:09p   25.4   25.4   25.3    84   22.5  20.9     E  0.35  35.4     E   23.8   27.5   25.9   998.4  0.00   7.9   0.000   0.005   27.2    85   24.4   30.9    23    1    100.0    1 
 5/12/06  1:10p   25.3   25.3   25.3    84   22.4  32.2   ENE  0.54  56.3   ENE   22.9   27.4   25.0   998.4  0.25  10.4   0.000   0.005   27.2    85   24.4   30.9    22    1     95.7    1 
 5/12/06  1:11p   25.3   25.3   25.3    84   22.4  25.7     E  0.43  41.8     E   23.3   27.4   25.4   998.4  0.00   8.4   0.000   0.005   27.3    85   24.5   31.2    23    1    100.0    1 
 5/12/06  1:12p   25.3   25.3   25.3    85   22.6  16.1     E  0.27  27.4    NE   24.3   27.5   26.5   998.4  0.25   8.4   0.000   0.005   27.3    85   24.5   31.2    23    1    100.0    1 
 5/12/06  1:13p   25.3   25.3   25.3    85   22.6  20.9     E  0.35  41.8    SE   23.7   27.4   25.8   998.4  0.00   6.1   0.000   0.005   27.3    85   24.5   31.2    23    1    100.0    1 
 5/12/06  1:14p   25.3   25.3   25.3    85   22.6  25.7     E  0.43  40.2   ENE   23.2   27.4   25.3   998.4  0.00   6.1   0.000   0.005   27.3    85   24.5   31.2    22    1     95.7    1 
 5/12/06  1:15p   25.3   25.3   25.3    85   22.6  27.4     E  0.46  45.1   ENE   23.1   27.4   25.2   998.2  0.00   4.6   0.000   0.005   27.3    85   24.5   31.2    22    1     95.7    1 
 5/12/06  1:16p   25.3   25.3   25.3    85   22.6  29.0     E  0.48  48.3   ESE   23.0   27.4   25.1   998.2  0.25   4.6   0.000   0.005   27.3    85   24.5   31.2    20    1     87.0    1 
 5/12/06  1:17p   25.3   25.3   25.3    85   22.6  27.4   ENE  0.46  56.3     E   23.1   27.4   25.2   998.2  0.00   4.1   0.000   0.005   27.3    85   24.5   31.2    23    1    100.0    1 
 5/12/06  1:18p   25.3   25.3   25.3    85   22.6  27.4     E  0.46  43.5   ENE   23.1   27.4   25.2   998.2  0.00   4.1   0.000   0.005   27.3    85   24.5   31.2    22    1     95.7    1 
 5/12/06  1:19p   25.3   25.3   25.3    85   22.6  19.3     E  0.32  35.4   ENE   23.9   27.5   26.1   998.2  0.00   4.1   0.000   0.005   27.3    85   24.5   31.2    23    1    100.0    1 
 5/12/06  1:20p   25.3   25.3   25.3    85   22.6  25.7     E  0.43  38.6     E   23.2   27.4   25.3   998.2  0.00   3.3   0.000   0.005   27.3    85   24.5   31.2    22    1     95.7    1 
 5/12/06  1:21p   25.3   25.3   25.3    85   22.6  29.0   ENE  0.48  56.3   ESE   23.1   27.5   25.2   998.2  0.00   2.8   0.000   0.005   27.4    85   24.6   31.4    23    1    100.0    1 
 5/12/06  1:22p   25.3   25.3   25.3    85   22.6  24.1     E  0.40  48.3   ENE   23.4   27.5   25.6   998.2  0.00   2.3   0.000   0.005   27.4    85   24.6   31.4    23    1    100.0    1 
 5/12/06  1:23p   25.3   25.3   25.3    84   22.4  24.1   ENE  0.40  41.8     E   23.4   27.4   25.6   998.2  0.00   2.0   0.000   0.005   27.4    85   24.6   31.4    21    1     91.3    1 
 5/12/06  1:24p   25.3   25.3   25.3    85   22.6  20.9     E  0.35  41.8   ESE   23.8   27.5   25.9   998.2  0.00   1.8   0.000   0.005   27.4    85   24.6   31.4    21    1     91.3    1 
 5/12/06  1:25p   25.3   25.3   25.3    85   22.6  22.5     E  0.38  40.2   ENE   23.6   27.5   25.8   998.2  0.00   1.5   0.000   0.005   27.4    85   24.6   31.4    22    1     95.7    1 
 5/12/06  1:26p   25.3   25.3   25.3    85   22.6  19.3     E  0.32  30.6   ENE   23.9   27.4   26.0   998.2  0.00   1.5   0.000   0.005   27.4    85   24.6   31.4    23    1    100.0    1 
 5/12/06  1:27p   25.3   25.3   25.3    85   22.6  24.1   ENE  0.40  41.8     E   23.4   27.4   25.5   998.2  0.00   1.3   0.000   0.005   27.4    85   24.6   31.4    22    1     95.7    1 
 5/12/06  1:28p   25.3   25.3   25.3    85   22.6  27.4     E  0.46  41.8   ENE   23.1   27.4   25.2   998.2  0.00   1.3   0.000   0.005   27.4    85   24.6   31.4    23    1    100.0    1 
 5/12/06  1:29p   25.3   25.3   25.3    84   22.4  22.5     E  0.38  38.6     E   23.6   27.3   25.6   998.2  0.00   1.0   0.000   0.005   27.4    85   24.6   31.4    21    1     91.3    1 
 5/12/06  1:30p   25.3   25.3   25.3    84   22.4  30.6   ENE  0.51  49.9   ESE   22.9   27.4   25.1   998.6  0.25   1.0   0.000   0.005   27.4    85   24.6   31.4    22    1     95.7    1 
 5/12/06  1:31p   25.3   25.3   25.3    84   22.4  22.5     E  0.38  43.5   ESE   23.6   27.4   25.7   998.6  0.00   1.0   0.000   0.005   27.4    84   24.4   31.3    23    1    100.0    1 
 5/12/06  1:32p   25.3   25.3   25.3    84   22.4  25.7     E  0.43  43.5     E   23.3   27.4   25.4   998.6  0.00   1.0   0.000   0.005   27.4    84   24.4   31.3    23    1    100.0    1 
 5/12/06  1:33p   25.3   25.3   25.3    84   22.4  19.3     E  0.32  27.4   ESE   23.9   27.4   26.1   998.6  0.00   1.0   0.000   0.005   27.4    84   24.4   31.3    22    1     95.7    1 
 5/12/06  1:34p   25.3   25.3   25.3    84   22.4  25.7     E  0.43  38.6     E   23.3   27.4   25.4   998.6  0.00   1.0   0.000   0.005   27.4    84   24.4   31.3    23    1    100.0    1 
 5/12/06  1:35p   25.3   25.3   25.3    84   22.4  17.7   ESE  0.30  35.4    SE   24.1   27.4   26.2   998.6  0.00   1.0   0.000   0.005   27.4    84   24.4   31.3    22    1     95.7    1 
 5/12/06  1:36p   25.3   25.3   25.3    84   22.4  20.9     E  0.35  41.8     E   23.8   27.4   25.9   998.6  0.00   1.0   0.000   0.005   27.4    84   24.4   31.3    23    1    100.0    1 
 5/12/06  1:37p   25.3   25.3   25.3    85   22.6  32.2     E  0.54  46.7     E   22.8   27.4   24.9   998.6  0.00   1.0   0.000   0.005   27.5    84   24.6   31.6    23    1    100.0    1 
 5/12/06  1:38p   25.3   25.3   25.3    85   22.6  22.5     E  0.38  48.3   ENE   23.6   27.4   25.7   998.6  0.25   2.0   0.000   0.005   27.5    84   24.6   31.6    23    1    100.0    1 
 5/12/06  1:39p   25.3   25.3   25.3    85   22.6  22.5     E  0.38  41.8   ENE   23.6   27.4   25.7   998.6  0.25   9.7   0.000   0.005   27.5    84   24.6   31.6    23    1    100.0    1 
 5/12/06  1:40p   25.2   25.3   25.2    85   22.5  25.7     E  0.43  45.1     E   23.2   27.3   25.3   998.6  0.00   9.7   0.000   0.005   27.5    84   24.6   31.6    22    1     95.7    1 
 5/12/06  1:41p   25.2   25.2   25.2    86   22.7  20.9     E  0.35  40.2     E   23.6   27.3   25.7   998.6  0.25  11.7   0.000   0.005   27.5    84   24.6   31.6    22    1     95.7    1 
 5/12/06  1:42p   25.1   25.2   25.1    86   22.6  25.7   ENE  0.43  43.5     E   23.0   27.2   25.1   998.6  0.00   8.4   0.000   0.005   27.5    84   24.6   31.6    23    1    100.0    1 
 5/12/06  1:43p   25.1   25.1   25.1    86   22.5  20.9   ESE  0.35  49.9    SE   23.4   27.1   25.5   998.6  0.00   5.3   0.000   0.005   27.5    84   24.6   31.6    23    1    100.0    1 
 5/12/06  1:44p   25.1   25.1   25.1    86   22.5  16.1     E  0.27  35.4    SE   24.0   27.1   26.1   998.6  0.25   5.3   0.000   0.005   27.5    84   24.6   31.6    22    1     95.7    1 
 5/12/06  1:45p   25.1   25.1   25.1    86   22.5  24.1     E  0.40  45.1     E   23.1   27.1   25.2   998.9  0.00   5.1   0.000   0.005   27.5    84   24.6   31.6    21    1     91.3    1 
 5/12/06  1:46p   25.1   25.1   25.1    86   22.5  29.0     E  0.48  51.5   ESE   22.7   27.1   24.8   998.9  0.25   7.1   0.000   0.005   27.5    84   24.6   31.6    23    1    100.0    1 
 5/12/06  1:47p   25.0   25.1   24.9    86   22.5  14.5     E  0.24  35.4     E   24.3   27.1   26.4   998.9  0.00   7.1   0.000   0.005   27.5    84   24.6   31.6    23    1    100.0    1 
 5/12/06  1:48p   24.9   24.9   24.9    87   22.6   9.7     E  0.16  19.3    SE   24.9   27.0   27.0   998.9  0.00   5.8   0.000   0.005   27.5    84   24.6   31.6    23    1    100.0    1 
 5/12/06  1:49p   24.9   24.9   24.9    87   22.6  25.7   ESE  0.43  43.5   ESE   22.8   27.0   24.9   998.9  0.00   4.3   0.000   0.005   27.5    84   24.6   31.6    22    1     95.7    1 
 5/12/06  1:50p   24.9   24.9   24.9    87   22.6  20.9     E  0.35  41.8    SE   23.3   27.0   25.4   998.9  0.00   3.3   0.000   0.005   27.5    84   24.6   31.6    21    1     91.3    1 
 5/12/06  1:51p   24.9   24.9   24.8    87   22.6  12.9   ESE  0.21  27.4     E   24.6   26.9   26.7   998.9  0.25   3.3   0.000   0.005   27.5    84   24.6   31.6    23    1    100.0    1 
 5/12/06  1:52p   24.8   24.8   24.8    87   22.5  19.3     E  0.32  33.8   ENE   23.4   26.8   25.4   998.9  0.00   3.0   0.000   0.005   27.5    84   24.6   31.6    23    1    100.0    1 
 5/12/06  1:53p   24.8   24.8   24.8    87   22.5  17.7   ESE  0.30  48.3     E   23.6   26.8   25.6   998.9  0.00   3.0   0.000   0.005   27.5    84   24.6   31.6    23    1    100.0    1 
 5/12/06  1:54p   24.8   24.8   24.8    87   22.5  25.7     E  0.43  45.1   ESE   22.7   26.8   24.7   998.9  0.25   4.8   0.000   0.005   27.5    84   24.6   31.6    23    1    100.0    1 
 5/12/06  1:55p   24.9   24.9   24.8    87   22.6  27.4     E  0.46  46.7   ESE   22.7   26.9   24.7   998.9  0.00   4.8   0.000   0.005   27.5    84   24.6   31.6    21    1     91.3    1 
 5/12/06  1:56p   24.9   24.9   24.9    87   22.6  27.4     E  0.46  46.7     E   22.7   27.0   24.8   998.9  0.00   4.8   0.000   0.005   27.5    84   24.6   31.6    22    1     95.7    1 
 5/12/06  1:57p   25.0   25.1   24.9    86   22.5  27.4     E  0.46  48.3     E   22.8   27.1   24.8   998.9  0.00   4.6   0.000   0.005   27.5    84   24.6   31.6    22    1     95.7    1 
 5/12/06  1:58p   25.1   25.1   25.1    87   22.7  19.3     E  0.32  33.8   ENE   23.6   27.2   25.7   998.9  0.00   3.6   0.000   0.005   27.5    84   24.6   31.6    23    1    100.0    1 
 5/12/06  1:59p   25.1   25.1   25.1    86   22.5  22.5   ESE  0.38  46.7     E   23.3   27.1   25.3   998.9  0.00   2.8   0.000   0.005   27.5    84   24.6   31.6    23    1    100.0    1 
 5/12/06  2:00p   25.1   25.1   25.1    86   22.5  32.2   ENE  0.54  53.1     E   22.6   27.1   24.6   998.9  0.25   2.8   0.000   0.005   27.5    84   24.6   31.6    22    1     95.7    1 
 5/12/06  2:01p   25.1   25.1   25.1    86   22.5  20.9     E  0.35  40.2    SE   23.4   27.1   25.5   998.9  0.00   2.8   0.000   0.005   27.5    84   24.6   31.6    23    1    100.0    1 
 5/12/06  2:02p   24.9   24.9   24.9    87   22.6  22.5   ENE  0.38  53.1   ESE   23.2   27.0   25.2   998.9  0.00   2.8   0.000   0.005   27.5    84   24.6   31.6    23    1    100.0    1 
 5/12/06  2:03p   24.9   24.9   24.9    87   22.6  20.9     E  0.35  38.6    SE   23.3   27.0   25.4   998.9  0.00   2.8   0.000   0.005   27.5    84   24.6   31.6    23    1    100.0    1 
 5/12/06  2:04p   24.9   24.9   24.9    87   22.6  22.5     E  0.38  33.8     E   23.2   27.0   25.2   998.9  0.00   2.8   0.000   0.005   27.5    84   24.6   31.6    22    1     95.7    1 
 5/12/06  2:05p   24.9   24.9   24.9    87   22.6  19.3     E  0.32  35.4   ESE   23.5   27.0   25.6   998.9  0.00   2.5   0.000   0.005   27.5    84   24.6   31.6    22    1     95.7    1 
 5/12/06  2:06p   24.9   24.9   24.9    87   22.6  24.1     E  0.40  46.7     E   23.0   27.0   25.1   998.9  0.00   2.3   0.000   0.005   27.5    84   24.6   31.6    23    1    100.0    1 
 5/12/06  2:07p   24.9   24.9   24.9    87   22.6  16.1     E  0.27  25.7   ESE   23.9   27.0   25.9   998.9  0.00   2.0   0.000   0.005   27.5    84   24.6   31.6    23    1    100.0    1 
 5/12/06  2:08p   24.9   24.9   24.9    87   22.6  17.7     E  0.30  27.4     E   23.7   27.0   25.7   998.9  0.00   1.8   0.000   0.005   27.5    84   24.6   31.6    23    1    100.0    1 
 5/12/06  2:09p   24.9   24.9   24.9    87   22.6  12.9     E  0.21  27.4    NE   24.7   27.0   26.7   998.9  0.00   1.5   0.000   0.005   27.5    84   24.6   31.6    23    1    100.0    1 
 5/12/06  2:10p   24.9   24.9   24.9    87   22.6   9.7   ENE  0.16  16.1   ENE   24.9   27.0   27.0   998.9  0.00   1.5   0.000   0.005   27.5    84   24.6   31.6    22    1     95.7    1 
 5/12/06  2:11p   24.9   24.9   24.9    87   22.6  22.5     E  0.38  32.2   ESE   23.2   27.0   25.2   998.9  0.00   1.3   0.000   0.005   27.5    84   24.6   31.6    23    1    100.0    1 
 5/12/06  2:12p   24.9   24.9   24.9    87   22.6  14.5   ENE  0.24  25.7   ESE   24.3   27.0   26.3   998.9  0.00   1.3   0.000   0.005   27.5    84   24.6   31.6    23    1    100.0    1 
 5/12/06  2:13p   24.9   24.9   24.9    87   22.6  14.5   ESE  0.24  33.8   ENE   24.3   27.0   26.3   998.9  0.00   1.0   0.000   0.005   27.5    84   24.6   31.6    22    1     95.7    1 
 5/12/06  2:14p   24.9   24.9   24.9    87   22.6  17.7   ESE  0.30  29.0   ENE   23.7   27.0   25.7   998.9  0.00   1.0   0.000   0.005   27.5    84   24.6   31.6    23    1    100.0    1 
 5/12/06  2:15p   25.1   25.1   25.1    87   22.7  20.9     E  0.35  41.8     E   23.4   27.2   25.6   998.6  0.00   1.0   0.000   0.005   27.5    84   24.6   31.6    22    1     95.7    1 
 5/12/06  2:16p   25.1   25.1   25.1    87   22.7  17.7     E  0.30  46.7     E   23.8   27.2   25.9   998.6  0.00   1.0   0.000   0.005   27.5    84   24.6   31.6    21    1     91.3    1 
 5/12/06  2:17p   25.1   25.2   25.1    86   22.6  17.7     E  0.30  38.6   ESE   23.8   27.2   25.9   998.6  0.00   0.0   0.000   0.005   27.5    84   24.6   31.6    23    1    100.0    1 
 5/12/06  2:18p   25.2   25.2   25.2    86   22.7  11.3   ENE  0.19  29.0   ENE   25.2   27.3   27.3   998.6  0.00   0.0   0.000   0.005   27.5    84   24.6   31.6    23    1    100.0    1 
 5/12/06  2:19p   25.2   25.2   25.2    86   22.7  20.9     E  0.35  35.4   ESE   23.6   27.3   25.7   998.6  0.00   0.0   0.000   0.005   27.6    84   24.7   31.8    23    1    100.0    1 
 5/12/06  2:20p   25.2   25.2   25.2    86   22.7  14.5   ESE  0.24  33.8     E   24.5   27.3   26.6   998.6  0.25   0.0   0.000   0.005   27.6    84   24.7   31.8    22    1     95.7    1 
 5/12/06  2:21p   25.2   25.2   25.2    86   22.7  14.5   ESE  0.24  20.9     E   24.5   27.3   26.6   998.6  0.00   0.0   0.000   0.005   27.6    84   24.7   31.8    23    1    100.0    1 
 5/12/06  2:22p   25.2   25.2   25.2    86   22.7  17.7     E  0.30  35.4     E   23.9   27.3   26.0   998.6  0.00   0.0   0.000   0.005   27.6    84   24.7   31.8    22    1     95.7    1 
 5/12/06  2:23p   25.2   25.2   25.2    86   22.7  11.3     E  0.19  22.5     E   25.2   27.3   27.3   998.6  0.00   0.0   0.000   0.005   27.6    84   24.7   31.8    23    1    100.0    1 
 5/12/06  2:24p   25.2   25.2   25.2    86   22.7  22.5   ESE  0.38  32.2   ESE   23.4   27.3   25.5   998.6  0.00   0.0   0.000   0.005   27.6    84   24.7   31.8    10    1     43.5    1 
 5/12/06  2:25p    ---    ---    ---    86    ---   0.0   ---  0.00   0.0   ---    ---    ---    ---   998.6  0.00   0.0     ---     ---   27.6    84   24.7   31.8     0    1      0.0    1 
 5/12/06  2:26p   25.3   25.3   25.3    86   22.8  16.1     E  0.27  33.8    SE   24.3   27.5   26.5   998.6  0.00   0.0   0.000   0.005   27.6    84   24.7   31.8    21    1     91.3    1 
 5/12/06  2:27p   25.3   25.3   25.3    86   22.8  12.9   ESE  0.21  29.0     E   25.0   27.5   27.2   998.6  0.00   0.0   0.000   0.005   27.6    84   24.7   31.8    23    1    100.0    1 
 5/12/06  2:28p   25.3   25.3   25.3    85   22.6  14.5   ESE  0.24  22.5   ESE   24.6   27.4   26.7   998.6  0.00   0.0   0.000   0.005   27.6    84   24.7   31.8    22    1     95.7    1 
 5/12/06  2:29p   25.3   25.3   25.3    85   22.6  14.5    SE  0.24  22.5   SSE   24.7   27.5   26.8   998.6  0.00   0.0   0.000   0.005   27.6    84   24.7   31.8    22    1     95.7    1 
 5/12/06  2:30p   25.3   25.3   25.3    85   22.6  14.5   ESE  0.24  22.5    SE   24.7   27.5   26.8   998.8  0.00   0.0   0.000   0.005   27.6    84   24.7   31.8    22    1     95.7    1 
 5/12/06  2:31p   25.3   25.3   25.3    85   22.6  16.1     E  0.27  27.4     E   24.3   27.5   26.5   998.8  0.00   0.0   0.000   0.005   27.6    84   24.7   31.8    23    1    100.0    1 
 5/12/06  2:32p   25.4   25.4   25.3    85   22.7   9.7   ESE  0.16  22.5   ESE   25.4   27.6   27.6   998.8  0.00   0.0   0.000   0.005   27.6    84   24.7   31.8    23    1    100.0    1 
 5/12/06  2:33p   25.4   25.4   25.4    84   22.5  22.5   ENE  0.38  38.6   ENE   23.7   27.6   25.9   998.8  0.00   0.0   0.000   0.005   27.6    84   24.7   31.8    22    1     95.7    1 
 5/12/06  2:34p   25.4   25.4   25.4    84   22.5  17.7     E  0.30  41.8   ENE   24.2   27.6   26.4   998.8  0.00   0.0   0.000   0.005   27.6    84   24.7   31.8    23    1    100.0    1 
 5/12/06  2:35p   25.6   25.6   25.4    83   22.5  17.7   ESE  0.30  38.6     E   24.3   27.7   26.4   998.8  0.00   0.0   0.000   0.005   27.6    84   24.7   31.8    21    1     91.3    1 
 5/12/06  2:36p   25.6   25.7   25.6    83   22.5  11.3   ESE  0.19  19.3   ESE   25.6   27.8   27.8   998.8  0.00   0.0   0.000   0.005   27.6    84   24.7   31.8    23    1    100.0    1 
 5/12/06  2:37p   25.7   25.7   25.7    83   22.6  19.3     E  0.32  45.1     E   24.3   27.8   26.4   998.8  0.00   0.0   0.000   0.005   27.6    84   24.7   31.8    23    1    100.0    1 
 5/12/06  2:38p   25.7   25.7   25.7    83   22.6  22.5     E  0.38  35.4   ENE   23.9   27.8   26.1   998.8  0.00   0.0   0.000   0.005   27.6    84   24.7   31.8    23    1    100.0    1 
 5/12/06  2:39p   25.8   25.8   25.8    82   22.5  12.9     E  0.21  25.7   ENE   25.5   27.9   27.7   998.8  0.00   0.0   0.000   0.005   27.6    84   24.7   31.8    23    1    100.0    1 
 5/12/06  2:40p   25.8   25.8   25.8    82   22.5  14.5     E  0.24  27.4     E   25.1   27.9   27.3   998.8  0.00   0.0   0.000   0.005   27.6    84   24.7   31.8    22    1     95.7    1 
 5/12/06  2:41p   25.8   25.8   25.8    82   22.5   9.7   SSE  0.16  25.7   SSE   25.8   28.0   28.0   998.8  0.00   0.0   0.000   0.005   27.6    84   24.7   31.8    23    1    100.0    1 
 5/12/06  2:42p   25.8   25.8   25.8    82   22.5  12.9   ESE  0.21  29.0   ESE   25.6   28.0   27.8   998.8  0.00   0.0   0.000   0.005   27.6    84   24.7   31.8    23    1    100.0    1 
 5/12/06  2:43p   25.8   25.8   25.8    82   22.5  11.3    SE  0.19  20.9     E   25.8   28.0   28.0   998.8  0.00   0.0   0.000   0.005   27.6    84   24.7   31.8    23    1    100.0    1 
 5/12/06  2:44p   25.8   25.8   25.8    82   22.5  11.3   ENE  0.19  25.7    NE   25.8   28.0   28.0   998.8  0.00   0.0   0.000   0.005   27.6    84   24.7   31.8    22    1     95.7    1 
 5/12/06  2:45p   25.8   25.8   25.8    82   22.5  14.5     E  0.24  33.8   ESE   25.2   28.0   27.4   999.2  0.00   0.0   0.000   0.005   27.6    84   24.7   31.8    22    1     95.7    1 
 5/12/06  2:46p   25.8   25.8   25.8    81   22.3  17.7     E  0.30  30.6   ENE   24.7   27.9   26.8   999.2  0.00   0.0   0.000   0.005   27.6    84   24.7   31.8    23    1    100.0    1 
 5/12/06  2:47p   25.9   25.9   25.9    81   22.4   9.7   SSE  0.16  19.3   ENE   25.9   28.1   28.1   999.2  0.00   0.0   0.000   0.005   27.6    84   24.7   31.8    23    1    100.0    1 
 5/12/06  2:48p   25.9   25.9   25.9    81   22.4  14.5   ESE  0.24  27.4    SE   25.3   28.1   27.4   999.2  0.00   0.0   0.000   0.005   27.6    84   24.7   31.8    23    1    100.0    1 
 5/12/06  2:49p   25.9   25.9   25.9    81   22.4  12.9    SE  0.21  27.4     E   25.7   28.1   27.8   999.2  0.00   0.0   0.000   0.005   27.6    83   24.5   31.7    23    1    100.0    1 
 5/12/06  2:50p   25.9   25.9   25.9    81   22.4  16.1   ESE  0.27  27.4   ESE   25.0   28.1   27.1   999.2  0.00   0.0   0.000   0.005   27.6    83   24.5   31.7    22    1     95.7    1 
 5/12/06  2:51p   25.9   25.9   25.9    81   22.4  12.9   ESE  0.21  25.7   ESE   25.7   28.1   27.8   999.2  0.00   0.0   0.000   0.005   27.6    83   24.5   31.7    23    1    100.0    1 
 5/12/06  2:52p   25.9   25.9   25.9    81   22.4   9.7    SE  0.16  25.7   ESE   25.9   28.1   28.1   999.2  0.00   0.0   0.000   0.005   27.6    83   24.5   31.7    23    1    100.0    1 
 5/12/06  2:53p   25.9   25.9   25.9    81   22.4  11.3   ESE  0.19  25.7     S   25.9   28.1   28.1   999.2  0.00   0.0   0.000   0.005   27.6    83   24.5   31.7    23    1    100.0    1 
 5/12/06  2:54p   25.9   25.9   25.9    81   22.4  12.9     E  0.21  20.9    SE   25.7   28.1   27.8   999.2  0.00   0.0   0.000   0.005   27.6    83   24.5   31.7    22    1     95.7    1 
 5/12/06  2:55p   25.9   25.9   25.9    81   22.4  20.9   ENE  0.35  33.8   ENE   24.4   28.1   26.6   999.2  0.00   0.0   0.000   0.005   27.6    83   24.5   31.7    22    1     95.7    1 
 5/12/06  2:56p   25.9   25.9   25.9    81   22.4  11.3     E  0.19  17.7   ESE   25.9   28.1   28.1   999.2  0.00   0.0   0.000   0.005   27.6    83   24.5   31.7    23    1    100.0    1 
 5/12/06  2:57p   25.9   25.9   25.9    81   22.4  12.9   ENE  0.21  25.7   ENE   25.7   28.1   27.8   999.2  0.00   0.0   0.000   0.005   27.6    83   24.5   31.7    23    1    100.0    1 
 5/12/06  2:58p   25.9   25.9   25.9    81   22.4  16.1     E  0.27  30.6    SE   25.0   28.1   27.1   999.2  0.00   0.0   0.000   0.005   27.6    83   24.5   31.7    22    1     95.7    1 
 5/12/06  2:59p   25.9   25.9   25.9    81   22.4  14.5     E  0.24  25.7     E   25.3   28.1   27.4   999.2  0.00   0.0   0.000   0.005   27.6    83   24.5   31.7    23    1    100.0    1 
 5/12/06  3:00p   25.9   25.9   25.9    81   22.4  12.9     E  0.21  30.6   ENE   25.7   28.1   27.8   999.5  0.00   0.0   0.000   0.005   27.6    83   24.5   31.7    22    1     95.7    1 
 5/12/06  3:01p   25.9   25.9   25.9    81   22.4  11.3   ENE  0.19  25.7     E   25.9   28.1   28.1   999.5  0.00   0.0   0.000   0.005   27.6    83   24.5   31.7    23    1    100.0    1 
 5/12/06  3:02p   25.9   25.9   25.9    81   22.4  11.3     E  0.19  20.9    SE   25.9   28.1   28.1   999.5  0.00   0.0   0.000   0.005   27.6    83   24.5   31.7    22    1     95.7    1 
 5/12/06  3:03p   25.9   25.9   25.9    81   22.4  16.1   ESE  0.27  29.0   ESE   25.0   28.1   27.1   999.5  0.00   0.0   0.000   0.005   27.6    83   24.5   31.7    23    1    100.0    1 
 5/12/06  3:04p   25.9   25.9   25.8    82   22.6   9.7   SSE  0.16  22.5    NE   25.9   28.2   28.2   999.5  0.00   0.0   0.000   0.005   27.6    83   24.5   31.7    23    1    100.0    1 
 5/12/06  3:05p   25.8   25.8   25.8    82   22.5  11.3     E  0.19  22.5   ENE   25.8   28.0   28.0   999.5  0.00   0.0   0.000   0.005   27.6    83   24.5   31.7    22    1     95.7    1 
 5/12/06  3:06p   25.8   25.8   25.8    82   22.5   8.0     E  0.13  17.7     E   25.8   28.0   28.0   999.5  0.00   0.0   0.000   0.005   27.7    83   24.6   31.9    23    1    100.0    1 
 5/12/06  3:07p   25.8   25.8   25.8    82   22.5  14.5     E  0.24  27.4     E   25.2   28.0   27.4   999.5  0.00   0.0   0.000   0.005   27.7    83   24.6   31.9    23    1    100.0    1 
 5/12/06  3:08p   25.8   25.8   25.8    82   22.5  22.5     E  0.38  38.6   ENE   24.2   28.0   26.3   999.5  0.00   0.0   0.000   0.005   27.6    83   24.5   31.7    22    1     95.7    1 
 5/12/06  3:09p   25.8   25.8   25.8    81   22.3  16.1     E  0.27  29.0     E   24.9   27.9   27.0   999.5  0.00   0.0   0.000   0.005   27.6    83   24.5   31.7    23    1    100.0    1 
 5/12/06  3:10p   25.8   25.8   25.8    81   22.3  17.7     E  0.30  30.6     E   24.7   27.9   26.8   999.5  0.00   0.0   0.000   0.005   27.7    83   24.6   31.9    22    1     95.7    1 
 5/12/06  3:11p   25.8   25.8   25.8    81   22.3   9.7     E  0.16  19.3   ENE   25.8   27.9   27.9   999.5  0.00   0.0   0.000   0.005   27.6    83   24.5   31.7    23    1    100.0    1 
 5/12/06  3:12p   25.8   25.8   25.8    82   22.5  17.7   ESE  0.30  32.2     E   24.7   28.0   26.8   999.5  0.00   0.0   0.000   0.005   27.6    83   24.5   31.7    23    1    100.0    1 
 5/12/06  3:13p   25.8   25.8   25.8    82   22.5  14.5     E  0.24  20.9   ENE   25.1   27.9   27.3   999.5  0.00   0.0   0.000   0.005   27.6    83   24.5   31.7    23    1    100.0    1 
 5/12/06  3:14p   25.8   25.8   25.8    82   22.5  11.3     E  0.19  25.7     E   25.8   27.9   27.9   999.5  0.00   0.0   0.000   0.005   27.6    83   24.5   31.7    23    1    100.0    1 
 5/12/06  3:15p   25.8   25.8   25.8    82   22.5  12.9     E  0.21  27.4     E   25.5   27.9   27.7   999.4  0.00   0.0   0.000   0.005   27.5    83   24.4   31.4    22    1     95.7    1 
 5/12/06  3:16p   25.7   25.8   25.7    82   22.4  14.5     E  0.24  27.4     E   25.0   27.8   27.1   999.4  0.00   0.0   0.000   0.005   27.5    83   24.4   31.4    23    1    100.0    1 
 5/12/06  3:17p   25.7   25.7   25.7    83   22.6  12.9   ESE  0.21  22.5   ESE   25.4   27.8   27.6   999.4  0.00   0.0   0.000   0.005   27.5    83   24.4   31.4    23    1    100.0    1 
 5/12/06  3:18p   25.7   25.7   25.7    83   22.6  11.3   ESE  0.19  20.9   ESE   25.7   27.8   27.8   999.4  0.00   0.0   0.000   0.005   27.5    83   24.4   31.4    23    1    100.0    1 
 5/12/06  3:19p   25.6   25.7   25.6    83   22.5  16.1   ESE  0.27  38.6     E   24.6   27.8   26.8   999.4  0.00   0.0   0.000   0.005   27.4    83   24.2   31.1    23    1    100.0    1 
 5/12/06  3:20p   25.6   25.6   25.6    83   22.5  11.3     E  0.19  22.5   ENE   25.6   27.7   27.7   999.4  0.00   0.0   0.000   0.005   27.4    83   24.2   31.1    22    1     95.7    1 
 5/12/06  3:21p   25.6   25.6   25.6    83   22.5  12.9     E  0.21  20.9     E   25.3   27.7   27.4   999.4  0.00   0.0   0.000   0.005   27.4    84   24.4   31.3    23    1    100.0    1 
 5/12/06  3:22p   25.6   25.6   25.6    83   22.5  11.3   ENE  0.19  25.7   ESE   25.6   27.7   27.7   999.4  0.00   0.0   0.000   0.005   27.4    84   24.4   31.3    23    1    100.0    1 
 5/12/06  3:23p   25.6   25.6   25.6    83   22.5  11.3   ENE  0.19  22.5   ENE   25.6   27.7   27.7   999.4  0.00   0.0   0.000   0.005   27.3    84   24.3   31.0    23    1    100.0    1 
 5/12/06  3:24p   25.6   25.6   25.6    83   22.5  14.5     E  0.24  25.7     E   24.9   27.7   27.0   999.4  0.00   0.0   0.000   0.005   27.3    84   24.3   31.0    23    1    100.0    1 
 5/12/06  3:25p   25.5   25.6   25.4    83   22.4  17.7   ENE  0.30  29.0   ENE   24.3   27.6   26.4   999.4  0.00   0.0   0.000   0.005   27.3    84   24.3   31.0    22    1     95.7    1 
 5/12/06  3:26p   25.4   25.4   25.4    83   22.3  19.3     E  0.32  30.6     E   24.1   27.5   26.1   999.4  0.00   0.0   0.000   0.005   27.3    84   24.3   31.0    23    1    100.0    1 
 5/12/06  3:27p   25.4   25.4   25.4    83   22.3  16.1     E  0.27  27.4   ESE   24.4   27.5   26.5   999.4  0.00   0.0   0.000   0.005   27.3    84   24.3   31.0    23    1    100.0    1 
 5/12/06  3:28p   25.4   25.4   25.4    83   22.3  14.5   ESE  0.24  27.4     E   24.8   27.5   26.8   999.4  0.00   0.0   0.000   0.005   27.2    84   24.2   30.7    23    1    100.0    1 
 5/12/06  3:29p   25.4   25.4   25.4    84   22.5  14.5     E  0.24  29.0   ESE   24.8   27.6   26.9   999.4  0.00   0.0   0.000   0.005   27.2    84   24.2   30.7    23    1    100.0    1 
 5/12/06  3:30p   25.4   25.4   25.4    84   22.5  14.5   ENE  0.24  22.5    SE   24.8   27.6   26.9   999.8  0.00   0.0   0.000   0.005   27.2    84   24.2   30.7    22    1     95.7    1 
 5/12/06  3:31p   25.4   25.4   25.3    84   22.5  19.3   ESE  0.32  32.2   ESE   24.1   27.6   26.2   999.8  0.00   0.0   0.000   0.005   27.2    84   24.2   30.7    23    1    100.0    1 
 5/12/06  3:32p   25.3   25.3   25.3    84   22.4  16.1     E  0.27  27.4     E   24.3   27.4   26.4   999.8  0.25   0.0   0.000   0.005   27.2    85   24.4   30.9    23    1    100.0    1 
 5/12/06  3:33p   25.3   25.3   25.3    84   22.4  14.5     E  0.24  22.5     E   24.7   27.4   26.8   999.8  0.00   0.0   0.000   0.005   27.1    85   24.3   30.6    23    1    100.0    1 
 5/12/06  3:34p   25.3   25.3   25.3    84   22.4  12.9     E  0.21  25.7     E   25.1   27.4   27.2   999.8  0.00   0.0   0.000   0.005   27.1    85   24.3   30.6    23    1    100.0    1 
 5/12/06  3:35p   25.3   25.3   25.3    84   22.4  12.9     E  0.21  27.4     E   25.1   27.4   27.2   999.8  0.00   0.0   0.000   0.005   27.1    85   24.3   30.6    22    1     95.7    1 
 5/12/06  3:36p   25.3   25.3   25.3    84   22.4  17.7   ESE  0.30  35.4   ESE   24.1   27.4   26.2   999.8  0.00   0.0   0.000   0.005   27.1    85   24.3   30.6    23    1    100.0    1 
 5/12/06  3:37p   25.3   25.3   25.3    84   22.4  17.7     E  0.30  27.4     E   24.1   27.4   26.2   999.8  0.00   0.0   0.000   0.005   27.1    85   24.3   30.6    23    1    100.0    1 
 5/12/06  3:38p   25.3   25.3   25.3    84   22.4   8.0     E  0.13  20.9   ENE   25.3   27.4   27.4   999.8  0.00   0.0   0.000   0.005   27.1    85   24.3   30.6    23    1    100.0    1 
 5/12/06  3:39p   25.3   25.3   25.3    84   22.4  12.9     E  0.21  20.9     E   25.1   27.4   27.2   999.8  0.00   0.0   0.000   0.005   27.1    85   24.3   30.6    23    1    100.0    1 
 5/12/06  3:40p   25.3   25.3   25.3    84   22.4   8.0    SE  0.13  12.9   ENE   25.3   27.4   27.4   999.8  0.00   0.0   0.000   0.005   26.9    85   24.2   30.4    22    1     95.7    1 
 5/12/06  3:41p   25.3   25.3   25.3    84   22.4  17.7     E  0.30  29.0     E   24.1   27.4   26.2   999.8  0.00   0.0   0.000   0.005   26.9    85   24.2   30.4    23    1    100.0    1 
 5/12/06  3:42p   25.3   25.3   25.3    84   22.4  19.3     E  0.32  32.2   ENE   23.9   27.4   26.1   999.8  0.00   0.0   0.000   0.005   26.9    85   24.2   30.4    23    1    100.0    1 
 5/12/06  3:43p   25.3   25.3   25.3    84   22.4  14.5   ENE  0.24  29.0   ESE   24.7   27.4   26.8   999.8  0.00   0.0   0.000   0.005   26.9    85   24.2   30.4    23    1    100.0    1 
 5/12/06  3:44p   25.3   25.3   25.3    84   22.4  11.3     E  0.19  19.3   ESE   25.3   27.4   27.4   999.8  0.00   0.0   0.000   0.005   26.9    85   24.2   30.4    23    1    100.0    1 
 5/12/06  3:45p   25.3   25.3   25.3    84   22.4   9.7    SE  0.16  19.3   ENE   25.3   27.4   27.4   999.8  0.00   0.0   0.000   0.005   26.9    86   24.4   30.6    22    1     95.7    1 
 5/12/06  3:46p   25.3   25.3   25.3    84   22.4  19.3     E  0.32  35.4     E   23.9   27.4   26.1   999.8  0.00   0.0   0.000   0.005   26.9    86   24.4   30.6    23    1    100.0    1 
 5/12/06  3:47p   25.3   25.3   25.3    84   22.4  14.5     E  0.24  32.2   ESE   24.7   27.4   26.8   999.8  0.00   0.0   0.000   0.005   26.9    86   24.3   30.4    23    1    100.0    1 
 5/12/06  3:48p   25.4   25.4   25.3    84   22.5  12.9   ESE  0.21  27.4   ESE   25.1   27.5   27.2   999.8  0.00   0.0   0.000   0.005   26.9    86   24.3   30.4    23    1    100.0    1 
 5/12/06  3:49p   25.4   25.4   25.4    84   22.5  11.3     E  0.19  17.7   ESE   25.4   27.6   27.6   999.8  0.00   0.0   0.000   0.005   26.9    86   24.3   30.4    23    1    100.0    1 
 5/12/06  3:50p   25.4   25.4   25.4    84   22.5  11.3   SSE  0.19  22.5   ESE   25.4   27.6   27.6   999.8  0.00   0.0   0.000   0.005   26.9    86   24.3   30.4    22    1     95.7    1 
 5/12/06  3:51p   25.4   25.4   25.4    84   22.5  14.5   ENE  0.24  27.4     E   24.8   27.6   26.9   999.8  0.00   0.0   0.000   0.005   26.9    86   24.3   30.4    23    1    100.0    1 
 5/12/06  3:52p   25.4   25.4   25.4    84   22.5   8.0   ESE  0.13  14.5   ESE   25.4   27.6   27.6   999.8  0.00   0.0   0.000   0.005   26.9    86   24.3   30.4    23    1    100.0    1 
 5/12/06  3:53p   25.4   25.4   25.4    84   22.5  12.9    SE  0.21  27.4    SE   25.2   27.6   27.3   999.8  0.00   0.0   0.000   0.005   26.9    86   24.3   30.4    23    1    100.0    1 
 5/12/06  3:54p   25.4   25.4   25.4    84   22.5  16.1     E  0.27  25.7     E   24.4   27.6   26.6   999.8  0.00   0.0   0.000   0.005   26.9    86   24.3   30.4    23    1    100.0    1 
 5/12/06  3:55p   25.4   25.4   25.4    84   22.5  12.9     E  0.21  20.9    NE   25.2   27.6   27.3   999.8  0.00   0.0   0.000   0.005   26.8    86   24.2   30.2    22    1     95.7    1 
 5/12/06  3:56p   25.4   25.4   25.3    84   22.5  11.3   ESE  0.19  17.7    SE   25.4   27.6   27.6   999.8  0.00   0.0   0.000   0.005   26.8    86   24.2   30.2    23    1    100.0    1 
 5/12/06  3:57p   25.4   25.4   25.4    84   22.5   9.7   ESE  0.16  19.3   ENE   25.4   27.6   27.6   999.8  0.00   0.0   0.000   0.005   26.8    86   24.2   30.2    23    1    100.0    1 
 5/12/06  3:58p   25.3   25.3   25.3    84   22.4  11.3    SE  0.19  25.7     E   25.3   27.4   27.4   999.8  0.00   0.0   0.000   0.005   26.8    86   24.2   30.2    23    1    100.0    1 
 5/12/06  3:59p   25.3   25.3   25.3    84   22.4   4.8   SSE  0.08  11.3    SW   25.3   27.4   27.4   999.8  0.00   0.0   0.000   0.005   26.8    86   24.2   30.2    23    1    100.0    1 
 5/12/06  4:00p   25.3   25.3   25.3    84   22.4   8.0    SE  0.13  12.9     E   25.3   27.4   27.4  1000.1  0.00   0.0   0.000   0.005   26.8    86   24.2   30.2    22    1     95.7    1 
 5/12/06  4:01p   25.3   25.3   25.3    84   22.4   8.0   ESE  0.13  12.9   ESE   25.3   27.4   27.4  1000.1  0.00   0.0   0.000   0.005   26.8    86   24.2   30.2    23    1    100.0    1 
 5/12/06  4:02p   25.3   25.3   25.3    84   22.4   8.0   ESE  0.13  16.1   ENE   25.3   27.4   27.4  1000.1  0.00   0.0   0.000   0.005   26.8    86   24.2   30.2    23    1    100.0    1 
 5/12/06  4:03p   25.3   25.3   25.3    84   22.4  11.3    SE  0.19  19.3    SE   25.3   27.4   27.4  1000.1  0.00   0.0   0.000   0.005   26.8    86   24.2   30.2    23    1    100.0    1 
 5/12/06  4:04p   25.3   25.3   25.3    84   22.4   9.7   ESE  0.16  22.5     E   25.3   27.4   27.4  1000.1  0.00   0.0   0.000   0.005   26.8    86   24.2   30.2    23    1    100.0    1 
 5/12/06  4:05p   25.3   25.3   25.3    84   22.4  12.9     E  0.21  29.0    SE   25.1   27.4   27.2  1000.1  0.00   0.0   0.000   0.005   26.7    86   24.1   29.9    22    1     95.7    1 
 5/12/06  4:06p   25.3   25.3   25.3    84   22.4   6.4    SE  0.11  12.9   ESE   25.3   27.4   27.4  1000.1  0.00   0.0   0.000   0.005   26.7    86   24.1   29.9    23    1    100.0    1 
 5/12/06  4:07p   25.3   25.3   25.3    84   22.4   8.0   ESE  0.13  12.9    SE   25.3   27.4   27.4  1000.1  0.00   0.0   0.000   0.005   26.7    86   24.1   29.9    23    1    100.0    1 
 5/12/06  4:08p   25.3   25.3   25.3    84   22.4  11.3     E  0.19  32.2   ESE   25.3   27.4   27.4  1000.1  0.00   0.0   0.000   0.005   26.7    86   24.1   29.9    23    1    100.0    1 
 5/12/06  4:09p   25.3   25.3   25.3    84   22.4   9.7   ESE  0.16  24.1    SE   25.3   27.4   27.4  1000.1  0.00   0.0   0.000   0.005   26.7    86   24.1   29.9    23    1    100.0    1 
 5/12/06  4:10p   25.4   25.4   25.3    84   22.5  11.3   ESE  0.19  20.9   ENE   25.4   27.5   27.5  1000.1  0.00   0.0   0.000   0.005   26.7    86   24.1   29.9    22    1     95.7    1 
 5/12/06  4:11p   25.4   25.4   25.4    84   22.5   8.0     E  0.13  19.3   ESE   25.4   27.6   27.6  1000.1  0.00   0.0   0.000   0.005   26.7    86   24.1   29.9    23    1    100.0    1 
 5/12/06  4:12p   25.4   25.4   25.4    84   22.5  14.5     E  0.24  27.4   ESE   24.8   27.6   26.9  1000.1  0.00   0.0   0.000   0.005   26.7    86   24.1   29.9    23    1    100.0    1 
 5/12/06  4:13p   25.4   25.4   25.4    84   22.5  17.7     E  0.30  27.4     E   24.2   27.6   26.4  1000.1  0.00   0.0   0.000   0.005   26.7    86   24.1   29.9    23    1    100.0    1 
 5/12/06  4:14p   25.4   25.4   25.4    84   22.5   9.7     E  0.16  17.7     E   25.4   27.6   27.6  1000.1  0.00   0.0   0.000   0.005   26.7    86   24.1   29.9    23    1    100.0    1 
 5/12/06  4:15p   25.4   25.4   25.4    84   22.5   8.0   ESE  0.13  17.7   ESE   25.4   27.6   27.6  1000.2  0.00   0.0   0.000   0.005   26.7    86   24.1   29.9    22    1     95.7    1 
 5/12/06  4:16p   25.4   25.4   25.4    84   22.5  12.9   ESE  0.21  30.6     E   25.2   27.6   27.3  1000.2  0.00   0.0   0.000   0.005   26.6    86   24.0   29.7    23    1    100.0    1 
 5/12/06  4:17p   25.4   25.4   25.4    84   22.5  12.9   ESE  0.21  22.5     E   25.2   27.6   27.3  1000.2  0.00   0.0   0.000   0.005   26.6    86   24.0   29.7    23    1    100.0    1 
 5/12/06  4:18p   25.4   25.4   25.4    84   22.5   9.7     E  0.16  17.7   ESE   25.4   27.6   27.6  1000.2  0.00   0.0   0.000   0.005   26.6    86   24.0   29.7    23    1    100.0    1 
 5/12/06  4:19p   25.4   25.4   25.4    84   22.5   8.0   ESE  0.13  16.1   ESE   25.4   27.6   27.6  1000.2  0.00   0.0   0.000   0.005   26.6    86   24.0   29.7    23    1    100.0    1 
 5/12/06  4:20p   25.4   25.4   25.4    84   22.5  14.5   ESE  0.24  25.7   ESE   24.8   27.6   26.9  1000.2  0.00   0.0   0.000   0.005   26.6    86   24.0   29.7    22    1     95.7    1 
 5/12/06  4:21p   25.4   25.4   25.4    84   22.5  12.9   ESE  0.21  20.9   ESE   25.2   27.6   27.3  1000.2  0.00   0.0   0.000   0.005   26.6    87   24.2   29.8    23    1    100.0    1 
 5/12/06  4:22p   25.4   25.4   25.4    84   22.5   9.7     E  0.16  22.5   ENE   25.4   27.6   27.6  1000.2  0.00   0.0   0.000   0.005   26.6    87   24.2   29.8    22    1     95.7    1 
 5/12/06  4:23p   25.4   25.4   25.4    84   22.5   6.4    SE  0.11  11.3   ESE   25.4   27.6   27.6  1000.2  0.00   0.0   0.000   0.005   26.6    87   24.2   29.8    23    1    100.0    1 
 5/12/06  4:24p   25.4   25.4   25.4    84   22.5   4.8   ESE  0.08   9.7   WNW   25.4   27.6   27.6  1000.2  0.00   0.0   0.000   0.005   26.6    87   24.2   29.8    23    1    100.0    1 
 5/12/06  4:25p   25.3   25.4   25.3    84   22.4   9.7     S  0.16  20.9   ENE   25.3   27.4   27.4  1000.2  0.25   0.0   0.000   0.005   26.6    87   24.2   29.8    22    1     95.7    1 
 5/12/06  4:26p   25.3   25.3   25.3    84   22.4  11.3   ESE  0.19  27.4   ESE   25.3   27.4   27.4  1000.2  0.00   0.0   0.000   0.005   26.6    87   24.2   29.8    23    1    100.0    1 
 5/12/06  4:27p   25.3   25.3   25.3    84   22.4   9.7     E  0.16  16.1     E   25.3   27.4   27.4  1000.2  0.00   0.0   0.000   0.005   26.6    87   24.2   29.8    23    1    100.0    1 
 5/12/06  4:28p   25.3   25.3   25.3    84   22.4   4.8     S  0.08   8.0     E   25.3   27.4   27.4  1000.2  0.00   0.0   0.000   0.005   26.6    87   24.2   29.8    23    1    100.0    1 
 5/12/06  4:29p   25.3   25.3   25.3    84   22.4   8.0     E  0.13  12.9    SE   25.3   27.4   27.4  1000.2  0.00   0.0   0.000   0.005   26.6    87   24.2   29.8    22    1     95.7    1 
 5/12/06  4:30p   25.3   25.3   25.3    84   22.4  16.1    SE  0.27  29.0   ESE   24.3   27.4   26.4  1000.3  0.00   0.0   0.000   0.005   26.6    87   24.2   29.8    22    1     95.7    1 
 5/12/06  4:31p   25.3   25.3   25.3    83   22.2  14.5   ESE  0.24  29.0     S   24.7   27.3   26.7  1000.3  0.00   0.0   0.000   0.005   26.6    87   24.2   29.8    23    1    100.0    1 
 5/12/06  4:32p   25.3   25.4   25.3    83   22.2   9.7    SE  0.16  17.7     E   25.3   27.3   27.3  1000.3  0.00   0.0   0.000   0.005   26.6    87   24.2   29.8    23    1    100.0    1 
 5/12/06  4:33p   25.4   25.4   25.4    83   22.3   6.4   SSE  0.11  11.3   NNW   25.4   27.5   27.5  1000.3  0.00   0.0   0.000   0.005   26.4    87   24.1   29.6    23    1    100.0    1 
 5/12/06  4:34p   25.4   25.4   25.4    83   22.3   8.0     E  0.13  16.1    SE   25.4   27.5   27.5  1000.3  0.00   0.0   0.000   0.005   26.4    87   24.1   29.6    23    1    100.0    1 
 5/12/06  4:35p   25.3   25.4   25.3    83   22.2   6.4     E  0.11  16.1   SSE   25.3   27.3   27.3  1000.3  0.00   0.0   0.000   0.005   26.4    87   24.1   29.6    22    1     95.7    1 
 5/12/06  4:36p   25.3   25.3   25.3    83   22.2   8.0   ESE  0.13  20.9   SSE   25.3   27.3   27.3  1000.3  0.00   0.0   0.000   0.005   26.4    86   23.9   29.5    23    1    100.0    1 
 5/12/06  4:37p   25.3   25.3   25.3    84   22.4   8.0   ESE  0.13  12.9   ESE   25.3   27.4   27.4  1000.3  0.00   0.0   0.000   0.005   26.4    86   23.9   29.5    23    1    100.0    1 
 5/12/06  4:38p   25.3   25.3   25.3    84   22.4   9.7   ESE  0.16  20.9   ESE   25.3   27.4   27.4  1000.3  0.00   0.0   0.000   0.005   26.4    87   24.1   29.6    23    1    100.0    1 
 5/12/06  4:39p   25.3   25.3   25.3    84   22.4   8.0    SE  0.13  20.9   ESE   25.3   27.3   27.3  1000.3  0.25   1.0   0.000   0.005   26.4    87   24.1   29.6    23    1    100.0    1 
 5/12/06  4:40p   25.3   25.3   25.3    84   22.4   9.7   ESE  0.16  17.7   ESE   25.3   27.3   27.3  1000.3  0.00   1.0   0.000   0.005   26.4    87   24.1   29.6    22    1     95.7    1 
 5/12/06  4:41p   25.2   25.3   25.2    85   22.5  11.3     E  0.19  20.9     E   25.2   27.3   27.3  1000.3  0.00   1.0   0.000   0.005   26.4    87   24.1   29.6    23    1    100.0    1 
 5/12/06  4:42p   25.2   25.2   25.2    85   22.5   6.4     E  0.11  20.9   ESE   25.2   27.3   27.3  1000.3  0.00   1.0   0.000   0.005   26.4    87   24.1   29.6    23    1    100.0    1 
 5/12/06  4:43p   25.2   25.2   25.2    85   22.5   6.4     E  0.11  17.7     S   25.2   27.3   27.3  1000.3  0.00   1.0   0.000   0.005   26.3    87   24.0   29.4    23    1    100.0    1 
 5/12/06  4:44p   25.1   25.2   25.1    85   22.4  14.5     E  0.24  27.4    SE   24.4   27.2   26.5  1000.3  0.00   1.0   0.000   0.005   26.3    87   24.0   29.4    23    1    100.0    1 
 5/12/06  4:45p   25.1   25.1   25.1    85   22.4  12.9     S  0.21  22.5   ESE   24.8   27.1   26.8  1000.7  0.00   1.0   0.000   0.005   26.3    87   24.0   29.4    22    1     95.7    1 
 5/12/06  4:46p   25.1   25.1   25.1    85   22.4   9.7    SE  0.16  14.5    SE   25.1   27.1   27.1  1000.7  0.00   1.0   0.000   0.005   26.3    87   24.0   29.4    23    1    100.0    1 
 5/12/06  4:47p   25.1   25.1   25.1    85   22.4   4.8   SSE  0.08   9.7     E   25.1   27.1   27.1  1000.7  0.00   1.0   0.000   0.005   26.3    87   24.0   29.4    23    1    100.0    1 
 5/12/06  4:48p   25.1   25.1   25.1    85   22.4   8.0    SE  0.13  17.7   SSE   25.1   27.1   27.1  1000.7  0.00   1.0   0.000   0.005   26.3    87   24.0   29.4    23    1    100.0    1 
 5/12/06  4:49p   25.1   25.1   25.1    85   22.4   8.0     S  0.13  16.1    SE   25.1   27.1   27.1  1000.7  0.00   1.0   0.000   0.005   26.3    87   24.0   29.4    23    1    100.0    1 
 5/12/06  4:50p   25.1   25.1   25.1    85   22.4   6.4   ENE  0.11   9.7   ESE   25.1   27.1   27.1  1000.7  0.00   1.0   0.000   0.005   26.3    87   24.0   29.4    22    1     95.7    1 
 5/12/06  4:51p   25.1   25.1   25.1    85   22.4   8.0    SE  0.13  11.3     S   25.1   27.1   27.1  1000.7  0.00   1.0   0.000   0.005   26.3    87   24.0   29.4    23    1    100.0    1 
 5/12/06  4:52p   25.1   25.1   25.1    85   22.4   4.8   SSE  0.08  12.9   ENE   25.1   27.1   27.1  1000.7  0.00   1.0   0.000   0.005   26.2    87   23.9   29.2    23    1    100.0    1 
 5/12/06  4:53p   25.0   25.1   24.9    85   22.3  12.9     E  0.21  22.5   ENE   24.7   27.0   26.7  1000.7  0.00   1.0   0.000   0.005   26.2    87   23.9   29.2    23    1    100.0    1 
 5/12/06  4:54p   24.9   24.9   24.9    85   22.2   8.0   SSE  0.13  12.9   SSE   24.9   26.9   26.9  1000.7  0.00   1.0   0.000   0.005   26.2    87   23.9   29.2    23    1    100.0    1 
 5/12/06  4:55p   24.9   24.9   24.9    85   22.2   9.7     E  0.16  16.1     E   24.9   26.9   26.9  1000.7  0.00   1.0   0.000   0.005   26.2    87   23.9   29.2    22    1     95.7    1 
 5/12/06  4:56p   24.9   24.9   24.9    85   22.2  11.3   ESE  0.19  22.5    SE   24.9   26.9   26.9  1000.7  0.00   0.0   0.000   0.005   26.2    87   23.9   29.2    23    1    100.0    1 
 5/12/06  4:57p   24.9   24.9   24.9    85   22.2   8.0   ESE  0.13  16.1   ESE   24.9   26.9   26.9  1000.7  0.00   0.0   0.000   0.005   26.2    87   23.9   29.2    23    1    100.0    1 
 5/12/06  4:58p   24.9   24.9   24.9    85   22.2  11.3     S  0.19  22.5   ENE   24.9   26.9   26.9  1000.7  0.00   0.0   0.000   0.005   26.2    87   23.9   29.2    23    1    100.0    1 
 5/12/06  4:59p   24.9   24.9   24.9    85   22.2   8.0    SE  0.13  19.3     E   24.9   26.9   26.9  1000.7  0.00   0.0   0.000   0.005   26.2    87   23.9   29.2    23    1    100.0    1 
 5/12/06  5:00p   24.9   24.9   24.9    85   22.2  11.3   ESE  0.19  20.9   ESE   24.9   26.9   26.9  1000.9  0.00   0.0   0.000   0.005   26.2    87   23.9   29.2    22    1     95.7    1 
 5/12/06  5:01p   24.8   24.8   24.8    85   22.1   8.0   ESE  0.13  19.3   ESE   24.8   26.8   26.8  1000.9  0.00   0.0   0.000   0.005   26.2    87   23.9   29.2    23    1    100.0    1 
 5/12/06  5:02p   24.8   24.8   24.8    85   22.1  12.9   ESE  0.21  20.9   ENE   24.6   26.8   26.5  1000.9  0.25   0.0   0.000   0.005   26.2    87   23.9   29.2    23    1    100.0    1 
 5/12/06  5:03p   24.8   24.8   24.8    85   22.1   9.7     E  0.16  25.7    SE   24.8   26.8   26.8  1000.9  0.00   0.0   0.000   0.005   26.2    87   23.9   29.2    23    1    100.0    1 
 5/12/06  5:04p   24.8   24.8   24.8    85   22.1  11.3   ESE  0.19  19.3   SSE   24.8   26.8   26.8  1000.9  0.00   0.0   0.000   0.005   26.2    87   23.9   29.2    23    1    100.0    1 
 5/12/06  5:05p   24.8   24.8   24.8    85   22.1   8.0   SSE  0.13  20.9   ESE   24.8   26.8   26.8  1000.9  0.00   0.0   0.000   0.005   26.2    87   23.9   29.2    22    1     95.7    1 
 5/12/06  5:06p   24.8   24.8   24.8    86   22.3   9.7    SE  0.16  33.8   ENE   24.8   26.7   26.7  1000.9  0.00   0.0   0.000   0.004   26.2    87   23.9   29.2    23    1    100.0    1 
 5/12/06  5:07p   24.8   24.8   24.8    86   22.3   9.7   ESE  0.16  14.5     E   24.8   26.7   26.7  1000.9  0.00   0.0   0.000   0.004   26.2    87   23.9   29.2    21    1     91.3    1 
 5/12/06  5:08p   24.8   24.8   24.8    86   22.3  16.1   ESE  0.27  27.4   ESE   23.7   26.7   25.7  1000.9  0.00   0.0   0.000   0.004   26.3    87   24.0   29.4    23    1    100.0    1 
 5/12/06  5:09p   24.8   24.8   24.8    86   22.3  11.3    SE  0.19  19.3    SE   24.8   26.7   26.7  1000.9  0.00   0.0   0.000   0.004   26.3    87   24.0   29.4    23    1    100.0    1 
 5/12/06  5:10p   24.8   24.8   24.8    86   22.3   6.4   ESE  0.11  22.5     E   24.8   26.7   26.7  1000.9  0.00   0.0   0.000   0.004   26.3    88   24.2   29.5    22    1     95.7    1 
 5/12/06  5:11p   24.8   24.8   24.8    86   22.3  11.3   SSE  0.19  22.5   ESE   24.8   26.7   26.7  1000.9  0.00   0.0   0.000   0.004   26.3    88   24.2   29.5    23    1    100.0    1 
 5/12/06  5:12p   24.8   24.8   24.8    86   22.3   8.0    SE  0.13  12.9   SSE   24.8   26.7   26.7  1000.9  0.00   0.0   0.000   0.004   26.3    87   24.0   29.4    23    1    100.0    1 
 5/12/06  5:13p   24.8   24.8   24.8    86   22.3   8.0    SE  0.13  16.1    SE   24.8   26.7   26.7  1000.9  0.00   0.0   0.000   0.004   26.3    87   24.0   29.4    23    1    100.0    1 
 5/12/06  5:14p   24.8   24.8   24.8    86   22.3   4.8    SE  0.08   9.7   SSE   24.8   26.7   26.7  1000.9  0.00   0.0   0.000   0.004   26.4    87   24.1   29.6    23    1    100.0    1 
 5/12/06  5:15p   24.8   24.8   24.8    86   22.3   4.8   SSE  0.08   9.7     S   24.8   26.7   26.7  1001.3  0.00   0.0   0.000   0.004   26.4    87   24.1   29.6    22    1     95.7    1 
 5/12/06  5:16p   24.8   24.8   24.8    86   22.3   8.0   SSE  0.13  12.9     E   24.8   26.7   26.7  1001.3  0.00   0.0   0.000   0.004   26.4    87   24.1   29.6    22    1     95.7    1 
 5/12/06  5:17p   24.8   24.8   24.8    86   22.3  12.9    SE  0.21  27.4   SSE   24.5   26.7   26.4  1001.3  0.00   0.0   0.000   0.004   26.4    87   24.1   29.6    22    1     95.7    1 
 5/12/06  5:18p   24.8   24.8   24.8    86   22.3   6.4    SE  0.11  12.9   ESE   24.8   26.7   26.7  1001.3  0.00   0.0   0.000   0.004   26.4    87   24.1   29.6    23    1    100.0    1 
 5/12/06  5:19p   24.8   24.8   24.8    86   22.3   6.4    SE  0.11  12.9   ESE   24.8   26.7   26.7  1001.3  0.00   0.0   0.000   0.004   26.6    87   24.2   29.8    22    1     95.7    1 
 5/12/06  5:20p   24.8   24.8   24.8    86   22.3   8.0    SE  0.13  17.7   ESE   24.8   26.7   26.7  1001.3  0.00   0.0   0.000   0.004   26.6    87   24.2   29.8    22    1     95.7    1 
 5/12/06  5:21p   24.8   24.8   24.8    86   22.3   8.0    SE  0.13  16.1   SSW   24.8   26.7   26.7  1001.3  0.51  17.8   0.000   0.004   26.6    87   24.2   29.8    22    1     95.7    1 
 5/12/06  5:22p   24.8   24.8   24.8    86   22.3   6.4   ESE  0.11  12.9   SSE   24.8   26.7   26.7  1001.3  0.51  44.5   0.000   0.004   26.6    87   24.2   29.8    23    1    100.0    1 
 5/12/06  5:23p   24.8   24.8   24.7    86   22.3   9.7    SE  0.16  17.7     E   24.8   26.7   26.7  1001.3  0.51  40.4   0.000   0.004   26.6    87   24.2   29.8    23    1    100.0    1 
 5/12/06  5:24p   24.7   24.7   24.7    86   22.2   9.7   SSW  0.16  20.9     E   24.7   26.6   26.6  1001.3  0.00  14.0   0.000   0.004   26.6    87   24.2   29.8    23    1    100.0    1 
 5/12/06  5:25p   24.7   24.7   24.6    87   22.4  11.3    SE  0.19  29.0    SE   24.7   26.6   26.6  1001.3  0.25  14.0   0.000   0.004   26.7    87   24.3   30.1    22    1     95.7    1 
 5/12/06  5:26p   24.6   24.6   24.6    87   22.2   8.0   ENE  0.13  12.9    SE   24.6   26.4   26.4  1001.3  0.25  13.0   0.000   0.004   26.7    87   24.3   30.1    23    1    100.0    1 
 5/12/06  5:27p   24.6   24.6   24.6    87   22.2   6.4     E  0.11  14.5   ESE   24.6   26.4   26.4  1001.3  0.00   9.7   0.000   0.004   26.7    86   24.1   29.9    23    1    100.0    1 
 5/12/06  5:28p   24.5   24.6   24.4    88   22.4   4.8   ESE  0.08  11.3     E   24.5   26.4   26.4  1001.3  0.00   6.6   0.000   0.004   26.7    86   24.1   29.9    23    1    100.0    1 
 5/12/06  5:29p   24.4   24.4   24.4    88   22.3   8.0    SE  0.13  19.3    SE   24.4   26.3   26.3  1001.3  0.00   4.6   0.000   0.004   26.7    86   24.1   29.9    23    1    100.0    1 
 5/12/06  5:30p   24.4   24.4   24.4    88   22.3   6.4   ESE  0.11  12.9   SSE   24.4   26.3   26.3  1001.7  0.00   3.6   0.000   0.004   26.7    86   24.1   29.9    21    1     91.3    1 
 5/12/06  5:31p   24.4   24.4   24.4    88   22.3  14.5     E  0.24  22.5     E   23.7   26.3   25.6  1001.7  0.00   2.8   0.000   0.004   26.7    86   24.1   29.9    22    1     95.7    1 
 5/12/06  5:32p   24.4   24.4   24.4    88   22.3   6.4   ESE  0.11  12.9   ESE   24.4   26.3   26.3  1001.7  0.00   2.5   0.000   0.004   26.7    86   24.1   29.9    22    1     95.7    1 
 5/12/06  5:33p   24.4   24.4   24.4    88   22.3   6.4   SSE  0.11  19.3   ESE   24.4   26.3   26.3  1001.7  0.00   2.0   0.000   0.004   26.8    86   24.2   30.2    23    1    100.0    1 
 5/12/06  5:34p   24.4   24.4   24.4    88   22.3  11.3   ESE  0.19  17.7   ESE   24.4   26.3   26.3  1001.7  0.00   1.8   0.000   0.004   26.8    87   24.4   30.3    21    1     91.3    1 
 5/12/06  5:35p   24.4   24.4   24.4    88   22.3  12.9   ESE  0.21  27.4    SE   24.2   26.3   26.1  1001.7  0.00   1.5   0.000   0.004   26.8    86   24.2   30.2    22    1     95.7    1 
 5/12/06  5:36p   24.4   24.4   24.4    88   22.3   6.4     S  0.11  11.3    SE   24.4   26.3   26.3  1001.7  0.00   1.5   0.000   0.004   26.8    86   24.2   30.2    23    1    100.0    1 
 5/12/06  5:37p   24.4   24.4   24.4    88   22.3  11.3   ESE  0.19  22.5   SSE   24.4   26.3   26.3  1001.7  0.00   1.3   0.000   0.004   26.8    86   24.2   30.2    23    1    100.0    1 
 5/12/06  5:38p   24.4   24.4   24.4    88   22.3  11.3     E  0.19  20.9     E   24.4   26.3   26.3  1001.7  0.00   1.3   0.000   0.004   26.8    86   24.2   30.2    23    1    100.0    1 
 5/12/06  5:39p   24.4   24.4   24.4    88   22.3  11.3    SE  0.19  20.9    SE   24.4   26.3   26.3  1001.7  0.00   1.3   0.000   0.004   26.8    86   24.2   30.2    23    1    100.0    1 
 5/12/06  5:40p   24.4   24.4   24.4    88   22.3  11.3    SE  0.19  22.5   ESE   24.4   26.3   26.3  1001.7  0.00   1.0   0.000   0.004   26.8    86   24.2   30.2    22    1     95.7    1 
 5/12/06  5:41p   24.4   24.4   24.4    87   22.1   6.4     S  0.11  19.3   ESE   24.4   26.3   26.3  1001.7  0.00   1.0   0.000   0.004   26.8    86   24.2   30.2    22    1     95.7    1 
 5/12/06  5:42p   24.4   24.4   24.4    87   22.1   9.7     S  0.16  20.9   ESE   24.4   26.3   26.3  1001.7  0.00   1.0   0.000   0.004   26.8    86   24.2   30.2    23    1    100.0    1 
 5/12/06  5:43p   24.4   24.4   24.4    87   22.1  11.3    SE  0.19  25.7    SE   24.4   26.3   26.3  1001.7  0.00   0.0   0.000   0.004   26.8    85   24.0   30.0    22    1     95.7    1 
 5/12/06  5:44p   24.4   24.4   24.4    87   22.1  12.9   ESE  0.21  30.6   SSW   24.2   26.3   26.0  1001.7  0.25   0.0   0.000   0.004   26.8    85   24.0   30.0    22    1     95.7    1 
 5/12/06  5:45p   24.4   24.4   24.4    87   22.1  11.3   SSE  0.19  17.7    SE   24.4   26.2   26.2  1001.8  0.00   0.0   0.000   0.004   26.8    85   24.0   30.0    21    1     91.3    1 
 5/12/06  5:46p   24.4   24.4   24.4    86   21.9   9.7   SSE  0.16  12.9     E   24.4   26.3   26.3  1001.8  0.00   0.0   0.000   0.004   26.8    85   24.0   30.0    21    1     91.3    1 
 5/12/06  5:47p   24.4   24.4   24.4    86   21.9  14.5   ENE  0.24  27.4   ENE   23.7   26.3   25.6  1001.8  0.00   0.0   0.000   0.004   26.8    85   24.0   30.0    23    1    100.0    1 
 5/12/06  5:48p   24.4   24.4   24.4    86   21.9  11.3    SE  0.19  22.5    SE   24.4   26.3   26.3  1001.8  0.00   0.0   0.000   0.004   26.8    85   24.0   30.0    23    1    100.0    1 
 5/12/06  5:49p   24.4   24.4   24.4    86   21.9  12.9    SE  0.21  22.5     S   24.2   26.3   26.0  1001.8  0.00   0.0   0.000   0.004   26.8    84   23.8   29.9    23    1    100.0    1 
 5/12/06  5:50p   24.4   24.4   24.4    86   21.9  12.9   SSE  0.21  20.9     E   24.2   26.3   26.0  1001.8  0.00   0.0   0.000   0.004   26.8    84   23.8   29.9    22    1     95.7    1 
 5/12/06  5:51p   24.4   24.4   24.4    86   21.9  11.3    SE  0.19  20.9    SE   24.4   26.3   26.3  1001.8  0.00   0.0   0.000   0.004   26.8    84   23.8   29.9    22    1     95.7    1 
 5/12/06  5:52p   24.4   24.4   24.4    86   21.9  12.9     S  0.21  32.2     S   24.2   26.3   26.0  1001.8  0.00   0.0   0.000   0.004   26.8    84   23.8   29.9    23    1    100.0    1 
 5/12/06  5:53p   24.4   24.4   24.4    86   21.9  11.3   ESE  0.19  20.9    SE   24.4   26.3   26.3  1001.8  0.00   0.0   0.000   0.004   26.8    84   23.8   29.9    23    1    100.0    1 
 5/12/06  5:54p   24.4   24.4   24.4    86   21.9  12.9    SE  0.21  25.7    SE   24.2   26.3   26.0  1001.8  0.00   0.0   0.000   0.004   26.8    84   23.8   29.9    21    1     91.3    1 
 5/12/06  5:55p   24.4   24.4   24.4    86   21.9  11.3     E  0.19  30.6   ENE   24.4   26.3   26.3  1001.8  0.00   0.0   0.000   0.004   26.8    84   23.8   29.9    22    1     95.7    1 
 5/12/06  5:56p   24.4   24.4   24.4    86   21.9  11.3     S  0.19  30.6   ENE   24.4   26.3   26.3  1001.8  0.00   0.0   0.000   0.004   26.8    84   23.8   29.9    23    1    100.0    1 
 5/12/06  5:57p   24.4   24.4   24.4    86   21.9   8.0     E  0.13  19.3    SE   24.4   26.3   26.3  1001.8  0.00   0.0   0.000   0.004   26.8    84   23.8   29.9    23    1    100.0    1 
 5/12/06  5:58p   24.4   24.4   24.4    85   21.8   9.7   SSE  0.16  19.3    SE   24.4   26.2   26.2  1001.8  0.00   0.0   0.000   0.004   26.8    84   23.8   29.9    22    1     95.7    1 
 5/12/06  5:59p   24.4   24.4   24.4    86   21.9  12.9     S  0.21  30.6   SSE   24.2   26.3   26.0  1001.8  0.00   0.0   0.000   0.004   26.8    84   23.8   29.9    22    1     95.7    1 
 5/12/06  6:00p   24.4   24.4   24.4    85   21.8   8.0   ESE  0.13  12.9     E   24.4   26.2   26.2  1001.8  0.00   0.0   0.000   0.004   26.8    84   23.8   29.9    21    1     91.3    1 
 5/12/06  6:01p   24.4   24.6   24.4    85   21.8  11.3   SSE  0.19  22.5   ESE   24.4   26.2   26.2  1001.8  0.00   0.0   0.000   0.004   26.8    84   23.8   29.9    23    1    100.0    1 
 5/12/06  6:02p   24.6   24.6   24.6    84   21.7   9.7   ESE  0.16  17.7   ESE   24.6   26.3   26.3  1001.8  0.00   0.0   0.000   0.004   26.8    84   23.8   29.9    21    1     91.3    1 
 5/12/06  6:03p   24.6   24.6   24.6    84   21.7  14.5   ESE  0.24  29.0   ENE   23.8   26.3   25.6  1001.8  0.00   0.0   0.000   0.004   26.8    83   23.6   29.8    23    1    100.0    1 
 5/12/06  6:04p   24.6   24.7   24.6    83   21.5  11.3   ESE  0.19  19.3   SSE   24.6   26.4   26.4  1001.8  0.00   0.0   0.000   0.004   26.8    83   23.6   29.8    23    1    100.0    1 
 5/12/06  6:05p   24.7   24.7   24.7    83   21.6  14.5   ESE  0.24  22.5     E   23.9   26.4   25.7  1001.8  0.00   0.0   0.000   0.004   26.8    83   23.6   29.8    22    1     95.7    1 
 5/12/06  6:06p   24.7   24.8   24.7    83   21.6  14.5     E  0.24  27.4   ESE   24.1   26.5   25.8  1001.8  0.00   0.0   0.000   0.004   26.9    83   23.8   30.0    23    1    100.0    1 
 5/12/06  6:07p   24.8   24.8   24.8    82   21.5  14.5    SE  0.24  29.0   ESE   24.1   26.6   25.9  1001.8  0.00   0.0   0.000   0.004   26.9    83   23.8   30.0    23    1    100.0    1 
 5/12/06  6:08p   24.8   24.8   24.8    82   21.5   6.4   ENE  0.11  16.1     E   24.8   26.6   26.6  1001.8  0.00   0.0   0.000   0.005   26.9    82   23.6   29.9    23    1    100.0    1 
 5/12/06  6:09p   24.8   24.8   24.8    82   21.5   8.0    SE  0.13  22.5     S   24.8   26.6   26.6  1001.8  0.00   0.0   0.000   0.005   26.9    82   23.6   29.9    23    1    100.0    1 
 5/12/06  6:10p   24.8   24.8   24.8    82   21.5   9.7   SSE  0.16  19.3     E   24.8   26.6   26.6  1001.8  0.00   0.0   0.000   0.005   26.9    82   23.6   29.9    22    1     95.7    1 
 5/12/06  6:11p   24.8   24.8   24.8    82   21.5   9.7     E  0.16  19.3    SE   24.8   26.6   26.6  1001.8  0.00   0.0   0.000   0.005   26.9    82   23.6   29.9    22    1     95.7    1 
 5/12/06  6:12p   24.8   24.9   24.8    81   21.3  11.3     E  0.19  22.5     E   24.8   26.6   26.6  1001.8  0.00   0.0   0.000   0.005   26.9    82   23.6   29.9    23    1    100.0    1 
 5/12/06  6:13p   24.9   24.9   24.9    81   21.5  11.3   ESE  0.19  27.4   ESE   24.9   26.7   26.7  1001.8  0.00   0.0   0.000   0.005   26.9    82   23.6   29.9    22    1     95.7    1 
 5/12/06  6:14p   25.0   25.1   24.9    80   21.3  12.9   ESE  0.21  29.0    SE   24.7   26.7   26.4  1001.8  0.00   0.0   0.000   0.005   26.9    82   23.6   29.9    22    1     95.7    1 
 5/12/06  6:15p   25.1   25.1   25.1    80   21.4  12.9    SE  0.21  30.6     E   24.8   26.7   26.4  1001.8  0.00   0.0   0.000   0.005   26.9    82   23.6   29.9    22    1     95.7    1 
 5/12/06  6:16p   25.1   25.2   25.1    80   21.4   8.0   ESE  0.13  16.1   ENE   25.1   26.8   26.8  1001.8  0.00   0.0   0.000   0.005   26.9    82   23.6   29.9    22    1     95.7    1 
 5/12/06  6:17p   25.2   25.2   25.2    79   21.3  12.9   ESE  0.21  33.8    SE   24.9   26.8   26.6  1001.8  0.00   0.0   0.000   0.005   26.9    82   23.6   29.9    22    1     95.7    1 
 5/12/06  6:18p   25.2   25.2   25.2    79   21.3   8.0    SE  0.13  14.5   ESE   25.2   26.8   26.8  1001.8  0.00   0.0   0.000   0.005   26.9    81   23.4   29.7    23    1    100.0    1 
 5/12/06  6:19p   25.2   25.2   25.2    78   21.1  14.5    SE  0.24  25.7     E   24.5   26.8   26.1  1001.8  0.00   0.0   0.000   0.005   26.9    81   23.4   29.7    23    1    100.0    1 
 5/12/06  6:20p   25.3   25.3   25.3    78   21.2   9.7   ESE  0.16  17.7     E   25.3   26.9   26.9  1001.8  0.00   0.0   0.000   0.005   26.9    81   23.4   29.7    22    1     95.7    1 
 5/12/06  6:21p   25.3   25.3   25.3    78   21.2  12.9     E  0.21  25.7    SE   25.0   26.9   26.6  1001.8  0.00   0.0   0.000   0.005   26.9    81   23.4   29.7    23    1    100.0    1 
 5/12/06  6:22p   25.3   25.3   25.3    78   21.2  16.1    SE  0.27  25.7     E   24.3   27.0   26.0  1001.8  0.00   0.0   0.000   0.005   26.9    81   23.4   29.7    23    1    100.0    1 
 5/12/06  6:23p   25.3   25.3   25.3    78   21.2  11.3   ESE  0.19  25.7   SSW   25.3   27.0   27.0  1001.8  0.00   0.0   0.000   0.005   26.9    81   23.4   29.7    23    1    100.0    1 
 5/12/06  6:24p   25.4   25.4   25.3    77   21.1  12.9     S  0.21  19.3   SSE   25.1   27.0   26.7  1001.8  0.00   0.0   0.000   0.005   26.9    81   23.4   29.7    22    1     95.7    1 
 5/12/06  6:25p   25.4   25.4   25.4    77   21.1  12.9     E  0.21  27.4     E   25.2   27.1   26.8  1001.8  0.00   0.0   0.000   0.005   26.9    81   23.4   29.7    22    1     95.7    1 
 5/12/06  6:26p   25.5   25.6   25.4    77   21.2  11.3   SSE  0.19  25.7    SE   25.5   27.1   27.1  1001.8  0.00   0.0   0.000   0.005   26.9    81   23.4   29.7    23    1    100.0    1 
 5/12/06  6:27p   25.6   25.6   25.6    77   21.2   9.7     S  0.16  19.3   SSW   25.6   27.2   27.2  1001.8  0.00   0.0   0.000   0.005   26.9    80   23.1   29.6    23    1    100.0    1 
 5/12/06  6:28p   25.6   25.6   25.6    76   21.0  12.9    SE  0.21  22.5   ESE   25.3   27.1   26.8  1001.8  0.00   0.0   0.000   0.005   26.9    80   23.1   29.6    22    1     95.7    1 
 5/12/06  6:29p   25.6   25.7   25.6    76   21.1  11.3     E  0.19  27.4    SE   25.6   27.2   27.2  1001.8  0.00   0.0   0.000   0.005   26.9    80   23.1   29.6    22    1     95.7    1 
 5/12/06  6:30p   25.7   25.7   25.7    76   21.1  12.9    SE  0.21  25.7     E   25.4   27.2   26.9  1001.8  0.00   0.0   0.000   0.005   26.9    80   23.1   29.6    22    1     95.7    1 
 5/12/06  6:31p   25.7   25.8   25.7    75   21.0  11.3     E  0.19  25.7   ESE   25.7   27.2   27.2  1001.8  0.00   0.0   0.000   0.005   26.9    80   23.1   29.6    23    1    100.0    1 
 5/12/06  6:32p   25.8   25.8   25.8    75   21.0   9.7   ESE  0.16  22.5   ESE   25.8   27.3   27.3  1001.8  0.00   0.0   0.000   0.005   26.9    80   23.1   29.6    23    1    100.0    1 
 5/12/06  6:33p   25.8   25.8   25.8    74   20.8  16.1    SE  0.27  27.4     E   24.9   27.3   26.4  1001.8  0.00   0.0   0.000   0.005   26.9    80   23.1   29.6    23    1    100.0    1 
 5/12/06  6:34p   25.9   25.9   25.8    74   20.9  11.3   ESE  0.19  25.7   ESE   25.9   27.4   27.4  1001.8  0.00   0.0   0.000   0.005   26.9    79   22.9   29.5    23    1    100.0    1 
 5/12/06  6:35p   25.9   25.9   25.9    74   21.0   9.7     E  0.16  17.7   SSE   25.9   27.4   27.4  1001.8  0.00   0.0   0.000   0.005   26.9    80   23.1   29.6    22    1     95.7    1 
 5/12/06  6:36p   25.9   25.9   25.9    74   21.0   8.0   SSE  0.13  12.9    SW   25.9   27.4   27.4  1001.8  0.00   0.0   0.000   0.005   26.9    79   22.9   29.5    23    1    100.0    1 
 5/12/06  6:37p   25.9   25.9   25.9    74   21.0   9.7   ESE  0.16  16.1     S   25.9   27.4   27.4  1001.8  0.00   0.0   0.000   0.005   26.9    79   23.0   29.6    23    1    100.0    1 
 5/12/06  6:38p   26.0   26.1   25.9    74   21.0   9.7   ENE  0.16  20.9     E   26.0   27.6   27.6  1001.8  0.00   0.0   0.000   0.005   26.9    79   23.0   29.6    23    1    100.0    1 
 5/12/06  6:39p   26.1   26.1   26.1    74   21.1  12.9   ESE  0.21  25.7     S   25.8   27.6   27.4  1001.8  0.00   0.0   0.000   0.005   26.9    79   23.0   29.6    21    1     91.3    1 
 5/12/06  6:40p   26.1   26.1   26.1    74   21.1  11.3   ENE  0.19  25.7   ESE   26.1   27.6   27.6  1001.8  0.00   0.0   0.000   0.005   26.9    79   23.0   29.6    20    1     87.0    1 
 5/12/06  6:41p   26.1   26.1   26.1    74   21.1  11.3    SE  0.19  22.5   ESE   26.1   27.6   27.6  1001.8  0.00   0.0   0.000   0.005   26.9    79   23.0   29.6    21    1     91.3    1 
 5/12/06  6:42p   26.1   26.1   26.1    74   21.1  16.1   ESE  0.27  32.2     E   25.1   27.6   26.7  1001.8  0.00   0.0   0.000   0.005   26.9    79   23.0   29.6    23    1    100.0    1 
 5/12/06  6:43p   26.2   26.2   26.1    73   20.9  11.3   ESE  0.19  19.3   ESE   26.2   27.7   27.7  1001.8  0.00   0.0   0.000   0.005   26.9    79   23.0   29.6    23    1    100.0    1 
 5/12/06  6:44p   26.2   26.2   26.2    73   20.9   6.4   ESE  0.11  14.5     S   26.2   27.7   27.7  1001.8  0.00   0.0   0.000   0.005   26.9    79   23.0   29.6    23    1    100.0    1 
 5/12/06  6:45p   26.2   26.2   26.2    74   21.2   9.7   ESE  0.16  20.9   ESE   26.2   27.8   27.8  1002.1  0.00   0.0   0.000   0.005   26.9    79   23.0   29.6    22    1     95.7    1 
 5/12/06  6:46p   26.2   26.2   26.2    73   20.9  14.5   SSW  0.24  32.2    SE   25.6   27.7   27.1  1002.1  0.00   0.0   0.000   0.005   26.9    79   23.0   29.6    23    1    100.0    1 
 5/12/06  6:47p   26.2   26.3   26.2    73   21.0  11.3    SE  0.19  25.7   SSW   26.2   27.8   27.8  1002.1  0.00   0.0   0.000   0.005   26.9    79   23.0   29.6    23    1    100.0    1 
 5/12/06  6:48p   26.3   26.3   26.3    73   21.1   4.8   SSE  0.08   8.0   SSW   26.3   27.9   27.9  1002.1  0.00   0.0   0.000   0.006   26.9    79   23.0   29.6    23    1    100.0    1 
 5/12/06  6:49p   26.3   26.3   26.3    73   21.1  12.9   SSE  0.21  20.9     S   26.1   27.9   27.7  1002.1  0.00   0.0   0.000   0.006   27.1    79   23.1   29.8    22    1     95.7    1 
 5/12/06  6:50p   26.3   26.3   26.3    73   21.1   9.7    SE  0.16  17.7   ESE   26.3   27.9   27.9  1002.1  0.00   0.0   0.000   0.006   27.1    79   23.1   29.8    22    1     95.7    1 
 5/12/06  6:51p   26.3   26.3   26.3    73   21.1  11.3   ESE  0.19  19.3   ESE   26.3   27.9   27.9  1002.1  0.00   0.0   0.000   0.006   27.1    79   23.1   29.8    23    1    100.0    1 
 5/12/06  6:52p   26.3   26.3   26.3    73   21.1   8.0   SSE  0.13  17.7    SE   26.3   27.9   27.9  1002.1  0.00   0.0   0.000   0.006   27.1    79   23.1   29.8    23    1    100.0    1 
 5/12/06  6:53p   26.3   26.3   26.3    74   21.3   8.0     E  0.13  11.3    SE   26.3   27.9   27.9  1002.1  0.00   0.0   0.000   0.006   27.1    79   23.1   29.8    23    1    100.0    1 
 5/12/06  6:54p   26.2   26.2   26.2    74   21.2   9.7   ESE  0.16  14.5   ENE   26.2   27.8   27.8  1002.1  0.00   0.0   0.000   0.005   27.1    79   23.1   29.8    21    1     91.3    1 
 5/12/06  6:55p   26.2   26.2   26.2    74   21.2  11.3    SE  0.19  25.7   ESE   26.2   27.8   27.8  1002.1  0.00   0.0   0.000   0.005   27.1    79   23.1   29.8    22    1     95.7    1 
 5/12/06  6:56p   26.2   26.2   26.2    74   21.2   8.0   ESE  0.13  27.4   ESE   26.2   27.8   27.8  1002.1  0.00   0.0   0.000   0.005   27.1    79   23.1   29.8    23    1    100.0    1 
 5/12/06  6:57p   26.2   26.2   26.2    74   21.2   9.7     E  0.16  16.1   SSE   26.2   27.8   27.8  1002.1  0.00   0.0   0.000   0.005   27.1    79   23.1   29.8    23    1    100.0    1 
 5/12/06  6:58p   26.2   26.2   26.2    74   21.2   6.4    SE  0.11   9.7   NNW   26.2   27.8   27.8  1002.1  0.00   0.0   0.000   0.005   27.2    79   23.2   30.1    22    1     95.7    1 
 5/12/06  6:59p   26.1   26.2   26.1    74   21.1   6.4   ENE  0.11  19.3   ESE   26.1   27.6   27.6  1002.1  0.00   0.0   0.000   0.005   27.2    79   23.2   30.1    23    1    100.0    1 
 5/12/06  7:00p   26.1   26.1   26.1    74   21.1  11.3     E  0.19  22.5   SSE   26.1   27.6   27.6  1002.3  0.00   0.0   0.000   0.005   27.2    79   23.2   30.1    22    1     95.7    1 
 5/12/06  7:01p   26.1   26.1   26.1    74   21.1   8.0   SSE  0.13  29.0     S   26.1   27.6   27.6  1002.3  0.00   0.0   0.000   0.005   27.2    78   23.0   29.9    23    1    100.0    1 
 5/12/06  7:02p   26.1   26.2   26.1    74   21.1   9.7   ESE  0.16  17.7   ENE   26.1   27.7   27.7  1002.3  0.00   0.0   0.000   0.005   27.2    78   23.0   29.9    23    1    100.0    1 
 5/12/06  7:03p   26.2   26.2   26.2    74   21.2   9.7   SSE  0.16  20.9   SSE   26.2   27.8   27.8  1002.3  0.00   0.0   0.000   0.005   27.2    78   23.0   29.9    22    1     95.7    1 
 5/12/06  7:04p   26.2   26.2   26.2    74   21.2  16.1   SSE  0.27  22.5   ESE   25.2   27.8   26.8  1002.3  0.00   0.0   0.000   0.005   27.2    78   23.0   29.9    22    1     95.7    1 
 5/12/06  7:05p   26.2   26.2   26.2    74   21.2  11.3     S  0.19  20.9   ENE   26.2   27.8   27.8  1002.3  0.00   0.0   0.000   0.005   27.2    78   23.0   29.9    22    1     95.7    1 
 5/12/06  7:06p   26.3   26.3   26.3    74   21.3   6.4   ESE  0.11   9.7   ESE   26.3   27.9   27.9  1002.3  0.00   0.0   0.000   0.006   27.2    78   23.0   29.9    23    1    100.0    1 
 5/12/06  7:07p   26.3   26.3   26.3    74   21.3   8.0   ESE  0.13  14.5     E   26.3   27.9   27.9  1002.3  0.00   0.0   0.000   0.006   27.2    78   23.0   29.9    22    1     95.7    1 
 5/12/06  7:08p   26.3   26.3   26.3    74   21.3  14.5   ENE  0.24  25.7   SSE   25.7   27.9   27.3  1002.3  0.00   0.0   0.000   0.006   27.2    78   23.0   29.9    23    1    100.0    1 
 5/12/06  7:09p   26.3   26.3   26.3    74   21.3  16.1   ESE  0.27  30.6    SE   25.3   27.9   27.0  1002.3  0.00   0.0   0.000   0.006   27.2    78   23.0   29.9    22    1     95.7    1 
 5/12/06  7:10p   26.3   26.3   26.3    74   21.3   8.0    SE  0.13  17.7    SE   26.3   27.9   27.9  1002.3  0.00   0.0   0.000   0.006   27.2    78   23.0   29.9    22    1     95.7    1 
 5/12/06  7:11p   26.3   26.4   26.3    74   21.3   9.7   ESE  0.16  14.5     E   26.3   28.1   28.1  1002.3  0.00   0.0   0.000   0.006   27.2    78   23.0   29.9    23    1    100.0    1 
 5/12/06  7:12p   26.3   26.4   26.3    74   21.3   8.0   SSE  0.13  20.9   ESE   26.3   28.1   28.1  1002.3  0.00   0.0   0.000   0.006   27.2    78   23.0   29.9    23    1    100.0    1 
 5/12/06  7:13p   26.3   26.3   26.3    74   21.3   8.0   ESE  0.13  20.9    SE   26.3   27.9   27.9  1002.3  0.00   0.0   0.000   0.006   27.2    79   23.2   30.1    23    1    100.0    1 
 5/12/06  7:14p   26.3   26.3   26.3    74   21.3   8.0     E  0.13  19.3     E   26.3   27.9   27.9  1002.3  0.00   0.0   0.000   0.006   27.3    79   23.3   30.3    23    1    100.0    1 
 5/12/06  7:15p   26.2   26.3   26.2    75   21.4   8.0     E  0.13  16.1    SE   26.2   27.9   27.9  1002.4  0.00   0.0   0.000   0.005   27.3    79   23.3   30.3    22    1     95.7    1 
 5/12/06  7:16p   26.2   26.2   26.2    75   21.4  12.9   ESE  0.21  24.1   SSE   25.9   27.9   27.7  1002.4  0.00   0.0   0.000   0.005   27.3    79   23.3   30.3    23    1    100.0    1 
 5/12/06  7:17p   26.2   26.2   26.2    75   21.4   8.0     E  0.13  17.7   SSE   26.2   27.9   27.9  1002.4  0.00   0.0   0.000   0.005   27.3    79   23.3   30.3    23    1    100.0    1 
 5/12/06  7:18p   26.1   26.2   26.1    76   21.5   4.8     E  0.08   9.7   SSE   26.1   27.9   27.9  1002.4  0.00   0.0   0.000   0.005   27.3    79   23.3   30.3    23    1    100.0    1 
 5/12/06  7:19p   26.1   26.1   26.1    76   21.5  16.1   ESE  0.27  29.0   ESE   25.1   27.8   26.8  1002.4  0.00   0.0   0.000   0.005   27.3    79   23.3   30.3    23    1    100.0    1 
 5/12/06  7:20p   26.1   26.1   25.9    76   21.5  11.3   ESE  0.19  19.3   ESE   26.1   27.8   27.8  1002.4  0.00   0.0   0.000   0.005   27.3    79   23.3   30.3    22    1     95.7    1 
 5/12/06  7:21p   25.9   25.9   25.9    76   21.4   8.0     E  0.13  16.1     E   25.9   27.6   27.6  1002.4  0.00   0.0   0.000   0.005   27.3    79   23.3   30.3    23    1    100.0    1 
 5/12/06  7:22p   25.9   25.9   25.9    77   21.6  12.9   ESE  0.21  27.4    SE   25.7   27.7   27.5  1002.4  0.00   0.0   0.000   0.005   27.3    79   23.3   30.3    23    1    100.0    1 
 5/12/06  7:23p   25.8   25.8   25.8    77   21.5  12.9     E  0.21  25.7     E   25.6   27.6   27.3  1002.4  0.00   0.0   0.000   0.005   27.3    79   23.3   30.3    23    1    100.0    1 
 5/12/06  7:24p   25.8   25.8   25.8    77   21.5  11.3   ESE  0.19  22.5   ESE   25.8   27.6   27.6  1002.4  0.00   0.0   0.000   0.005   27.3    79   23.3   30.3    22    1     95.7    1 
 5/12/06  7:25p   25.8   25.8   25.8    77   21.5   8.0   ESE  0.13  16.1   SSE   25.8   27.6   27.6  1002.4  0.00   0.0   0.000   0.005   27.3    79   23.3   30.3    22    1     95.7    1 
 5/12/06  7:26p   25.8   25.8   25.8    78   21.6   8.0   ESE  0.13  16.1     E   25.8   27.6   27.6  1002.4  0.00   0.0   0.000   0.005   27.3    79   23.3   30.3    23    1    100.0    1 
 5/12/06  7:27p   25.8   25.8   25.8    78   21.6   8.0   ENE  0.13  17.7   ESE   25.8   27.6   27.6  1002.4  0.00   0.0   0.000   0.005   27.3    79   23.3   30.3    23    1    100.0    1 
 5/12/06  7:28p   25.7   25.8   25.7    78   21.5  16.1   ENE  0.27  25.7   ENE   24.7   27.4   26.4  1002.4  0.00   0.0   0.000   0.005   27.4    79   23.4   30.6    23    1    100.0    1 
 5/12/06  7:29p   25.7   25.7   25.7    78   21.5  11.3     E  0.19  25.7   SSE   25.7   27.4   27.4  1002.4  0.00   0.0   0.000   0.005   27.4    79   23.4   30.6    23    1    100.0    1 
 5/12/06  7:30p   25.7   25.7   25.7    79   21.8  17.7     E  0.30  29.0    SE   24.4   27.5   26.3  1002.7  0.00   0.0   0.000   0.005   27.4    79   23.4   30.6    22    1     95.7    1 
 5/12/06  7:31p   25.7   25.7   25.7    78   21.5  14.5     E  0.24  25.7     E   25.0   27.4   26.8  1002.7  0.00   0.0   0.000   0.005   27.4    79   23.4   30.6    23    1    100.0    1 
 5/12/06  7:32p   25.7   25.7   25.7    78   21.5  11.3   ESE  0.19  19.3   ESE   25.7   27.4   27.4  1002.7  0.25   0.0   0.000   0.005   27.4    79   23.4   30.6    23    1    100.0    1 
 5/12/06  7:33p   25.7   25.7   25.7    78   21.5   9.7    SE  0.16  20.9   SSE   25.7   27.4   27.4  1002.7  0.00   0.0   0.000   0.005   27.4    79   23.4   30.6    23    1    100.0    1 
 5/12/06  7:34p   25.6   25.7   25.6    78   21.5  14.5    SE  0.24  27.4    SE   24.9   27.3   26.7  1002.7  0.00   0.0   0.000   0.005   27.4    79   23.4   30.6    23    1    100.0    1 
 5/12/06  7:35p   25.6   25.6   25.6    78   21.4  11.3   ESE  0.19  19.3     E   25.6   27.3   27.3  1002.7  0.00   0.0   0.000   0.005   27.4    79   23.4   30.6    22    1     95.7    1 
 5/12/06  7:36p   25.6   25.6   25.6    78   21.4   6.4    SE  0.11  17.7     E   25.6   27.3   27.3  1002.7  0.00   0.0   0.000   0.005   27.4    79   23.4   30.6    23    1    100.0    1 
 5/12/06  7:37p   25.6   25.6   25.6    78   21.4   9.7     E  0.16  19.3    SE   25.6   27.3   27.3  1002.7  0.00   0.0   0.000   0.005   27.4    79   23.4   30.6    23    1    100.0    1 
 5/12/06  7:38p   25.6   25.7   25.6    78   21.4  14.5    SE  0.24  27.4    SE   24.9   27.3   26.6  1002.7  0.00   0.0   0.000   0.005   27.4    79   23.4   30.6    22    1     95.7    1 
 5/12/06  7:39p   25.7   25.7   25.7    77   21.3   8.0    SE  0.13  14.5    SE   25.7   27.3   27.3  1002.7  0.00   0.0   0.000   0.005   27.4    79   23.4   30.6    23    1    100.0    1 
 5/12/06  7:40p   25.7   25.7   25.7    77   21.3   6.4    SE  0.11  25.7   ENE   25.7   27.3   27.3  1002.7  0.00   0.0   0.000   0.005   27.4    78   23.2   30.4    21    1     91.3    1 
 5/12/06  7:41p   25.7   25.7   25.7    77   21.3   6.4     S  0.11  19.3     E   25.7   27.3   27.3  1002.7  0.00   0.0   0.000   0.005   27.4    78   23.2   30.4    23    1    100.0    1 
 5/12/06  7:42p   25.7   25.7   25.7    77   21.3   9.7   ESE  0.16  19.3   SSE   25.7   27.3   27.3  1002.7  0.00   0.0   0.000   0.005   27.4    78   23.2   30.4    22    1     95.7    1 
 5/12/06  7:43p   25.8   25.8   25.8    77   21.4  12.9   ESE  0.21  27.4   ESE   25.5   27.5   27.2  1002.7  0.00   0.0   0.000   0.005   27.4    78   23.2   30.4    23    1    100.0    1 
 5/12/06  7:44p   25.8   25.8   25.8    76   21.2   8.0   ENE  0.13  19.3     E   25.8   27.4   27.4  1002.7  0.00   0.0   0.000   0.005   27.4    78   23.2   30.4    23    1    100.0    1 
 5/12/06  7:45p   25.8   25.8   25.8    76   21.2  11.3    SE  0.19  19.3    SE   25.8   27.4   27.4  1003.0  0.00   0.0   0.000   0.005   27.4    78   23.2   30.4    22    1     95.7    1 
 5/12/06  7:46p   25.8   25.8   25.8    76   21.3   9.7   ESE  0.16  17.7     E   25.8   27.5   27.5  1003.0  0.00   0.0   0.000   0.005   27.4    78   23.2   30.4    23    1    100.0    1 
 5/12/06  7:47p   25.8   25.8   25.8    76   21.3   9.7   ESE  0.16  19.3   ESE   25.8   27.5   27.5  1003.0  0.00   0.0   0.000   0.005   27.4    78   23.2   30.4    23    1    100.0    1 
 5/12/06  7:48p   25.8   25.8   25.8    76   21.3  12.9     E  0.21  19.3   ESE   25.6   27.5   27.3  1003.0  0.00   0.0   0.000   0.005   27.4    78   23.2   30.4    22    1     95.7    1 
 5/12/06  7:49p   25.8   25.8   25.8    76   21.3  11.3   ESE  0.19  17.7   ESE   25.8   27.5   27.5  1003.0  0.00   0.0   0.000   0.005   27.4    78   23.2   30.4    23    1    100.0    1 
 5/12/06  7:50p   25.8   25.8   25.8    76   21.3  19.3     E  0.32  40.2   SSE   24.5   27.5   26.2  1003.0  0.00   0.0   0.000   0.005   27.4    78   23.2   30.4    22    1     95.7    1 
 5/12/06  7:51p   25.8   25.8   25.8    76   21.3   9.7   SSE  0.16  27.4     S   25.8   27.5   27.5  1003.0  0.00   0.0   0.000   0.005   27.4    78   23.2   30.4    23    1    100.0    1 
 5/12/06  7:52p   25.8   25.8   25.8    76   21.3  16.1    SE  0.27  25.7   ESE   24.9   27.5   26.6  1003.0  0.00   0.0   0.000   0.005   27.4    78   23.2   30.4    22    1     95.7    1 
 5/12/06  7:53p   25.9   25.9   25.8    76   21.3   8.0   ESE  0.13  25.7   ESE   25.9   27.6   27.6  1003.0  0.00   0.0   0.000   0.005   27.4    78   23.2   30.4    23    1    100.0    1 
 5/12/06  7:54p   25.9   25.9   25.8    76   21.3   9.7   SSE  0.16  20.9   ESE   25.9   27.6   27.6  1003.0  0.00   0.0   0.000   0.005   27.4    78   23.2   30.4    23    1    100.0    1 
 5/12/06  7:55p   25.8   25.8   25.8    76   21.3  12.9   ESE  0.21  27.4   ESE   25.6   27.5   27.3  1003.0  0.00   0.0   0.000   0.005   27.4    78   23.2   30.4    22    1     95.7    1 
 5/12/06  7:56p   25.8   25.8   25.8    76   21.3  16.1     E  0.27  30.6   ESE   24.9   27.5   26.6  1003.0  0.00   0.0   0.000   0.005   27.4    78   23.2   30.4    23    1    100.0    1 
 5/12/06  7:57p   25.8   25.8   25.8    76   21.3  11.3    SE  0.19  27.4   ESE   25.8   27.5   27.5  1003.0  0.00   0.0   0.000   0.005   27.4    78   23.2   30.4    23    1    100.0    1 
 5/12/06  7:58p   25.8   25.8   25.8    76   21.3  11.3   SSE  0.19  22.5   ESE   25.8   27.5   27.5  1003.0  0.00   0.0   0.000   0.005   27.4    78   23.2   30.4    23    1    100.0    1 
 5/12/06  7:59p   25.8   25.8   25.8    77   21.4  12.9   ESE  0.21  27.4   ESE   25.5   27.5   27.2  1003.0  0.00   0.0   0.000   0.005   27.4    78   23.2   30.4    23    1    100.0    1 
 5/12/06  8:00p   25.8   25.8   25.8    77   21.4  12.9    SE  0.21  33.8   ESE   25.5   27.5   27.2  1003.4  0.00   0.0   0.000   0.005   27.4    78   23.2   30.4    22    1     95.7    1 
 5/12/06  8:01p   25.7   25.8   25.7    77   21.3   8.0   SSE  0.13  12.9   SSE   25.7   27.3   27.3  1003.4  0.00   0.0   0.000   0.005   27.4    78   23.2   30.4    23    1    100.0    1 
 5/12/06  8:02p   25.7   25.7   25.6    78   21.5  12.9   ESE  0.21  17.7     E   25.4   27.4   27.2  1003.4  0.00   0.0   0.000   0.005   27.4    78   23.2   30.4    22    1     95.7    1 
 5/12/06  8:03p   25.6   25.6   25.6    78   21.4  14.5   SSE  0.24  27.4     S   24.9   27.3   26.6  1003.4  0.00   0.0   0.000   0.005   27.4    78   23.2   30.4    23    1    100.0    1 
 5/12/06  8:04p   25.6   25.6   25.6    78   21.4  11.3   ESE  0.19  19.3   ESE   25.6   27.3   27.3  1003.4  0.00   0.0   0.000   0.005   27.4    78   23.2   30.4    23    1    100.0    1 
 5/12/06  8:05p   25.4   25.4   25.4    78   21.3  12.9    SE  0.21  19.3   ESE   25.2   27.1   26.8  1003.4  0.00   0.0   0.000   0.005   27.4    78   23.2   30.4    21    1     91.3    1 
 5/12/06  8:06p   25.4   25.4   25.3    79   21.5   8.0    SE  0.13  12.9    SE   25.4   27.1   27.1  1003.4  0.00   0.0   0.000   0.005   27.4    78   23.2   30.4    23    1    100.0    1 
 5/12/06  8:07p   25.3   25.3   25.3    80   21.6  12.9   ESE  0.21  25.7    SE   25.1   27.1   26.8  1003.4  0.00   0.0   0.000   0.005   27.4    78   23.2   30.4    22    1     95.7    1 
 5/12/06  8:08p   25.3   25.3   25.3    80   21.6  11.3   ESE  0.19  22.5   ESE   25.3   27.1   27.1  1003.4  0.00   0.0   0.000   0.005   27.4    78   23.2   30.4    23    1    100.0    1 
 5/12/06  8:09p   25.2   25.3   25.2    80   21.5  16.1   ESE  0.27  29.0   ESE   24.2   27.0   25.9  1003.4  0.00   0.0   0.000   0.005   27.4    78   23.2   30.4    23    1    100.0    1 
 5/12/06  8:10p   25.1   25.2   25.1    80   21.4  14.5     E  0.24  27.4     E   24.4   26.8   26.2  1003.4  0.25   0.0   0.000   0.005   27.4    78   23.2   30.4    22    1     95.7    1 
 5/12/06  8:11p   25.1   25.1   25.1    81   21.6   8.0    SE  0.13  17.7   ESE   25.1   26.8   26.8  1003.4  0.00   0.0   0.000   0.005   27.4    78   23.2   30.4    23    1    100.0    1 
 5/12/06  8:12p   24.9   25.1   24.9    81   21.5  11.3    SE  0.19  30.6   ESE   24.9   26.7   26.7  1003.4  0.00   0.0   0.000   0.005   27.4    78   23.2   30.4    22    1     95.7    1 
 5/12/06  8:13p   24.9   24.9   24.8    82   21.6   9.7    SE  0.16  20.9   ESE   24.9   26.7   26.7  1003.4  0.00   0.0   0.000   0.005   27.4    78   23.2   30.4    23    1    100.0    1 
 5/12/06  8:14p   24.8   24.8   24.8    82   21.5   8.0    SE  0.13  17.7   SSW   24.8   26.6   26.6  1003.4  0.00   0.0   0.000   0.005   27.4    78   23.2   30.4    23    1    100.0    1 
 5/12/06  8:15p   24.8   24.8   24.8    83   21.7   9.7     S  0.16  22.5   ESE   24.8   26.6   26.6  1003.7  0.00   0.0   0.000   0.004   27.4    78   23.2   30.4    22    1     95.7    1 
 5/12/06  8:16p   24.7   24.8   24.7    83   21.6  12.9   ESE  0.21  22.5   ESE   24.4   26.5   26.2  1003.7  0.25   2.3   0.000   0.004   27.4    78   23.2   30.4    23    1    100.0    1 
 5/12/06  8:17p   24.7   24.7   24.7    83   21.6   9.7   ESE  0.16  20.9   SSE   24.7   26.4   26.4  1003.7  0.00   2.3   0.000   0.004   27.4    79   23.4   30.6    23    1    100.0    1 
 5/12/06  8:18p   24.6   24.6   24.6    83   21.5   9.7   ESE  0.16  22.5   ENE   24.6   26.3   26.3  1003.7  0.00   2.3   0.000   0.004   27.4    79   23.4   30.6    23    1    100.0    1 
 5/12/06  8:19p   24.6   24.6   24.6    84   21.7  11.3   ESE  0.19  22.5     E   24.6   26.3   26.3  1003.7  0.00   2.3   0.000   0.004   27.4    79   23.4   30.6    23    1    100.0    1 
 5/12/06  8:20p   24.5   24.6   24.4    84   21.6  11.3     E  0.19  25.7   ESE   24.5   26.3   26.3  1003.7  0.00   2.3   0.000   0.004   27.4    79   23.4   30.6    22    1     95.7    1 
 5/12/06  8:21p   24.4   24.4   24.4    84   21.6  12.9    SE  0.21  22.5   ESE   24.2   26.2   25.9  1003.7  0.00   2.3   0.000   0.004   27.4    79   23.4   30.6    23    1    100.0    1 
 5/12/06  8:22p   24.4   24.4   24.4    84   21.5   8.0    SE  0.13  19.3   ESE   24.4   26.1   26.1  1003.7  0.00   2.3   0.000   0.004   27.4    79   23.4   30.6    21    1     91.3    1 
 5/12/06  8:23p   24.4   24.4   24.4    85   21.7  14.5    SE  0.24  29.0   ESE   23.7   26.2   25.4  1003.7  0.00   2.0   0.000   0.004   27.4    79   23.4   30.6    21    1     91.3    1 
 5/12/06  8:24p   24.4   24.4   24.4    85   21.7   9.7    SE  0.16  17.7   ENE   24.4   26.2   26.2  1003.7  0.25   2.0   0.000   0.004   27.4    79   23.4   30.6    23    1    100.0    1 
 5/12/06  8:25p   24.3   24.4   24.3    85   21.6  14.5   ESE  0.24  25.7    SE   23.6   26.1   25.4  1003.7  0.00   1.8   0.000   0.004   27.4    79   23.4   30.6    22    1     95.7    1 
 5/12/06  8:26p   24.3   24.3   24.3    85   21.6   9.7   ESE  0.16  16.1     E   24.3   26.0   26.0  1003.7  0.00   1.8   0.000   0.004   27.4    79   23.4   30.6    21    1     91.3    1 
 5/12/06  8:27p   24.3   24.3   24.3    85   21.6   8.0     E  0.13  12.9     E   24.3   26.0   26.0  1003.7  0.00   1.8   0.000   0.004   27.4    79   23.4   30.6    23    1    100.0    1 
 5/12/06  8:28p   24.3   24.3   24.3    85   21.6   8.0     S  0.13  12.9   SSE   24.3   26.0   26.0  1003.7  0.00   1.8   0.000   0.004   27.4    79   23.4   30.6    23    1    100.0    1 
 5/12/06  8:29p   24.3   24.3   24.3    85   21.6  12.9   SSE  0.21  30.6   SSE   24.0   26.0   25.7  1003.7  0.00   1.8   0.000   0.004   27.4    79   23.4   30.6    22    1     95.7    1 
 5/12/06  8:30p   24.3   24.3   24.3    86   21.8   8.0   ESE  0.13  12.9     S   24.3   26.1   26.1  1004.1  0.00   1.8   0.000   0.004   27.4    79   23.4   30.6    22    1     95.7    1 
 5/12/06  8:31p   24.2   24.3   24.2    86   21.7   9.7   ESE  0.16  14.5    SE   24.2   26.0   26.0  1004.1  0.00   1.8   0.000   0.004   27.4    79   23.4   30.6    23    1    100.0    1 
 5/12/06  8:32p   24.2   24.2   24.2    86   21.7   9.7    SE  0.16  20.9   ESE   24.2   25.9   25.9  1004.1  0.00   1.8   0.000   0.004   27.4    79   23.4   30.6    23    1    100.0    1 
 5/12/06  8:33p   24.2   24.2   24.2    86   21.7   8.0   ESE  0.13  11.3     E   24.2   25.9   25.9  1004.1  0.00   1.5   0.000   0.004   27.3    79   23.3   30.3    23    1    100.0    1 
 5/12/06  8:34p   24.2   24.2   24.2    86   21.7   8.0   ESE  0.13  20.9    SE   24.2   25.9   25.9  1004.1  0.00   1.5   0.000   0.004   27.3    79   23.3   30.3    23    1    100.0    1 
 5/12/06  8:35p   24.2   24.2   24.2    86   21.7   9.7   ESE  0.16  17.7   ESE   24.2   25.9   25.9  1004.1  0.00   1.3   0.000   0.004   27.3    79   23.3   30.3    22    1     95.7    1 
 5/12/06  8:36p   24.2   24.2   24.1    86   21.7   4.8   ESE  0.08   9.7   ESE   24.2   25.9   25.9  1004.1  0.00   1.3   0.000   0.004   27.3    79   23.3   30.3    23    1    100.0    1 
 5/12/06  8:37p   24.1   24.1   24.1    86   21.6   6.4   ESE  0.11  11.3     S   24.1   25.8   25.8  1004.1  0.00   1.0   0.000   0.004   27.3    79   23.3   30.3    23    1    100.0    1 
 5/12/06  8:38p   24.1   24.1   24.1    86   21.6   4.8     E  0.08  11.3   ENE   24.1   25.8   25.8  1004.1  0.00   1.0   0.000   0.004   27.3    79   23.3   30.3    22    1     95.7    1 
 5/12/06  8:39p   24.1   24.1   24.1    86   21.6   8.0     E  0.13  19.3     E   24.1   25.8   25.8  1004.1  0.00   1.0   0.000   0.004   27.3    79   23.3   30.3    23    1    100.0    1 
 5/12/06  8:40p   24.1   24.1   24.1    86   21.6   8.0   ESE  0.13  12.9   SSE   24.1   25.8   25.8  1004.1  0.25   1.0   0.000   0.004   27.3    79   23.3   30.3    21    1     91.3    1 
 5/12/06  8:41p   24.1   24.1   24.1    86   21.6   8.0     E  0.13  20.9   ESE   24.1   25.8   25.8  1004.1  0.00   1.0   0.000   0.004   27.3    79   23.3   30.3    23    1    100.0    1 
 5/12/06  8:42p   24.1   24.1   24.1    86   21.6   8.0    SE  0.13  17.7   ESE   24.1   25.8   25.8  1004.1  0.00   1.0   0.000   0.004   27.3    79   23.3   30.3    23    1    100.0    1 
 5/12/06  8:43p   24.1   24.1   24.1    86   21.6  14.5   ESE  0.24  25.7   ENE   23.3   25.8   25.1  1004.1  0.00   1.0   0.000   0.004   27.3    79   23.3   30.3    23    1    100.0    1 
 5/12/06  8:44p   24.1   24.1   24.1    86   21.6  11.3   ESE  0.19  17.7    SE   24.1   25.8   25.8  1004.1  0.00   1.0   0.000   0.004   27.3    79   23.3   30.3    23    1    100.0    1 
 5/12/06  8:45p   24.1   24.1   24.1    86   21.6   9.7    SE  0.16  20.9    SE   24.1   25.8   25.8  1004.4  0.00   1.0   0.000   0.004   27.2    79   23.2   30.1    22    1     95.7    1 
 5/12/06  8:46p   24.1   24.1   24.1    86   21.6   3.2   ESE  0.05   6.4   ESE   24.1   25.8   25.8  1004.4  0.00   1.0   0.000   0.004   27.2    79   23.2   30.1    22    1     95.7    1 
 5/12/06  8:47p   24.1   24.1   24.1    86   21.6   4.8     E  0.08   9.7     E   24.1   25.8   25.8  1004.4  0.00   1.0   0.000   0.004   27.2    79   23.2   30.1    23    1    100.0    1 
 5/12/06  8:48p   24.1   24.1   24.1    86   21.6  16.1     E  0.27  30.6    SE   22.9   25.8   24.7  1004.4  0.00   1.0   0.000   0.004   27.2    79   23.2   30.1    23    1    100.0    1 
 5/12/06  8:49p   24.1   24.2   24.1    86   21.6   9.7   SSE  0.16  16.1   SSE   24.1   25.8   25.8  1004.4  0.00   1.0   0.000   0.004   27.2    79   23.2   30.1    23    1    100.0    1 
 5/12/06  8:50p   24.2   24.2   24.2    86   21.7   9.7   ESE  0.16  16.1   ESE   24.2   25.9   25.9  1004.4  0.00   1.0   0.000   0.004   27.2    79   23.2   30.1    22    1     95.7    1 
 5/12/06  8:51p   24.2   24.2   24.2    86   21.7   8.0    SE  0.13  14.5    SE   24.2   25.9   25.9  1004.4  0.00   1.0   0.000   0.004   27.2    79   23.2   30.1    23    1    100.0    1 
 5/12/06  8:52p   24.2   24.2   24.2    86   21.7   9.7   ESE  0.16  17.7   ESE   24.2   25.9   25.9  1004.4  0.00   1.0   0.000   0.004   27.2    79   23.2   30.1    23    1    100.0    1 
 5/12/06  8:53p   24.2   24.2   24.2    86   21.7  12.9   ESE  0.21  19.3     E   23.9   25.9   25.7  1004.4  0.00   1.0   0.000   0.004   27.2    79   23.2   30.1    21    1     91.3    1 
 5/12/06  8:54p   24.2   24.2   24.2    86   21.7  14.5    SE  0.24  29.0   ENE   23.4   25.9   25.2  1004.4  0.00   1.0   0.000   0.004   27.1    79   23.1   29.8    23    1    100.0    1 
 5/12/06  8:55p   24.2   24.2   24.2    86   21.7   8.0   ESE  0.13  19.3   ESE   24.2   25.9   25.9  1004.4  0.00   1.0   0.000   0.004   27.1    79   23.1   29.8    22    1     95.7    1 
 5/12/06  8:56p   24.2   24.2   24.2    86   21.7   6.4     E  0.11  20.9   ESE   24.2   25.9   25.9  1004.4  0.00   1.0   0.000   0.004   27.1    80   23.3   29.9    23    1    100.0    1 
 5/12/06  8:57p   24.2   24.2   24.2    86   21.7   8.0     E  0.13  17.7   ESE   24.2   25.9   25.9  1004.4  0.00   0.0   0.000   0.004   27.1    80   23.3   29.9    21    1     91.3    1 
 5/12/06  8:58p   24.2   24.2   24.2    86   21.7   8.0   ESE  0.13  16.1    SE   24.2   25.9   25.9  1004.4  0.00   0.0   0.000   0.004   27.1    80   23.3   29.9    23    1    100.0    1 
 5/12/06  8:59p   24.2   24.2   24.2    86   21.7   8.0   ESE  0.13  12.9     E   24.2   25.9   25.9  1004.4  0.00   0.0   0.000   0.004   27.1    80   23.3   29.9    22    1     95.7    1 
 5/12/06  9:00p   24.2   24.2   24.1    86   21.7   8.0   ESE  0.13  12.9   ESE   24.2   25.9   25.9  1004.6  0.00   0.0   0.000   0.004   27.1    80   23.3   29.9    22    1     95.7    1 
 5/12/06  9:01p   24.1   24.1   24.1    86   21.6   6.4     E  0.11  16.1     E   24.1   25.8   25.8  1004.6  0.00   0.0   0.000   0.004   27.1    80   23.3   29.9    23    1    100.0    1 
 5/12/06  9:02p   24.1   24.1   24.1    86   21.6  11.3   ESE  0.19  25.7   ESE   24.1   25.8   25.8  1004.6  0.00   0.0   0.000   0.004   26.9    80   23.2   29.7    22    1     95.7    1 
 5/12/06  9:03p   24.1   24.1   24.1    86   21.6  11.3   ESE  0.19  20.9   ESE   24.1   25.8   25.8  1004.6  0.00   0.0   0.000   0.004   26.9    80   23.2   29.7    22    1     95.7    1 
 5/12/06  9:04p   24.1   24.1   24.1    86   21.6   6.4    SE  0.11  12.9     S   24.1   25.8   25.8  1004.6  0.00   0.0   0.000   0.004   26.9    80   23.2   29.7    22    1     95.7    1 
 5/12/06  9:05p   24.1   24.1   24.1    86   21.6  11.3    SE  0.19  25.7     E   24.1   25.8   25.8  1004.6  0.00   0.0   0.000   0.004   26.9    81   23.4   29.8    22    1     95.7    1 
 5/12/06  9:06p   24.1   24.1   24.1    86   21.6   9.7   ESE  0.16  16.1   SSE   24.1   25.8   25.8  1004.6  0.00   0.0   0.000   0.004   26.9    80   23.2   29.7    22    1     95.7    1 
 5/12/06  9:07p   24.1   24.1   24.1    86   21.6  12.9    SE  0.21  19.3     E   23.8   25.8   25.5  1004.6  0.00   0.0   0.000   0.004   26.9    80   23.2   29.7    23    1    100.0    1 
 5/12/06  9:08p   24.1   24.1   24.1    86   21.6   9.7   ESE  0.16  17.7   SSE   24.1   25.8   25.8  1004.6  0.00   0.0   0.000   0.004   26.9    80   23.2   29.7    23    1    100.0    1 
 5/12/06  9:09p   24.1   24.1   24.1    86   21.6   6.4    SE  0.11  11.3     E   24.1   25.8   25.8  1004.6  0.00   0.0   0.000   0.004   26.9    80   23.2   29.7    23    1    100.0    1 
 5/12/06  9:10p   24.1   24.1   24.1    86   21.6   8.0   SSE  0.13  16.1     E   24.1   25.8   25.8  1004.6  0.00   0.0   0.000   0.004   26.9    80   23.2   29.7    21    1     91.3    1 
 5/12/06  9:11p   24.1   24.1   24.1    86   21.6   6.4     S  0.11  20.9   ENE   24.1   25.8   25.8  1004.6  0.00   0.0   0.000   0.004   26.9    80   23.2   29.7    22    1     95.7    1 
 5/12/06  9:12p   24.1   24.1   24.1    86   21.6   3.2   ESE  0.05   8.0   ESE   24.1   25.8   25.8  1004.6  0.00   0.0   0.000   0.004   26.9    80   23.1   29.6    23    1    100.0    1 
 5/12/06  9:13p   24.1   24.1   24.1    86   21.6   8.0   ESE  0.13  12.9     S   24.1   25.8   25.8  1004.6  0.00   0.0   0.000   0.004   26.9    80   23.1   29.6    23    1    100.0    1 
 5/12/06  9:14p   24.1   24.1   24.1    86   21.6  12.9   ESE  0.21  19.3     E   23.8   25.8   25.5  1004.6  0.00   0.0   0.000   0.004   26.9    80   23.1   29.6    23    1    100.0    1 
 5/12/06  9:15p   24.1   24.1   24.1    86   21.6   8.0   ESE  0.13  19.3   ENE   24.1   25.8   25.8  1004.8  0.00   0.0   0.000   0.004   26.9    80   23.1   29.6    22    1     95.7    1 
 5/12/06  9:16p   24.1   24.1   24.1    86   21.6   4.8    SE  0.08  12.9     E   24.1   25.8   25.8  1004.8  0.00   0.0   0.000   0.004   26.9    80   23.1   29.6    23    1    100.0    1 
 5/12/06  9:17p   24.1   24.1   24.1    86   21.6   4.8   SSE  0.08  11.3   SSE   24.1   25.8   25.8  1004.8  0.00   0.0   0.000   0.004   26.9    80   23.1   29.6    23    1    100.0    1 
 5/12/06  9:18p   24.1   24.1   24.1    86   21.6   8.0     S  0.13  17.7   ESE   24.1   25.8   25.8  1004.8  0.00   0.0   0.000   0.004   26.8    80   23.0   29.4    23    1    100.0    1 
 5/12/06  9:19p   24.1   24.1   24.1    86   21.6   8.0   SSE  0.13  12.9   ESE   24.1   25.8   25.8  1004.8  0.00   0.0   0.000   0.004   26.8    80   23.0   29.4    23    1    100.0    1 
 5/12/06  9:20p   24.1   24.1   24.1    86   21.6  14.5     E  0.24  29.0    SE   23.3   25.8   25.1  1004.8  0.00   0.0   0.000   0.004   26.8    80   23.0   29.4    22    1     95.7    1 
 5/12/06  9:21p   24.1   24.1   24.1    86   21.6   4.8   ESE  0.08  12.9     E   24.1   25.8   25.8  1004.8  0.00   0.0   0.000   0.004   26.7    80   22.9   29.2    23    1    100.0    1 
 5/12/06  9:22p   24.1   24.1   24.1    86   21.6   9.7     E  0.16  25.7   ESE   24.1   25.8   25.8  1004.8  0.00   0.0   0.000   0.004   26.7    80   22.9   29.2    23    1    100.0    1 
 5/12/06  9:23p   24.1   24.1   24.1    86   21.6  11.3   SSE  0.19  20.9     E   24.1   25.8   25.8  1004.8  0.00   0.0   0.000   0.004   26.7    80   22.9   29.2    23    1    100.0    1 
 5/12/06  9:24p   24.1   24.1   24.1    86   21.6   9.7   ESE  0.16  20.9   ESE   24.1   25.8   25.8  1004.8  0.00   0.0   0.000   0.004   26.6    80   22.8   29.0    23    1    100.0    1 
 5/12/06  9:25p   24.1   24.1   24.1    86   21.6   8.0    SE  0.13  19.3   WSW   24.1   25.8   25.8  1004.8  0.00   0.0   0.000   0.004   26.6    81   23.0   29.1    22    1     95.7    1 
 5/12/06  9:26p   24.1   24.1   24.1    86   21.6   8.0    SE  0.13  16.1   ESE   24.1   25.8   25.8  1004.8  0.00   0.0   0.000   0.004   26.6    81   23.0   29.1    23    1    100.0    1 
 5/12/06  9:27p   24.1   24.1   24.1    85   21.4   6.4     E  0.11  16.1   ESE   24.1   25.8   25.8  1004.8  0.00   0.0   0.000   0.004   26.4    81   22.9   28.9    23    1    100.0    1 
 5/12/06  9:28p   24.1   24.1   24.1    85   21.4   9.7   ESE  0.16  17.7     S   24.1   25.8   25.8  1004.8  0.00   0.0   0.000   0.004   26.4    81   22.9   28.9    23    1    100.0    1 
 5/12/06  9:29p   24.1   24.1   24.1    85   21.4  11.3    SE  0.19  19.3    SE   24.1   25.8   25.8  1004.8  0.00   0.0   0.000   0.004   26.4    81   22.9   28.9    23    1    100.0    1 
 5/12/06  9:30p   24.1   24.1   24.1    85   21.4   8.0   ESE  0.13  16.1    SE   24.1   25.8   25.8  1004.9  0.00   0.0   0.000   0.004   26.3    81   22.8   28.7    22    1     95.7    1 
 5/12/06  9:31p   24.1   24.1   24.1    85   21.4  11.3    SE  0.19  22.5   ESE   24.1   25.8   25.8  1004.9  0.00   0.0   0.000   0.004   26.3    81   22.8   28.7    23    1    100.0    1 
 5/12/06  9:32p   24.1   24.1   24.1    85   21.4   9.7   SSE  0.16  19.3   ESE   24.1   25.8   25.8  1004.9  0.00   0.0   0.000   0.004   26.3    81   22.8   28.7    23    1    100.0    1 
 5/12/06  9:33p   24.1   24.1   24.1    85   21.4   8.0    SE  0.13  14.5     E   24.1   25.8   25.8  1004.9  0.00   0.0   0.000   0.004   26.3    81   22.8   28.7    23    1    100.0    1 
 5/12/06  9:34p   24.1   24.1   24.1    85   21.4  11.3   ESE  0.19  19.3    SE   24.1   25.8   25.8  1004.9  0.00   0.0   0.000   0.004   26.3    81   22.8   28.7    23    1    100.0    1 
 5/12/06  9:35p   24.1   24.1   24.1    85   21.4  11.3   ESE  0.19  16.1    SE   24.1   25.8   25.8  1004.9  0.00   0.0   0.000   0.004   26.2    81   22.7   28.5    22    1     95.7    1 
 5/12/06  9:36p   24.1   24.1   24.1    85   21.4   9.7     E  0.16  16.1    SE   24.1   25.8   25.8  1004.9  0.00   0.0   0.000   0.004   26.2    81   22.7   28.5    23    1    100.0    1 
 5/12/06  9:37p   24.1   24.1   24.1    85   21.4   8.0     E  0.13  22.5     E   24.1   25.8   25.8  1004.9  0.00   0.0   0.000   0.004   26.2    81   22.7   28.5    23    1    100.0    1 
 5/12/06  9:38p   24.1   24.1   24.1    85   21.4   3.2   ESE  0.05  20.9   ESE   24.1   25.8   25.8  1004.9  0.00   0.0   0.000   0.004   26.2    82   22.9   28.6    23    1    100.0    1 
 5/12/06  9:39p   24.1   24.1   24.1    85   21.4  12.9    SE  0.21  20.9     E   23.8   25.8   25.5  1004.9  0.00   0.0   0.000   0.004   26.2    82   22.9   28.6    23    1    100.0    1 
 5/12/06  9:40p   24.0   24.1   24.0    85   21.3   6.4   SSE  0.11  11.3   ESE   24.0   25.7   25.7  1004.9  0.25   0.0   0.000   0.004   26.2    82   22.9   28.6    22    1     95.7    1 
 5/12/06  9:41p   24.0   24.0   24.0    85   21.3  11.3     E  0.19  22.5    SE   24.0   25.7   25.7  1004.9  0.00   0.0   0.000   0.004   26.2    82   22.8   28.5    23    1    100.0    1 
 5/12/06  9:42p   24.0   24.0   24.0    85   21.3   9.7   ESE  0.16  19.3   ESE   24.0   25.7   25.7  1004.9  0.00   0.0   0.000   0.004   26.2    82   22.8   28.5    23    1    100.0    1 
 5/12/06  9:43p   24.0   24.0   24.0    85   21.3  11.3   ESE  0.19  19.3   ESE   24.0   25.7   25.7  1004.9  0.00   0.0   0.000   0.004   26.2    82   22.8   28.5    23    1    100.0    1 
 5/12/06  9:44p   24.0   24.0   24.0    85   21.3   9.7   ESE  0.16  17.7   ESE   24.0   25.7   25.7  1004.9  0.00   0.0   0.000   0.004   26.2    82   22.8   28.5    23    1    100.0    1 
 5/12/06  9:45p   24.0   24.0   24.0    85   21.3   8.0   SSE  0.13  17.7     E   24.0   25.7   25.7  1005.1  0.00   0.0   0.000   0.004   26.2    82   22.8   28.5    22    1     95.7    1 
 5/12/06  9:46p   24.0   24.0   24.0    85   21.3  11.3   SSE  0.19  22.5     S   24.0   25.7   25.7  1005.1  0.00   0.0   0.000   0.004   26.2    82   22.8   28.5    23    1    100.0    1 
 5/12/06  9:47p   24.0   24.0   24.0    85   21.3   9.7     S  0.16  17.7     S   24.0   25.7   25.7  1005.1  0.00   0.0   0.000   0.004   26.1    82   22.7   28.3    23    1    100.0    1 
 5/12/06  9:48p   24.0   24.0   24.0    86   21.5   9.7    SE  0.16  19.3     E   24.0   25.7   25.7  1005.1  0.00   0.0   0.000   0.004   26.1    82   22.7   28.3    23    1    100.0    1 
 5/12/06  9:49p   24.0   24.0   24.0    86   21.5   9.7   SSE  0.16  20.9     S   24.0   25.7   25.7  1005.1  0.00   0.0   0.000   0.004   26.1    82   22.7   28.3    23    1    100.0    1 
 5/12/06  9:50p   24.0   24.0   24.0    86   21.5   9.7     E  0.16  27.4   SSE   24.0   25.7   25.7  1005.1  0.00   0.0   0.000   0.004   26.1    82   22.7   28.3    22    1     95.7    1 
 5/12/06  9:51p   24.0   24.0   24.0    85   21.3   9.7     E  0.16  19.3   SSW   24.0   25.7   25.7  1005.1  0.00   0.0   0.000   0.004   26.1    82   22.7   28.3    23    1    100.0    1 
 5/12/06  9:52p   24.0   24.0   24.0    85   21.3   9.7     E  0.16  20.9     S   24.0   25.7   25.7  1005.1  0.00   0.0   0.000   0.004   26.1    82   22.7   28.3    23    1    100.0    1 
 5/12/06  9:53p   24.0   24.0   24.0    85   21.3  12.9    SE  0.21  27.4     E   23.7   25.7   25.4  1005.1  0.00   0.0   0.000   0.004   26.1    82   22.7   28.3    23    1    100.0    1 
 5/12/06  9:54p   24.0   24.0   24.0    85   21.3   9.7   ESE  0.16  19.3     E   24.0   25.7   25.7  1005.1  0.00   0.0   0.000   0.004   25.9    82   22.6   28.2    23    1    100.0    1 
 5/12/06  9:55p   24.0   24.0   24.0    85   21.3  11.3    SE  0.19  27.4    SE   24.0   25.7   25.7  1005.1  0.00   0.0   0.000   0.004   25.9    82   22.6   28.2    22    1     95.7    1 
 5/12/06  9:56p   24.0   24.0   24.0    85   21.3   9.7    SE  0.16  20.9     S   24.0   25.7   25.7  1005.1  0.00   0.0   0.000   0.004   25.9    82   22.6   28.2    23    1    100.0    1 
 5/12/06  9:57p   24.0   24.0   24.0    84   21.1  12.9   ESE  0.21  29.0   WSW   23.7   25.6   25.3  1005.1  0.00   0.0   0.000   0.004   25.9    83   22.8   28.3    23    1    100.0    1 
 5/12/06  9:58p   24.1   24.1   24.0    84   21.2  14.5     E  0.24  30.6    SE   23.3   25.7   25.0  1005.1  0.00   0.0   0.000   0.004   25.9    82   22.6   28.2    23    1    100.0    1 
 5/12/06  9:59p   24.1   24.1   24.1    84   21.2  12.9   ESE  0.21  27.4    SE   23.8   25.7   25.4  1005.1  0.00   0.0   0.000   0.004   25.9    82   22.6   28.2    23    1    100.0    1 
 5/12/06 10:00p   24.1   24.1   24.1    84   21.2  16.1   ESE  0.27  22.5     E   22.9   25.7   24.6  1005.2  0.00   0.0   0.000   0.004   25.9    82   22.6   28.2    22    1     95.7    1 
 5/12/06 10:01p   24.1   24.2   24.1    83   21.0   9.7   ESE  0.16  22.5   ESE   24.1   25.7   25.7  1005.2  0.00   0.0   0.000   0.004   25.9    82   22.6   28.2    23    1    100.0    1 
 5/12/06 10:02p   24.2   24.2   24.2    83   21.1  14.5    SE  0.24  24.1    SE   23.4   25.8   25.1  1005.2  0.00   0.0   0.000   0.004   25.8    83   22.7   28.1    23    1    100.0    1 
 5/12/06 10:03p   24.2   24.2   24.2    83   21.1   8.0   ESE  0.13  12.9    SE   24.2   25.8   25.8  1005.2  0.25   0.0   0.000   0.004   25.8    83   22.7   28.1    23    1    100.0    1 
 5/12/06 10:04p   24.3   24.3   24.3    83   21.2  12.9    SE  0.21  29.0   ESE   24.0   25.9   25.7  1005.2  0.00   0.0   0.000   0.004   25.8    83   22.7   28.1    23    1    100.0    1 
 5/12/06 10:05p   24.3   24.3   24.3    83   21.2  11.3   SSE  0.19  20.9   SSW   24.3   25.9   25.9  1005.2  0.00   0.0   0.000   0.004   25.8    83   22.7   28.1    22    1     95.7    1 
 5/12/06 10:06p   24.3   24.3   24.3    82   21.0  14.5   ESE  0.24  32.2   ESE   23.6   25.9   25.2  1005.2  0.00   0.0   0.000   0.004   25.8    83   22.7   28.1    23    1    100.0    1 
 5/12/06 10:07p   24.3   24.4   24.3    82   21.1  11.3    SE  0.19  30.6    SE   24.3   26.0   26.0  1005.2  0.00   0.0   0.000   0.004   25.8    82   22.5   28.0    23    1    100.0    1 
 5/12/06 10:08p   24.4   24.4   24.4    82   21.1   9.7    SE  0.16  17.7   ESE   24.4   26.1   26.1  1005.2  0.00   0.0   0.000   0.004   25.8    82   22.5   28.0    23    1    100.0    1 
 5/12/06 10:09p   24.4   24.4   24.4    82   21.1   9.7     E  0.16  20.9    SE   24.4   26.1   26.1  1005.2  0.00   0.0   0.000   0.004   25.8    82   22.5   28.0    23    1    100.0    1 
 5/12/06 10:10p   24.4   24.4   24.4    81   20.9   6.4   SSE  0.11  11.3   ENE   24.4   26.0   26.0  1005.2  0.00   0.0   0.000   0.004   25.8    82   22.5   28.0    22    1     95.7    1 
 5/12/06 10:11p   24.4   24.4   24.4    81   20.9  17.7   ESE  0.30  32.2     E   23.1   26.0   24.7  1005.2  0.00   0.0   0.000   0.004   25.8    82   22.5   28.0    23    1    100.0    1 
 5/12/06 10:12p   24.4   24.4   24.4    81   21.0   9.7    SE  0.16  17.7   WSW   24.4   26.1   26.1  1005.2  0.00   0.0   0.000   0.004   25.8    82   22.5   28.0    23    1    100.0    1 
 5/12/06 10:13p   24.4   24.4   24.4    81   21.0   8.0    SE  0.13  12.9   SSW   24.4   26.1   26.1  1005.2  0.00   0.0   0.000   0.004   25.7    82   22.4   27.8    23    1    100.0    1 
 5/12/06 10:14p   24.4   24.4   24.4    81   21.0  11.3   ESE  0.19  25.7    SE   24.4   26.1   26.1  1005.2  0.00   0.0   0.000   0.004   25.7    82   22.4   27.8    23    1    100.0    1 
 5/12/06 10:15p   24.4   24.4   24.4    81   21.0  16.1    SE  0.27  30.6   ESE   23.4   26.1   25.1  1005.0  0.00   0.0   0.000   0.004   25.7    82   22.4   27.8    22    1     95.7    1 
 5/12/06 10:16p   24.5   24.6   24.4    80   20.8  11.3   ESE  0.19  24.1   ESE   24.5   26.1   26.1  1005.0  0.00   0.0   0.000   0.004   25.7    82   22.4   27.8    23    1    100.0    1 
 5/12/06 10:17p   24.6   24.6   24.6    80   20.9  11.3   ESE  0.19  19.3   ENE   24.6   26.2   26.2  1005.0  0.00   0.0   0.000   0.004   25.7    82   22.4   27.8    23    1    100.0    1 
 5/12/06 10:18p   24.6   24.6   24.6    80   20.9  12.9   ESE  0.21  25.7     S   24.3   26.2   25.9  1005.0  0.00   0.0   0.000   0.004   25.7    82   22.4   27.8    23    1    100.0    1 
 5/12/06 10:19p   24.6   24.6   24.6    80   20.9  16.1    SE  0.27  25.7   ESE   23.5   26.2   25.1  1005.0  0.00   0.0   0.000   0.004   25.7    82   22.4   27.8    23    1    100.0    1 
 5/12/06 10:20p   24.6   24.7   24.6    80   20.9  12.9     S  0.21  19.3   ESE   24.3   26.2   25.9  1005.0  0.00   0.0   0.000   0.004   25.7    82   22.4   27.8    22    1     95.7    1 
 5/12/06 10:21p   24.7   24.7   24.7    80   21.0  17.7   ESE  0.30  32.2    SE   23.4   26.3   25.0  1005.0  0.00   0.0   0.000   0.004   25.7    82   22.4   27.8    23    1    100.0    1 
 5/12/06 10:22p   24.7   24.7   24.7    80   21.0  11.3   SSE  0.19  19.3   ESE   24.7   26.3   26.3  1005.0  0.00   0.0   0.000   0.004   25.7    82   22.4   27.8    23    1    100.0    1 
 5/12/06 10:23p   24.7   24.7   24.7    80   21.0  16.1   ESE  0.27  25.7     E   23.6   26.3   25.2  1005.0  0.00   0.0   0.000   0.004   25.7    82   22.4   27.8    23    1    100.0    1 
 5/12/06 10:24p   24.7   24.7   24.7    80   21.0  12.9    SE  0.21  20.9     E   24.4   26.3   26.0  1005.0  0.00   0.0   0.000   0.004   25.7    82   22.4   27.8    23    1    100.0    1 
 5/12/06 10:25p   24.7   24.7   24.7    80   21.0   9.7   ESE  0.16  17.7    SE   24.7   26.3   26.3  1005.0  0.00   0.0   0.000   0.004   25.7    82   22.4   27.8    22    1     95.7    1 
 5/12/06 10:26p   24.7   24.7   24.7    80   21.0  11.3   ESE  0.19  25.7   ESE   24.7   26.3   26.3  1005.0  0.00   0.0   0.000   0.004   25.7    82   22.4   27.8    23    1    100.0    1 
 5/12/06 10:27p   24.7   24.7   24.7    80   21.0   9.7     S  0.16  22.5     E   24.7   26.3   26.3  1005.0  0.00   0.0   0.000   0.004   25.6    82   22.3   27.7    23    1    100.0    1 
 5/12/06 10:28p   24.7   24.7   24.7    80   21.0  11.3    SE  0.19  25.7     S   24.7   26.3   26.3  1005.0  0.00   0.0   0.000   0.004   25.6    82   22.3   27.7    23    1    100.0    1 
 5/12/06 10:29p   24.7   24.7   24.7    80   21.0   9.7    SE  0.16  19.3   SSW   24.7   26.3   26.3  1005.0  0.00   0.0   0.000   0.004   25.6    82   22.3   27.7    23    1    100.0    1 
 5/12/06 10:30p   24.7   24.7   24.7    80   21.0   6.4   SSE  0.11  16.1   SSE   24.7   26.3   26.3  1005.5  0.00   0.0   0.000   0.004   25.6    82   22.3   27.7    22    1     95.7    1 
 5/12/06 10:31p   24.6   24.7   24.6    80   20.9  14.5   SSE  0.24  30.6    SE   23.8   26.2   25.4  1005.5  0.00   0.0   0.000   0.004   25.6    82   22.3   27.7    23    1    100.0    1 
 5/12/06 10:32p   24.6   24.6   24.6    80   20.9  12.9    SE  0.21  22.5   ESE   24.3   26.2   25.9  1005.5  0.00   0.0   0.000   0.004   25.6    82   22.3   27.7    23    1    100.0    1 
 5/12/06 10:33p   24.6   24.7   24.6    80   20.9  12.9   ESE  0.21  20.9   ESE   24.3   26.2   25.9  1005.5  0.00   0.0   0.000   0.004   25.6    82   22.3   27.7    23    1    100.0    1 
 5/12/06 10:34p   24.7   24.7   24.7    80   21.0  16.1    SE  0.27  22.5   ESE   23.6   26.3   25.2  1005.5  0.00   0.0   0.000   0.004   25.6    82   22.3   27.7    23    1    100.0    1 
 5/12/06 10:35p   24.7   24.7   24.7    80   21.0  12.9    SE  0.21  32.2    SE   24.4   26.3   26.0  1005.5  0.00   0.0   0.000   0.004   25.6    83   22.5   27.8    22    1     95.7    1 
 5/12/06 10:36p   24.7   24.7   24.7    80   21.0   9.7    SE  0.16  20.9    SE   24.7   26.3   26.3  1005.5  0.25   0.0   0.000   0.004   25.6    82   22.3   27.7    23    1    100.0    1 
 5/12/06 10:37p   24.7   24.8   24.7    79   20.8  11.3   ESE  0.19  20.9   SSE   24.7   26.3   26.3  1005.5  0.00   0.0   0.000   0.004   25.6    82   22.3   27.7    23    1    100.0    1 
 5/12/06 10:38p   24.8   24.8   24.8    80   21.1   8.0   SSE  0.13  12.9   SSE   24.8   26.4   26.4  1005.5  0.00   0.0   0.000   0.004   25.6    82   22.3   27.7    22    1     95.7    1 
 5/12/06 10:39p   24.8   24.8   24.8    80   21.1   9.7    SE  0.16  16.1     S   24.8   26.4   26.4  1005.5  0.00   0.0   0.000   0.004   25.6    82   22.3   27.7    23    1    100.0    1 
 5/12/06 10:40p   24.8   24.8   24.8    80   21.1  16.1    SE  0.27  33.8    SE   23.7   26.4   25.4  1005.5  0.00   0.0   0.000   0.004   25.6    82   22.3   27.7    22    1     95.7    1 
 5/12/06 10:41p   24.8   24.8   24.8    79   20.9   6.4   SSE  0.11  11.3    SE   24.8   26.4   26.4  1005.5  0.00   0.0   0.000   0.004   25.6    82   22.3   27.7    23    1    100.0    1 
 5/12/06 10:42p   24.8   24.8   24.8    80   21.1  11.3     S  0.19  32.2   SSE   24.8   26.4   26.4  1005.5  0.00   0.0   0.000   0.004   25.6    82   22.3   27.7    23    1    100.0    1 
 5/12/06 10:43p   24.8   24.8   24.8    80   21.1   9.7   ESE  0.16  22.5   SSE   24.8   26.4   26.4  1005.5  0.00   0.0   0.000   0.004   25.6    82   22.3   27.7    23    1    100.0    1 
 5/12/06 10:44p   24.8   24.8   24.8    80   21.1  11.3   ESE  0.19  17.7     E   24.8   26.4   26.4  1005.5  0.00   0.0   0.000   0.004   25.5    82   22.2   27.5    23    1    100.0    1 
 5/12/06 10:45p   24.7   24.8   24.7    80   21.0   9.7   ESE  0.16  17.7     E   24.7   26.4   26.4  1005.7  0.00   0.0   0.000   0.004   25.5    82   22.2   27.5    22    1     95.7    1 
 5/12/06 10:46p   24.7   24.7   24.7    80   21.0   9.7     E  0.16  17.7    SE   24.7   26.3   26.3  1005.7  0.00   0.0   0.000   0.004   25.5    82   22.2   27.5    23    1    100.0    1 
 5/12/06 10:47p   24.7   24.7   24.7    80   21.0   8.0   ESE  0.13  19.3   SSE   24.7   26.3   26.3  1005.7  0.00   0.0   0.000   0.004   25.5    82   22.2   27.5    23    1    100.0    1 
 5/12/06 10:48p   24.7   24.7   24.7    80   21.0   6.4    SE  0.11  17.7   ESE   24.7   26.3   26.3  1005.7  0.00   0.0   0.000   0.004   25.5    82   22.2   27.5    23    1    100.0    1 
 5/12/06 10:49p   24.6   24.7   24.6    80   20.9  12.9    SE  0.21  19.3     E   24.3   26.2   25.9  1005.7  0.00   0.0   0.000   0.004   25.5    83   22.4   27.6    23    1    100.0    1 
 5/12/06 10:50p   24.6   24.6   24.6    80   20.9  11.3   ESE  0.19  27.4   ESE   24.6   26.2   26.2  1005.7  0.00   0.0   0.000   0.004   25.5    83   22.4   27.6    22    1     95.7    1 
 5/12/06 10:51p   24.6   24.6   24.6    80   20.9   9.7    SE  0.16  17.7   SSE   24.6   26.2   26.2  1005.7  0.00   0.0   0.000   0.004   25.5    83   22.4   27.6    23    1    100.0    1 
 5/12/06 10:52p   24.6   24.6   24.6    81   21.1   9.7   SSE  0.16  20.9   SSE   24.6   26.2   26.2  1005.7  0.00   0.0   0.000   0.004   25.5    83   22.4   27.6    23    1    100.0    1 
 5/12/06 10:53p   24.6   24.6   24.6    81   21.1  16.1    SE  0.27  20.9    SE   23.5   26.2   25.2  1005.7  0.00   0.0   0.000   0.004   25.5    83   22.4   27.6    23    1    100.0    1 
 5/12/06 10:54p   24.6   24.6   24.6    81   21.1   6.4    SE  0.11  14.5    SE   24.6   26.2   26.2  1005.7  0.00   0.0   0.000   0.004   25.5    83   22.4   27.6    23    1    100.0    1 
 5/12/06 10:55p   24.6   24.6   24.6    81   21.1  12.9   ESE  0.21  25.7    SE   24.3   26.2   25.9  1005.7  0.00   0.0   0.000   0.004   25.5    83   22.4   27.6    22    1     95.7    1 
 5/12/06 10:56p   24.6   24.6   24.6    81   21.1   9.7     E  0.16  16.1   SSW   24.6   26.2   26.2  1005.7  0.25   0.0   0.000   0.004   25.5    83   22.4   27.6    23    1    100.0    1 
 5/12/06 10:57p   24.6   24.6   24.4    81   21.1  12.9   ESE  0.21  20.9    SE   24.3   26.2   25.9  1005.7  0.00   0.0   0.000   0.004   25.5    83   22.4   27.6    23    1    100.0    1 
 5/12/06 10:58p   24.4   24.4   24.4    81   21.0   6.4   ESE  0.11  17.7   SSE   24.4   26.1   26.1  1005.7  0.00   0.0   0.000   0.004   25.5    83   22.4   27.6    23    1    100.0    1 
 5/12/06 10:59p   24.4   24.4   24.4    82   21.2   8.0    SE  0.13  17.7    SE   24.4   26.1   26.1  1005.7  0.00   0.0   0.000   0.004   25.5    83   22.4   27.6    23    1    100.0    1 
 5/12/06 11:00p   24.4   24.4   24.4    82   21.2   8.0   ESE  0.13  14.5   SSW   24.4   26.1   26.1  1005.7  0.00   0.0   0.000   0.004   25.5    83   22.4   27.6    22    1     95.7    1 
 5/12/06 11:01p   24.4   24.4   24.4    82   21.2   9.7   SSE  0.16  20.9     E   24.4   26.1   26.1  1005.7  0.00   0.0   0.000   0.004   25.5    83   22.4   27.6    23    1    100.0    1 
 5/12/06 11:02p   24.4   24.4   24.4    82   21.1   6.4   ESE  0.11  11.3    SE   24.4   26.1   26.1  1005.7  0.00   0.0   0.000   0.004   25.5    83   22.4   27.6    23    1    100.0    1 
 5/12/06 11:03p   24.4   24.4   24.4    83   21.3   9.7    SE  0.16  20.9   SSE   24.4   26.1   26.1  1005.7  0.00   0.0   0.000   0.004   25.5    83   22.4   27.6    23    1    100.0    1 
 5/12/06 11:04p   24.3   24.4   24.3    83   21.2   6.4   SSE  0.11  12.9   SSE   24.3   25.9   25.9  1005.7  0.00   0.0   0.000   0.004   25.5    84   22.6   27.7    23    1    100.0    1 
 5/12/06 11:05p   24.3   24.3   24.3    83   21.2   6.4   ESE  0.11  12.9     S   24.3   25.9   25.9  1005.7  0.00   0.0   0.000   0.004   25.5    84   22.6   27.7    22    1     95.7    1 
 5/12/06 11:06p   24.3   24.3   24.3    83   21.2   8.0   ESE  0.13  16.1   ESE   24.3   25.9   25.9  1005.7  0.00   0.0   0.000   0.004   25.4    84   22.5   27.6    23    1    100.0    1 
 5/12/06 11:07p   24.3   24.3   24.3    83   21.2   9.7    SE  0.16  20.9   ESE   24.3   25.9   25.9  1005.7  0.00   0.0   0.000   0.004   25.4    84   22.5   27.6    23    1    100.0    1 
 5/12/06 11:08p   24.2   24.2   24.2    83   21.1   6.4    SE  0.11  16.1   SSE   24.2   25.8   25.8  1005.7  0.00   0.0   0.000   0.004   25.4    84   22.5   27.6    23    1    100.0    1 
 5/12/06 11:09p   24.2   24.2   24.2    83   21.1  11.3    SE  0.19  22.5    SE   24.2   25.8   25.8  1005.7  0.00   1.3   0.000   0.004   25.4    84   22.5   27.6    23    1    100.0    1 
 5/12/06 11:10p   24.2   24.2   24.2    83   21.1   9.7    SE  0.16  20.9    SE   24.2   25.8   25.8  1005.7  0.00   1.3   0.000   0.004   25.4    84   22.5   27.6    22    1     95.7    1 
 5/12/06 11:11p   24.2   24.2   24.2    83   21.1  12.9     E  0.21  20.9    SE   23.9   25.8   25.5  1005.7  0.00   1.3   0.000   0.004   25.4    84   22.5   27.6    23    1    100.0    1 
 5/12/06 11:12p   24.2   24.2   24.2    83   21.1   9.7     E  0.16  20.9    SE   24.2   25.8   25.8  1005.7  0.00   1.3   0.000   0.004   25.4    84   22.5   27.6    23    1    100.0    1 
 5/12/06 11:13p   24.2   24.2   24.2    84   21.3   6.4   SSE  0.11  11.3     E   24.2   25.8   25.8  1005.7  0.00   1.3   0.000   0.004   25.4    84   22.5   27.6    23    1    100.0    1 
 5/12/06 11:14p   24.2   24.2   24.2    84   21.3   6.4     S  0.11  17.7     E   24.2   25.8   25.8  1005.7  0.00   1.3   0.000   0.004   25.4    84   22.5   27.6    23    1    100.0    1 
 5/12/06 11:15p   24.2   24.2   24.2    84   21.3   9.7    SE  0.16  16.1    SE   24.2   25.8   25.8  1005.8  0.00   1.3   0.000   0.004   25.4    84   22.5   27.6    22    1     95.7    1 
 5/12/06 11:16p   24.1   24.2   24.1    84   21.2   3.2    SE  0.05   9.7   ENE   24.1   25.8   25.8  1005.8  0.00   1.3   0.000   0.004   25.4    84   22.5   27.6    23    1    100.0    1 
 5/12/06 11:17p   24.1   24.1   24.1    84   21.2   8.0    SE  0.13  14.5    NE   24.1   25.7   25.7  1005.8  0.00   1.3   0.000   0.004   25.4    84   22.5   27.6    23    1    100.0    1 
 5/12/06 11:18p   24.1   24.1   24.1    84   21.2   8.0   ESE  0.13  14.5     E   24.1   25.7   25.7  1005.8  0.00   1.3   0.000   0.004   25.4    84   22.5   27.6    23    1    100.0    1 
 5/12/06 11:19p   24.1   24.1   24.1    84   21.2   6.4   ESE  0.11  12.9    SE   24.1   25.7   25.7  1005.8  0.00   1.3   0.000   0.004   25.4    84   22.5   27.6    23    1    100.0    1 
 5/12/06 11:20p   24.1   24.1   24.1    84   21.2   8.0    SE  0.13  12.9   ESE   24.1   25.7   25.7  1005.8  0.00   1.3   0.000   0.004   25.4    84   22.5   27.6    22    1     95.7    1 
 5/12/06 11:21p   24.1   24.1   24.1    84   21.2   8.0   ESE  0.13  17.7   SSE   24.1   25.7   25.7  1005.8  0.00   1.3   0.000   0.004   25.4    84   22.5   27.6    23    1    100.0    1 
 5/12/06 11:22p   24.1   24.1   24.1    84   21.2   9.7   ESE  0.16  19.3    SE   24.1   25.7   25.7  1005.8  0.00   1.0   0.000   0.004   25.4    84   22.5   27.6    23    1    100.0    1 
 5/12/06 11:23p   24.1   24.1   24.1    84   21.2   6.4    SE  0.11  11.3    SE   24.1   25.7   25.7  1005.8  0.00   1.0   0.000   0.004   25.4    84   22.5   27.6    23    1    100.0    1 
 5/12/06 11:24p   24.1   24.1   24.1    84   21.2   8.0   ESE  0.13  11.3    SE   24.1   25.7   25.7  1005.8  0.00   1.0   0.000   0.004   25.4    84   22.5   27.6    23    1    100.0    1 
 5/12/06 11:25p   24.1   24.1   24.1    84   21.2   9.7    SE  0.16  19.3    SE   24.1   25.7   25.7  1005.8  0.00   1.0   0.000   0.004   25.4    84   22.5   27.6    22    1     95.7    1 
 5/12/06 11:26p   24.1   24.1   24.1    84   21.2   9.7   SSE  0.16  20.9   ESE   24.1   25.7   25.7  1005.8  0.00   0.0   0.000   0.004   25.4    84   22.5   27.6    23    1    100.0    1 
 5/12/06 11:27p   24.1   24.1   24.1    84   21.2   9.7    SE  0.16  19.3    SW   24.1   25.7   25.7  1005.8  0.00   0.0   0.000   0.004   25.4    85   22.7   27.7    23    1    100.0    1 
 5/12/06 11:28p   24.1   24.1   24.1    84   21.2   6.4     E  0.11  19.3    SE   24.1   25.7   25.7  1005.8  0.00   0.0   0.000   0.004   25.4    85   22.7   27.7    23    1    100.0    1 
 5/12/06 11:29p   24.1   24.1   24.1    85   21.4   6.4    SE  0.11  12.9     S   24.1   25.8   25.8  1005.8  0.00   0.0   0.000   0.004   25.3    85   22.6   27.5    23    1    100.0    1 
 5/12/06 11:30p   24.1   24.1   24.1    85   21.4  11.3     S  0.19  19.3     S   24.1   25.8   25.8  1005.6  0.00   0.0   0.000   0.004   25.3    85   22.6   27.5    22    1     95.7    1 
 5/12/06 11:31p   24.1   24.1   24.1    85   21.4   6.4     S  0.11  16.1     S   24.1   25.8   25.8  1005.6  0.00   0.0   0.000   0.004   25.3    85   22.6   27.5    23    1    100.0    1 
 5/12/06 11:32p   24.1   24.1   24.1    85   21.4   8.0    SE  0.13  12.9   ESE   24.1   25.8   25.8  1005.6  0.25   0.0   0.000   0.004   25.3    85   22.6   27.5    23    1    100.0    1 
 5/12/06 11:33p   24.1   24.1   24.1    85   21.4   8.0   ESE  0.13  19.3    SE   24.1   25.8   25.8  1005.6  0.00   0.0   0.000   0.004   25.3    85   22.6   27.5    23    1    100.0    1 
 5/12/06 11:34p   24.1   24.1   24.1    85   21.4   8.0    SE  0.13  11.3   SSE   24.1   25.8   25.8  1005.6  0.00   0.0   0.000   0.004   25.3    85   22.6   27.5    23    1    100.0    1 
 5/12/06 11:35p   24.1   24.1   24.1    85   21.4   4.8   SSE  0.08  12.9     E   24.1   25.8   25.8  1005.6  0.00   0.0   0.000   0.004   25.3    85   22.6   27.5    22    1     95.7    1 
 5/12/06 11:36p   24.0   24.0   24.0    85   21.3   9.7    SE  0.16  16.1   SSW   24.0   25.7   25.7  1005.6  0.00   0.0   0.000   0.004   25.3    85   22.6   27.5    23    1    100.0    1 
 5/12/06 11:37p   24.0   24.0   24.0    85   21.3   9.7   SSE  0.16  16.1   ESE   24.0   25.7   25.7  1005.6  0.00   0.0   0.000   0.004   25.3    85   22.6   27.5    23    1    100.0    1 
 5/12/06 11:38p   24.0   24.0   24.0    85   21.3   9.7    SE  0.16  22.5     S   24.0   25.7   25.7  1005.6  0.00   0.0   0.000   0.004   25.3    85   22.6   27.5    23    1    100.0    1 
 5/12/06 11:39p   24.0   24.0   24.0    85   21.3   9.7    SE  0.16  19.3    SE   24.0   25.7   25.7  1005.6  0.00   0.0   0.000   0.004   25.3    85   22.6   27.5    23    1    100.0    1 
 5/12/06 11:40p   24.0   24.0   24.0    86   21.5   3.2    SE  0.05   6.4    SE   24.0   25.7   25.7  1005.6  0.00   0.0   0.000   0.004   25.3    85   22.6   27.5    22    1     95.7    1 
 5/12/06 11:41p   24.0   24.0   24.0    86   21.5   6.4     S  0.11  14.5   SSE   24.0   25.7   25.7  1005.6  0.00   0.0   0.000   0.004   25.3    85   22.6   27.5    23    1    100.0    1 
 5/12/06 11:42p   24.0   24.0   24.0    86   21.5   6.4   SSE  0.11  12.9   SSE   24.0   25.7   25.7  1005.6  0.00   0.0   0.000   0.004   25.3    85   22.6   27.5    23    1    100.0    1 
 5/12/06 11:43p   24.0   24.0   24.0    86   21.5   9.7   SSE  0.16  20.9     E   24.0   25.7   25.7  1005.6  0.00   0.0   0.000   0.004   25.3    85   22.6   27.5    23    1    100.0    1 
 5/12/06 11:44p   24.0   24.0   24.0    86   21.5   6.4     E  0.11  11.3    SE   24.0   25.7   25.7  1005.6  0.00   0.0   0.000   0.004   25.3    85   22.6   27.5    23    1    100.0    1 
 5/12/06 11:45p   24.0   24.0   24.0    86   21.5   3.2     S  0.05   9.7    SE   24.0   25.7   25.7  1005.5  0.00   0.0   0.000   0.004   25.3    85   22.6   27.5    22    1     95.7    1 
 5/12/06 11:46p   24.0   24.0   24.0    86   21.5   4.8     S  0.08  11.3     S   24.0   25.7   25.7  1005.5  0.00   0.0   0.000   0.004   25.3    85   22.6   27.5    23    1    100.0    1 
 5/12/06 11:47p   24.0   24.0   24.0    86   21.5   9.7   SSE  0.16  16.1     S   24.0   25.7   25.7  1005.5  0.00   0.0   0.000   0.004   25.3    85   22.6   27.5    23    1    100.0    1 
 5/12/06 11:48p   24.0   24.0   24.0    86   21.5   9.7   ESE  0.16  19.3    SE   24.0   25.7   25.7  1005.5  0.25   1.0   0.000   0.004   25.3    86   22.8   27.6    23    1    100.0    1 
 5/12/06 11:49p   24.0   24.0   24.0    86   21.5   6.4    SE  0.11  16.1   SSE   24.0   25.7   25.7  1005.5  0.00   1.0   0.000   0.004   25.3    86   22.8   27.6    23    1    100.0    1 
 5/12/06 11:50p   24.0   24.0   24.0    86   21.5   8.0   ESE  0.13  19.3     E   24.0   25.7   25.7  1005.5  0.00   1.0   0.000   0.004   25.3    85   22.6   27.5    21    1     91.3    1 
 5/12/06 11:51p   24.0   24.0   24.0    86   21.5   9.7    SE  0.16  17.7   ESE   24.0   25.7   25.7  1005.5  0.00   1.0   0.000   0.004   25.3    86   22.8   27.6    23    1    100.0    1 
 5/12/06 11:52p   24.0   24.0   24.0    86   21.5   6.4   ESE  0.11  12.9    SE   24.0   25.7   25.7  1005.5  0.00   1.0   0.000   0.004   25.3    86   22.8   27.6    23    1    100.0    1 
 5/12/06 11:53p   24.0   24.0   24.0    86   21.5   9.7     S  0.16  17.7   SSE   24.0   25.7   25.7  1005.5  0.00   1.0   0.000   0.004   25.2    86   22.7   27.4    23    1    100.0    1 
 5/12/06 11:54p   24.0   24.0   24.0    86   21.5  12.9    SE  0.21  17.7   ESE   23.7   25.7   25.4  1005.5  0.00   1.0   0.000   0.004   25.2    86   22.7   27.4    23    1    100.0    1 
 5/12/06 11:55p   24.0   24.0   24.0    86   21.5   9.7   ESE  0.16  19.3   SSE   24.0   25.7   25.7  1005.5  0.00   1.0   0.000   0.004   25.2    86   22.7   27.4    22    1     95.7    1 
 5/12/06 11:56p   24.0   24.0   24.0    86   21.5   9.7    SE  0.16  22.5   SSE   24.0   25.7   25.7  1005.5  0.00   1.0   0.000   0.004   25.2    86   22.7   27.4    23    1    100.0    1 
 5/12/06 11:57p   24.0   24.0   24.0    85   21.3  11.3   ESE  0.19  20.9    SE   24.0   25.7   25.7  1005.5  0.00   1.0   0.000   0.004   25.2    86   22.7   27.4    23    1    100.0    1 
 5/12/06 11:58p   24.1   24.1   24.1    85   21.4   9.7   SSE  0.16  17.7    SE   24.1   25.8   25.8  1005.5  0.00   1.0   0.000   0.004   25.2    86   22.7   27.4    23    1    100.0    1 
 5/12/06 11:59p   24.1   24.1   24.1    85   21.4   9.7    SE  0.16  19.3    SE   24.1   25.8   25.8  1005.5  0.00   1.0   0.000   0.004   25.2    86   22.7   27.4    23    1    100.0    1 
 5/13/06 12:00a   24.1   24.1   24.1    85   21.4   6.4    SE  0.11  16.1     E   24.1   25.8   25.8  1005.5  0.00   1.0   0.000   0.004   25.2    86   22.7   27.4    22    1     95.7    1 
 5/13/06 12:01a   24.1   24.1   24.1    85   21.4   8.0    SE  0.13  12.9     E   24.1   25.8   25.8  1005.5  0.00   1.0   0.000   0.004   25.2    86   22.7   27.4    22    1     95.7    1 
 5/13/06 12:02a   24.1   24.1   24.1    85   21.4   6.4    SE  0.11  12.9   ESE   24.1   25.8   25.8  1005.5  0.00   1.0   0.000   0.004   25.2    86   22.7   27.4    23    1    100.0    1 
 5/13/06 12:03a   24.1   24.1   24.1    85   21.4   8.0   SSE  0.13  12.9    SE   24.1   25.8   25.8  1005.5  0.00   1.0   0.000   0.004   25.2    86   22.7   27.4    23    1    100.0    1 
 5/13/06 12:04a   24.1   24.1   24.1    85   21.4   9.7    SE  0.16  22.5   ESE   24.1   25.8   25.8  1005.5  0.00   1.0   0.000   0.004   25.2    86   22.7   27.4    23    1    100.0    1 
 5/13/06 12:05a   24.1   24.2   24.1    84   21.2  11.3    SE  0.19  16.1     S   24.1   25.8   25.8  1005.5  0.00   0.0   0.000   0.004   25.2    86   22.7   27.4    22    1     95.7    1 
 5/13/06 12:06a   24.2   24.2   24.2    84   21.3  14.5    SE  0.24  25.7   ESE   23.4   25.8   25.1  1005.5  0.00   0.0   0.000   0.004   25.2    86   22.7   27.4    23    1    100.0    1 
 5/13/06 12:07a   24.2   24.2   24.2    84   21.3   8.0     S  0.13  16.1   ESE   24.2   25.8   25.8  1005.5  0.00   0.0   0.000   0.004   25.2    86   22.7   27.4    23    1    100.0    1 
 5/13/06 12:08a   24.2   24.3   24.2    84   21.3   8.0    SE  0.13  16.1    SE   24.2   25.9   25.9  1005.5  0.00   0.0   0.000   0.004   25.2    86   22.7   27.4    23    1    100.0    1 
 5/13/06 12:09a   24.3   24.3   24.3    84   21.4  11.3   ESE  0.19  22.5   ESE   24.3   26.0   26.0  1005.5  0.25   0.0   0.000   0.004   25.2    86   22.7   27.4    23    1    100.0    1 
 5/13/06 12:10a   24.3   24.3   24.3    84   21.4   8.0   ESE  0.13  12.9     S   24.3   26.0   26.0  1005.5  0.00   0.0   0.000   0.004   25.2    86   22.7   27.4    22    1     95.7    1 
 5/13/06 12:11a   24.3   24.3   24.3    83   21.2   9.7   ESE  0.16  19.3     E   24.3   25.9   25.9  1005.5  0.00   0.0   0.000   0.004   25.2    86   22.7   27.4    23    1    100.0    1 
 5/13/06 12:12a   24.3   24.3   24.3    83   21.2   8.0   SSE  0.13  17.7   ENE   24.3   25.9   25.9  1005.5  0.00   0.0   0.000   0.004   25.2    86   22.7   27.4    23    1    100.0    1 
 5/13/06 12:13a   24.3   24.3   24.3    83   21.2   9.7    SE  0.16  17.7   ESE   24.3   25.9   25.9  1005.5  0.00   0.0   0.000   0.004   25.2    86   22.7   27.4    23    1    100.0    1 
 5/13/06 12:14a   24.3   24.4   24.3    83   21.2   8.0    SE  0.13  16.1   ESE   24.3   25.9   25.9  1005.5  0.00   0.0   0.000   0.004   25.2    86   22.7   27.4    23    1    100.0    1 
 5/13/06 12:15a   24.4   24.4   24.4    83   21.3   6.4    SE  0.11  11.3   ESE   24.4   26.1   26.1  1005.2  0.00   0.0   0.000   0.004   25.2    86   22.7   27.4    22    1     95.7    1 
 5/13/06 12:16a   24.4   24.4   24.4    83   21.3   9.7   SSW  0.16  25.7   ESE   24.4   26.1   26.1  1005.2  0.00   0.0   0.000   0.004   25.2    86   22.7   27.4    23    1    100.0    1 
 5/13/06 12:17a   24.4   24.4   24.4    83   21.3   9.7   ESE  0.16  17.7   SSE   24.4   26.1   26.1  1005.2  0.00   0.0   0.000   0.004   25.1    86   22.6   27.2    23    1    100.0    1 
 5/13/06 12:18a   24.4   24.4   24.4    83   21.3   9.7   ESE  0.16  19.3   ESE   24.4   26.1   26.1  1005.2  0.00   0.0   0.000   0.004   25.1    86   22.6   27.2    23    1    100.0    1 
 5/13/06 12:19a   24.4   24.4   24.4    83   21.3  11.3     E  0.19  17.7   SSE   24.4   26.1   26.1  1005.2  0.00   0.0   0.000   0.004   25.1    86   22.6   27.2    23    1    100.0    1 
 5/13/06 12:20a   24.4   24.4   24.4    82   21.1   4.8    SE  0.08   9.7     S   24.4   26.1   26.1  1005.2  0.00   0.0   0.000   0.004   25.1    86   22.6   27.2    22    1     95.7    1 
 5/13/06 12:21a   24.4   24.4   24.4    82   21.1  11.3   SSE  0.19  17.7     S   24.4   26.1   26.1  1005.2  0.00   0.0   0.000   0.004   25.1    86   22.6   27.2    22    1     95.7    1 
 5/13/06 12:22a   24.4   24.4   24.4    82   21.1  14.5    SE  0.24  33.8    SE   23.7   26.1   25.3  1005.2  0.00   0.0   0.000   0.004   25.1    86   22.6   27.2    22    1     95.7    1 
 5/13/06 12:23a   24.4   24.4   24.4    82   21.2   9.7   ESE  0.16  22.5    SE   24.4   26.1   26.1  1005.2  0.00   0.0   0.000   0.004   25.1    86   22.6   27.2    23    1    100.0    1 
 5/13/06 12:24a   24.5   24.6   24.4    81   21.0   8.0     S  0.13  17.7    SE   24.5   26.2   26.2  1005.2  0.00   0.0   0.000   0.004   25.1    86   22.6   27.2    23    1    100.0    1 
 5/13/06 12:25a   24.6   24.6   24.6    81   21.1   6.4    SE  0.11   9.7    SE   24.6   26.2   26.2  1005.2  0.00   0.0   0.000   0.004   25.1    86   22.6   27.2    22    1     95.7    1 
 5/13/06 12:26a   24.6   24.6   24.6    81   21.1   9.7   SSE  0.16  22.5    SE   24.6   26.2   26.2  1005.2  0.00   0.0   0.000   0.004   25.1    86   22.6   27.2    23    1    100.0    1 
 5/13/06 12:27a   24.6   24.6   24.6    81   21.1  11.3     S  0.19  27.4   ESE   24.6   26.2   26.2  1005.2  0.00   0.0   0.000   0.004   25.1    86   22.6   27.2    23    1    100.0    1 
 5/13/06 12:28a   24.6   24.6   24.6    81   21.1   8.0   SSE  0.13  12.9   ESE   24.6   26.2   26.2  1005.2  0.00   0.0   0.000   0.004   25.1    86   22.6   27.2    23    1    100.0    1 
 5/13/06 12:29a   24.7   24.7   24.6    80   21.0  14.5     E  0.24  22.5   SSW   23.9   26.3   25.6  1005.2  0.00   0.0   0.000   0.004   25.1    86   22.6   27.2    23    1    100.0    1 
 5/13/06 12:30a   24.7   24.7   24.7    80   21.0  12.9     E  0.21  29.0     E   24.4   26.3   26.0  1005.0  0.00   0.0   0.000   0.004   25.1    86   22.6   27.2    22    1     95.7    1 
 5/13/06 12:31a   24.7   24.8   24.7    80   21.0  12.9    SE  0.21  25.7    SE   24.4   26.4   26.1  1005.0  0.00   0.0   0.000   0.004   25.1    86   22.6   27.2    23    1    100.0    1 
 5/13/06 12:32a   24.8   24.8   24.8    79   20.9  11.3     S  0.19  19.3     E   24.8   26.4   26.4  1005.0  0.00   0.0   0.000   0.004   25.1    86   22.6   27.2    23    1    100.0    1 
 5/13/06 12:33a   24.8   24.8   24.8    79   20.9  11.3   ESE  0.19  17.7   ENE   24.8   26.4   26.4  1005.0  0.00   0.0   0.000   0.005   25.1    86   22.6   27.2    23    1    100.0    1 
 5/13/06 12:34a   24.8   24.8   24.8    78   20.7  11.3   SSE  0.19  20.9    SE   24.8   26.4   26.4  1005.0  0.00   0.0   0.000   0.005   25.1    86   22.6   27.2    23    1    100.0    1 
 5/13/06 12:35a   24.8   24.8   24.8    78   20.7  11.3   ESE  0.19  19.3   ESE   24.8   26.4   26.4  1005.0  0.00   0.0   0.000   0.005   25.1    85   22.4   27.2    22    1     95.7    1 
 5/13/06 12:36a   24.9   24.9   24.9    78   20.8  11.3    SE  0.19  22.5    SE   24.9   26.5   26.5  1005.0  0.00   0.0   0.000   0.005   25.1    85   22.4   27.2    23    1    100.0    1 
 5/13/06 12:37a   24.9   24.9   24.9    78   20.8   8.0   SSE  0.13  16.1   SSE   24.9   26.5   26.5  1005.0  0.00   0.0   0.000   0.005   25.1    85   22.4   27.2    23    1    100.0    1 
 5/13/06 12:38a   24.9   24.9   24.9    78   20.8   8.0   SSE  0.13  12.9   SSE   24.9   26.5   26.5  1005.0  0.00   0.0   0.000   0.005   25.1    85   22.4   27.2    23    1    100.0    1 
 5/13/06 12:39a   24.9   24.9   24.9    78   20.8   9.7    SE  0.16  16.1   SSE   24.9   26.5   26.5  1005.0  0.00   0.0   0.000   0.005   25.1    85   22.4   27.2    23    1    100.0    1 
 5/13/06 12:40a   24.9   24.9   24.9    78   20.8  12.9    SE  0.21  27.4    SE   24.7   26.5   26.2  1005.0  0.00   0.0   0.000   0.005   25.1    85   22.4   27.2    22    1     95.7    1 
 5/13/06 12:41a   24.9   24.9   24.9    78   20.8  11.3     S  0.19  20.9   SSW   24.9   26.5   26.5  1005.0  0.00   0.0   0.000   0.005   25.1    85   22.4   27.2    23    1    100.0    1 
 5/13/06 12:42a   24.9   24.9   24.9    78   20.8  11.3   ESE  0.19  17.7     E   24.9   26.5   26.5  1005.0  0.00   0.0   0.000   0.005   25.1    85   22.4   27.2    23    1    100.0    1 
 5/13/06 12:43a   24.9   24.9   24.8    78   20.8   8.0   ESE  0.13  20.9    SE   24.9   26.4   26.4  1005.0  0.00   0.0   0.000   0.005   25.1    85   22.4   27.2    23    1    100.0    1 
 5/13/06 12:44a   24.8   24.8   24.8    79   20.9   8.0     E  0.13  20.9   SSE   24.8   26.4   26.4  1005.0  0.00   0.0   0.000   0.005   25.1    85   22.4   27.2    23    1    100.0    1 
 5/13/06 12:45a   24.8   24.8   24.8    79   20.9  11.3     S  0.19  19.3   ENE   24.8   26.4   26.4  1004.9  0.00   0.0   0.000   0.005   25.1    85   22.4   27.2    22    1     95.7    1 
 5/13/06 12:46a   24.8   24.8   24.8    79   20.9  11.3    SE  0.19  22.5   SSE   24.8   26.4   26.4  1004.9  0.00   0.0   0.000   0.005   25.1    85   22.4   27.2    23    1    100.0    1 
 5/13/06 12:47a   24.8   24.8   24.8    79   20.9   9.7   SSE  0.16  17.7   SSE   24.8   26.4   26.4  1004.9  0.00   0.0   0.000   0.005   25.1    85   22.4   27.2    23    1    100.0    1 
 5/13/06 12:48a   24.8   24.8   24.8    79   20.9   9.7   ESE  0.16  17.7     S   24.8   26.4   26.4  1004.9  0.00   0.0   0.000   0.004   25.1    85   22.4   27.2    23    1    100.0    1 
 5/13/06 12:49a   24.8   24.8   24.8    79   20.9   8.0     S  0.13  20.9   SSE   24.8   26.4   26.4  1004.9  0.00   0.0   0.000   0.004   25.1    85   22.4   27.2    23    1    100.0    1 
 5/13/06 12:50a   24.8   24.8   24.8    80   21.1   9.7   ESE  0.16  22.5   SSE   24.8   26.4   26.4  1004.9  0.00   0.0   0.000   0.004   25.1    85   22.4   27.2    22    1     95.7    1 
 5/13/06 12:51a   24.7   24.8   24.7    80   21.0   9.7     S  0.16  17.7     E   24.7   26.4   26.4  1004.9  0.00   0.0   0.000   0.004   25.1    85   22.4   27.2    23    1    100.0    1 
 5/13/06 12:52a   24.7   24.7   24.7    80   21.0  12.9    SE  0.21  19.3    SE   24.4   26.3   26.0  1004.9  0.00   0.0   0.000   0.004   25.1    85   22.4   27.2    23    1    100.0    1 
 5/13/06 12:53a   24.7   24.7   24.7    80   21.0   8.0    SE  0.13  12.9     E   24.7   26.3   26.3  1004.9  0.00   0.0   0.000   0.004   25.1    85   22.4   27.2    23    1    100.0    1 
 5/13/06 12:54a   24.7   24.7   24.7    80   21.0   8.0     S  0.13  22.5   ESE   24.7   26.3   26.3  1004.9  0.00   0.0   0.000   0.004   25.1    85   22.4   27.2    23    1    100.0    1 
 5/13/06 12:55a   24.7   24.7   24.7    80   21.0   4.8     S  0.08  16.1   SSE   24.7   26.3   26.3  1004.9  0.00   0.0   0.000   0.004   25.1    85   22.4   27.2    22    1     95.7    1 
 5/13/06 12:56a   24.7   24.7   24.7    80   21.0   8.0   ESE  0.13  16.1     S   24.7   26.3   26.3  1004.9  0.00   0.0   0.000   0.004   25.1    85   22.4   27.2    23    1    100.0    1 
 5/13/06 12:57a   24.7   24.7   24.7    80   21.0  11.3   ESE  0.19  17.7   SSE   24.7   26.3   26.3  1004.9  0.00   0.0   0.000   0.004   25.1    85   22.4   27.2    23    1    100.0    1 
 5/13/06 12:58a   24.7   24.7   24.7    80   21.0   8.0   SSW  0.13  17.7    SE   24.7   26.3   26.3  1004.9  0.00   0.0   0.000   0.004   25.1    85   22.4   27.2    23    1    100.0    1 
 5/13/06 12:59a   24.7   24.7   24.7    80   21.0   9.7   SSE  0.16  20.9    SE   24.7   26.3   26.3  1004.9  0.00   0.0   0.000   0.004   25.1    85   22.4   27.2    23    1    100.0    1 
 5/13/06  1:00a   24.7   24.7   24.7    80   21.0  11.3   SSE  0.19  16.1   ESE   24.7   26.3   26.3  1004.6  0.00   0.0   0.000   0.004   25.1    85   22.4   27.2    22    1     95.7    1 
 5/13/06  1:01a   24.7   24.7   24.7    80   21.0   8.0    SE  0.13  16.1   SSE   24.7   26.3   26.3  1004.6  0.00   0.0   0.000   0.004   25.1    85   22.4   27.2    23    1    100.0    1 
 5/13/06  1:02a   24.7   24.7   24.7    80   21.0   8.0   SSE  0.13  16.1   ESE   24.7   26.3   26.3  1004.6  0.00   0.0   0.000   0.004   25.1    85   22.4   27.2    23    1    100.0    1 
 5/13/06  1:03a   24.7   24.7   24.7    80   21.0   9.7   SSE  0.16  19.3   WSW   24.7   26.3   26.3  1004.6  0.00   0.0   0.000   0.004   25.1    85   22.4   27.2    23    1    100.0    1 
 5/13/06  1:04a   24.7   24.7   24.7    79   20.8   8.0   SSE  0.13  14.5     S   24.7   26.2   26.2  1004.6  0.00   0.0   0.000   0.004   25.1    85   22.4   27.2    23    1    100.0    1 
 5/13/06  1:05a   24.7   24.7   24.7    79   20.8   8.0   SSE  0.13  19.3    SE   24.7   26.2   26.2  1004.6  0.00   0.0   0.000   0.004   25.1    85   22.4   27.2    22    1     95.7    1 
 5/13/06  1:06a   24.7   24.7   24.7    80   21.0   8.0     S  0.13  12.9     S   24.7   26.3   26.3  1004.6  0.00   0.0   0.000   0.004   25.1    85   22.4   27.2    23    1    100.0    1 
 5/13/06  1:07a   24.7   24.7   24.7    79   20.8  11.3     S  0.19  19.3    SE   24.7   26.2   26.2  1004.6  0.00   0.0   0.000   0.004   25.1    85   22.4   27.2    23    1    100.0    1 
 5/13/06  1:08a   24.7   24.7   24.7    79   20.8   8.0   SSE  0.13  11.3   SSE   24.7   26.2   26.2  1004.6  0.00   0.0   0.000   0.004   25.1    85   22.4   27.2    23    1    100.0    1 
 5/13/06  1:09a   24.7   24.8   24.7    78   20.6   9.7   ESE  0.16  16.1   SSW   24.7   26.3   26.3  1004.6  0.00   0.0   0.000   0.004   25.1    85   22.4   27.2    23    1    100.0    1 
 5/13/06  1:10a   24.8   24.8   24.8    78   20.7  11.3    SE  0.19  20.9    SE   24.8   26.3   26.3  1004.6  0.00   0.0   0.000   0.004   25.1    85   22.4   27.2    22    1     95.7    1 
 5/13/06  1:11a   24.8   24.8   24.8    78   20.7   8.0   SSE  0.13  16.1   ESE   24.8   26.4   26.4  1004.6  0.00   0.0   0.000   0.005   25.1    85   22.4   27.2    23    1    100.0    1 
 5/13/06  1:12a   24.8   24.8   24.8    78   20.7   3.2    SE  0.05   6.4   SSE   24.8   26.4   26.4  1004.6  0.00   0.0   0.000   0.005   25.1    85   22.4   27.2    23    1    100.0    1 
 5/13/06  1:13a   24.8   24.9   24.8    78   20.7  11.3    SE  0.19  25.7    SE   24.8   26.4   26.4  1004.6  0.00   0.0   0.000   0.005   25.1    85   22.4   27.2    23    1    100.0    1 
 5/13/06  1:14a   24.9   24.9   24.9    77   20.6  11.3   ESE  0.19  29.0   SSE   24.9   26.4   26.4  1004.6  0.00   0.0   0.000   0.005   25.1    85   22.4   27.2    23    1    100.0    1 
 5/13/06  1:15a   24.9   24.9   24.9    77   20.6   9.7     S  0.16  17.7   SSE   24.9   26.4   26.4  1004.5  0.00   0.0   0.000   0.005   25.1    85   22.4   27.2    22    1     95.7    1 
 5/13/06  1:16a   25.1   25.1   24.9    77   20.7   8.0   ESE  0.13  16.1   ESE   25.1   26.6   26.6  1004.5  0.00   0.0   0.000   0.005   25.1    85   22.4   27.2    23    1    100.0    1 
 5/13/06  1:17a   25.1   25.1   25.1    77   20.7   8.0   ESE  0.13  19.3    SE   25.1   26.6   26.6  1004.5  0.00   0.0   0.000   0.005   25.1    85   22.4   27.2    23    1    100.0    1 
 5/13/06  1:18a   25.1   25.2   25.1    77   20.8   8.0     E  0.13  25.7     S   25.1   26.6   26.6  1004.5  0.00   0.0   0.000   0.005   25.1    85   22.4   27.2    23    1    100.0    1 
 5/13/06  1:19a   25.2   25.2   25.2    76   20.6   8.0   ESE  0.13  25.7   SSE   25.2   26.6   26.6  1004.5  0.00   0.0   0.000   0.005   25.1    85   22.4   27.2    23    1    100.0    1 
 5/13/06  1:20a   25.2   25.2   25.2    76   20.6   4.8     S  0.08  17.7   ESE   25.2   26.6   26.6  1004.5  0.00   0.0   0.000   0.005   25.1    85   22.4   27.2    22    1     95.7    1 
 5/13/06  1:21a   25.2   25.2   25.2    76   20.6   9.7     S  0.16  17.7   ENE   25.2   26.6   26.6  1004.5  0.00   0.0   0.000   0.005   25.1    85   22.4   27.2    23    1    100.0    1 
 5/13/06  1:22a   25.2   25.3   25.2    76   20.6   9.7   SSE  0.16  20.9   SSE   25.2   26.6   26.6  1004.5  0.00   0.0   0.000   0.005   25.1    84   22.2   27.1    23    1    100.0    1 
 5/13/06  1:23a   25.3   25.3   25.3    76   20.7  12.9    SE  0.21  20.9     E   25.0   26.8   26.5  1004.5  0.00   0.0   0.000   0.005   25.1    84   22.2   27.1    23    1    100.0    1 
 5/13/06  1:24a   25.3   25.3   25.3    75   20.5   9.7   ESE  0.16  19.3   SSW   25.3   26.7   26.7  1004.5  0.00   0.0   0.000   0.005   25.1    84   22.2   27.1    23    1    100.0    1 
 5/13/06  1:25a   25.3   25.3   25.3    75   20.6  11.3   ESE  0.19  20.9   WSW   25.3   26.8   26.8  1004.5  0.00   0.0   0.000   0.005   25.1    84   22.2   27.1    22    1     95.7    1 
 5/13/06  1:26a   25.3   25.3   25.3    75   20.6  12.9   SSE  0.21  22.5   ESE   25.1   26.8   26.5  1004.5  0.00   0.0   0.000   0.005   25.1    84   22.2   27.1    23    1    100.0    1 
 5/13/06  1:27a   25.4   25.4   25.3    74   20.5  11.3    SE  0.19  25.7   SSE   25.4   26.8   26.8  1004.5  0.00   0.0   0.000   0.005   25.1    84   22.2   27.1    23    1    100.0    1 
 5/13/06  1:28a   25.4   25.4   25.4    74   20.5  11.3   ESE  0.19  14.5   SSE   25.4   26.8   26.8  1004.5  0.00   0.0   0.000   0.005   25.1    84   22.2   27.1    23    1    100.0    1 
 5/13/06  1:29a   25.4   25.4   25.4    74   20.5  11.3    SE  0.19  22.5    SE   25.4   26.8   26.8  1004.5  0.00   0.0   0.000   0.005   25.1    84   22.2   27.1    23    1    100.0    1 
 5/13/06  1:30a   25.4   25.4   25.4    74   20.5   3.2   ESE  0.05  11.3     S   25.4   26.8   26.8  1004.0  0.00   0.0   0.000   0.005   25.1    84   22.2   27.1    22    1     95.7    1 
 5/13/06  1:31a   25.4   25.6   25.4    74   20.5  11.3     E  0.19  20.9   SSE   25.4   26.8   26.8  1004.0  0.00   0.0   0.000   0.005   25.1    84   22.2   27.1    23    1    100.0    1 
 5/13/06  1:32a   25.5   25.6   25.4    74   20.5   9.7     S  0.16  20.9    SE   25.5   26.9   26.9  1004.0  0.00   0.0   0.000   0.005   25.1    84   22.2   27.1    23    1    100.0    1 
 5/13/06  1:33a   25.6   25.6   25.6    74   20.6   9.7   ESE  0.16  20.9     S   25.6   26.9   26.9  1004.0  0.00   0.0   0.000   0.005   25.1    84   22.2   27.1    23    1    100.0    1 
 5/13/06  1:34a   25.6   25.6   25.6    74   20.6  11.3    SE  0.19  22.5   ESE   25.6   26.9   26.9  1004.0  0.00   0.0   0.000   0.005   25.1    84   22.2   27.1    23    1    100.0    1 
 5/13/06  1:35a   25.6   25.6   25.6    74   20.6  11.3   ESE  0.19  17.7     S   25.6   26.9   26.9  1004.0  0.00   0.0   0.000   0.005   25.1    84   22.2   27.1    22    1     95.7    1 
 5/13/06  1:36a   25.6   25.6   25.6    74   20.6   9.7   ESE  0.16  20.9   ESE   25.6   26.9   26.9  1004.0  0.00   0.0   0.000   0.005   25.1    84   22.2   27.1    23    1    100.0    1 
 5/13/06  1:37a   25.6   25.6   25.6    74   20.6   9.7    SE  0.16  17.7   ESE   25.6   26.9   26.9  1004.0  0.00   0.0   0.000   0.005   25.1    84   22.2   27.1    23    1    100.0    1 
 5/13/06  1:38a   25.6   25.6   25.6    74   20.6   9.7   ESE  0.16  20.9   ENE   25.6   26.9   26.9  1004.0  0.00   0.0   0.000   0.005   25.1    83   22.0   27.1    23    1    100.0    1 
 5/13/06  1:39a   25.6   25.6   25.6    74   20.6   6.4   SSE  0.11  11.3   ESE   25.6   26.9   26.9  1004.0  0.00   0.0   0.000   0.005   25.1    83   22.0   27.1    23    1    100.0    1 
 5/13/06  1:40a   25.6   25.6   25.6    74   20.6   4.8   SSE  0.08  11.3    SE   25.6   26.9   26.9  1004.0  0.00   0.0   0.000   0.005   25.1    83   22.0   27.1    22    1     95.7    1 
 5/13/06  1:41a   25.6   25.6   25.6    74   20.6   9.7   SSE  0.16  22.5   SSE   25.6   26.9   26.9  1004.0  0.00   0.0   0.000   0.005   25.1    83   22.0   27.1    23    1    100.0    1 
 5/13/06  1:42a   25.6   25.6   25.6    74   20.6   9.7     E  0.16  16.1   SSE   25.6   26.9   26.9  1004.0  0.00   0.0   0.000   0.005   25.1    83   22.0   27.1    23    1    100.0    1 
 5/13/06  1:43a   25.6   25.6   25.6    73   20.4   9.7   SSE  0.16  17.7   SSW   25.6   26.9   26.9  1004.0  0.00   0.0   0.000   0.005   25.1    83   22.0   27.1    23    1    100.0    1 
 5/13/06  1:44a   25.6   25.6   25.6    74   20.6   4.8   ESE  0.08  11.3   ESE   25.6   26.9   26.9  1004.0  0.00   0.0   0.000   0.005   25.1    83   22.0   27.1    23    1    100.0    1 
 5/13/06  1:45a   25.6   25.6   25.6    74   20.6   8.0    SE  0.13  11.3    SE   25.6   26.9   26.9  1003.9  0.00   0.0   0.000   0.005   25.1    83   22.0   27.1    22    1     95.7    1 
 5/13/06  1:46a   25.6   25.6   25.6    73   20.4   9.7   ESE  0.16  16.1   ESE   25.6   26.9   26.9  1003.9  0.00   0.0   0.000   0.005   25.1    83   22.0   27.1    23    1    100.0    1 
 5/13/06  1:47a   25.7   25.7   25.7    73   20.5   9.7   ESE  0.16  19.3   ESE   25.7   27.0   27.0  1003.9  0.00   0.0   0.000   0.005   25.1    83   22.0   27.1    23    1    100.0    1 
 5/13/06  1:48a   25.7   25.7   25.7    73   20.5  11.3     S  0.19  16.1     S   25.7   27.0   27.0  1003.9  0.00   0.0   0.000   0.005   25.1    83   22.0   27.1    23    1    100.0    1 
 5/13/06  1:49a   25.7   25.7   25.7    73   20.5   9.7    SE  0.16  20.9    NE   25.7   27.0   27.0  1003.9  0.00   0.0   0.000   0.005   25.2    83   22.1   27.2    23    1    100.0    1 
 5/13/06  1:50a   25.7   25.7   25.7    72   20.2  12.9   SSE  0.21  22.5   SSE   25.4   26.9   26.7  1003.9  0.00   0.0   0.000   0.005   25.2    83   22.1   27.2    22    1     95.7    1 
 5/13/06  1:51a   25.7   25.8   25.7    72   20.3   8.0    SE  0.13  12.9    SE   25.7   27.0   27.0  1003.9  0.00   0.0   0.000   0.005   25.2    83   22.1   27.2    23    1    100.0    1 
 5/13/06  1:52a   25.8   25.8   25.8    72   20.3   6.4   SSE  0.11  11.3   ENE   25.8   27.1   27.1  1003.9  0.00   0.0   0.000   0.005   25.2    83   22.1   27.2    23    1    100.0    1 
 5/13/06  1:53a   25.8   25.8   25.8    72   20.3  14.5    SE  0.24  27.4   SSW   25.1   27.1   26.4  1003.9  0.00   0.0   0.000   0.005   25.2    83   22.1   27.2    23    1    100.0    1 
 5/13/06  1:54a   25.8   25.8   25.8    71   20.2   9.7   ESE  0.16  17.7   ESE   25.8   27.1   27.1  1003.9  0.00   0.0   0.000   0.005   25.2    83   22.1   27.2    23    1    100.0    1 
 5/13/06  1:55a   25.8   25.8   25.8    71   20.2  14.5   ESE  0.24  32.2   ESE   25.2   27.1   26.5  1003.9  0.00   0.0   0.000   0.005   25.2    83   22.1   27.2    22    1     95.7    1 
 5/13/06  1:56a   25.9   25.9   25.8    71   20.2   9.7   ESE  0.16  16.1   ESE   25.9   27.2   27.2  1003.9  0.00   0.0   0.000   0.005   25.2    83   22.1   27.2    23    1    100.0    1 
 5/13/06  1:57a   25.9   25.9   25.9    71   20.3   9.7   ESE  0.16  14.5    SE   25.9   27.2   27.2  1003.9  0.00   0.0   0.000   0.005   25.2    83   22.1   27.2    23    1    100.0    1 
 5/13/06  1:58a   25.9   25.9   25.9    71   20.3  12.9    SE  0.21  25.7     S   25.7   27.2   27.0  1003.9  0.00   0.0   0.000   0.005   25.2    82   21.9   27.1    23    1    100.0    1 
 5/13/06  1:59a   25.9   26.1   25.9    71   20.3  11.3   ESE  0.19  20.9    SE   25.9   27.2   27.2  1003.9  0.00   0.0   0.000   0.005   25.2    82   21.9   27.1    23    1    100.0    1 
 5/13/06  2:00a   26.1   26.1   26.1    71   20.4  12.9   SSE  0.21  20.9     E   25.8   27.4   27.2  1003.8  0.00   0.0   0.000   0.005   25.2    82   21.9   27.1    22    1     95.7    1 
 5/13/06  2:01a   26.1   26.1   26.1    71   20.4   8.0   ESE  0.13  17.7    SE   26.1   27.4   27.4  1003.8  0.00   0.0   0.000   0.005   25.2    82   21.9   27.1    23    1    100.0    1 
 5/13/06  2:02a   26.1   26.1   26.1    71   20.4   9.7   ESE  0.16  19.3   SSE   26.1   27.4   27.4  1003.8  0.00   0.0   0.000   0.005   25.2    82   21.9   27.1    23    1    100.0    1 
 5/13/06  2:03a   26.1   26.1   26.1    71   20.4   9.7   ESE  0.16  25.7   ESE   26.1   27.4   27.4  1003.8  0.00   0.0   0.000   0.005   25.2    82   21.9   27.1    23    1    100.0    1 
 5/13/06  2:04a   26.1   26.1   26.1    71   20.4  12.9   ESE  0.21  27.4     S   25.8   27.4   27.2  1003.8  0.00   0.0   0.000   0.005   25.2    82   21.9   27.1    23    1    100.0    1 
 5/13/06  2:05a   26.1   26.1   26.1    71   20.4  11.3    SE  0.19  32.2   ESE   26.1   27.4   27.4  1003.8  0.00   0.0   0.000   0.005   25.2    82   21.9   27.1    22    1     95.7    1 
 5/13/06  2:06a   26.1   26.2   26.1    71   20.4  14.5    SE  0.24  27.4   ESE   25.5   27.4   26.8  1003.8  0.00   0.0   0.000   0.005   25.2    83   22.1   27.2    23    1    100.0    1 
 5/13/06  2:07a   26.2   26.2   26.2    71   20.5  12.9    SE  0.21  22.5   ENE   25.9   27.6   27.3  1003.8  0.00   0.0   0.000   0.005   25.2    83   22.1   27.2    23    1    100.0    1 
 5/13/06  2:08a   26.2   26.2   26.2    71   20.5  11.3    SE  0.19  19.3   ESE   26.2   27.6   27.6  1003.8  0.00   0.0   0.000   0.005   25.2    83   22.1   27.2    23    1    100.0    1 
 5/13/06  2:09a   26.2   26.2   26.2    71   20.5  12.9    SE  0.21  29.0     S   25.9   27.6   27.3  1003.8  0.00   0.0   0.000   0.005   25.2    83   22.1   27.2    23    1    100.0    1 
 5/13/06  2:10a   26.2   26.2   26.2    71   20.5   9.7    SE  0.16  16.1    SE   26.2   27.6   27.6  1003.8  0.00   0.0   0.000   0.005   25.2    83   22.1   27.2    22    1     95.7    1 
 5/13/06  2:11a   26.2   26.2   26.2    71   20.5  12.9   ESE  0.21  22.5   SSW   25.9   27.6   27.3  1003.8  0.00   0.0   0.000   0.005   25.2    83   22.1   27.2    23    1    100.0    1 
 5/13/06  2:12a   26.2   26.2   26.2    71   20.5  12.9     E  0.21  20.9     E   25.9   27.6   27.3  1003.8  0.00   0.0   0.000   0.005   25.2    83   22.1   27.2    23    1    100.0    1 
 5/13/06  2:13a   26.2   26.2   26.2    71   20.5   6.4    SE  0.11  11.3   ESE   26.2   27.6   27.6  1003.8  0.00   0.0   0.000   0.005   25.2    83   22.1   27.2    23    1    100.0    1 
 5/13/06  2:14a   26.2   26.2   26.2    71   20.5   8.0    SE  0.13  14.5    SE   26.2   27.6   27.6  1003.8  0.00   0.0   0.000   0.005   25.2    83   22.1   27.2    23    1    100.0    1 
 5/13/06  2:15a   26.1   26.2   26.1    71   20.4   9.7   ESE  0.16  17.7     E   26.1   27.4   27.4  1003.7  0.00   0.0   0.000   0.005   25.2    83   22.1   27.2    22    1     95.7    1 
 5/13/06  2:16a   26.1   26.1   26.1    71   20.4   8.0    SE  0.13  12.9     S   26.1   27.4   27.4  1003.7  0.25   0.0   0.000   0.005   25.3    83   22.2   27.3    23    1    100.0    1 
 5/13/06  2:17a   26.1   26.1   26.1    71   20.4   8.0    SE  0.13  16.1   SSE   26.1   27.4   27.4  1003.7  0.00   0.0   0.000   0.005   25.3    82   22.0   27.3    23    1    100.0    1 
 5/13/06  2:18a   26.1   26.1   26.1    72   20.6  11.3     S  0.19  29.0     E   26.1   27.4   27.4  1003.7  0.00   0.0   0.000   0.005   25.3    82   22.0   27.3    23    1    100.0    1 
 5/13/06  2:19a   25.9   26.1   25.9    72   20.5   6.4    SE  0.11  12.9   ESE   25.9   27.3   27.3  1003.7  0.00   0.0   0.000   0.005   25.3    83   22.2   27.3    23    1    100.0    1 
 5/13/06  2:20a   25.9   25.9   25.9    72   20.5   8.0   ESE  0.13  19.3   ESE   25.9   27.3   27.3  1003.7  0.00   0.0   0.000   0.005   25.3    83   22.2   27.3    22    1     95.7    1 
 5/13/06  2:21a   25.9   25.9   25.9    72   20.5   6.4   ESE  0.11   9.7   ESE   25.9   27.3   27.3  1003.7  0.00   0.0   0.000   0.005   25.3    83   22.2   27.3     8    1     34.8    1 
 5/13/06  2:22a    ---    ---    ---    72    ---   0.0   ---  0.00   0.0   ---    ---    ---    ---  1003.7  0.00   0.0     ---     ---   25.3    82   22.0   27.3     0    1      0.0    1 
 5/13/06  2:23a    ---    ---    ---    72    ---   0.0   ---  0.00   0.0   ---    ---    ---    ---  1003.7  0.00   0.0     ---     ---   25.3    82   22.0   27.3     0    1      0.0    1 
 5/13/06  2:24a   25.8   25.8   25.8    73   20.6   6.4    SE  0.11  17.7    SE   25.8   27.2   27.2  1003.7  0.00   0.0   0.000   0.005   25.3    82   22.0   27.3    23    1    100.0    1 
 5/13/06  2:25a   25.8   25.8   25.8    73   20.6   4.8   ESE  0.08  12.9     S   25.8   27.2   27.2  1003.7  0.00   0.0   0.000   0.005   25.3    83   22.2   27.3    22    1     95.7    1 
 5/13/06  2:26a   25.8   25.8   25.8    73   20.6  11.3    SE  0.19  25.7    SE   25.8   27.2   27.2  1003.7  0.00   0.0   0.000   0.005   25.3    83   22.2   27.3    23    1    100.0    1 
 5/13/06  2:27a   25.8   25.8   25.8    73   20.6   4.8    SE  0.08   9.7    SE   25.8   27.2   27.2  1003.7  0.00   0.0   0.000   0.005   25.3    83   22.2   27.3    23    1    100.0    1 
 5/13/06  2:28a   25.8   25.8   25.8    73   20.6   6.4   ESE  0.11  11.3    SE   25.8   27.2   27.2  1003.7  0.00   0.0   0.000   0.005   25.3    83   22.2   27.3    23    1    100.0    1 
 5/13/06  2:29a   25.8   25.8   25.8    72   20.4  12.9   SSE  0.21  20.9   SSE   25.6   27.2   26.9  1003.7  0.00   0.0   0.000   0.005   25.3    83   22.2   27.3    23    1    100.0    1 
 5/13/06  2:30a   25.8   25.8   25.8    72   20.4   6.4   SSE  0.11  12.9     S   25.8   27.2   27.2  1003.6  0.00   0.0   0.000   0.005   25.3    83   22.2   27.3    22    1     95.7    1 
 5/13/06  2:31a   25.9   25.9   25.8    72   20.5   8.0    SE  0.13  16.1   ESE   25.9   27.2   27.2  1003.6  0.00   0.0   0.000   0.005   25.3    83   22.2   27.3    23    1    100.0    1 
 5/13/06  2:32a   25.9   25.9   25.9    72   20.5  12.9    SE  0.21  20.9    SE   25.7   27.3   27.1  1003.6  0.00   0.0   0.000   0.005   25.3    83   22.2   27.3    23    1    100.0    1 
 5/13/06  2:33a   25.9   25.9   25.9    72   20.5   8.0    SE  0.13  17.7   ESE   25.9   27.3   27.3  1003.6  0.00   0.0   0.000   0.005   25.3    83   22.2   27.3    23    1    100.0    1 
 5/13/06  2:34a   25.9   25.9   25.9    72   20.5   9.7   ESE  0.16  19.3   SSE   25.9   27.3   27.3  1003.6  0.00   0.0   0.000   0.005   25.3    83   22.2   27.3    23    1    100.0    1 
 5/13/06  2:35a   25.9   25.9   25.9    72   20.5   9.7   ESE  0.16  19.3     S   25.9   27.3   27.3  1003.6  0.00   0.0   0.000   0.005   25.3    83   22.2   27.3    22    1     95.7    1 
 5/13/06  2:36a   25.9   25.9   25.9    72   20.5   9.7   ESE  0.16  19.3   SSE   25.9   27.3   27.3  1003.6  0.00   0.0   0.000   0.005   25.3    83   22.2   27.3    23    1    100.0    1 
 5/13/06  2:37a   26.1   26.1   26.1    72   20.6   8.0   SSE  0.13  16.1   ESE   26.1   27.4   27.4  1003.6  0.00   0.0   0.000   0.005   25.3    83   22.2   27.3    23    1    100.0    1 
 5/13/06  2:38a   26.1   26.1   26.1    72   20.6   4.8     S  0.08   8.0     S   26.1   27.4   27.4  1003.6  0.00   0.0   0.000   0.005   25.3    83   22.2   27.3    23    1    100.0    1 
 5/13/06  2:39a   26.1   26.1   26.1    72   20.6  11.3    SE  0.19  19.3   SSE   26.1   27.4   27.4  1003.6  0.00   0.0   0.000   0.005   25.3    83   22.2   27.3    23    1    100.0    1 
 5/13/06  2:40a   26.1   26.1   26.1    72   20.6  11.3   SSE  0.19  19.3    SE   26.1   27.4   27.4  1003.6  0.00   0.0   0.000   0.005   25.3    83   22.2   27.3    22    1     95.7    1 
 5/13/06  2:41a   26.1   26.1   26.1    73   20.8   4.8   ESE  0.08   9.7     E   26.1   27.6   27.6  1003.6  0.00   0.0   0.000   0.005   25.3    83   22.2   27.3    23    1    100.0    1 
 5/13/06  2:42a   25.9   26.1   25.9    73   20.7   8.0    SE  0.13  12.9    SE   25.9   27.4   27.4  1003.6  0.00   0.0   0.000   0.005   25.3    83   22.2   27.3    23    1    100.0    1 
 5/13/06  2:43a   25.9   25.9   25.9    73   20.7   3.2   ESE  0.05   6.4    SE   25.9   27.4   27.4  1003.6  0.00   0.0   0.000   0.005   25.3    83   22.2   27.3    23    1    100.0    1 
 5/13/06  2:44a   25.9   25.9   25.9    74   21.0   9.7    SE  0.16  17.7   SSW   25.9   27.4   27.4  1003.6  0.00   0.0   0.000   0.005   25.3    83   22.2   27.3    23    1    100.0    1 
 5/13/06  2:45a   25.9   25.9   25.9    74   21.0   9.7   SSE  0.16  22.5    SE   25.9   27.4   27.4  1003.7  0.00   0.0   0.000   0.005   25.3    83   22.2   27.3    22    1     95.7    1 
 5/13/06  2:46a   25.9   25.9   25.9    73   20.7   6.4   ESE  0.11  12.9   ESE   25.9   27.4   27.4  1003.7  0.00   0.0   0.000   0.005   25.3    83   22.2   27.3    23    1    100.0    1 
 5/13/06  2:47a   25.9   25.9   25.9    74   21.0   6.4    SE  0.11  12.9   ESE   25.9   27.4   27.4  1003.7  0.00   0.0   0.000   0.005   25.4    83   22.3   27.5    23    1    100.0    1 
 5/13/06  2:48a   25.9   25.9   25.9    74   21.0   6.4     S  0.11  17.7   ESE   25.9   27.4   27.4  1003.7  0.00   0.0   0.000   0.005   25.4    83   22.3   27.5    23    1    100.0    1 
 5/13/06  2:49a   25.9   25.9   25.9    74   21.0   4.8   ESE  0.08   8.0   ESE   25.9   27.4   27.4  1003.7  0.00   0.0   0.000   0.005   25.4    83   22.3   27.5    23    1    100.0    1 
 5/13/06  2:50a   25.9   25.9   25.9    74   21.0   4.8    SE  0.08  11.3    SE   25.9   27.4   27.4  1003.7  0.00   0.0   0.000   0.005   25.4    83   22.3   27.5    22    1     95.7    1 
 5/13/06  2:51a   25.9   25.9   25.9    74   21.0   6.4    SE  0.11   9.7   SSE   25.9   27.4   27.4  1003.7  0.00   0.0   0.000   0.005   25.4    83   22.3   27.5    23    1    100.0    1 
 5/13/06  2:52a   25.9   25.9   25.9    74   21.0   8.0    SE  0.13  19.3     E   25.9   27.4   27.4  1003.7  0.00   0.0   0.000   0.005   25.4    83   22.3   27.5    23    1    100.0    1 
 5/13/06  2:53a   25.9   25.9   25.9    74   21.0   8.0     S  0.13  16.1    SW   25.9   27.4   27.4  1003.7  0.00   0.0   0.000   0.005   25.4    83   22.3   27.5    23    1    100.0    1 
 5/13/06  2:54a   25.9   25.9   25.9    74   21.0   6.4   ESE  0.11  16.1    SE   25.9   27.4   27.4  1003.7  0.00   0.0   0.000   0.005   25.4    83   22.3   27.5    23    1    100.0    1 
 5/13/06  2:55a   25.9   25.9   25.9    74   21.0   3.2   SSE  0.05   9.7   ESE   25.9   27.4   27.4  1003.7  0.00   0.0   0.000   0.005   25.4    84   22.5   27.6    22    1     95.7    1 
 5/13/06  2:56a   25.9   25.9   25.9    74   21.0   4.8    SE  0.08   8.0    SE   25.9   27.4   27.4  1003.7  0.00   0.0   0.000   0.005   25.4    84   22.5   27.6    23    1    100.0    1 
 5/13/06  2:57a   25.9   25.9   25.9    74   21.0   6.4     S  0.11  19.3    SE   25.9   27.4   27.4  1003.7  0.00   0.0   0.000   0.005   25.4    84   22.5   27.6    23    1    100.0    1 
 5/13/06  2:58a   25.9   25.9   25.8    74   20.9   4.8    SE  0.08   9.7   SSE   25.9   27.4   27.4  1003.7  0.00   0.0   0.000   0.005   25.4    84   22.5   27.6    23    1    100.0    1 
 5/13/06  2:59a   25.8   25.8   25.8    74   20.8   3.2   ESE  0.05   9.7   ESE   25.8   27.3   27.3  1003.7  0.00   0.0   0.000   0.005   25.4    84   22.5   27.6    23    1    100.0    1 
 5/13/06  3:00a   25.8   25.8   25.8    74   20.8   4.8   SSE  0.08  11.3   ENE   25.8   27.3   27.3  1003.8  0.00   0.0   0.000   0.005   25.4    84   22.5   27.6    22    1     95.7    1 
 5/13/06  3:01a   25.8   25.8   25.8    74   20.8   3.2   SSE  0.05   9.7     S   25.8   27.3   27.3  1003.8  0.00   0.0   0.000   0.005   25.4    84   22.5   27.6    23    1    100.0    1 
 5/13/06  3:02a   25.8   25.8   25.8    74   20.8   6.4   ESE  0.11  14.5     S   25.8   27.3   27.3  1003.8  0.00   0.0   0.000   0.005   25.4    84   22.5   27.6    23    1    100.0    1 
 5/13/06  3:03a   25.9   25.9   25.8    74   21.0   8.0   SSE  0.13  19.3    SE   25.9   27.4   27.4  1003.8  0.00   0.0   0.000   0.005   25.4    84   22.5   27.6    23    1    100.0    1 
 5/13/06  3:04a   25.9   25.9   25.9    74   21.0   3.2   SSE  0.05   9.7     E   25.9   27.4   27.4  1003.8  0.00   0.0   0.000   0.005   25.4    84   22.5   27.6    23    1    100.0    1 
 5/13/06  3:05a   25.9   25.9   25.9    74   21.0   4.8    SW  0.08  12.9   SSE   25.9   27.4   27.4  1003.8  0.00   0.0   0.000   0.005   25.4    84   22.5   27.6    22    1     95.7    1 
 5/13/06  3:06a   25.9   25.9   25.9    74   21.0   8.0     S  0.13  16.1   ESE   25.9   27.4   27.4  1003.8  0.00   0.0   0.000   0.005   25.4    84   22.5   27.6    23    1    100.0    1 
 5/13/06  3:07a   25.9   25.9   25.9    74   21.0   4.8   SSW  0.08   9.7    SE   25.9   27.4   27.4  1003.8  0.00   0.0   0.000   0.005   25.4    84   22.5   27.6    23    1    100.0    1 
 5/13/06  3:08a   25.9   25.9   25.9    74   21.0   4.8    SE  0.08   9.7   SSE   25.9   27.4   27.4  1003.8  0.00   0.0   0.000   0.005   25.4    84   22.5   27.6    23    1    100.0    1 
 5/13/06  3:09a   25.9   25.9   25.9    74   21.0   3.2     S  0.05  12.9   SSE   25.9   27.4   27.4  1003.8  0.00   0.0   0.000   0.005   25.4    84   22.5   27.6    23    1    100.0    1 
 5/13/06  3:10a   25.9   25.9   25.9    74   21.0   3.2   SSE  0.05  11.3   SSE   25.9   27.4   27.4  1003.8  0.00   0.0   0.000   0.005   25.4    84   22.5   27.6    22    1     95.7    1 
 5/13/06  3:11a   25.9   25.9   25.9    74   21.0   6.4   ESE  0.11  14.5    SE   25.9   27.4   27.4  1003.8  0.00   0.0   0.000   0.005   25.4    84   22.5   27.6    23    1    100.0    1 
 5/13/06  3:12a   25.9   25.9   25.9    74   21.0   0.0   ESE  0.00   3.2   ESE   25.9   27.4   27.4  1003.8  0.00   0.0   0.000   0.005   25.4    84   22.5   27.6    23    1    100.0    1 
 5/13/06  3:13a   25.9   25.9   25.8    74   21.0   3.2   SSE  0.05   9.7   SSE   25.9   27.4   27.4  1003.8  0.00   0.0   0.000   0.005   25.4    84   22.5   27.6    23    1    100.0    1 
 5/13/06  3:14a   25.8   25.8   25.8    75   21.1   3.2    SE  0.05   6.4    SE   25.8   27.4   27.4  1003.8  0.00   0.0   0.000   0.005   25.4    84   22.5   27.6    23    1    100.0    1 
 5/13/06  3:15a   25.8   25.8   25.8    75   21.1   3.2   SSE  0.05   6.4    SE   25.8   27.4   27.4  1003.8  0.00   0.0   0.000   0.005   25.4    84   22.5   27.6    22    1     95.7    1 
 5/13/06  3:16a   25.8   25.8   25.8    75   21.1   3.2     S  0.05   9.7   SSE   25.8   27.4   27.4  1003.8  0.00   0.0   0.000   0.005   25.4    84   22.5   27.6    23    1    100.0    1 
 5/13/06  3:17a   25.8   25.8   25.8    75   21.1   4.8   SSE  0.08   8.0    SW   25.8   27.4   27.4  1003.8  0.00   0.0   0.000   0.005   25.4    84   22.5   27.6    23    1    100.0    1 
 5/13/06  3:18a   25.8   25.8   25.8    75   21.1   4.8   SSE  0.08   9.7     E   25.8   27.4   27.4  1003.8  0.00   0.0   0.000   0.005   25.4    84   22.5   27.6    23    1    100.0    1 
 5/13/06  3:19a   25.8   25.8   25.8    74   20.8   4.8    SE  0.08  11.3   ESE   25.8   27.3   27.3  1003.8  0.00   0.0   0.000   0.005   25.4    84   22.5   27.6    23    1    100.0    1 
 5/13/06  3:20a   25.8   25.8   25.8    74   20.8   3.2   SSE  0.05   8.0   SSE   25.8   27.3   27.3  1003.8  0.00   0.0   0.000   0.005   25.4    84   22.5   27.6    22    1     95.7    1 
 5/13/06  3:21a   25.8   25.8   25.8    74   20.8   4.8   SSE  0.08  11.3   SSE   25.8   27.3   27.3  1003.8  0.00   0.0   0.000   0.005   25.4    84   22.5   27.6    23    1    100.0    1 
 5/13/06  3:22a   25.8   25.8   25.8    74   20.8   1.6   ESE  0.03   4.8   SSE   25.8   27.3   27.3  1003.8  0.00   0.0   0.000   0.005   25.4    84   22.5   27.6    23    1    100.0    1 
 5/13/06  3:23a   25.8   25.8   25.8    74   20.8   4.8   ESE  0.08  11.3   SSW   25.8   27.3   27.3  1003.8  0.00   0.0   0.000   0.005   25.4    84   22.5   27.6    23    1    100.0    1 
 5/13/06  3:24a   25.8   25.8   25.8    74   20.8   1.6   SSE  0.03   6.4   SSE   25.8   27.3   27.3  1003.8  0.00   0.0   0.000   0.005   25.4    84   22.5   27.6    23    1    100.0    1 
 5/13/06  3:25a   25.8   25.8   25.8    74   20.8   1.6   ESE  0.03   4.8     S   25.8   27.3   27.3  1003.8  0.00   0.0   0.000   0.005   25.4    84   22.5   27.6    22    1     95.7    1 
 5/13/06  3:26a   25.8   25.8   25.8    74   20.8   6.4     S  0.11  12.9    SE   25.8   27.3   27.3  1003.8  0.00   0.0   0.000   0.005   25.4    84   22.5   27.6    23    1    100.0    1 
 5/13/06  3:27a   25.8   25.8   25.8    74   20.8   3.2     S  0.05   8.0     S   25.8   27.3   27.3  1003.8  0.00   0.0   0.000   0.005   25.4    84   22.5   27.6    23    1    100.0    1 
 5/13/06  3:28a   25.8   25.8   25.8    74   20.8   1.6     S  0.03   9.7   SSE   25.8   27.3   27.3  1003.8  0.00   0.0   0.000   0.005   25.4    84   22.5   27.6    23    1    100.0    1 
 5/13/06  3:29a   25.8   25.8   25.8    74   20.8   4.8     S  0.08   9.7   ESE   25.8   27.3   27.3  1003.8  0.00   0.0   0.000   0.005   25.4    84   22.5   27.6    23    1    100.0    1 
 5/13/06  3:30a   25.8   25.8   25.8    74   20.8   4.8     S  0.08  11.3     S   25.8   27.3   27.3  1004.0  0.00   0.0   0.000   0.005   25.4    84   22.5   27.6    22    1     95.7    1 
 5/13/06  3:31a   25.8   25.8   25.8    74   20.8   1.6    SE  0.03   6.4     S   25.8   27.3   27.3  1004.0  0.00   0.0   0.000   0.005   25.4    84   22.5   27.6    23    1    100.0    1 
 5/13/06  3:32a   25.8   25.8   25.8    74   20.8   0.0   ESE  0.00   3.2   ESE   25.8   27.3   27.3  1004.0  0.00   0.0   0.000   0.005   25.4    84   22.5   27.6    23    1    100.0    1 
 5/13/06  3:33a   25.8   25.8   25.8    74   20.8   3.2     S  0.05   9.7     S   25.8   27.3   27.3  1004.0  0.00   0.0   0.000   0.005   25.4    84   22.5   27.6    23    1    100.0    1 
 5/13/06  3:34a   25.8   25.8   25.8    74   20.8   6.4   SSE  0.11   9.7   SSE   25.8   27.3   27.3  1004.0  0.00   0.0   0.000   0.005   25.5    84   22.6   27.7    23    1    100.0    1 
 5/13/06  3:35a   25.8   25.8   25.8    74   20.8   3.2     S  0.05   8.0     S   25.8   27.3   27.3  1004.0  0.00   0.0   0.000   0.005   25.5    84   22.6   27.7    22    1     95.7    1 
 5/13/06  3:36a   25.8   25.8   25.8    75   21.1   1.6    SE  0.03   4.8   SSE   25.8   27.4   27.4  1004.0  0.00   0.0   0.000   0.005   25.5    84   22.6   27.7    23    1    100.0    1 
 5/13/06  3:37a   25.8   25.8   25.8    75   21.1   3.2   SSE  0.05  11.3   SSE   25.8   27.4   27.4  1004.0  0.00   0.0   0.000   0.005   25.5    84   22.6   27.7    23    1    100.0    1 
 5/13/06  3:38a   25.8   25.8   25.8    75   21.0   0.0   SSW  0.00   1.6   SSW   25.8   27.3   27.3  1004.0  0.00   0.0   0.000   0.005   25.5    84   22.6   27.7    23    1    100.0    1 
 5/13/06  3:39a   25.8   25.8   25.8    75   21.0   3.2     S  0.05   8.0     S   25.8   27.3   27.3  1004.0  0.00   0.0   0.000   0.005   25.5    84   22.6   27.7    23    1    100.0    1 
 5/13/06  3:40a   25.8   25.8   25.8    75   21.0   4.8   SSE  0.08  11.3   ESE   25.8   27.3   27.3  1004.0  0.00   0.0   0.000   0.005   25.5    84   22.6   27.7    22    1     95.7    1 
 5/13/06  3:41a   25.8   25.8   25.8    75   21.0   1.6   ESE  0.03   4.8    SE   25.8   27.3   27.3  1004.0  0.00   0.0   0.000   0.005   25.5    84   22.6   27.7    23    1    100.0    1 
 5/13/06  3:42a   25.8   25.8   25.7    76   21.2   1.6   SSE  0.03   6.4   SSE   25.8   27.4   27.4  1004.0  0.00   0.0   0.000   0.005   25.5    84   22.6   27.7    23    1    100.0    1 
 5/13/06  3:43a   25.7   25.7   25.7    76   21.1   4.8    SE  0.08  12.9    SE   25.7   27.2   27.2  1004.0  0.00   0.0   0.000   0.005   25.5    84   22.6   27.7    23    1    100.0    1 
 5/13/06  3:44a   25.7   25.7   25.7    76   21.1   0.0   ESE  0.00   1.6   ESE   25.7   27.2   27.2  1004.0  0.00   0.0   0.000   0.005   25.5    84   22.6   27.7    23    1    100.0    1 
 5/13/06  3:45a   25.7   25.7   25.7    76   21.1   1.6   SSE  0.03   4.8   SSE   25.7   27.2   27.2  1004.2  0.00   0.0   0.000   0.005   25.5    84   22.6   27.7    22    1     95.7    1 
 5/13/06  3:46a   25.6   25.7   25.6    76   21.1   3.2     E  0.05   9.7    SE   25.6   27.2   27.2  1004.2  0.00   0.0   0.000   0.005   25.5    84   22.6   27.7    23    1    100.0    1 
 5/13/06  3:47a   25.6   25.6   25.6    76   21.0   3.2    SE  0.05   8.0     S   25.6   27.1   27.1  1004.2  0.00   0.0   0.000   0.005   25.5    84   22.6   27.7    23    1    100.0    1 
 5/13/06  3:48a   25.6   25.6   25.6    76   21.0   4.8    SE  0.08  11.3     S   25.6   27.1   27.1  1004.2  0.00   0.0   0.000   0.005   25.5    84   22.6   27.7    23    1    100.0    1 
 5/13/06  3:49a   25.6   25.6   25.6    76   21.0   6.4   SSE  0.11   9.7   ESE   25.6   27.1   27.1  1004.2  0.00   0.0   0.000   0.005   25.5    84   22.6   27.7    23    1    100.0    1 
 5/13/06  3:50a   25.7   25.7   25.6    76   21.1   8.0   ESE  0.13  17.7   ESE   25.7   27.2   27.2  1004.2  0.00   0.0   0.000   0.005   25.5    84   22.6   27.7    22    1     95.7    1 
 5/13/06  3:51a   25.7   25.7   25.7    76   21.1   6.4     E  0.11  12.9    SE   25.7   27.2   27.2  1004.2  0.00   0.0   0.000   0.005   25.5    84   22.6   27.7    23    1    100.0    1 
 5/13/06  3:52a   25.7   25.8   25.7    75   21.0   4.8   SSE  0.08  11.3     S   25.7   27.2   27.2  1004.2  0.00   0.0   0.000   0.005   25.5    84   22.6   27.7    23    1    100.0    1 
 5/13/06  3:53a   25.8   25.8   25.8    75   21.0   6.4    SE  0.11  12.9    SE   25.8   27.3   27.3  1004.2  0.00   0.0   0.000   0.005   25.5    84   22.6   27.7    23    1    100.0    1 
 5/13/06  3:54a   25.8   25.8   25.8    75   21.1   6.4    SE  0.11  12.9   SSE   25.8   27.4   27.4  1004.2  0.00   0.0   0.000   0.005   25.5    84   22.6   27.7    23    1    100.0    1 
 5/13/06  3:55a   25.8   25.8   25.8    75   21.1   4.8    SE  0.08  11.3    SE   25.8   27.4   27.4  1004.2  0.00   0.0   0.000   0.005   25.5    84   22.6   27.7    22    1     95.7    1 
 5/13/06  3:56a   25.9   25.9   25.8    75   21.1   6.4    SE  0.11  16.1    NE   25.9   27.4   27.4  1004.2  0.00   0.0   0.000   0.005   25.5    84   22.6   27.7    23    1    100.0    1 
 5/13/06  3:57a   25.9   25.9   25.9    76   21.4   9.7    SE  0.16  17.7     E   25.9   27.6   27.6  1004.2  0.00   0.0   0.000   0.005   25.5    84   22.6   27.7    23    1    100.0    1 
 5/13/06  3:58a   25.9   25.9   25.9    76   21.4   9.7    SE  0.16  16.1     S   25.9   27.6   27.6  1004.2  0.00   0.0   0.000   0.005   25.5    84   22.6   27.7    23    1    100.0    1 
 5/13/06  3:59a   25.9   25.9   25.9    76   21.4  11.3   ESE  0.19  25.7   ESE   25.9   27.6   27.6  1004.2  0.00   0.0   0.000   0.005   25.5    84   22.6   27.7    23    1    100.0    1 
 5/13/06  4:00a   25.9   25.9   25.9    77   21.6   6.4   SSE  0.11  16.1     E   25.9   27.7   27.7  1004.3  0.00   0.0   0.000   0.005   25.5    84   22.6   27.7    22    1     95.7    1 
 5/13/06  4:01a   25.9   25.9   25.8    77   21.5  11.3    SE  0.19  20.9     E   25.9   27.7   27.7  1004.3  0.00   0.0   0.000   0.005   25.5    85   22.8   27.8    23    1    100.0    1 
 5/13/06  4:02a   25.8   25.8   25.8    78   21.7   6.4    SE  0.11  16.1    SE   25.8   27.7   27.7  1004.3  0.00   0.0   0.000   0.005   25.5    85   22.8   27.8    23    1    100.0    1 
 5/13/06  4:03a   25.8   25.8   25.8    78   21.6   8.0    SE  0.13  20.9     E   25.8   27.6   27.6  1004.3  0.00   0.0   0.000   0.005   25.5    85   22.8   27.8    23    1    100.0    1 
 5/13/06  4:04a   25.8   25.8   25.8    79   21.9   4.8    SE  0.08   9.7     E   25.8   27.7   27.7  1004.3  0.00   0.0   0.000   0.005   25.5    85   22.8   27.8    23    1    100.0    1 
 5/13/06  4:05a   25.7   25.7   25.7    79   21.8   6.4   ESE  0.11  11.3    SE   25.7   27.5   27.5  1004.3  0.00   0.0   0.000   0.005   25.5    85   22.8   27.8    22    1     95.7    1 
 5/13/06  4:06a   25.6   25.7   25.6    79   21.7   8.0    SE  0.13  11.3     S   25.6   27.4   27.4  1004.3  0.00   0.0   0.000   0.005   25.5    85   22.8   27.8    22    1     95.7    1 
 5/13/06  4:07a   25.6   25.6   25.6    80   21.8   8.0   ESE  0.13  11.3   ESE   25.6   27.4   27.4  1004.3  0.00   0.0   0.000   0.005   25.5    85   22.8   27.8    23    1    100.0    1 
 5/13/06  4:08a   25.6   25.6   25.6    80   21.8   6.4   SSE  0.11  11.3   ESE   25.6   27.4   27.4  1004.3  0.00   0.0   0.000   0.005   25.5    85   22.8   27.8    23    1    100.0    1 
 5/13/06  4:09a   25.4   25.6   25.4    80   21.7   3.2   SSE  0.05   6.4     S   25.4   27.3   27.3  1004.3  0.00   0.0   0.000   0.005   25.5    86   23.0   27.8    23    1    100.0    1 
 5/13/06  4:10a   25.4   25.4   25.4    80   21.7   4.8    SE  0.08  12.9    SE   25.4   27.3   27.3  1004.3  0.00   0.0   0.000   0.005   25.5    86   23.0   27.8    22    1     95.7    1 
 5/13/06  4:11a   25.4   25.4   25.4    80   21.7   3.2   SSE  0.05  12.9    SE   25.4   27.3   27.3  1004.3  0.00   0.0   0.000   0.005   25.5    86   23.0   27.8    23    1    100.0    1 
 5/13/06  4:12a   25.3   25.3   25.3    80   21.6   8.0   SSE  0.13  17.7   SSW   25.3   27.1   27.1  1004.3  0.00   0.0   0.000   0.005   25.5    86   23.0   27.8    22    1     95.7    1 
 5/13/06  4:13a   25.3   25.3   25.3    80   21.6   3.2    SE  0.05   9.7    SE   25.3   27.1   27.1  1004.3  0.00   0.0   0.000   0.005   25.5    86   23.0   27.8    22    1     95.7    1 
 5/13/06  4:14a   25.3   25.3   25.3    80   21.6   4.8     E  0.08  11.3     E   25.3   27.1   27.1  1004.3  0.00   0.0   0.000   0.005   25.5    87   23.2   27.9    22    1     95.7    1 
 5/13/06  4:15a   25.3   25.3   25.3    80   21.6  12.9   ESE  0.21  20.9    SE   25.1   27.1   26.8  1004.3  0.00   0.0   0.000   0.005   25.5    87   23.2   27.9    21    1     91.3    1 
 5/13/06  4:16a   25.3   25.3   25.3    80   21.6   4.8   SSE  0.08   8.0   SSE   25.3   27.1   27.1  1004.3  0.00   0.0   0.000   0.005   25.6    86   23.1   28.0    23    1    100.0    1 
 5/13/06  4:17a   25.3   25.3   25.3    80   21.6   6.4    SE  0.11  12.9   ENE   25.3   27.1   27.1  1004.3  0.00   0.0   0.000   0.005   25.6    86   23.1   28.0    23    1    100.0    1 
 5/13/06  4:18a   25.3   25.3   25.3    81   21.8   3.2     E  0.05   6.4     S   25.3   27.2   27.2  1004.3  0.00   0.0   0.000   0.005   25.6    86   23.1   28.0    22    1     95.7    1 
 5/13/06  4:19a   25.3   25.3   25.3    81   21.8   8.0    SE  0.13  17.7   SSE   25.3   27.2   27.2  1004.3  0.00   0.0   0.000   0.005   25.6    86   23.1   28.0    23    1    100.0    1 
 5/13/06  4:20a   25.3   25.3   25.3    81   21.8   6.4   ESE  0.11  16.1   ESE   25.3   27.2   27.2  1004.3  0.00   0.0   0.000   0.005   25.6    86   23.1   28.0    22    1     95.7    1 
 5/13/06  4:21a   25.3   25.3   25.3    81   21.8   3.2   ESE  0.05   6.4   ESE   25.3   27.1   27.1  1004.3  0.00   0.0   0.000   0.005   25.6    86   23.1   28.0    23    1    100.0    1 
 5/13/06  4:22a   25.3   25.3   25.3    82   22.0   4.8   SSE  0.08  16.1   SSE   25.3   27.2   27.2  1004.3  0.25   0.0   0.000   0.005   25.6    86   23.1   28.0    23    1    100.0    1 
 5/13/06  4:23a   25.2   25.3   25.2    82   21.9   8.0   SSE  0.13  16.1   SSE   25.2   27.1   27.1  1004.3  0.00   0.0   0.000   0.005   25.6    86   23.1   28.0    23    1    100.0    1 
 5/13/06  4:24a   25.2   25.2   25.2    82   21.9   6.4     S  0.11  12.9   ENE   25.2   27.1   27.1  1004.3  0.00   0.0   0.000   0.005   25.6    86   23.1   28.0    23    1    100.0    1 
 5/13/06  4:25a   25.1   25.2   25.1    83   22.0   6.4   SSE  0.11  11.3   SSE   25.1   27.1   27.1  1004.3  0.00   0.0   0.000   0.005   25.6    87   23.3   28.1    22    1     95.7    1 
 5/13/06  4:26a   25.1   25.1   25.1    83   22.0   6.4   SSW  0.11  16.1    SE   25.1   26.9   26.9  1004.3  0.00   0.0   0.000   0.005   25.5    87   23.2   27.9    23    1    100.0    1 
 5/13/06  4:27a   25.1   25.1   24.9    83   22.0   6.4   SSE  0.11  16.1   SSE   25.1   26.9   26.9  1004.3  0.00   0.0   0.000   0.005   25.6    87   23.3   28.1    23    1    100.0    1 
 5/13/06  4:28a   24.9   24.9   24.9    83   21.9   6.4   SSE  0.11  11.3     S   24.9   26.8   26.8  1004.3  0.00   0.0   0.000   0.005   25.6    87   23.3   28.1    23    1    100.0    1 
 5/13/06  4:29a   24.9   24.9   24.9    83   21.9   8.0     S  0.13  12.9   ESE   24.9   26.8   26.8  1004.3  0.00   0.0   0.000   0.005   25.6    87   23.3   28.1    23    1    100.0    1 
 5/13/06  4:30a   24.9   24.9   24.9    83   21.9   8.0    SE  0.13  19.3   SSE   24.9   26.8   26.8  1004.3  0.00   0.0   0.000   0.005   25.6    87   23.3   28.1    22    1     95.7    1 
 5/13/06  4:31a   24.9   24.9   24.9    83   21.9   6.4   SSE  0.11  14.5   ESE   24.9   26.8   26.8  1004.3  0.00   0.0   0.000   0.005   25.6    87   23.3   28.1    23    1    100.0    1 
 5/13/06  4:32a   24.9   24.9   24.9    83   21.9   6.4   SSE  0.11  11.3   ESE   24.9   26.8   26.8  1004.3  0.00   0.0   0.000   0.005   25.6    87   23.3   28.1    23    1    100.0    1 
 5/13/06  4:33a   24.9   24.9   24.9    83   21.9   4.8   SSE  0.08   8.0   SSW   24.9   26.8   26.8  1004.3  0.00   0.0   0.000   0.005   25.6    87   23.3   28.1    23    1    100.0    1 
 5/13/06  4:34a   24.9   24.9   24.9    83   21.9   6.4   SSE  0.11  11.3   ESE   24.9   26.8   26.8  1004.3  0.00   0.0   0.000   0.005   25.6    87   23.3   28.1    23    1    100.0    1 
 5/13/06  4:35a   24.8   24.8   24.8    83   21.7   6.4     S  0.11  12.9   SSE   24.8   26.7   26.7  1004.3  0.00   0.0   0.000   0.005   25.7    87   23.4   28.3    22    1     95.7    1 
 5/13/06  4:36a   24.8   24.8   24.8    83   21.7   4.8     S  0.08   9.7     S   24.8   26.7   26.7  1004.3  0.00   0.0   0.000   0.005   25.7    87   23.4   28.3    23    1    100.0    1 
 5/13/06  4:37a   24.8   24.8   24.8    83   21.7   6.4    SE  0.11  19.3    SE   24.8   26.7   26.7  1004.3  0.00   0.0   0.000   0.005   25.7    87   23.4   28.3    23    1    100.0    1 
 5/13/06  4:38a   24.8   24.8   24.8    83   21.7   8.0    SE  0.13  16.1   SSE   24.8   26.7   26.7  1004.3  0.00   0.0   0.000   0.005   25.7    87   23.4   28.3    23    1    100.0    1 
 5/13/06  4:39a   24.8   24.8   24.8    84   21.9   6.4     S  0.11  12.9   ESE   24.8   26.7   26.7  1004.3  0.00   0.0   0.000   0.005   25.7    87   23.4   28.3    23    1    100.0    1 
 5/13/06  4:40a   24.8   24.8   24.8    84   21.9   3.2   SSE  0.05   6.4     S   24.8   26.7   26.7  1004.3  0.00   0.0   0.000   0.005   25.7    87   23.4   28.3    22    1     95.7    1 
 5/13/06  4:41a   24.8   24.8   24.8    84   21.9   6.4    SE  0.11  11.3     E   24.8   26.7   26.7  1004.3  0.00   0.0   0.000   0.005   25.8    87   23.5   28.4    23    1    100.0    1 
 5/13/06  4:42a   24.8   24.8   24.8    84   21.9   3.2    SE  0.05   9.7    SE   24.8   26.7   26.7  1004.3  0.00   0.0   0.000   0.005   25.8    87   23.5   28.4    23    1    100.0    1 
 5/13/06  4:43a   24.8   24.8   24.8    84   21.9   6.4   SSE  0.11  17.7   SSE   24.8   26.7   26.7  1004.3  0.00   0.0   0.000   0.005   25.8    87   23.5   28.4    23    1    100.0    1 
 5/13/06  4:44a   24.8   24.8   24.8    84   21.9   3.2   SSE  0.05   8.0   SSE   24.8   26.7   26.7  1004.3  0.00   0.0   0.000   0.005   25.8    87   23.5   28.4    23    1    100.0    1 
 5/13/06  4:45a   24.8   24.8   24.8    84   21.9   3.2    SE  0.05   9.7   ESE   24.8   26.7   26.7  1004.4  0.00   0.0   0.000   0.005   25.8    87   23.5   28.4    22    1     95.7    1 
 5/13/06  4:46a   24.8   24.8   24.8    84   21.9   4.8   SSE  0.08  17.7     S   24.8   26.7   26.7  1004.4  0.00   0.0   0.000   0.005   25.8    87   23.5   28.4    23    1    100.0    1 
 5/13/06  4:47a   24.8   24.8   24.8    84   21.9   3.2    SE  0.05   4.8   ESE   24.8   26.7   26.7  1004.4  0.00   0.0   0.000   0.005   25.8    87   23.5   28.4    23    1    100.0    1 
 5/13/06  4:48a   24.8   24.8   24.8    84   21.9   6.4     S  0.11  11.3     S   24.8   26.7   26.7  1004.4  0.00   0.0   0.000   0.005   25.9    87   23.6   28.7    22    1     95.7    1 
 5/13/06  4:49a   24.8   24.8   24.8    84   21.9   3.2    SE  0.05   8.0     S   24.8   26.7   26.7  1004.4  0.00   0.0   0.000   0.005   25.9    87   23.6   28.7    23    1    100.0    1 
 5/13/06  4:50a   24.8   24.8   24.8    84   21.9   6.4   SSE  0.11  12.9   SSE   24.8   26.7   26.7  1004.4  0.00   0.0   0.000   0.005   25.9    87   23.6   28.7    21    1     91.3    1 
 5/13/06  4:51a   24.8   24.8   24.8    84   21.9   4.8   SSE  0.08  12.9   SSE   24.8   26.7   26.7  1004.4  0.00   0.0   0.000   0.005   25.9    87   23.6   28.7    22    1     95.7    1 
 5/13/06  4:52a   24.8   24.8   24.8    84   21.9   4.8    SE  0.08   9.7    SE   24.8   26.7   26.7  1004.4  0.00   0.0   0.000   0.005   25.9    87   23.6   28.7    16    1     69.6    1 
 5/13/06  4:53a   24.8   24.8   24.8    84   21.9   6.4   SSE  0.11  11.3    SE   24.8   26.7   26.7  1004.4  0.00   0.0   0.000   0.005   25.9    87   23.6   28.7    23    1    100.0    1 
 5/13/06  4:54a   24.8   24.8   24.8    84   21.9   4.8    SE  0.08  11.3   ESE   24.8   26.7   26.7  1004.4  0.00   0.0   0.000   0.005   26.1    87   23.7   28.8    22    1     95.7    1 
 5/13/06  4:55a   24.8   24.8   24.8    84   21.9   4.8   ESE  0.08  11.3     E   24.8   26.7   26.7  1004.4  0.00   0.0   0.000   0.005   26.1    87   23.7   28.8    21    1     91.3    1 
 5/13/06  4:56a   24.8   24.8   24.8    84   21.9   1.6   ESE  0.03   6.4   ESE   24.8   26.7   26.7  1004.4  0.00   0.0   0.000   0.005   26.1    87   23.7   28.8    23    1    100.0    1 
 5/13/06  4:57a   24.8   24.8   24.8    84   21.9   6.4    SE  0.11  12.9     S   24.8   26.7   26.7  1004.4  0.00   0.0   0.000   0.005   26.1    87   23.7   28.8    22    1     95.7    1 
 5/13/06  4:58a   24.8   24.8   24.8    84   21.9   6.4    SE  0.11  16.1    SE   24.8   26.7   26.7  1004.4  0.00   0.0   0.000   0.005   26.1    87   23.7   28.8    23    1    100.0    1 
 5/13/06  4:59a   24.8   24.8   24.8    84   21.9   4.8   ESE  0.08   9.7   ESE   24.8   26.7   26.7  1004.4  0.00   0.0   0.000   0.005   26.1    87   23.7   28.8    23    1    100.0    1 
 5/13/06  5:00a   24.8   24.8   24.8    85   22.1   6.4   ESE  0.11  11.3    SE   24.8   26.8   26.8  1004.5  0.00   0.0   0.000   0.005   26.2    87   23.8   29.1    22    1     95.7    1 
 5/13/06  5:01a   24.8   24.8   24.8    84   21.9   6.4   SSE  0.11  17.7    SE   24.8   26.7   26.7  1004.5  0.00   0.0   0.000   0.005   26.2    87   23.8   29.1    23    1    100.0    1 
 5/13/06  5:25a   25.3   25.3   25.3    82   22.0   8.0    SE  0.67  19.3   ENE   25.3   27.3   27.3  1004.9  0.00   0.0   0.000   0.024   26.4    86   23.9   29.5    56    1     49.1    5 
 5/13/06  5:30a   25.4   25.4   25.3    82   22.1   6.4   ESE  0.54  16.1    SE   25.4   27.3   27.3  1005.0  0.00   0.0   0.000   0.024   26.5    85   23.8   29.4   111    1     97.4    5 
 5/13/06  5:35a   25.5   25.7   25.4    81   22.0   9.7   SSE  0.80  29.0   ESE   25.5   27.4   27.4  1005.0  0.00   0.0   0.000   0.025   26.6    85   23.8   29.6   113    1     99.1    5 
 5/13/06  5:40a   25.7   25.7   25.7    81   22.2   8.0   ESE  0.67  19.3     E   25.7   27.7   27.7  1005.0  0.00   0.0   0.000   0.025   26.7    85   23.9   29.8   113    1     99.1    5 
 5/13/06  5:45a   25.7   25.7   25.7    81   22.2   8.0   ESE  0.67  22.5   SSE   25.7   27.7   27.7  1005.0  0.00   0.0   0.000   0.025   26.7    85   23.9   29.8   112    1     98.2    5 
 5/13/06  5:50a   25.7   25.8   25.7    81   22.2   8.0   ESE  0.67  22.5   SSE   25.7   27.8   27.8  1005.0  0.00   0.0   0.000   0.026   26.8    85   24.0   30.0   112    1     98.2    5 
 5/13/06  5:55a   25.7   25.7   25.7    82   22.4   6.4   SSE  0.54  16.1   ESE   25.7   27.8   27.8  1005.0  0.00   0.0   0.000   0.025   26.8    85   24.0   30.0   111    1     97.4    5 
 5/13/06  6:00a   25.6   25.7   25.6    83   22.5   9.7   SSE  0.80  22.5   ESE   25.6   27.8   27.8  1005.3  0.00   0.0   0.000   0.025   26.9    85   24.2   30.3   110    1     96.5    5 
 5/13/06  6:05a   25.6   25.6   25.6    83   22.5   6.4   SSE  0.54  17.7   SSE   25.6   27.7   27.7  1005.3  0.25   0.0   0.000   0.025   26.9    85   24.2   30.3   111    1     97.4    5 
 5/13/06  6:10a   25.5   25.6   25.4    84   22.6   4.8    SE  0.40  12.9   SSE   25.5   27.7   27.7  1005.3  0.00   0.0   0.000   0.025   26.9    85   24.2   30.4   114    1    100.0    5 
 5/13/06  6:15a   25.4   25.4   25.4    84   22.5   6.4    SE  0.54  20.9     E   25.4   27.6   27.6  1005.5  0.00   0.0   0.000   0.025   26.9    85   24.2   30.4   113    1     99.1    5 
 5/13/06  6:20a   25.4   25.4   25.4    85   22.7   6.4   SSE  0.54  17.7     S   25.4   27.7   27.7  1005.5  0.00   0.0   0.000   0.025   27.0    85   24.3   30.5   112    1     98.2    5 
 5/13/06  6:25a   25.4   25.4   25.4    85   22.7   4.8   SSE  0.40  12.9   SSE   25.4   27.7   27.7  1005.5  0.00   0.0   0.000   0.025   27.1    85   24.3   30.6   112    1     98.2    5 
 5/13/06  6:30a   25.4   25.4   25.4    85   22.7   4.8   ESE  0.40  12.9   ESE   25.4   27.7   27.7  1005.7  0.00   0.0   0.000   0.025   27.1    85   24.3   30.6   111    1     97.4    5 
 5/13/06  6:35a   25.4   25.4   25.4    85   22.7   6.4    SE  0.54  14.5   SSE   25.4   27.7   27.7  1005.7  0.00   0.0   0.000   0.025   27.1    85   24.3   30.6   111    1     97.4    5 
 5/13/06  6:40a   25.6   25.6   25.4    85   22.8   4.8     S  0.40  16.1   SSE   25.6   27.8   27.8  1005.7  0.00   0.0   0.000   0.025   27.1    85   24.3   30.6   112    1     98.2    5 
 5/13/06  6:45a   25.6   25.7   25.6    85   22.9   6.4   SSE  0.54  20.9   SSE   25.6   27.9   27.9  1005.9  0.00   0.0   0.000   0.025   27.2    85   24.4   30.9   113    1     99.1    5 
 5/13/06  6:50a   25.7   25.7   25.7    85   23.0   6.4    SE  0.54  17.7   SSE   25.7   28.0   28.0  1005.9  0.00   0.0   0.000   0.025   27.2    85   24.4   30.9   110    1     96.5    5 
 5/13/06  6:55a   25.8   25.8   25.7    85   23.1   4.8   ESE  0.40  17.7   ESE   25.8   28.2   28.2  1005.9  0.00   0.0   0.000   0.026   27.3    85   24.5   31.2   113    1     99.1    5 
 5/13/06  7:00a   25.8   25.8   25.8    84   22.9   6.4   ESE  0.54  16.1   SSE   25.8   28.2   28.2  1006.0  0.00   0.0   0.000   0.026   27.3    85   24.5   31.2   112    1     98.2    5 
 5/13/06  7:05a   25.9   25.9   25.8    84   23.0   4.8    SE  0.40  16.1   SSE   25.9   28.3   28.3  1006.0  0.00   0.0   0.000   0.026   27.3    85   24.6   31.3   113    1     99.1    5 
 5/13/06  7:10a   26.1   26.2   25.9    83   22.9   6.4    SE  0.54  19.3    SE   26.1   28.4   28.4  1006.0  0.00   0.0   0.000   0.027   27.4    85   24.6   31.4   114    1    100.0    5 
 5/13/06  7:15a   26.2   26.3   26.2    82   22.9   8.0   SSE  0.67  20.9     E   26.2   28.6   28.6  1006.1  0.00   0.0   0.000   0.027   27.4    85   24.7   31.6   113    1     99.1    5 
 5/13/06  7:20a   26.4   26.4   26.3    82   23.1   6.4   ESE  0.54  20.9   SSE   26.4   28.9   28.9  1006.1  0.00   0.0   0.000   0.028   27.5    85   24.8   31.7   112    1     98.2    5 
 5/13/06  7:25a   26.5   26.6   26.4    81   23.0   8.0    SE  0.67  19.3     E   26.5   29.0   29.0  1006.1  0.00   0.0   0.000   0.028   27.5    85   24.8   31.7   111    1     97.4    5 
 5/13/06  7:30a   26.6   26.7   26.6    80   22.9   8.0   SSE  0.67  17.7    SE   26.6   29.1   29.1  1006.3  0.00   0.0   0.000   0.029   27.6    85   24.9   32.0    77    1     67.5    5 
 5/13/06  7:35a   26.7   26.8   26.7    80   23.0   9.7    SE  0.80  25.7     S   26.7   29.3   29.3  1006.3  0.00   0.0   0.000   0.029   27.6    84   24.7   31.8   109    1     95.6    5 
 5/13/06  7:40a   26.8   27.0   26.8    80   23.1   9.7    SE  0.80  20.9    SE   26.8   29.5   29.5  1006.3  0.00   0.0   0.000   0.030   27.7    84   24.8   32.1   113    1     99.1    5 
 5/13/06  7:45a   27.2   27.3   27.0    79   23.2   8.0   SSE  0.67  19.3    SE   27.2   30.1   30.1  1006.5  0.00   0.0   0.000   0.031   27.7    84   24.8   32.1   114    1    100.0    5 
 5/13/06  7:50a   27.4   27.6   27.3    77   23.1   9.7     S  0.80  22.5     E   27.4   30.4   30.4  1006.5  0.00   0.0   0.000   0.032   27.8    84   24.8   32.3   114    1    100.0    5 
 5/13/06  7:55a   27.7   27.8   27.6    76   23.1   9.7   SSE  0.80  20.9   SSE   27.7   30.9   30.9  1006.5  0.00   0.0   0.000   0.033   27.8    84   24.9   32.4   114    1    100.0    5 
 5/13/06  8:00a   28.1   28.2   27.8    75   23.2   6.4   SSE  0.54  20.9   SSE   28.1   31.6   31.6  1006.5  0.00   0.0   0.000   0.034   27.9    84   24.9   32.6   114    1    100.0    5 
 5/13/06  8:05a   28.2   28.2   28.2    74   23.1   9.7    SE  0.80  27.4   ESE   28.2   31.7   31.7  1006.5  0.00   0.0   0.000   0.034   28.0    83   24.8   32.7   114    1    100.0    5 
 5/13/06  8:10a   28.2   28.3   28.2    74   23.1   9.7   SSE  0.80  25.7    SW   28.2   31.8   31.8  1006.5  0.00   0.0   0.000   0.034   28.1    83   24.9   32.9   113    1     99.1    5 
 5/13/06  8:15a   28.3   28.4   28.3    73   23.0  11.3    SE  0.94  27.4    SE   28.3   31.9   31.9  1006.5  0.00   0.0   0.000   0.035   28.1    82   24.7   32.9   113    1     99.1    5 
 5/13/06  8:20a   28.4   28.5   28.4    73   23.1   9.7   SSE  0.80  25.7   SSW   28.4   32.2   32.2  1006.5  0.00   0.0   0.000   0.035   28.2    82   24.9   33.2   113    1     99.1    5 
 5/13/06  8:25a   28.5   28.5   28.5    73   23.2   9.7   SSE  0.80  22.5    SE   28.5   32.3   32.3  1006.5  0.00   0.0   0.000   0.035   28.3    82   25.0   33.5   113    1     99.1    5 
 5/13/06  8:30a   28.5   28.5   28.4    73   23.2   9.7    SE  0.80  22.5   SSE   28.5   32.3   32.3  1006.4  0.00   0.0   0.000   0.035   28.4    82   25.0   33.6   114    1    100.0    5 
 5/13/06  8:35a   28.3   28.4   28.3    74   23.3   9.7   SSE  0.80  22.5   SSE   28.3   32.1   32.1  1006.4  0.00   0.0   0.000   0.035   28.4    82   25.1   33.8   114    1    100.0    5 
 5/13/06  8:40a   28.2   28.3   28.2    74   23.1  12.9    SE  1.07  30.6   ESE   28.1   31.8   31.7  1006.4  0.00   0.0   0.000   0.034   28.6    81   25.0   33.9   114    1    100.0    5 
 5/13/06  8:45a   28.3   28.4   28.2    74   23.2   8.0   SSE  0.67  25.7   ESE   28.3   31.9   31.9  1006.5  0.00   0.0   0.000   0.035   28.6    81   25.0   33.9   114    1    100.0    5 
 5/13/06  8:50a   28.6   28.9   28.4    74   23.5   9.7   SSE  0.80  22.5     S   28.6   32.8   32.8  1006.5  0.00   0.0   0.000   0.036   28.7    81   25.1   34.3   114    1    100.0    5 
 5/13/06  8:55a   29.1   29.2   28.9    73   23.7  11.3   ESE  0.94  33.8    SE   29.1   33.7   33.7  1006.5  0.25   0.0   0.000   0.037   28.7    81   25.1   34.4   114    1    100.0    5 
 5/13/06  9:00a   29.2   29.2   29.1    73   23.9   8.0   SSE  0.67  20.9    SW   29.2   33.9   33.9  1006.7  0.00   0.0   0.000   0.038   28.8    81   25.2   34.6   114    1    100.0    5 
 5/13/06  9:05a   29.0   29.1   28.9    73   23.7   9.7   SSE  0.80  27.4   SSE   29.0   33.6   33.6  1006.7  0.00   0.0   0.000   0.037   28.9    81   25.3   34.9   114    1    100.0    5 
 5/13/06  9:10a   28.9   28.9   28.9    74   23.8   9.7   SSE  0.80  29.0     E   28.9   33.5   33.5  1006.7  0.00   0.0   0.000   0.037   29.0    81   25.4   35.1   114    1    100.0    5 
 5/13/06  9:15a   29.0   29.1   28.9    73   23.7   9.7   SSE  0.80  27.4    SE   29.0   33.6   33.6  1006.6  0.00   0.0   0.000   0.037   29.1    81   25.5   35.2   113    1     99.1    5 
 5/13/06  9:20a   28.9   29.0   28.9    72   23.4  12.9   SSE  1.07  22.5   ESE   28.8   33.2   33.1  1006.6  0.00   0.0   0.000   0.037   29.1    81   25.5   35.3   114    1    100.0    5 
 5/13/06  9:25a   29.0   29.0   28.9    71   23.2  12.9   ESE  1.07  30.6   SSW   28.8   33.2   33.0  1006.6  0.00   0.0   0.000   0.037   29.2    80   25.4   35.3   114    1    100.0    5 
 5/13/06  9:30a   29.1   29.1   29.0    71   23.3  12.9   ESE  1.07  30.6   SSW   28.9   33.3   33.1  1006.5  0.00   0.0   0.000   0.037   29.3    79   25.3   35.3   114    1    100.0    5 
 5/13/06  9:35a   29.2   29.2   29.1    71   23.4  12.9   ESE  1.07  35.4    SE   29.1   33.5   33.4  1006.5  0.00   0.0   0.000   0.038   29.3    79   25.3   35.4   112    1     98.2    5 
 5/13/06  9:40a   29.1   29.1   29.0    72   23.5  12.9   SSE  1.07  29.0   SSE   28.9   33.4   33.3  1006.5  0.00   0.0   0.000   0.037   29.4    79   25.4   35.6   113    1     99.1    5 
 5/13/06  9:45a   29.2   29.2   29.1    71   23.4   9.7     S  0.80  29.0   SSE   29.2   33.5   33.5  1006.8  0.00   0.0   0.000   0.038   29.4    78   25.2   35.4   114    1    100.0    5 
 5/13/06  9:50a   29.3   29.4   29.2    71   23.5  11.3    SE  0.94  29.0   ESE   29.3   33.7   33.7  1006.8  0.00   0.0   0.000   0.038   29.6    78   25.3   35.7   114    1    100.0    5 
 5/13/06  9:55a   29.6   29.7   29.4    69   23.3  12.9     S  1.07  29.0   ESE   29.5   34.1   33.9  1006.8  0.00   0.0   0.000   0.039   29.6    78   25.4   35.8   114    1    100.0    5 
 5/13/06 10:00a   29.9   30.0   29.7    69   23.6   9.7    SE  0.80  25.7   SSE   29.9   34.7   34.7  1007.0  0.00   0.0   0.000   0.040   29.7    78   25.4   35.9   114    1    100.0    5 
 5/13/06 10:05a   30.2   30.2   30.0    70   24.1   9.7    SE  0.80  22.5   ESE   30.2   35.6   35.6  1007.0  0.00   0.0   0.000   0.041   29.8    78   25.5   36.2   114    1    100.0    5 
 5/13/06 10:10a   30.3   30.3   30.2    69   24.0   9.7   SSE  0.80  20.9   SSE   30.3   35.7   35.7  1007.0  0.00   0.0   0.000   0.042   29.9    78   25.6   36.4   114    1    100.0    5 
 5/13/06 10:15a   30.3   30.3   30.2    69   24.0  11.3   ESE  0.94  24.1   ESE   30.3   35.6   35.6  1007.0  0.00   0.0   0.000   0.041   29.9    78   25.7   36.6   114    1    100.0    5 
 5/13/06 10:20a   30.2   30.2   30.2    69   23.9   9.7   ESE  0.80  20.9    SE   30.2   35.4   35.4  1007.0  0.00   0.0   0.000   0.041   30.1    77   25.6   36.7   113    1     99.1    5 
 5/13/06 10:25a   30.2   30.2   30.1    70   24.1  11.3   SSE  0.94  27.4    SE   30.2   35.6   35.6  1007.0  0.00   0.0   0.000   0.041   30.1    77   25.6   36.8   114    1    100.0    5 
 5/13/06 10:30a   30.2   30.3   30.1    70   24.1   9.7    SE  0.80  41.8    SE   30.2   35.6   35.6  1007.1  0.00   0.0   0.000   0.041   30.2    77   25.7   37.2   114    1    100.0    5 
 5/13/06 10:35a   30.4   30.5   30.3    69   24.1   8.0   SSE  0.67  27.4   ESE   30.4   35.8   35.8  1007.1  0.00   0.0   0.000   0.042   30.2    77   25.7   37.2   114    1    100.0    5 
 5/13/06 10:40a   30.2   30.2   30.1    71   24.3   8.0   SSE  0.67  20.9    SE   30.2   35.7   35.7  1007.1  0.00   0.0   0.000   0.041   30.1    77   25.6   36.8   114    1    100.0    5 
 5/13/06 10:45a   30.2   30.2   30.1    70   24.1   9.7   SSE  0.80  27.4   SSW   30.2   35.6   35.6  1007.2  0.00   0.0   0.000   0.041   30.1    78   25.8   37.1   114    1    100.0    5 
 5/13/06 10:50a   29.9   30.1   29.8    70   23.8  11.3   SSE  0.94  32.2    SE   29.9   34.9   34.9  1007.2  0.00   0.0   0.000   0.040   30.1    78   25.8   36.9   114    1    100.0    5 
 5/13/06 10:55a   29.7   29.8   29.7    71   23.9   8.0   SSE  0.67  20.9   SSE   29.7   34.7   34.7  1007.2  0.00   0.0   0.000   0.040   30.0    77   25.5   36.5   114    1    100.0    5 
 5/13/06 11:00a   29.7   29.8   29.7    72   24.1   8.0    SE  0.67  27.4   SSE   29.7   34.9   34.9  1007.2  0.00   0.0   0.000   0.040   30.0    77   25.5   36.5   114    1    100.0    5 
 5/13/06 11:05a   29.9   29.9   29.8    70   23.8   8.0    SE  0.67  19.3     S   29.9   34.9   34.9  1007.2  0.00   0.0   0.000   0.040   29.9    78   25.6   36.4   114    1    100.0    5 
 5/13/06 11:10a   29.9   29.9   29.8    71   24.1   8.0   SSE  0.67  17.7   SSW   29.9   35.1   35.1  1007.2  0.00   0.0   0.000   0.040   29.9    78   25.6   36.4   114    1    100.0    5 
 5/13/06 11:15a   29.9   30.0   29.9    70   23.8   8.0     S  0.67  29.0   ESE   29.9   34.9   34.9  1007.2  0.00   0.0   0.000   0.040   29.9    78   25.6   36.4   114    1    100.0    5 
 5/13/06 11:20a   29.9   30.0   29.9    71   24.1   6.4   SSE  0.54  22.5   SSE   29.9   35.2   35.2  1007.2  0.00   0.0   0.000   0.040   29.9    77   25.4   36.2   114    1    100.0    5 
 5/13/06 11:25a   30.1   30.1   30.0    70   24.0   6.4   SSE  0.54  17.7   SSE   30.1   35.3   35.3  1007.2  0.00   0.0   0.000   0.041   29.9    78   25.6   36.4   114    1    100.0    5 
 5/13/06 11:30a   30.1   30.1   30.0    69   23.7   8.0   SSE  0.67  17.7     S   30.1   35.1   35.1  1007.4  0.00   0.0   0.000   0.041   29.9    78   25.6   36.4   114    1    100.0    5 
 5/13/06 11:35a   29.9   30.0   29.9    69   23.6   6.4    SE  0.54  14.5     S   29.9   34.8   34.8  1007.4  0.00   0.0   0.000   0.040   29.9    78   25.6   36.4   114    1    100.0    5 
 5/13/06 11:40a   29.8   29.9   29.8    69   23.5   8.0     S  0.67  27.4   SSE   29.8   34.6   34.6  1007.4  0.00   0.0   0.000   0.040   29.9    77   25.4   36.2   114    1    100.0    5 
 5/13/06 11:45a   29.8   29.8   29.8    70   23.7   8.0   SSE  0.67  20.9   SSE   29.8   34.6   34.6  1007.3  0.00   0.0   0.000   0.040   29.9    77   25.4   36.2   114    1    100.0    5 
 5/13/06 11:50a   29.7   29.8   29.6    71   23.8   8.0     S  0.67  17.7    SE   29.7   34.6   34.6  1007.3  0.00   0.0   0.000   0.039   29.9    77   25.4   36.2   113    1     99.1    5 
 5/13/06 11:55a   29.3   29.6   29.2    73   24.0   9.7   SSE  0.80  20.9   ESE   29.3   34.2   34.2  1007.3  0.00   0.0   0.000   0.038   29.9    77   25.4   36.2   114    1    100.0    5 
 5/13/06 12:00p   29.1   29.1   29.1    74   24.0   8.0   ESE  0.67  17.7   SSE   29.1   33.9   33.9  1007.1  0.00   0.0   0.000   0.037   29.8    77   25.4   36.1   114    1    100.0    5 
 5/13/06 12:05p   29.3   29.4   29.1    72   23.7   6.4     S  0.54  19.3     E   29.3   33.9   33.9  1007.1  0.00   0.0   0.000   0.038   29.8    77   25.3   36.0   114    1    100.0    5 
 5/13/06 12:10p   29.6   29.7   29.4    71   23.8   6.4   SSE  0.54  20.9   SSE   29.6   34.4   34.4  1007.1  0.00   0.0   0.000   0.039   29.8    77   25.3   36.0   114    1    100.0    5 
 5/13/06 12:15p   29.6   29.7   29.6    72   24.0   8.0     S  0.67  19.3   SSW   29.6   34.6   34.6  1007.1  0.00   0.0   0.000   0.039   29.8    77   25.3   36.0   114    1    100.0    5 
 5/13/06 12:20p   29.6   29.7   29.6    71   23.8   9.7   SSE  0.80  27.4    SE   29.6   34.4   34.4  1007.1  0.00   0.0   0.000   0.039   29.8    77   25.3   36.0   114    1    100.0    5 
 5/13/06 12:25p   29.6   29.7   29.6    72   24.0   6.4    SE  0.54  22.5     E   29.6   34.6   34.6  1007.1  0.00   0.0   0.000   0.039   29.8    77   25.3   36.0   114    1    100.0    5 
 5/13/06 12:30p   29.7   29.7   29.6    71   23.8   8.0     S  0.67  20.9   SSW   29.7   34.6   34.6  1006.8  0.00   0.0   0.000   0.039   29.8    78   25.5   36.2   114    1    100.0    5 
 5/13/06 12:35p   29.4   29.6   29.3    74   24.3   8.0   SSE  0.67  20.9     S   29.4   34.5   34.5  1006.8  0.00   0.0   0.000   0.038   29.9    77   25.4   36.2   114    1    100.0    5 
 5/13/06 12:40p   29.2   29.3   29.1    74   24.1   6.4    SE  0.54  16.1   SSE   29.2   34.2   34.2  1006.8  0.00   0.0   0.000   0.038   29.9    78   25.6   36.4   114    1    100.0    5 
 5/13/06 12:45p   28.9   29.1   28.8    75   24.1   8.0    SE  0.67  19.3    SE   28.9   33.8   33.8  1006.6  0.00   0.0   0.000   0.037   29.8    78   25.5   36.2   114    1    100.0    5 
 5/13/06 12:50p   28.7   28.8   28.6    76   24.1   8.0    SE  0.67  19.3     S   28.7   33.5   33.5  1006.6  0.00   0.0   0.000   0.036   29.8    78   25.5   36.2   113    1     99.1    5 
 5/13/06 12:55p   28.6   28.6   28.5    75   23.7   8.0    SE  0.67  29.0   ESE   28.6   32.8   32.8  1006.6  0.00   0.0   0.000   0.035   29.7    77   25.2   35.7   114    1    100.0    5 
 5/13/06  1:00p   28.5   28.5   28.4    74   23.4   9.7    SE  0.80  22.5     E   28.5   32.5   32.5  1006.6  0.00   0.0   0.000   0.035   29.7    77   25.2   35.7   114    1    100.0    5 
 5/13/06  1:05p   28.4   28.5   28.4    74   23.4   8.0    SE  0.67  20.9   SSW   28.4   32.4   32.4  1006.6  0.00   0.0   0.000   0.035   29.6    77   25.1   35.4   114    1    100.0    5 
 5/13/06  1:10p   28.5   28.6   28.5    75   23.6   6.4     S  0.54  19.3    SE   28.5   32.7   32.7  1006.6  0.00   0.0   0.000   0.035   29.6    77   25.1   35.4   114    1    100.0    5 
 5/13/06  1:15p   28.4   28.5   28.4    74   23.4  11.3   SSE  0.94  27.4    SE   28.4   32.4   32.4  1006.6  0.00   0.0   0.000   0.035   29.4    77   25.0   35.2   114    1    100.0    5 
 5/13/06  1:20p   28.3   28.4   28.3    76   23.7   9.7   SSE  0.80  27.4   ESE   28.3   32.4   32.4  1006.6  0.00   0.0   0.000   0.035   29.4    77   25.0   35.2   114    1    100.0    5 
 5/13/06  1:25p   28.3   28.3   28.2    76   23.6   6.4     S  0.54  19.3     S   28.3   32.3   32.3  1006.6  0.00   0.0   0.000   0.035   29.4    78   25.2   35.4   114    1    100.0    5 
 5/13/06  1:30p   28.1   28.2   27.9    77   23.7   8.0   SSE  0.67  19.3    SE   28.1   32.1   32.1  1006.6  0.00   0.0   0.000   0.034   29.4    78   25.2   35.4   114    1    100.0    5 
 5/13/06  1:35p   27.7   27.9   27.5    80   24.0   8.0    SE  0.67  19.3   SSE   27.7   31.5   31.5  1006.6  0.00   0.0   0.000   0.033   29.3    78   25.1   35.2   114    1    100.0    5 
 5/13/06  1:40p   27.4   27.5   27.4    82   24.1   6.4   ESE  0.54  12.9   SSE   27.4   31.1   31.1  1006.6  0.00   0.0   0.000   0.032   29.3    78   25.1   35.2   114    1    100.0    5 
 5/13/06  1:45p   27.3   27.4   27.1    83   24.1   8.0    SE  0.67  19.3     E   27.3   30.8   30.8  1006.7  0.00   0.0   0.000   0.031   29.3    79   25.3   35.3   114    1    100.0    5 
 5/13/06  1:50p   26.9   27.1   26.8    83   23.8   9.7   SSE  0.80  20.9     S   26.9   30.1   30.1  1006.7  0.00   0.0   0.000   0.030   29.2    79   25.2   35.2   114    1    100.0    5 
 5/13/06  1:55p   26.5   26.8   26.3    83   23.4   8.0   ESE  0.67  22.5     E   26.5   29.2   29.2  1006.7  0.00   0.0   0.000   0.028   29.2    79   25.1   35.1   114    1    100.0    5 
 5/13/06  2:00p   26.0   26.3   25.8    84   23.1   8.0   ESE  0.67  19.3     E   26.0   28.4   28.4  1006.6  0.00   0.0   0.000   0.027   29.1    78   24.8   34.7   114    1    100.0    5 
 5/13/06  2:05p   25.7   25.8   25.6    83   22.6   9.7    SE  0.80  25.7   ESE   25.7   27.9   27.9  1006.6  0.00   0.0   0.000   0.026   28.9    78   24.7   34.4   114    1    100.0    5 
 5/13/06  2:10p   25.3   25.6   25.1    86   22.8   9.7    SE  0.80  27.4    SE   25.3   27.5   27.5  1006.6  3.81  98.8   0.000   0.024   28.8    78   24.6   34.2   114    1    100.0    5 
 5/13/06  2:15p   24.7   25.1   24.3    87   22.4  12.9    SE  1.07  30.6     S   24.4   26.7   26.4  1007.4  3.30  61.0   0.000   0.022   28.7    78   24.4   33.7   113    1     99.1    5 
 5/13/06  2:20p   23.9   24.3   23.7    89   22.0   8.0    SE  0.67  27.4    SE   23.9   25.7   25.7  1007.4  2.79  65.8   0.000   0.019   28.4    77   24.0   32.8   114    1    100.0    5 
 5/13/06  2:25p   23.6   23.7   23.6    90   21.9   4.8   SSE  0.40  16.1     E   23.6   25.2   25.2  1007.4  0.51  18.5   0.000   0.018   28.0    77   23.6   31.7   114    1    100.0    5 
 5/13/06  2:30p   23.5   23.6   23.4    91   21.9   6.4   SSE  0.54  17.7   SSW   23.5   25.1   25.1  1007.7  0.00   2.8   0.000   0.018   27.8    78   23.6   31.4   114    1    100.0    5 
 5/13/06  2:35p   23.4   23.4   23.4    91   21.8   3.2    SE  0.27  16.1    SE   23.4   24.8   24.8  1007.7  0.25   2.8   0.000   0.018   27.7    78   23.5   31.2   114    1    100.0    5 
 5/13/06  2:40p   23.3   23.4   23.3    92   22.0   6.4     S  0.54  20.9     S   23.3   24.8   24.8  1007.7  0.25   2.8   0.000   0.017   27.6    78   23.4   30.8   114    1    100.0    5 
 5/13/06  2:45p   23.3   23.3   23.3    92   21.9   4.8     S  0.40  19.3    SE   23.3   24.7   24.7  1007.3  0.51   4.6   0.000   0.017   27.3    79   23.4   30.4   114    1    100.0    5 
 5/13/06  2:50p   23.3   23.3   23.3    92   21.9   3.2   SSE  0.27  17.7     S   23.3   24.7   24.7  1007.3  0.51   7.1   0.000   0.017   27.2    79   23.3   30.2   114    1    100.0    5 
 5/13/06  2:55p   23.3   23.3   23.2    92   21.9   4.8   SSE  0.40  16.1     S   23.3   24.7   24.7  1007.3  0.25   6.6   0.000   0.017   27.1    79   23.2   29.9   114    1    100.0    5 
 5/13/06  3:00p   23.2   23.2   23.2    92   21.8   3.2     S  0.27  12.9    SE   23.2   24.7   24.7  1006.9  0.51   5.6   0.000   0.017   27.1    80   23.3   29.9   114    1    100.0    5 
 5/13/06  3:05p   23.2   23.2   23.1    92   21.8   3.2   ESE  0.27  16.1   SSE   23.2   24.6   24.6  1006.9  0.25   5.6   0.000   0.017   26.9    80   23.2   29.7   114    1    100.0    5 
 5/13/06  3:10p   23.1   23.1   23.0    92   21.7   3.2    SE  0.27   9.7   ESE   23.1   24.5   24.5  1006.9  0.25   4.3   0.000   0.016   26.9    80   23.1   29.6   114    1    100.0    5 
 5/13/06  3:15p   23.0   23.0   22.9    92   21.6   4.8    SE  0.40  11.3   ESE   23.0   24.4   24.4  1006.8  0.25   4.3   0.000   0.016   26.8    80   23.1   29.5   114    1    100.0    5 
 5/13/06  3:20p   22.9   22.9   22.9    92   21.5   3.2   SSE  0.27   9.7   SSE   22.9   24.3   24.3  1006.8  0.25   3.0   0.000   0.016   26.7    80   23.0   29.3   114    1    100.0    5 
 5/13/06  3:25p   22.9   22.9   22.9    92   21.5   3.2    SE  0.27  12.9     E   22.9   24.3   24.3  1006.8  0.00   2.3   0.000   0.016   26.6    81   23.1   29.2   114    1    100.0    5 
 5/13/06  3:30p   22.9   23.0   22.9    93   21.8   1.6   ESE  0.13   4.8   ESE   22.9   24.4   24.4  1006.5  0.25   2.3   0.000   0.016   26.6    81   23.0   29.1   113    1     99.1    5 
 5/13/06  3:35p   23.0   23.0   23.0    93   21.8   1.6   ESE  0.13   8.0   ESE   23.0   24.5   24.5  1006.5  0.00   1.8   0.000   0.016   26.6    82   23.2   29.2   114    1    100.0    5 
 5/13/06  3:40p   23.0   23.0   23.0    93   21.8   1.6    SE  0.13  11.3    SE   23.0   24.5   24.5  1006.5  0.00   1.3   0.000   0.016   26.5    82   23.2   29.1   114    1    100.0    5 
 5/13/06  3:45p   23.0   23.1   23.0    93   21.8   3.2    SE  0.27  11.3   SSE   23.0   24.5   24.5  1006.3  0.00   0.0   0.000   0.016   26.4    82   23.1   29.0   114    1    100.0    5 
 5/13/06  3:50p   23.1   23.2   23.1    93   21.9   1.6   SSE  0.13   4.8     S   23.1   24.6   24.6  1006.3  0.00   0.0   0.000   0.017   26.4    82   23.1   29.0   114    1    100.0    5 
 5/13/06  3:55p   23.2   23.2   23.2    93   22.0   3.2    SE  0.27   9.7     E   23.2   24.7   24.7  1006.3  0.00   0.0   0.000   0.017   26.3    82   23.0   28.8   114    1    100.0    5 
 5/13/06  4:00p   23.3   23.3   23.2    93   22.1   4.8   SSE  0.40  11.3   SSE   23.3   24.8   24.8  1006.3  0.00   0.0   0.000   0.017   26.3    83   23.2   28.8   114    1    100.0    5 
 5/13/06  4:05p   23.3   23.3   23.3    93   22.1   3.2    SE  0.27  16.1   ESE   23.3   24.8   24.8  1006.3  0.00   0.0   0.000   0.017   26.2    83   23.1   28.7   114    1    100.0    5 
 5/13/06  4:10p   23.3   23.4   23.3    93   22.1   3.2   SSE  0.27  11.3   ESE   23.3   24.9   24.9  1006.3  0.00   0.0   0.000   0.017   26.2    84   23.2   28.7   114    1    100.0    5 
 5/13/06  4:15p   23.4   23.4   23.4    93   22.2   4.8    SE  0.40  12.9     E   23.4   24.9   24.9  1006.4  0.00   0.0   0.000   0.018   26.1    84   23.1   28.6   114    1    100.0    5 
 5/13/06  4:20p   23.4   23.4   23.4    93   22.2   4.8    SE  0.40  17.7     E   23.4   24.9   24.9  1006.4  0.00   0.0   0.000   0.018   26.1    85   23.3   28.6   114    1    100.0    5 
 5/13/06  4:25p   23.4   23.4   23.4    93   22.2   4.8   SSE  0.40  16.1     S   23.4   24.9   24.9  1006.4  0.00   0.0   0.000   0.018   25.9    85   23.2   28.4   114    1    100.0    5 
 5/13/06  4:30p   23.4   23.5   23.4    93   22.2   6.4    SE  0.54  16.1   ESE   23.4   25.1   25.1  1006.2  0.00   0.0   0.000   0.018   25.9    85   23.2   28.4   114    1    100.0    5 
 5/13/06  4:35p   23.5   23.5   23.5    92   22.1   4.8   SSE  0.40  12.9   ESE   23.5   25.1   25.1  1006.2  0.00   0.0   0.000   0.018   25.8    85   23.1   28.3   114    1    100.0    5 
 5/13/06  4:40p   23.6   23.6   23.5    92   22.2   4.8    SE  0.40  12.9   SSW   23.6   25.2   25.2  1006.2  0.00   0.0   0.000   0.018   25.8    86   23.3   28.4   114    1    100.0    5 
 5/13/06  4:45p   23.6   23.6   23.6    92   22.2   4.8   ESE  0.40  12.9     E   23.6   25.3   25.3  1006.1  0.00   0.0   0.000   0.018   25.7    86   23.2   28.2   114    1    100.0    5 
 5/13/06  4:50p   23.7   23.7   23.6    92   22.3   4.8    SE  0.40  19.3   SSE   23.7   25.4   25.4  1006.1  0.00   0.0   0.000   0.019   25.7    86   23.2   28.2   114    1    100.0    5 
 5/13/06  4:55p   23.7   23.8   23.7    92   22.3   4.8   SSE  0.40  12.9   SSE   23.7   25.6   25.6  1006.1  0.00   0.0   0.000   0.019   25.7    87   23.4   28.3   114    1    100.0    5 
 5/13/06  5:00p   23.8   23.8   23.8    92   22.4   4.8    SE  0.40  16.1     S   23.8   25.6   25.6  1006.1  0.00   0.0   0.000   0.019   25.7    87   23.4   28.3   114    1    100.0    5 
 5/13/06  5:05p   23.9   23.9   23.8    91   22.3   4.8   SSE  0.40  11.3   SSE   23.9   25.8   25.8  1006.1  0.00   0.0   0.000   0.019   25.7    87   23.4   28.3   114    1    100.0    5 
 5/13/06  5:10p   23.9   23.9   23.9    91   22.3   4.8   SSE  0.40  17.7   SSE   23.9   25.8   25.8  1006.1  0.00   0.0   0.000   0.019   25.7    87   23.4   28.3   114    1    100.0    5 
 5/13/06  5:15p   23.9   24.0   23.9    90   22.1   3.2    SE  0.27  12.9     S   23.9   25.8   25.8  1006.3  0.00   0.0   0.000   0.019   25.7    87   23.4   28.3   114    1    100.0    5 
 5/13/06  5:20p   24.0   24.0   24.0    90   22.3   3.2    SE  0.27  11.3     S   24.0   25.9   25.9  1006.3  0.00   0.0   0.000   0.020   25.7    87   23.4   28.3   114    1    100.0    5 
 5/13/06  5:25p   24.0   24.1   24.0    90   22.3   3.2   SSE  0.27  16.1     S   24.0   25.9   25.9  1006.3  0.00   0.0   0.000   0.020   25.7    90   24.0   28.6   114    1    100.0    5 
 5/13/06  5:30p   24.1   24.1   24.0    89   22.1   3.2   SSE  0.27  11.3     S   24.1   25.9   25.9  1006.7  0.00   0.0   0.000   0.020   25.8    89   23.9   28.7   114    1    100.0    5 
 5/13/06  5:35p   24.1   24.1   24.1    89   22.1   4.8   SSE  0.40  12.9   SSW   24.1   25.9   25.9  1006.7  0.00   0.0   0.000   0.020   25.8    88   23.6   28.4   114    1    100.0    5 
 5/13/06  5:40p   24.1   24.2   24.1    89   22.1   4.8    SE  0.40  16.1    SE   24.1   25.9   25.9  1006.7  0.00   0.0   0.000   0.020   25.7    88   23.6   28.4   114    1    100.0    5 
 5/13/06  5:45p   24.2   24.2   24.2    88   22.1   4.8    SE  0.40  12.9   ESE   24.2   26.0   26.0  1007.1  0.00   0.0   0.000   0.020   25.7    87   23.4   28.3   114    1    100.0    5 
 5/13/06  5:50p   24.2   24.3   24.2    88   22.1   4.8    SE  0.40  19.3    SE   24.2   26.1   26.1  1007.1  0.00   0.0   0.000   0.020   25.7    87   23.4   28.3   114    1    100.0    5 
 5/13/06  5:55p   24.3   24.3   24.3    88   22.2   4.8    SE  0.40  17.7   ESE   24.3   26.1   26.1  1007.1  0.00   0.0   0.000   0.021   25.7    87   23.4   28.3   114    1    100.0    5 
 5/13/06  6:00p   24.3   24.4   24.3    88   22.2   6.4   ESE  0.54  16.1   ESE   24.3   26.2   26.2  1007.4  0.00   0.0   0.000   0.021   25.7    87   23.4   28.3   114    1    100.0    5 
 5/13/06  6:05p   24.4   24.4   24.4    87   22.1   4.8   ESE  0.40  17.7    SE   24.4   26.2   26.2  1007.4  0.00   0.0   0.000   0.021   25.7    87   23.3   28.2   114    1    100.0    5 
 5/13/06  6:10p   24.4   24.4   24.4    87   22.1   4.8    SE  0.40  16.1     E   24.4   26.3   26.3  1007.4  0.00   0.0   0.000   0.021   25.6    87   23.3   28.1   114    1    100.0    5 
 5/13/06  6:15p   24.5   24.6   24.4    87   22.2   4.8    SE  0.40  11.3   ESE   24.5   26.4   26.4  1007.6  0.00   0.0   0.000   0.021   25.6    88   23.5   28.2   114    1    100.0    5 
 5/13/06  6:20p   24.6   24.7   24.6    87   22.2   4.8   SSE  0.40  12.9    SE   24.6   26.4   26.4  1007.6  0.00   0.0   0.000   0.022   25.6    88   23.5   28.2   114    1    100.0    5 
 5/13/06  6:25p   24.7   24.7   24.7    86   22.2   3.2    SE  0.27  12.9   ESE   24.7   26.6   26.6  1007.6  0.00   0.0   0.000   0.022   25.6    88   23.5   28.2   114    1    100.0    5 
 5/13/06  6:30p   24.7   24.8   24.7    86   22.2   4.8   SSE  0.40  16.1    SE   24.7   26.7   26.7  1008.0  0.00   0.0   0.000   0.022   25.6    88   23.5   28.2   114    1    100.0    5 
 5/13/06  6:35p   24.8   24.8   24.8    85   22.1   3.2    SE  0.27  14.5    SE   24.8   26.7   26.7  1008.0  0.00   0.0   0.000   0.022   25.6    88   23.5   28.2   114    1    100.0    5 
 5/13/06  6:40p   24.8   24.8   24.8    85   22.1   1.6    SE  0.13   9.7     E   24.8   26.8   26.8  1008.0  0.00   0.0   0.000   0.023   25.6    88   23.5   28.2   114    1    100.0    5 
 5/13/06  6:45p   24.8   24.8   24.8    85   22.1   3.2   SSE  0.27  11.3     E   24.8   26.8   26.8  1008.1  0.00   0.0   0.000   0.023   25.6    88   23.5   28.2   114    1    100.0    5 
 5/13/06  6:50p   24.8   24.9   24.8    84   21.9   3.2   ESE  0.27   9.7    SE   24.8   26.7   26.7  1008.1  0.00   0.0   0.000   0.023   25.6    89   23.7   28.2   114    1    100.0    5 
 5/13/06  6:55p   24.9   24.9   24.9    84   22.1   1.6     S  0.13  11.3    SE   24.9   26.8   26.8  1008.1  0.00   0.0   0.000   0.023   25.7    89   23.8   28.4   114    1    100.0    5 
 5/13/06  7:00p   24.9   24.9   24.9    84   22.1   1.6   SSE  0.13   4.8    SE   24.9   26.8   26.8  1008.5  0.00   0.0   0.000   0.023   25.8    89   23.9   28.7   113    1     99.1    5 
 5/13/06  7:05p   24.9   24.9   24.8    85   22.2   1.6   SSE  0.13   4.8   SSE   24.9   26.8   26.8  1008.5  0.00   0.0   0.000   0.023   25.8    88   23.7   28.6   114    1    100.0    5 
 5/13/06  7:10p   24.8   24.8   24.8    86   22.3   0.0   SSE  0.00   3.2   SSE   24.8   26.8   26.8  1008.5  0.00   0.0   0.000   0.023   25.9    88   23.8   28.8   114    1    100.0    5 
 5/13/06  7:15p   24.8   24.8   24.8    86   22.3   0.0   SSE  0.00   3.2   SSE   24.8   26.7   26.7  1008.7  0.00   0.0   0.000   0.022   25.9    88   23.8   28.8   114    1    100.0    5 
 5/13/06  7:20p   24.8   24.8   24.8    87   22.5   1.6   SSE  0.13   4.8   SSE   24.8   26.8   26.8  1008.7  0.00   0.0   0.000   0.022   25.9    89   24.0   28.8   114    1    100.0    5 
 5/13/06  7:25p   24.7   24.8   24.7    88   22.5   1.6   SSE  0.13   4.8   SSE   24.7   26.7   26.7  1008.7  0.00   0.0   0.000   0.022   25.9    89   24.0   28.8   114    1    100.0    5 
 5/13/06  7:30p   24.6   24.7   24.6    88   22.5   1.6    SE  0.13   4.8   SSE   24.6   26.6   26.6  1008.9  0.00   0.0   0.000   0.022   26.1    89   24.1   29.1   114    1    100.0    5 
 5/13/06  7:35p   24.6   24.6   24.6    88   22.4   3.2     S  0.27  11.3     S   24.6   26.5   26.5  1008.9  0.00   0.0   0.000   0.022   26.1    89   24.1   29.1   114    1    100.0    5 
 5/13/06  7:40p   24.6   24.6   24.4    87   22.2   0.0   SSW  0.00   4.8   SSW   24.6   26.4   26.4  1008.9  0.00   0.0   0.000   0.022   26.1    89   24.1   29.1   114    1    100.0    5 
 5/13/06  7:45p   24.4   24.4   24.4    87   22.1   1.6    SE  0.13   8.0   SSE   24.4   26.3   26.3  1009.0  0.00   0.0   0.000   0.021   26.1    89   24.1   29.1   114    1    100.0    5 
 5/13/06  7:50p   24.4   24.4   24.4    87   22.1   1.6   SSE  0.13   4.8   SSE   24.4   26.2   26.2  1009.0  0.00   0.0   0.000   0.021   26.1    89   24.1   29.1   114    1    100.0    5 
 5/13/06  7:55p   24.4   24.4   24.4    87   22.1   3.2    SE  0.27   9.7   ESE   24.4   26.3   26.3  1009.0  0.00   0.0   0.000   0.021   26.1    89   24.1   29.1   114    1    100.0    5 
 5/13/06  8:00p   24.4   24.4   24.4    86   21.9   1.6   SSE  0.13   4.8   SSE   24.4   26.3   26.3  1009.1  0.00   0.0   0.000   0.021   26.1    88   23.9   28.9   114    1    100.0    5 
 5/13/06  8:05p   24.5   24.6   24.4    86   22.0   3.2    SE  0.27   9.7   SSE   24.5   26.3   26.3  1009.1  0.00   0.0   0.000   0.021   26.1    88   23.9   28.9   114    1    100.0    5 
 5/13/06  8:10p   24.6   24.6   24.6    86   22.1   1.6     S  0.13   6.4     S   24.6   26.4   26.4  1009.1  0.00   0.0   0.000   0.022   26.1    88   23.9   28.9   114    1    100.0    5 
 5/13/06  8:15p   24.6   24.6   24.6    86   22.1   1.6   ESE  0.13   9.7   ESE   24.6   26.4   26.4  1009.2  0.00   0.0   0.000   0.022   26.1    88   23.9   28.9   114    1    100.0    5 
 5/13/06  8:20p   24.6   24.6   24.6    86   22.1   1.6   SSE  0.13   6.4   SSE   24.6   26.4   26.4  1009.2  0.00   0.0   0.000   0.022   26.1    88   23.9   28.9   114    1    100.0    5 
 5/13/06  8:25p   24.6   24.6   24.6    86   22.1   3.2   ESE  0.27  11.3   SSE   24.6   26.4   26.4  1009.2  0.00   0.0   0.000   0.022   26.1    88   23.9   28.9   114    1    100.0    5 
 5/13/06  8:30p   24.6   24.6   24.6    86   22.1   1.6   ESE  0.13   9.7    SE   24.6   26.4   26.4  1009.2  0.00   0.0   0.000   0.022   26.1    88   23.9   28.9   114    1    100.0    5 
 5/13/06  8:35p   24.6   24.7   24.6    86   22.1   1.6   SSE  0.13   9.7     S   24.6   26.5   26.5  1009.2  0.00   0.0   0.000   0.022   26.1    88   23.9   28.9   114    1    100.0    5 
 5/13/06  8:40p   24.7   24.7   24.7    85   22.0   3.2   ESE  0.27  11.3     S   24.7   26.6   26.6  1009.2  0.00   0.0   0.000   0.022   26.1    88   23.9   28.9   114    1    100.0    5 
 5/13/06  8:45p   24.7   24.7   24.7    85   22.0   3.2   ESE  0.27  11.3     E   24.7   26.6   26.6  1009.2  0.00   0.0   0.000   0.022   26.1    88   23.9   28.9   113    1     99.1    5 
 5/13/06  8:50p   24.7   24.8   24.7    85   22.0   1.6    SE  0.13   9.7    SE   24.7   26.6   26.6  1009.2  0.00   0.0   0.000   0.022   26.1    88   23.9   28.9   114    1    100.0    5 
 5/13/06  8:55p   24.8   24.8   24.8    85   22.1   3.2   ESE  0.27  11.3   SSE   24.8   26.7   26.7  1009.2  0.00   0.0   0.000   0.022   26.1    88   23.9   28.9   114    1    100.0    5 
 5/13/06  9:00p   24.8   24.8   24.8    84   21.9   3.2    SE  0.27  12.9     E   24.8   26.7   26.7  1009.5  0.00   0.0   0.000   0.023   26.1    88   23.9   28.9   114    1    100.0    5 
 5/13/06  9:05p   24.8   24.9   24.8    84   21.9   3.2   SSE  0.27  17.7    SE   24.8   26.7   26.7  1009.5  0.00   0.0   0.000   0.023   26.1    88   23.9   28.9   114    1    100.0    5 
 5/13/06  9:10p   24.9   24.9   24.9    84   22.1   1.6   SSE  0.13   9.7   ESE   24.9   26.8   26.8  1009.5  0.00   0.0   0.000   0.023   26.1    88   23.9   28.9   114    1    100.0    5 
 5/13/06  9:15p   25.0   25.1   24.9    84   22.1   3.2    SE  0.27  12.9   ESE   25.0   26.9   26.9  1009.5  0.00   0.0   0.000   0.023   26.1    88   23.9   28.9   114    1    100.0    5 
 5/13/06  9:20p   25.1   25.2   25.1    83   22.0   3.2   SSE  0.27  16.1    SE   25.1   27.1   27.1  1009.5  0.00   0.0   0.000   0.024   26.1    88   23.9   28.9   114    1    100.0    5 
 5/13/06  9:25p   25.2   25.2   25.2    83   22.1   3.2    SE  0.27  14.5    SE   25.2   27.1   27.1  1009.5  0.00   0.0   0.000   0.024   26.1    88   24.0   29.1   114    1    100.0    5 
 5/13/06  9:30p   25.2   25.2   25.2    83   22.1   3.2    SE  0.27  11.3     E   25.2   27.1   27.1  1009.6  0.00   0.0   0.000   0.024   26.2    88   24.0   29.2   114    1    100.0    5 
 5/13/06  9:35p   25.2   25.2   25.2    83   22.1   3.2    SE  0.27  12.9    SE   25.2   27.1   27.1  1009.6  0.00   0.0   0.000   0.024   26.2    88   24.0   29.2   112    1     98.2    5 
 5/13/06  9:40p   25.2   25.2   25.2    83   22.1   3.2    SE  0.27  11.3   SSE   25.2   27.1   27.1  1009.6  0.00   0.0   0.000   0.024   26.2    88   24.0   29.2   111    1     97.4    5 
 5/13/06  9:45p   25.2   25.2   25.2    83   22.1   1.6    SE  0.13  11.3    SE   25.2   27.1   27.1  1009.6  0.00   0.0   0.000   0.024   26.2    88   24.0   29.2   114    1    100.0    5 
 5/13/06  9:50p   25.2   25.2   25.2    83   22.1   3.2   ESE  0.27  11.3    SE   25.2   27.1   27.1  1009.6  0.00   0.0   0.000   0.024   26.2    88   24.0   29.2   114    1    100.0    5 
 5/13/06  9:55p   25.2   25.2   25.2    83   22.1   1.6   ESE  0.13   8.0   SSE   25.2   27.1   27.1  1009.6  0.00   0.0   0.000   0.024   26.2    88   24.0   29.2   114    1    100.0    5 
 5/13/06 10:00p   25.2   25.2   25.2    83   22.1   1.6   ESE  0.13   4.8     S   25.2   27.1   27.1  1009.5  0.00   0.0   0.000   0.024   26.2    88   24.1   29.3   114    1    100.0    5 
 5/13/06 10:05p   25.2   25.2   25.2    83   22.1   3.2    SE  0.27  11.3    SE   25.2   27.1   27.1  1009.5  0.00   0.0   0.000   0.024   26.2    88   24.1   29.3   114    1    100.0    5 
 5/13/06 10:10p   25.2   25.2   25.2    83   22.1   1.6   ESE  0.13  12.9    SE   25.2   27.1   27.1  1009.5  0.00   0.0   0.000   0.024   26.2    88   24.1   29.3   114    1    100.0    5 
 5/13/06 10:15p   25.2   25.2   25.2    83   22.1   1.6     S  0.13   9.7    SE   25.2   27.1   27.1  1009.4  0.00   0.0   0.000   0.024   26.2    87   23.9   29.2   114    1    100.0    5 
 5/13/06 10:20p   25.2   25.2   25.2    83   22.1   1.6   SSE  0.13   9.7     S   25.2   27.1   27.1  1009.4  0.00   0.0   0.000   0.024   26.2    87   23.9   29.2   114    1    100.0    5 
 5/13/06 10:25p   25.2   25.2   25.2    84   22.3   0.0   SSE  0.00   3.2   SSE   25.2   27.2   27.2  1009.4  0.00   0.0   0.000   0.024   26.2    87   23.9   29.2   114    1    100.0    5 
 5/13/06 10:30p   25.1   25.1   25.1    84   22.2   1.6   SSE  0.13   8.0   SSE   25.1   27.0   27.0  1009.2  0.00   0.0   0.000   0.023   26.2    87   23.9   29.2   114    1    100.0    5 
 5/13/06 10:35p   25.0   25.1   24.9    85   22.3   1.6   SSE  0.13   6.4   SSE   25.0   27.0   27.0  1009.2  0.00   0.0   0.000   0.023   26.2    88   24.1   29.3   114    1    100.0    5 
 5/13/06 10:40p   24.9   24.9   24.8    86   22.4   0.0   SSE  0.00   4.8   SSE   24.9   26.9   26.9  1009.2  0.00   0.0   0.000   0.023   26.2    88   24.0   29.2   114    1    100.0    5 
 5/13/06 10:45p   24.8   24.8   24.8    86   22.3   1.6     S  0.13   6.4   SSE   24.8   26.8   26.8  1009.3  0.00   0.0   0.000   0.023   26.2    88   24.0   29.2   115    1    100.0    5 
 5/13/06 10:50p   24.8   24.8   24.8    86   22.3   0.0   SSE  0.00   6.4   SSW   24.8   26.7   26.7  1009.3  0.00   0.0   0.000   0.022   26.2    88   24.0   29.2   114    1    100.0    5 
 5/13/06 10:55p   24.7   24.8   24.7    87   22.4   1.6   SSW  0.13   4.8     S   24.7   26.7   26.7  1009.3  0.00   0.0   0.000   0.022   26.2    88   24.0   29.2   114    1    100.0    5 
 5/13/06 11:00p   24.7   24.7   24.7    87   22.4   1.6     S  0.13   8.0   SSE   24.7   26.6   26.6  1009.2  0.00   0.0   0.000   0.022   26.2    88   24.0   29.2   114    1    100.0    5 
 5/13/06 11:05p   24.7   24.7   24.7    88   22.5   1.6   SSE  0.13   6.4    SE   24.7   26.7   26.7  1009.2  0.00   0.0   0.000   0.022   26.2    89   24.2   29.3   114    1    100.0    5 
 5/13/06 11:10p   24.6   24.7   24.6    88   22.4   1.6    SE  0.13   4.8    SE   24.6   26.5   26.5  1009.2  0.00   0.0   0.000   0.022   26.2    89   24.2   29.3   114    1    100.0    5 
 5/13/06 11:15p   24.6   24.6   24.6    88   22.4   0.0   SSE  0.00   4.8   SSE   24.6   26.5   26.5  1009.0  0.00   0.0   0.000   0.022   26.2    89   24.2   29.3   114    1    100.0    5 
 5/13/06 11:20p   24.6   24.6   24.6    88   22.4   0.0   ESE  0.00   4.8   ENE   24.6   26.5   26.5  1009.0  0.00   0.0   0.000   0.022   26.2    89   24.2   29.3   114    1    100.0    5 
 5/13/06 11:25p   24.6   24.7   24.6    88   22.5   1.6    SE  0.13   9.7     S   24.6   26.6   26.6  1009.0  0.00   0.0   0.000   0.022   26.2    89   24.2   29.3   114    1    100.0    5 
 5/13/06 11:30p   24.7   24.7   24.7    88   22.5   3.2     S  0.27  11.3     S   24.7   26.7   26.7  1008.8  0.00   0.0   0.000   0.022   26.2    89   24.2   29.3   114    1    100.0    5 
 5/13/06 11:35p   24.7   24.7   24.7    88   22.5   1.6    SE  0.13   8.0    SE   24.7   26.7   26.7  1008.8  0.00   0.0   0.000   0.022   26.1    89   24.2   29.2   114    1    100.0    5 
 5/13/06 11:40p   24.7   24.7   24.7    88   22.5   1.6    SE  0.13   9.7   ESE   24.7   26.7   26.7  1008.8  0.00   0.0   0.000   0.022   26.1    89   24.1   29.1   114    1    100.0    5 
 5/13/06 11:45p   24.7   24.7   24.7    88   22.5   3.2   SSE  0.27  11.3    SE   24.7   26.7   26.7  1008.6  0.00   0.0   0.000   0.022   26.1    89   24.1   29.1   114    1    100.0    5 
 5/13/06 11:50p   24.7   24.7   24.7    87   22.4   1.6   SSE  0.13   9.7     E   24.7   26.6   26.6  1008.6  0.00   0.0   0.000   0.022   26.1    89   24.1   29.1   114    1    100.0    5 
 5/13/06 11:55p   24.7   24.8   24.7    87   22.4   3.2   SSE  0.27  11.3   SSW   24.7   26.7   26.7  1008.6  0.00   0.0   0.000   0.022   26.1    89   24.1   29.1   114    1    100.0    5 
 5/14/06 12:00a   24.8   24.8   24.8    87   22.5   1.6   SSE  0.13  11.3   SSE   24.8   26.8   26.8  1008.3  0.00   0.0   0.000   0.022   26.1    89   24.1   29.1   114    1    100.0    5 
--------------------------------------------------------------------------------------------------------------------------------------------------------------------------------------------
Legend: Temperature in Celsius (C), Wind Speed in km/hr (kph), Barometer in millibars/hectopascals (mb/hPa), Rain in millimeters (mm), Humidity in percent (%).

::..Copyright 2006 David Michael V. Padua (Typhoon2000.com)  All Rights Reserved..::